<?xml version="1.0" encoding="UTF-8" standalone="no" ?>
<gpx xmlns="http://www.topografix.com/GPX/1/1" xmlns:xsi="http://www.w3.org/2001/XMLSchema-instance" xsi:schemaLocation="http://www.topografix.com/GPX/1/1 http://www.topografix.com/GPX/1/1/gpx.xsd" version="1.1" creator="VisuGPX - https://www.visugpx.com">
  <metadata>
    <name>Nez de boeufs 50 km 24</name>
    <desc><![CDATA[Trace VTT Nez de boeufs 2024 - 50 km - 900 m]]></desc>
  </metadata>
  <trk>
    <name><![CDATA[Copie de Sortie vtt avec la fine équipe:)]]></name>
    <trkseg>
      <trkpt lat="48.38088" lon="2.37774">
        <ele>69</ele>
        <time>2024-06-13T07:45:41.000Z</time>
      </trkpt>
      <trkpt lat="48.3808" lon="2.37772">
        <ele>69.22</ele>
        <time>2024-06-13T07:45:41.001Z</time>
      </trkpt>
      <trkpt lat="48.38071" lon="2.3777">
        <ele>69.38</ele>
        <time>2024-06-13T07:45:41.004Z</time>
      </trkpt>
      <trkpt lat="48.38062" lon="2.37767">
        <ele>69.46</ele>
        <time>2024-06-13T07:45:41.008Z</time>
      </trkpt>
      <trkpt lat="48.38036" lon="2.3776">
        <ele>69.6</ele>
        <time>2024-06-13T07:45:41.016Z</time>
      </trkpt>
      <trkpt lat="48.38027" lon="2.37758">
        <ele>69.69</ele>
        <time>2024-06-13T07:45:41.026Z</time>
      </trkpt>
      <trkpt lat="48.38018" lon="2.37756">
        <ele>69.82</ele>
        <time>2024-06-13T07:45:41.037Z</time>
      </trkpt>
      <trkpt lat="48.3801" lon="2.37753">
        <ele>69.98</ele>
        <time>2024-06-13T07:45:41.050Z</time>
      </trkpt>
      <trkpt lat="48.38008" lon="2.37753">
        <ele>70.02</ele>
        <time>2024-06-13T07:45:41.063Z</time>
      </trkpt>
      <trkpt lat="48.37989" lon="2.37753">
        <ele>70.51</ele>
        <time>2024-06-13T07:45:41.079Z</time>
      </trkpt>
      <trkpt lat="48.37987" lon="2.37754">
        <ele>70.56</ele>
        <time>2024-06-13T07:45:41.095Z</time>
      </trkpt>
      <trkpt lat="48.37979" lon="2.37757">
        <ele>70.73</ele>
        <time>2024-06-13T07:45:41.113Z</time>
      </trkpt>
      <trkpt lat="48.37974" lon="2.37759">
        <ele>70.79</ele>
        <time>2024-06-13T07:45:41.131Z</time>
      </trkpt>
      <trkpt lat="48.3797" lon="2.37761">
        <ele>70.82</ele>
        <time>2024-06-13T07:45:41.150Z</time>
      </trkpt>
      <trkpt lat="48.37965" lon="2.37763">
        <ele>70.82</ele>
        <time>2024-06-13T07:45:41.170Z</time>
      </trkpt>
      <trkpt lat="48.37961" lon="2.37764">
        <ele>70.83</ele>
        <time>2024-06-13T07:45:41.191Z</time>
      </trkpt>
      <trkpt lat="48.37957" lon="2.37765">
        <ele>70.79</ele>
        <time>2024-06-13T07:45:41.212Z</time>
      </trkpt>
      <trkpt lat="48.37948" lon="2.37766">
        <ele>70.65</ele>
        <time>2024-06-13T07:45:41.235Z</time>
      </trkpt>
      <trkpt lat="48.37944" lon="2.37767">
        <ele>70.54</ele>
        <time>2024-06-13T07:45:41.259Z</time>
      </trkpt>
      <trkpt lat="48.37921" lon="2.37772">
        <ele>69.92</ele>
        <time>2024-06-13T07:45:41.286Z</time>
      </trkpt>
      <trkpt lat="48.37904" lon="2.37775">
        <ele>69.39</ele>
        <time>2024-06-13T07:45:41.316Z</time>
      </trkpt>
      <trkpt lat="48.37899" lon="2.37776">
        <ele>69.28</ele>
        <time>2024-06-13T07:45:41.347Z</time>
      </trkpt>
      <trkpt lat="48.3789" lon="2.37778">
        <ele>69.13</ele>
        <time>2024-06-13T07:45:41.379Z</time>
      </trkpt>
      <trkpt lat="48.37886" lon="2.37779">
        <ele>69.07</ele>
        <time>2024-06-13T07:45:41.412Z</time>
      </trkpt>
      <trkpt lat="48.37877" lon="2.37781">
        <ele>69</ele>
        <time>2024-06-13T07:45:41.446Z</time>
      </trkpt>
      <trkpt lat="48.37856" lon="2.37785">
        <ele>68.92</ele>
        <time>2024-06-13T07:45:41.484Z</time>
      </trkpt>
      <trkpt lat="48.37855" lon="2.37785">
        <ele>68.92</ele>
        <time>2024-06-13T07:45:41.522Z</time>
      </trkpt>
      <trkpt lat="48.37837" lon="2.37787">
        <ele>68.75</ele>
        <time>2024-06-13T07:45:41.563Z</time>
      </trkpt>
      <trkpt lat="48.37824" lon="2.37789">
        <ele>68.65</ele>
        <time>2024-06-13T07:45:41.606Z</time>
      </trkpt>
      <trkpt lat="48.37815" lon="2.37789">
        <ele>68.63</ele>
        <time>2024-06-13T07:45:41.650Z</time>
      </trkpt>
      <trkpt lat="48.3781" lon="2.3779">
        <ele>68.65</ele>
        <time>2024-06-13T07:45:41.695Z</time>
      </trkpt>
      <trkpt lat="48.37801" lon="2.37791">
        <ele>68.75</ele>
        <time>2024-06-13T07:45:41.741Z</time>
      </trkpt>
      <trkpt lat="48.37792" lon="2.37791">
        <ele>68.93</ele>
        <time>2024-06-13T07:45:41.789Z</time>
      </trkpt>
      <trkpt lat="48.3777" lon="2.37792">
        <ele>69.44</ele>
        <time>2024-06-13T07:45:41.840Z</time>
      </trkpt>
      <trkpt lat="48.37765" lon="2.37793">
        <ele>69.52</ele>
        <time>2024-06-13T07:45:41.892Z</time>
      </trkpt>
      <trkpt lat="48.37761" lon="2.37793">
        <ele>69.57</ele>
        <time>2024-06-13T07:45:41.945Z</time>
      </trkpt>
      <trkpt lat="48.37752" lon="2.37793">
        <ele>69.6</ele>
        <time>2024-06-13T07:45:41.999Z</time>
      </trkpt>
      <trkpt lat="48.37743" lon="2.37794">
        <ele>69.57</ele>
        <time>2024-06-13T07:45:42.055Z</time>
      </trkpt>
      <trkpt lat="48.37721" lon="2.37798">
        <ele>69.5</ele>
        <time>2024-06-13T07:45:42.114Z</time>
      </trkpt>
      <trkpt lat="48.37712" lon="2.37799">
        <ele>69.51</ele>
        <time>2024-06-13T07:45:42.175Z</time>
      </trkpt>
      <trkpt lat="48.3769" lon="2.37802">
        <ele>69.59</ele>
        <time>2024-06-13T07:45:42.239Z</time>
      </trkpt>
      <trkpt lat="48.37665" lon="2.37806">
        <ele>69.62</ele>
        <time>2024-06-13T07:45:42.307Z</time>
      </trkpt>
      <trkpt lat="48.37656" lon="2.37808">
        <ele>69.66</ele>
        <time>2024-06-13T07:45:42.377Z</time>
      </trkpt>
      <trkpt lat="48.37643" lon="2.3781">
        <ele>69.78</ele>
        <time>2024-06-13T07:45:42.449Z</time>
      </trkpt>
      <trkpt lat="48.3763" lon="2.37812">
        <ele>69.94</ele>
        <time>2024-06-13T07:45:42.523Z</time>
      </trkpt>
      <trkpt lat="48.37614" lon="2.37811">
        <ele>70.25</ele>
        <time>2024-06-13T07:45:42.600Z</time>
      </trkpt>
      <trkpt lat="48.37613" lon="2.37811">
        <ele>70.25</ele>
        <time>2024-06-13T07:45:42.677Z</time>
      </trkpt>
      <trkpt lat="48.37605" lon="2.37816">
        <ele>70.36</ele>
        <time>2024-06-13T07:45:42.755Z</time>
      </trkpt>
      <trkpt lat="48.37601" lon="2.37818">
        <ele>70.39</ele>
        <time>2024-06-13T07:45:42.834Z</time>
      </trkpt>
      <trkpt lat="48.37593" lon="2.37822">
        <ele>70.42</ele>
        <time>2024-06-13T07:45:42.914Z</time>
      </trkpt>
      <trkpt lat="48.3758" lon="2.37829">
        <ele>70.39</ele>
        <time>2024-06-13T07:45:42.996Z</time>
      </trkpt>
      <trkpt lat="48.37572" lon="2.3783">
        <ele>70.38</ele>
        <time>2024-06-13T07:45:43.080Z</time>
      </trkpt>
      <trkpt lat="48.37563" lon="2.37831">
        <ele>70.41</ele>
        <time>2024-06-13T07:45:43.165Z</time>
      </trkpt>
      <trkpt lat="48.37554" lon="2.37832">
        <ele>70.49</ele>
        <time>2024-06-13T07:45:43.251Z</time>
      </trkpt>
      <trkpt lat="48.37546" lon="2.37834">
        <ele>70.62</ele>
        <time>2024-06-13T07:45:43.339Z</time>
      </trkpt>
      <trkpt lat="48.37543" lon="2.37834">
        <ele>70.67</ele>
        <time>2024-06-13T07:45:43.427Z</time>
      </trkpt>
      <trkpt lat="48.37533" lon="2.37829">
        <ele>70.87</ele>
        <time>2024-06-13T07:45:43.517Z</time>
      </trkpt>
      <trkpt lat="48.37532" lon="2.37829">
        <ele>70.91</ele>
        <time>2024-06-13T07:45:43.607Z</time>
      </trkpt>
      <trkpt lat="48.37523" lon="2.3782">
        <ele>71.38</ele>
        <time>2024-06-13T07:45:43.699Z</time>
      </trkpt>
      <trkpt lat="48.37515" lon="2.37813">
        <ele>71.63</ele>
        <time>2024-06-13T07:45:43.792Z</time>
      </trkpt>
      <trkpt lat="48.37502" lon="2.37814">
        <ele>71.52</ele>
        <time>2024-06-13T07:45:43.887Z</time>
      </trkpt>
      <trkpt lat="48.37459" lon="2.37824">
        <ele>71.21</ele>
        <time>2024-06-13T07:45:43.989Z</time>
      </trkpt>
      <trkpt lat="48.37454" lon="2.37825">
        <ele>71.18</ele>
        <time>2024-06-13T07:45:44.092Z</time>
      </trkpt>
      <trkpt lat="48.37442" lon="2.37828">
        <ele>71.12</ele>
        <time>2024-06-13T07:45:44.197Z</time>
      </trkpt>
      <trkpt lat="48.37421" lon="2.37834">
        <ele>71.1</ele>
        <time>2024-06-13T07:45:44.306Z</time>
      </trkpt>
      <trkpt lat="48.37377" lon="2.37845">
        <ele>71.21</ele>
        <time>2024-06-13T07:45:44.422Z</time>
      </trkpt>
      <trkpt lat="48.37374" lon="2.37834">
        <ele>71.72</ele>
        <time>2024-06-13T07:45:44.539Z</time>
      </trkpt>
      <trkpt lat="48.37372" lon="2.37828">
        <ele>72.03</ele>
        <time>2024-06-13T07:45:44.657Z</time>
      </trkpt>
      <trkpt lat="48.3737" lon="2.37823">
        <ele>72.37</ele>
        <time>2024-06-13T07:45:44.775Z</time>
      </trkpt>
      <trkpt lat="48.37366" lon="2.37811">
        <ele>73.16</ele>
        <time>2024-06-13T07:45:44.895Z</time>
      </trkpt>
      <trkpt lat="48.37363" lon="2.378">
        <ele>74.01</ele>
        <time>2024-06-13T07:45:45.016Z</time>
      </trkpt>
      <trkpt lat="48.37359" lon="2.37788">
        <ele>74.72</ele>
        <time>2024-06-13T07:45:45.138Z</time>
      </trkpt>
      <trkpt lat="48.37359" lon="2.37788">
        <ele>74.72</ele>
        <time>2024-06-13T07:45:45.260Z</time>
      </trkpt>
      <trkpt lat="48.37359" lon="2.37781">
        <ele>75.1</ele>
        <time>2024-06-13T07:45:45.383Z</time>
      </trkpt>
      <trkpt lat="48.37357" lon="2.37761">
        <ele>76.35</ele>
        <time>2024-06-13T07:45:45.508Z</time>
      </trkpt>
      <trkpt lat="48.37356" lon="2.37748">
        <ele>77.26</ele>
        <time>2024-06-13T07:45:45.635Z</time>
      </trkpt>
      <trkpt lat="48.37355" lon="2.37735">
        <ele>78.2</ele>
        <time>2024-06-13T07:45:45.763Z</time>
      </trkpt>
      <trkpt lat="48.37354" lon="2.37722">
        <ele>79.19</ele>
        <time>2024-06-13T07:45:45.892Z</time>
      </trkpt>
      <trkpt lat="48.37354" lon="2.37715">
        <ele>79.72</ele>
        <time>2024-06-13T07:45:46.022Z</time>
      </trkpt>
      <trkpt lat="48.37353" lon="2.37702">
        <ele>80.86</ele>
        <time>2024-06-13T07:45:46.154Z</time>
      </trkpt>
      <trkpt lat="48.37353" lon="2.37696">
        <ele>81.47</ele>
        <time>2024-06-13T07:45:46.286Z</time>
      </trkpt>
      <trkpt lat="48.37352" lon="2.37683">
        <ele>82.79</ele>
        <time>2024-06-13T07:45:46.420Z</time>
      </trkpt>
      <trkpt lat="48.37351" lon="2.37672">
        <ele>83.87</ele>
        <time>2024-06-13T07:45:46.555Z</time>
      </trkpt>
      <trkpt lat="48.37352" lon="2.37656">
        <ele>85.49</ele>
        <time>2024-06-13T07:45:46.692Z</time>
      </trkpt>
      <trkpt lat="48.37353" lon="2.37643">
        <ele>86.79</ele>
        <time>2024-06-13T07:45:46.830Z</time>
      </trkpt>
      <trkpt lat="48.37354" lon="2.37623">
        <ele>88.6</ele>
        <time>2024-06-13T07:45:46.970Z</time>
      </trkpt>
      <trkpt lat="48.37355" lon="2.37596">
        <ele>90.91</ele>
        <time>2024-06-13T07:45:47.113Z</time>
      </trkpt>
      <trkpt lat="48.37353" lon="2.37584">
        <ele>92.29</ele>
        <time>2024-06-13T07:45:47.257Z</time>
      </trkpt>
      <trkpt lat="48.37353" lon="2.37577">
        <ele>93.03</ele>
        <time>2024-06-13T07:45:47.402Z</time>
      </trkpt>
      <trkpt lat="48.37352" lon="2.37572">
        <ele>93.83</ele>
        <time>2024-06-13T07:45:47.548Z</time>
      </trkpt>
      <trkpt lat="48.37351" lon="2.37571">
        <ele>93.83</ele>
        <time>2024-06-13T07:45:47.694Z</time>
      </trkpt>
      <trkpt lat="48.37348" lon="2.37566">
        <ele>94.69</ele>
        <time>2024-06-13T07:45:47.840Z</time>
      </trkpt>
      <trkpt lat="48.37342" lon="2.37557">
        <ele>96.5</ele>
        <time>2024-06-13T07:45:47.988Z</time>
      </trkpt>
      <trkpt lat="48.37334" lon="2.3755">
        <ele>98.36</ele>
        <time>2024-06-13T07:45:48.137Z</time>
      </trkpt>
      <trkpt lat="48.37326" lon="2.37544">
        <ele>100.1</ele>
        <time>2024-06-13T07:45:48.288Z</time>
      </trkpt>
      <trkpt lat="48.37324" lon="2.37542">
        <ele>100.59</ele>
        <time>2024-06-13T07:45:48.439Z</time>
      </trkpt>
      <trkpt lat="48.37317" lon="2.37534">
        <ele>102.2</ele>
        <time>2024-06-13T07:45:48.592Z</time>
      </trkpt>
      <trkpt lat="48.37316" lon="2.37532">
        <ele>102.54</ele>
        <time>2024-06-13T07:45:48.745Z</time>
      </trkpt>
      <trkpt lat="48.37313" lon="2.37526">
        <ele>103.31</ele>
        <time>2024-06-13T07:45:48.899Z</time>
      </trkpt>
      <trkpt lat="48.37308" lon="2.37515">
        <ele>104.78</ele>
        <time>2024-06-13T07:45:49.054Z</time>
      </trkpt>
      <trkpt lat="48.37309" lon="2.37509">
        <ele>105.48</ele>
        <time>2024-06-13T07:45:49.210Z</time>
      </trkpt>
      <trkpt lat="48.37309" lon="2.37502">
        <ele>106.14</ele>
        <time>2024-06-13T07:45:49.366Z</time>
      </trkpt>
      <trkpt lat="48.3731" lon="2.37496">
        <ele>106.75</ele>
        <time>2024-06-13T07:45:49.523Z</time>
      </trkpt>
      <trkpt lat="48.37311" lon="2.37482">
        <ele>107.84</ele>
        <time>2024-06-13T07:45:49.682Z</time>
      </trkpt>
      <trkpt lat="48.37314" lon="2.37442">
        <ele>110.83</ele>
        <time>2024-06-13T07:45:49.845Z</time>
      </trkpt>
      <trkpt lat="48.37316" lon="2.37422">
        <ele>112.28</ele>
        <time>2024-06-13T07:45:50.010Z</time>
      </trkpt>
      <trkpt lat="48.37318" lon="2.37402">
        <ele>113.67</ele>
        <time>2024-06-13T07:45:50.177Z</time>
      </trkpt>
      <trkpt lat="48.37319" lon="2.37391">
        <ele>114.39</ele>
        <time>2024-06-13T07:45:50.345Z</time>
      </trkpt>
      <trkpt lat="48.3732" lon="2.37389">
        <ele>114.55</ele>
        <time>2024-06-13T07:45:50.514Z</time>
      </trkpt>
      <trkpt lat="48.37322" lon="2.37383">
        <ele>114.97</ele>
        <time>2024-06-13T07:45:50.683Z</time>
      </trkpt>
      <trkpt lat="48.37324" lon="2.37377">
        <ele>115.36</ele>
        <time>2024-06-13T07:45:50.853Z</time>
      </trkpt>
      <trkpt lat="48.37326" lon="2.37371">
        <ele>115.72</ele>
        <time>2024-06-13T07:45:51.024Z</time>
      </trkpt>
      <trkpt lat="48.37328" lon="2.37364">
        <ele>116.03</ele>
        <time>2024-06-13T07:45:51.196Z</time>
      </trkpt>
      <trkpt lat="48.37331" lon="2.3736">
        <ele>116.32</ele>
        <time>2024-06-13T07:45:51.368Z</time>
      </trkpt>
      <trkpt lat="48.37346" lon="2.37335">
        <ele>117.58</ele>
        <time>2024-06-13T07:45:51.544Z</time>
      </trkpt>
      <trkpt lat="48.37352" lon="2.37325">
        <ele>118.14</ele>
        <time>2024-06-13T07:45:51.721Z</time>
      </trkpt>
      <trkpt lat="48.37355" lon="2.37321">
        <ele>118.43</ele>
        <time>2024-06-13T07:45:51.899Z</time>
      </trkpt>
      <trkpt lat="48.37357" lon="2.37315">
        <ele>118.79</ele>
        <time>2024-06-13T07:45:52.078Z</time>
      </trkpt>
      <trkpt lat="48.37364" lon="2.37296">
        <ele>119.83</ele>
        <time>2024-06-13T07:45:52.259Z</time>
      </trkpt>
      <trkpt lat="48.37365" lon="2.37284">
        <ele>120.21</ele>
        <time>2024-06-13T07:45:52.441Z</time>
      </trkpt>
      <trkpt lat="48.37367" lon="2.37264">
        <ele>120.75</ele>
        <time>2024-06-13T07:45:52.625Z</time>
      </trkpt>
      <trkpt lat="48.37369" lon="2.37244">
        <ele>121.35</ele>
        <time>2024-06-13T07:45:52.812Z</time>
      </trkpt>
      <trkpt lat="48.3737" lon="2.37237">
        <ele>121.52</ele>
        <time>2024-06-13T07:45:52.999Z</time>
      </trkpt>
      <trkpt lat="48.37371" lon="2.37224">
        <ele>121.8</ele>
        <time>2024-06-13T07:45:53.188Z</time>
      </trkpt>
      <trkpt lat="48.37374" lon="2.37197">
        <ele>122.32</ele>
        <time>2024-06-13T07:45:53.380Z</time>
      </trkpt>
      <trkpt lat="48.37376" lon="2.37184">
        <ele>122.53</ele>
        <time>2024-06-13T07:45:53.573Z</time>
      </trkpt>
      <trkpt lat="48.37377" lon="2.3717">
        <ele>122.72</ele>
        <time>2024-06-13T07:45:53.768Z</time>
      </trkpt>
      <trkpt lat="48.37381" lon="2.37124">
        <ele>123.38</ele>
        <time>2024-06-13T07:45:53.968Z</time>
      </trkpt>
      <trkpt lat="48.37382" lon="2.37104">
        <ele>123.64</ele>
        <time>2024-06-13T07:45:54.170Z</time>
      </trkpt>
      <trkpt lat="48.37383" lon="2.3709">
        <ele>123.8</ele>
        <time>2024-06-13T07:45:54.373Z</time>
      </trkpt>
      <trkpt lat="48.37385" lon="2.37077">
        <ele>123.92</ele>
        <time>2024-06-13T07:45:54.578Z</time>
      </trkpt>
      <trkpt lat="48.37385" lon="2.37071">
        <ele>123.94</ele>
        <time>2024-06-13T07:45:54.783Z</time>
      </trkpt>
      <trkpt lat="48.37385" lon="2.37063">
        <ele>123.98</ele>
        <time>2024-06-13T07:45:54.989Z</time>
      </trkpt>
      <trkpt lat="48.37386" lon="2.37023">
        <ele>123.99</ele>
        <time>2024-06-13T07:45:55.199Z</time>
      </trkpt>
      <trkpt lat="48.37387" lon="2.36989">
        <ele>124.03</ele>
        <time>2024-06-13T07:45:55.413Z</time>
      </trkpt>
      <trkpt lat="48.37388" lon="2.36956">
        <ele>123.96</ele>
        <time>2024-06-13T07:45:55.631Z</time>
      </trkpt>
      <trkpt lat="48.37388" lon="2.36942">
        <ele>123.92</ele>
        <time>2024-06-13T07:45:55.850Z</time>
      </trkpt>
      <trkpt lat="48.3739" lon="2.36875">
        <ele>123.64</ele>
        <time>2024-06-13T07:45:56.076Z</time>
      </trkpt>
      <trkpt lat="48.37391" lon="2.36841">
        <ele>123.47</ele>
        <time>2024-06-13T07:45:56.306Z</time>
      </trkpt>
      <trkpt lat="48.37392" lon="2.36801">
        <ele>123.32</ele>
        <time>2024-06-13T07:45:56.540Z</time>
      </trkpt>
      <trkpt lat="48.37392" lon="2.36787">
        <ele>123.29</ele>
        <time>2024-06-13T07:45:56.775Z</time>
      </trkpt>
      <trkpt lat="48.37393" lon="2.36767">
        <ele>123.28</ele>
        <time>2024-06-13T07:45:57.013Z</time>
      </trkpt>
      <trkpt lat="48.37393" lon="2.36754">
        <ele>123.25</ele>
        <time>2024-06-13T07:45:57.252Z</time>
      </trkpt>
      <trkpt lat="48.37394" lon="2.3672">
        <ele>123.07</ele>
        <time>2024-06-13T07:45:57.495Z</time>
      </trkpt>
      <trkpt lat="48.37395" lon="2.36659">
        <ele>122.94</ele>
        <time>2024-06-13T07:45:57.744Z</time>
      </trkpt>
      <trkpt lat="48.37396" lon="2.36626">
        <ele>122.98</ele>
        <time>2024-06-13T07:45:57.997Z</time>
      </trkpt>
      <trkpt lat="48.37397" lon="2.36592">
        <ele>123.09</ele>
        <time>2024-06-13T07:45:58.253Z</time>
      </trkpt>
      <trkpt lat="48.37397" lon="2.36578">
        <ele>123.12</ele>
        <time>2024-06-13T07:45:58.511Z</time>
      </trkpt>
      <trkpt lat="48.37398" lon="2.36545">
        <ele>123.09</ele>
        <time>2024-06-13T07:45:58.772Z</time>
      </trkpt>
      <trkpt lat="48.37399" lon="2.36518">
        <ele>123.1</ele>
        <time>2024-06-13T07:45:59.036Z</time>
      </trkpt>
      <trkpt lat="48.374" lon="2.36491">
        <ele>123.05</ele>
        <time>2024-06-13T07:45:59.303Z</time>
      </trkpt>
      <trkpt lat="48.374" lon="2.36478">
        <ele>123.06</ele>
        <time>2024-06-13T07:45:59.572Z</time>
      </trkpt>
      <trkpt lat="48.37401" lon="2.3645">
        <ele>123.15</ele>
        <time>2024-06-13T07:45:59.843Z</time>
      </trkpt>
      <trkpt lat="48.37401" lon="2.36423">
        <ele>123.2</ele>
        <time>2024-06-13T07:46:00.117Z</time>
      </trkpt>
      <trkpt lat="48.37402" lon="2.3639">
        <ele>123.33</ele>
        <time>2024-06-13T07:46:00.395Z</time>
      </trkpt>
      <trkpt lat="48.37403" lon="2.3637">
        <ele>123.38</ele>
        <time>2024-06-13T07:46:00.675Z</time>
      </trkpt>
      <trkpt lat="48.37404" lon="2.36309">
        <ele>123.42</ele>
        <time>2024-06-13T07:46:00.962Z</time>
      </trkpt>
      <trkpt lat="48.37405" lon="2.36282">
        <ele>123.46</ele>
        <time>2024-06-13T07:46:01.251Z</time>
      </trkpt>
      <trkpt lat="48.37406" lon="2.36248">
        <ele>123.46</ele>
        <time>2024-06-13T07:46:01.544Z</time>
      </trkpt>
      <trkpt lat="48.37406" lon="2.36215">
        <ele>123.53</ele>
        <time>2024-06-13T07:46:01.841Z</time>
      </trkpt>
      <trkpt lat="48.37407" lon="2.36201">
        <ele>123.52</ele>
        <time>2024-06-13T07:46:02.139Z</time>
      </trkpt>
      <trkpt lat="48.37407" lon="2.36188">
        <ele>123.45</ele>
        <time>2024-06-13T07:46:02.438Z</time>
      </trkpt>
      <trkpt lat="48.37409" lon="2.3612">
        <ele>122.97</ele>
        <time>2024-06-13T07:46:02.745Z</time>
      </trkpt>
      <trkpt lat="48.37409" lon="2.36107">
        <ele>122.89</ele>
        <time>2024-06-13T07:46:03.053Z</time>
      </trkpt>
      <trkpt lat="48.37409" lon="2.36093">
        <ele>122.86</ele>
        <time>2024-06-13T07:46:03.363Z</time>
      </trkpt>
      <trkpt lat="48.3741" lon="2.3606">
        <ele>122.84</ele>
        <time>2024-06-13T07:46:03.676Z</time>
      </trkpt>
      <trkpt lat="48.37411" lon="2.36033">
        <ele>122.88</ele>
        <time>2024-06-13T07:46:03.992Z</time>
      </trkpt>
      <trkpt lat="48.37411" lon="2.36019">
        <ele>122.94</ele>
        <time>2024-06-13T07:46:04.309Z</time>
      </trkpt>
      <trkpt lat="48.37412" lon="2.35992">
        <ele>123.2</ele>
        <time>2024-06-13T07:46:04.629Z</time>
      </trkpt>
      <trkpt lat="48.37422" lon="2.35993">
        <ele>122.85</ele>
        <time>2024-06-13T07:46:04.951Z</time>
      </trkpt>
      <trkpt lat="48.37433" lon="2.36">
        <ele>122.46</ele>
        <time>2024-06-13T07:46:05.275Z</time>
      </trkpt>
      <trkpt lat="48.37441" lon="2.36006">
        <ele>122.23</ele>
        <time>2024-06-13T07:46:05.600Z</time>
      </trkpt>
      <trkpt lat="48.37453" lon="2.36014">
        <ele>121.95</ele>
        <time>2024-06-13T07:46:05.927Z</time>
      </trkpt>
      <trkpt lat="48.37466" lon="2.36023">
        <ele>121.71</ele>
        <time>2024-06-13T07:46:06.257Z</time>
      </trkpt>
      <trkpt lat="48.37474" lon="2.36028">
        <ele>121.58</ele>
        <time>2024-06-13T07:46:06.588Z</time>
      </trkpt>
      <trkpt lat="48.37482" lon="2.36034">
        <ele>121.46</ele>
        <time>2024-06-13T07:46:06.921Z</time>
      </trkpt>
      <trkpt lat="48.37506" lon="2.3605">
        <ele>121.17</ele>
        <time>2024-06-13T07:46:07.258Z</time>
      </trkpt>
      <trkpt lat="48.37512" lon="2.36054">
        <ele>121.08</ele>
        <time>2024-06-13T07:46:07.596Z</time>
      </trkpt>
      <trkpt lat="48.37519" lon="2.36058">
        <ele>120.98</ele>
        <time>2024-06-13T07:46:07.935Z</time>
      </trkpt>
      <trkpt lat="48.37527" lon="2.36064">
        <ele>120.82</ele>
        <time>2024-06-13T07:46:08.275Z</time>
      </trkpt>
      <trkpt lat="48.37539" lon="2.36071">
        <ele>120.55</ele>
        <time>2024-06-13T07:46:08.618Z</time>
      </trkpt>
      <trkpt lat="48.37556" lon="2.36082">
        <ele>120.24</ele>
        <time>2024-06-13T07:46:08.963Z</time>
      </trkpt>
      <trkpt lat="48.37564" lon="2.36087">
        <ele>120.05</ele>
        <time>2024-06-13T07:46:09.310Z</time>
      </trkpt>
      <trkpt lat="48.37568" lon="2.3609">
        <ele>119.93</ele>
        <time>2024-06-13T07:46:09.658Z</time>
      </trkpt>
      <trkpt lat="48.37585" lon="2.361">
        <ele>119.39</ele>
        <time>2024-06-13T07:46:10.008Z</time>
      </trkpt>
      <trkpt lat="48.37601" lon="2.36111">
        <ele>118.91</ele>
        <time>2024-06-13T07:46:10.361Z</time>
      </trkpt>
      <trkpt lat="48.37614" lon="2.36119">
        <ele>118.52</ele>
        <time>2024-06-13T07:46:10.716Z</time>
      </trkpt>
      <trkpt lat="48.37626" lon="2.36127">
        <ele>118.1</ele>
        <time>2024-06-13T07:46:11.074Z</time>
      </trkpt>
      <trkpt lat="48.37634" lon="2.36132">
        <ele>117.78</ele>
        <time>2024-06-13T07:46:11.433Z</time>
      </trkpt>
      <trkpt lat="48.37643" lon="2.36137">
        <ele>117.41</ele>
        <time>2024-06-13T07:46:11.794Z</time>
      </trkpt>
      <trkpt lat="48.37655" lon="2.36145">
        <ele>116.78</ele>
        <time>2024-06-13T07:46:12.157Z</time>
      </trkpt>
      <trkpt lat="48.37663" lon="2.3615">
        <ele>116.3</ele>
        <time>2024-06-13T07:46:12.521Z</time>
      </trkpt>
      <trkpt lat="48.3768" lon="2.36161">
        <ele>115.26</ele>
        <time>2024-06-13T07:46:12.888Z</time>
      </trkpt>
      <trkpt lat="48.37684" lon="2.36163">
        <ele>115.03</ele>
        <time>2024-06-13T07:46:13.256Z</time>
      </trkpt>
      <trkpt lat="48.37688" lon="2.36166">
        <ele>114.86</ele>
        <time>2024-06-13T07:46:13.624Z</time>
      </trkpt>
      <trkpt lat="48.37692" lon="2.3617">
        <ele>114.69</ele>
        <time>2024-06-13T07:46:13.993Z</time>
      </trkpt>
      <trkpt lat="48.37699" lon="2.36179">
        <ele>114.48</ele>
        <time>2024-06-13T07:46:14.364Z</time>
      </trkpt>
      <trkpt lat="48.37706" lon="2.36187">
        <ele>114.31</ele>
        <time>2024-06-13T07:46:14.736Z</time>
      </trkpt>
      <trkpt lat="48.37707" lon="2.36205">
        <ele>113.49</ele>
        <time>2024-06-13T07:46:15.110Z</time>
      </trkpt>
      <trkpt lat="48.37713" lon="2.36216">
        <ele>112.86</ele>
        <time>2024-06-13T07:46:15.486Z</time>
      </trkpt>
      <trkpt lat="48.37716" lon="2.36221">
        <ele>112.55</ele>
        <time>2024-06-13T07:46:15.862Z</time>
      </trkpt>
      <trkpt lat="48.37719" lon="2.36226">
        <ele>112.2</ele>
        <time>2024-06-13T07:46:16.239Z</time>
      </trkpt>
      <trkpt lat="48.37721" lon="2.36232">
        <ele>111.81</ele>
        <time>2024-06-13T07:46:16.617Z</time>
      </trkpt>
      <trkpt lat="48.37724" lon="2.36237">
        <ele>111.35</ele>
        <time>2024-06-13T07:46:16.995Z</time>
      </trkpt>
      <trkpt lat="48.37727" lon="2.36242">
        <ele>110.85</ele>
        <time>2024-06-13T07:46:17.374Z</time>
      </trkpt>
      <trkpt lat="48.37732" lon="2.36252">
        <ele>109.71</ele>
        <time>2024-06-13T07:46:17.754Z</time>
      </trkpt>
      <trkpt lat="48.37749" lon="2.36283">
        <ele>105.96</ele>
        <time>2024-06-13T07:46:18.139Z</time>
      </trkpt>
      <trkpt lat="48.37752" lon="2.36288">
        <ele>105.39</ele>
        <time>2024-06-13T07:46:18.524Z</time>
      </trkpt>
      <trkpt lat="48.37757" lon="2.36298">
        <ele>104.34</ele>
        <time>2024-06-13T07:46:18.911Z</time>
      </trkpt>
      <trkpt lat="48.37763" lon="2.36308">
        <ele>103.44</ele>
        <time>2024-06-13T07:46:19.299Z</time>
      </trkpt>
      <trkpt lat="48.37768" lon="2.36318">
        <ele>102.67</ele>
        <time>2024-06-13T07:46:19.689Z</time>
      </trkpt>
      <trkpt lat="48.37774" lon="2.36329">
        <ele>101.98</ele>
        <time>2024-06-13T07:46:20.080Z</time>
      </trkpt>
      <trkpt lat="48.37779" lon="2.36339">
        <ele>101.36</ele>
        <time>2024-06-13T07:46:20.472Z</time>
      </trkpt>
      <trkpt lat="48.37785" lon="2.36349">
        <ele>100.78</ele>
        <time>2024-06-13T07:46:20.866Z</time>
      </trkpt>
      <trkpt lat="48.37788" lon="2.36362">
        <ele>100.2</ele>
        <time>2024-06-13T07:46:21.261Z</time>
      </trkpt>
      <trkpt lat="48.37791" lon="2.36374">
        <ele>99.58</ele>
        <time>2024-06-13T07:46:21.658Z</time>
      </trkpt>
      <trkpt lat="48.37791" lon="2.36387">
        <ele>98.87</ele>
        <time>2024-06-13T07:46:22.056Z</time>
      </trkpt>
      <trkpt lat="48.37792" lon="2.36394">
        <ele>98.54</ele>
        <time>2024-06-13T07:46:22.455Z</time>
      </trkpt>
      <trkpt lat="48.37792" lon="2.36404">
        <ele>98.08</ele>
        <time>2024-06-13T07:46:22.855Z</time>
      </trkpt>
      <trkpt lat="48.37792" lon="2.36407">
        <ele>97.93</ele>
        <time>2024-06-13T07:46:23.255Z</time>
      </trkpt>
      <trkpt lat="48.37795" lon="2.36428">
        <ele>97.07</ele>
        <time>2024-06-13T07:46:23.657Z</time>
      </trkpt>
      <trkpt lat="48.37796" lon="2.3644">
        <ele>96.47</ele>
        <time>2024-06-13T07:46:24.061Z</time>
      </trkpt>
      <trkpt lat="48.37796" lon="2.36441">
        <ele>96.47</ele>
        <time>2024-06-13T07:46:24.465Z</time>
      </trkpt>
      <trkpt lat="48.37806" lon="2.36471">
        <ele>94.82</ele>
        <time>2024-06-13T07:46:24.872Z</time>
      </trkpt>
      <trkpt lat="48.37811" lon="2.36483">
        <ele>94.18</ele>
        <time>2024-06-13T07:46:25.281Z</time>
      </trkpt>
      <trkpt lat="48.37813" lon="2.3649">
        <ele>93.82</ele>
        <time>2024-06-13T07:46:25.691Z</time>
      </trkpt>
      <trkpt lat="48.3782" lon="2.36506">
        <ele>92.98</ele>
        <time>2024-06-13T07:46:26.103Z</time>
      </trkpt>
      <trkpt lat="48.37826" lon="2.36518">
        <ele>92.36</ele>
        <time>2024-06-13T07:46:26.516Z</time>
      </trkpt>
      <trkpt lat="48.37831" lon="2.36527">
        <ele>91.87</ele>
        <time>2024-06-13T07:46:26.931Z</time>
      </trkpt>
      <trkpt lat="48.37837" lon="2.36537">
        <ele>91.37</ele>
        <time>2024-06-13T07:46:27.347Z</time>
      </trkpt>
      <trkpt lat="48.37849" lon="2.36557">
        <ele>90.45</ele>
        <time>2024-06-13T07:46:27.766Z</time>
      </trkpt>
      <trkpt lat="48.37855" lon="2.36567">
        <ele>89.93</ele>
        <time>2024-06-13T07:46:28.186Z</time>
      </trkpt>
      <trkpt lat="48.37868" lon="2.36587">
        <ele>88.85</ele>
        <time>2024-06-13T07:46:28.609Z</time>
      </trkpt>
      <trkpt lat="48.37877" lon="2.36602">
        <ele>88.13</ele>
        <time>2024-06-13T07:46:29.034Z</time>
      </trkpt>
      <trkpt lat="48.37885" lon="2.36616">
        <ele>87.53</ele>
        <time>2024-06-13T07:46:29.461Z</time>
      </trkpt>
      <trkpt lat="48.37885" lon="2.36617">
        <ele>87.49</ele>
        <time>2024-06-13T07:46:29.889Z</time>
      </trkpt>
      <trkpt lat="48.37894" lon="2.36649">
        <ele>86.54</ele>
        <time>2024-06-13T07:46:30.320Z</time>
      </trkpt>
      <trkpt lat="48.37897" lon="2.3666">
        <ele>86.17</ele>
        <time>2024-06-13T07:46:30.752Z</time>
      </trkpt>
      <trkpt lat="48.37902" lon="2.36673">
        <ele>85.74</ele>
        <time>2024-06-13T07:46:31.186Z</time>
      </trkpt>
      <trkpt lat="48.37909" lon="2.3669">
        <ele>85.19</ele>
        <time>2024-06-13T07:46:31.622Z</time>
      </trkpt>
      <trkpt lat="48.37914" lon="2.36702">
        <ele>84.87</ele>
        <time>2024-06-13T07:46:32.060Z</time>
      </trkpt>
      <trkpt lat="48.37917" lon="2.3671">
        <ele>84.67</ele>
        <time>2024-06-13T07:46:32.499Z</time>
      </trkpt>
      <trkpt lat="48.37918" lon="2.36714">
        <ele>84.6</ele>
        <time>2024-06-13T07:46:32.938Z</time>
      </trkpt>
      <trkpt lat="48.37924" lon="2.36739">
        <ele>84.1</ele>
        <time>2024-06-13T07:46:33.380Z</time>
      </trkpt>
      <trkpt lat="48.37932" lon="2.36777">
        <ele>83.33</ele>
        <time>2024-06-13T07:46:33.826Z</time>
      </trkpt>
      <trkpt lat="48.37932" lon="2.36785">
        <ele>83.19</ele>
        <time>2024-06-13T07:46:34.273Z</time>
      </trkpt>
      <trkpt lat="48.37931" lon="2.36807">
        <ele>82.79</ele>
        <time>2024-06-13T07:46:34.722Z</time>
      </trkpt>
      <trkpt lat="48.37935" lon="2.36816">
        <ele>82.6</ele>
        <time>2024-06-13T07:46:35.173Z</time>
      </trkpt>
      <trkpt lat="48.3795" lon="2.36851">
        <ele>81.99</ele>
        <time>2024-06-13T07:46:35.628Z</time>
      </trkpt>
      <trkpt lat="48.37964" lon="2.36884">
        <ele>81.5</ele>
        <time>2024-06-13T07:46:36.087Z</time>
      </trkpt>
      <trkpt lat="48.37967" lon="2.3689">
        <ele>81.41</ele>
        <time>2024-06-13T07:46:36.547Z</time>
      </trkpt>
      <trkpt lat="48.37976" lon="2.36905">
        <ele>81.14</ele>
        <time>2024-06-13T07:46:37.009Z</time>
      </trkpt>
      <trkpt lat="48.37976" lon="2.36905">
        <ele>81.14</ele>
        <time>2024-06-13T07:46:37.471Z</time>
      </trkpt>
      <trkpt lat="48.37984" lon="2.36912">
        <ele>80.93</ele>
        <time>2024-06-13T07:46:37.935Z</time>
      </trkpt>
      <trkpt lat="48.37995" lon="2.36922">
        <ele>80.57</ele>
        <time>2024-06-13T07:46:38.401Z</time>
      </trkpt>
      <trkpt lat="48.38003" lon="2.36929">
        <ele>80.36</ele>
        <time>2024-06-13T07:46:38.868Z</time>
      </trkpt>
      <trkpt lat="48.38011" lon="2.36936">
        <ele>80.17</ele>
        <time>2024-06-13T07:46:39.337Z</time>
      </trkpt>
      <trkpt lat="48.3803" lon="2.36953">
        <ele>79.8</ele>
        <time>2024-06-13T07:46:39.809Z</time>
      </trkpt>
      <trkpt lat="48.38034" lon="2.36956">
        <ele>79.71</ele>
        <time>2024-06-13T07:46:40.282Z</time>
      </trkpt>
      <trkpt lat="48.38038" lon="2.3696">
        <ele>79.59</ele>
        <time>2024-06-13T07:46:40.756Z</time>
      </trkpt>
      <trkpt lat="48.38042" lon="2.36963">
        <ele>79.43</ele>
        <time>2024-06-13T07:46:41.230Z</time>
      </trkpt>
      <trkpt lat="48.38046" lon="2.36967">
        <ele>79.22</ele>
        <time>2024-06-13T07:46:41.705Z</time>
      </trkpt>
      <trkpt lat="48.3805" lon="2.3697">
        <ele>78.98</ele>
        <time>2024-06-13T07:46:42.181Z</time>
      </trkpt>
      <trkpt lat="48.38061" lon="2.3698">
        <ele>78.14</ele>
        <time>2024-06-13T07:46:42.659Z</time>
      </trkpt>
      <trkpt lat="48.38065" lon="2.36984">
        <ele>77.89</ele>
        <time>2024-06-13T07:46:43.138Z</time>
      </trkpt>
      <trkpt lat="48.38073" lon="2.36991">
        <ele>77.45</ele>
        <time>2024-06-13T07:46:43.618Z</time>
      </trkpt>
      <trkpt lat="48.38077" lon="2.36994">
        <ele>77.28</ele>
        <time>2024-06-13T07:46:44.099Z</time>
      </trkpt>
      <trkpt lat="48.38085" lon="2.37001">
        <ele>76.98</ele>
        <time>2024-06-13T07:46:44.581Z</time>
      </trkpt>
      <trkpt lat="48.38096" lon="2.37011">
        <ele>76.61</ele>
        <time>2024-06-13T07:46:45.066Z</time>
      </trkpt>
      <trkpt lat="48.38104" lon="2.37018">
        <ele>76.34</ele>
        <time>2024-06-13T07:46:45.552Z</time>
      </trkpt>
      <trkpt lat="48.38111" lon="2.37024">
        <ele>76.07</ele>
        <time>2024-06-13T07:46:46.039Z</time>
      </trkpt>
      <trkpt lat="48.38115" lon="2.37029">
        <ele>75.89</ele>
        <time>2024-06-13T07:46:46.527Z</time>
      </trkpt>
      <trkpt lat="48.38129" lon="2.37047">
        <ele>75.25</ele>
        <time>2024-06-13T07:46:47.018Z</time>
      </trkpt>
      <trkpt lat="48.38135" lon="2.37056">
        <ele>74.99</ele>
        <time>2024-06-13T07:46:47.510Z</time>
      </trkpt>
      <trkpt lat="48.38142" lon="2.37065">
        <ele>74.78</ele>
        <time>2024-06-13T07:46:48.004Z</time>
      </trkpt>
      <trkpt lat="48.3815" lon="2.37076">
        <ele>74.55</ele>
        <time>2024-06-13T07:46:48.500Z</time>
      </trkpt>
      <trkpt lat="48.38151" lon="2.3708">
        <ele>74.5</ele>
        <time>2024-06-13T07:46:48.996Z</time>
      </trkpt>
      <trkpt lat="48.38156" lon="2.37091">
        <ele>74.35</ele>
        <time>2024-06-13T07:46:49.493Z</time>
      </trkpt>
      <trkpt lat="48.3816" lon="2.37103">
        <ele>74.25</ele>
        <time>2024-06-13T07:46:49.992Z</time>
      </trkpt>
      <trkpt lat="48.38163" lon="2.37109">
        <ele>74.24</ele>
        <time>2024-06-13T07:46:50.492Z</time>
      </trkpt>
      <trkpt lat="48.38165" lon="2.37115">
        <ele>74.25</ele>
        <time>2024-06-13T07:46:50.992Z</time>
      </trkpt>
      <trkpt lat="48.38167" lon="2.3712">
        <ele>74.29</ele>
        <time>2024-06-13T07:46:51.493Z</time>
      </trkpt>
      <trkpt lat="48.38172" lon="2.37133">
        <ele>74.43</ele>
        <time>2024-06-13T07:46:51.996Z</time>
      </trkpt>
      <trkpt lat="48.38176" lon="2.37131">
        <ele>74.54</ele>
        <time>2024-06-13T07:46:52.499Z</time>
      </trkpt>
      <trkpt lat="48.3818" lon="2.37129">
        <ele>74.68</ele>
        <time>2024-06-13T07:46:53.003Z</time>
      </trkpt>
      <trkpt lat="48.38182" lon="2.37128">
        <ele>74.78</ele>
        <time>2024-06-13T07:46:53.507Z</time>
      </trkpt>
      <trkpt lat="48.38184" lon="2.37127">
        <ele>74.89</ele>
        <time>2024-06-13T07:46:54.012Z</time>
      </trkpt>
      <trkpt lat="48.38189" lon="2.37126">
        <ele>75.18</ele>
        <time>2024-06-13T07:46:54.517Z</time>
      </trkpt>
      <trkpt lat="48.38193" lon="2.37125">
        <ele>75.6</ele>
        <time>2024-06-13T07:46:55.023Z</time>
      </trkpt>
      <trkpt lat="48.38197" lon="2.37124">
        <ele>76.15</ele>
        <time>2024-06-13T07:46:55.530Z</time>
      </trkpt>
      <trkpt lat="48.38202" lon="2.37122">
        <ele>76.83</ele>
        <time>2024-06-13T07:46:56.038Z</time>
      </trkpt>
      <trkpt lat="48.38207" lon="2.37121">
        <ele>77.61</ele>
        <time>2024-06-13T07:46:56.546Z</time>
      </trkpt>
      <trkpt lat="48.38215" lon="2.37124">
        <ele>79.35</ele>
        <time>2024-06-13T07:46:57.056Z</time>
      </trkpt>
      <trkpt lat="48.38219" lon="2.37126">
        <ele>80.3</ele>
        <time>2024-06-13T07:46:57.566Z</time>
      </trkpt>
      <trkpt lat="48.38231" lon="2.37131">
        <ele>83.02</ele>
        <time>2024-06-13T07:46:58.078Z</time>
      </trkpt>
      <trkpt lat="48.38232" lon="2.37131">
        <ele>83.33</ele>
        <time>2024-06-13T07:46:58.591Z</time>
      </trkpt>
      <trkpt lat="48.38237" lon="2.37132">
        <ele>84.23</ele>
        <time>2024-06-13T07:46:59.104Z</time>
      </trkpt>
      <trkpt lat="48.38241" lon="2.37132">
        <ele>85.01</ele>
        <time>2024-06-13T07:46:59.618Z</time>
      </trkpt>
      <trkpt lat="48.38246" lon="2.37133">
        <ele>85.65</ele>
        <time>2024-06-13T07:47:00.133Z</time>
      </trkpt>
      <trkpt lat="48.3825" lon="2.37133">
        <ele>86.14</ele>
        <time>2024-06-13T07:47:00.648Z</time>
      </trkpt>
      <trkpt lat="48.38255" lon="2.37134">
        <ele>86.49</ele>
        <time>2024-06-13T07:47:01.164Z</time>
      </trkpt>
      <trkpt lat="48.38258" lon="2.37134">
        <ele>86.64</ele>
        <time>2024-06-13T07:47:01.681Z</time>
      </trkpt>
      <trkpt lat="48.38259" lon="2.37134">
        <ele>86.71</ele>
        <time>2024-06-13T07:47:02.198Z</time>
      </trkpt>
      <trkpt lat="48.38264" lon="2.37135">
        <ele>86.83</ele>
        <time>2024-06-13T07:47:02.716Z</time>
      </trkpt>
      <trkpt lat="48.38268" lon="2.37137">
        <ele>86.86</ele>
        <time>2024-06-13T07:47:03.234Z</time>
      </trkpt>
      <trkpt lat="48.38273" lon="2.37138">
        <ele>86.84</ele>
        <time>2024-06-13T07:47:03.753Z</time>
      </trkpt>
      <trkpt lat="48.3829" lon="2.37142">
        <ele>86.6</ele>
        <time>2024-06-13T07:47:04.275Z</time>
      </trkpt>
      <trkpt lat="48.3829" lon="2.37142">
        <ele>86.6</ele>
        <time>2024-06-13T07:47:04.797Z</time>
      </trkpt>
      <trkpt lat="48.38297" lon="2.3715">
        <ele>86.56</ele>
        <time>2024-06-13T07:47:05.320Z</time>
      </trkpt>
      <trkpt lat="48.38305" lon="2.37158">
        <ele>86.6</ele>
        <time>2024-06-13T07:47:05.845Z</time>
      </trkpt>
      <trkpt lat="48.38308" lon="2.37162">
        <ele>86.66</ele>
        <time>2024-06-13T07:47:06.371Z</time>
      </trkpt>
      <trkpt lat="48.38312" lon="2.37166">
        <ele>86.75</ele>
        <time>2024-06-13T07:47:06.897Z</time>
      </trkpt>
      <trkpt lat="48.38316" lon="2.3717">
        <ele>86.92</ele>
        <time>2024-06-13T07:47:07.424Z</time>
      </trkpt>
      <trkpt lat="48.38319" lon="2.37174">
        <ele>87.17</ele>
        <time>2024-06-13T07:47:07.952Z</time>
      </trkpt>
      <trkpt lat="48.38323" lon="2.37178">
        <ele>87.51</ele>
        <time>2024-06-13T07:47:08.480Z</time>
      </trkpt>
      <trkpt lat="48.38327" lon="2.37182">
        <ele>87.93</ele>
        <time>2024-06-13T07:47:09.009Z</time>
      </trkpt>
      <trkpt lat="48.3833" lon="2.37186">
        <ele>88.41</ele>
        <time>2024-06-13T07:47:09.539Z</time>
      </trkpt>
      <trkpt lat="48.38333" lon="2.37189">
        <ele>88.82</ele>
        <time>2024-06-13T07:47:10.069Z</time>
      </trkpt>
      <trkpt lat="48.3834" lon="2.37199">
        <ele>90.03</ele>
        <time>2024-06-13T07:47:10.601Z</time>
      </trkpt>
      <trkpt lat="48.38343" lon="2.37204">
        <ele>90.53</ele>
        <time>2024-06-13T07:47:11.134Z</time>
      </trkpt>
      <trkpt lat="48.38347" lon="2.37209">
        <ele>90.97</ele>
        <time>2024-06-13T07:47:11.667Z</time>
      </trkpt>
      <trkpt lat="48.3835" lon="2.37214">
        <ele>91.35</ele>
        <time>2024-06-13T07:47:12.201Z</time>
      </trkpt>
      <trkpt lat="48.38351" lon="2.37215">
        <ele>91.44</ele>
        <time>2024-06-13T07:47:12.735Z</time>
      </trkpt>
      <trkpt lat="48.38354" lon="2.37215">
        <ele>91.64</ele>
        <time>2024-06-13T07:47:13.270Z</time>
      </trkpt>
      <trkpt lat="48.38359" lon="2.37216">
        <ele>91.86</ele>
        <time>2024-06-13T07:47:13.806Z</time>
      </trkpt>
      <trkpt lat="48.38363" lon="2.37217">
        <ele>92.02</ele>
        <time>2024-06-13T07:47:14.342Z</time>
      </trkpt>
      <trkpt lat="48.38385" lon="2.37219">
        <ele>92.69</ele>
        <time>2024-06-13T07:47:14.882Z</time>
      </trkpt>
      <trkpt lat="48.3839" lon="2.3722">
        <ele>92.81</ele>
        <time>2024-06-13T07:47:15.423Z</time>
      </trkpt>
      <trkpt lat="48.38398" lon="2.37221">
        <ele>92.96</ele>
        <time>2024-06-13T07:47:15.965Z</time>
      </trkpt>
      <trkpt lat="48.38403" lon="2.37234">
        <ele>93.15</ele>
        <time>2024-06-13T07:47:16.509Z</time>
      </trkpt>
      <trkpt lat="48.38405" lon="2.37239">
        <ele>93.27</ele>
        <time>2024-06-13T07:47:17.053Z</time>
      </trkpt>
      <trkpt lat="48.38405" lon="2.37239">
        <ele>93.27</ele>
        <time>2024-06-13T07:47:17.597Z</time>
      </trkpt>
      <trkpt lat="48.38421" lon="2.37251">
        <ele>93.93</ele>
        <time>2024-06-13T07:47:18.144Z</time>
      </trkpt>
      <trkpt lat="48.38425" lon="2.37254">
        <ele>94.07</ele>
        <time>2024-06-13T07:47:18.692Z</time>
      </trkpt>
      <trkpt lat="48.38425" lon="2.37255">
        <ele>94.07</ele>
        <time>2024-06-13T07:47:19.240Z</time>
      </trkpt>
      <trkpt lat="48.38428" lon="2.3726">
        <ele>94.18</ele>
        <time>2024-06-13T07:47:19.789Z</time>
      </trkpt>
      <trkpt lat="48.38431" lon="2.37265">
        <ele>94.26</ele>
        <time>2024-06-13T07:47:20.338Z</time>
      </trkpt>
      <trkpt lat="48.38437" lon="2.37276">
        <ele>94.36</ele>
        <time>2024-06-13T07:47:20.889Z</time>
      </trkpt>
      <trkpt lat="48.38441" lon="2.37279">
        <ele>94.41</ele>
        <time>2024-06-13T07:47:21.440Z</time>
      </trkpt>
      <trkpt lat="48.38444" lon="2.37282">
        <ele>94.5</ele>
        <time>2024-06-13T07:47:21.992Z</time>
      </trkpt>
      <trkpt lat="48.38448" lon="2.37286">
        <ele>94.64</ele>
        <time>2024-06-13T07:47:22.545Z</time>
      </trkpt>
      <trkpt lat="48.3845" lon="2.37287">
        <ele>94.71</ele>
        <time>2024-06-13T07:47:23.098Z</time>
      </trkpt>
      <trkpt lat="48.38455" lon="2.37294">
        <ele>94.98</ele>
        <time>2024-06-13T07:47:23.652Z</time>
      </trkpt>
      <trkpt lat="48.38458" lon="2.37299">
        <ele>95.11</ele>
        <time>2024-06-13T07:47:24.207Z</time>
      </trkpt>
      <trkpt lat="48.38462" lon="2.37304">
        <ele>95.19</ele>
        <time>2024-06-13T07:47:24.763Z</time>
      </trkpt>
      <trkpt lat="48.38465" lon="2.37308">
        <ele>95.22</ele>
        <time>2024-06-13T07:47:25.320Z</time>
      </trkpt>
      <trkpt lat="48.38468" lon="2.37313">
        <ele>95.21</ele>
        <time>2024-06-13T07:47:25.877Z</time>
      </trkpt>
      <trkpt lat="48.38471" lon="2.37317">
        <ele>95.16</ele>
        <time>2024-06-13T07:47:26.435Z</time>
      </trkpt>
      <trkpt lat="48.38472" lon="2.37318">
        <ele>95.16</ele>
        <time>2024-06-13T07:47:26.993Z</time>
      </trkpt>
      <trkpt lat="48.38475" lon="2.37321">
        <ele>95.08</ele>
        <time>2024-06-13T07:47:27.552Z</time>
      </trkpt>
      <trkpt lat="48.38479" lon="2.37325">
        <ele>94.99</ele>
        <time>2024-06-13T07:47:28.111Z</time>
      </trkpt>
      <trkpt lat="48.38487" lon="2.37333">
        <ele>94.74</ele>
        <time>2024-06-13T07:47:28.672Z</time>
      </trkpt>
      <trkpt lat="48.38491" lon="2.37335">
        <ele>94.59</ele>
        <time>2024-06-13T07:47:29.234Z</time>
      </trkpt>
      <trkpt lat="48.38495" lon="2.37337">
        <ele>94.41</ele>
        <time>2024-06-13T07:47:29.796Z</time>
      </trkpt>
      <trkpt lat="48.38499" lon="2.37339">
        <ele>94.2</ele>
        <time>2024-06-13T07:47:30.359Z</time>
      </trkpt>
      <trkpt lat="48.38504" lon="2.37342">
        <ele>93.95</ele>
        <time>2024-06-13T07:47:30.923Z</time>
      </trkpt>
      <trkpt lat="48.38507" lon="2.37346">
        <ele>93.66</ele>
        <time>2024-06-13T07:47:31.487Z</time>
      </trkpt>
      <trkpt lat="48.38517" lon="2.37359">
        <ele>92.7</ele>
        <time>2024-06-13T07:47:32.054Z</time>
      </trkpt>
      <trkpt lat="48.38519" lon="2.37361">
        <ele>92.57</ele>
        <time>2024-06-13T07:47:32.621Z</time>
      </trkpt>
      <trkpt lat="48.38521" lon="2.37363">
        <ele>92.46</ele>
        <time>2024-06-13T07:47:33.188Z</time>
      </trkpt>
      <trkpt lat="48.38525" lon="2.37367">
        <ele>92.29</ele>
        <time>2024-06-13T07:47:33.756Z</time>
      </trkpt>
      <trkpt lat="48.38528" lon="2.3737">
        <ele>92.2</ele>
        <time>2024-06-13T07:47:34.325Z</time>
      </trkpt>
      <trkpt lat="48.38532" lon="2.37374">
        <ele>92.19</ele>
        <time>2024-06-13T07:47:34.894Z</time>
      </trkpt>
      <trkpt lat="48.38533" lon="2.37375">
        <ele>92.2</ele>
        <time>2024-06-13T07:47:35.464Z</time>
      </trkpt>
      <trkpt lat="48.3855" lon="2.37376">
        <ele>92.39</ele>
        <time>2024-06-13T07:47:36.036Z</time>
      </trkpt>
      <trkpt lat="48.38559" lon="2.37377">
        <ele>92.42</ele>
        <time>2024-06-13T07:47:36.610Z</time>
      </trkpt>
      <trkpt lat="48.38562" lon="2.37377">
        <ele>92.4</ele>
        <time>2024-06-13T07:47:37.184Z</time>
      </trkpt>
      <trkpt lat="48.38568" lon="2.3738">
        <ele>92.38</ele>
        <time>2024-06-13T07:47:37.759Z</time>
      </trkpt>
      <trkpt lat="48.38585" lon="2.37388">
        <ele>92.25</ele>
        <time>2024-06-13T07:47:38.337Z</time>
      </trkpt>
      <trkpt lat="48.38589" lon="2.37391">
        <ele>92.24</ele>
        <time>2024-06-13T07:47:38.916Z</time>
      </trkpt>
      <trkpt lat="48.38593" lon="2.37393">
        <ele>92.26</ele>
        <time>2024-06-13T07:47:39.496Z</time>
      </trkpt>
      <trkpt lat="48.38597" lon="2.37395">
        <ele>92.34</ele>
        <time>2024-06-13T07:47:40.076Z</time>
      </trkpt>
      <trkpt lat="48.38602" lon="2.37397">
        <ele>92.47</ele>
        <time>2024-06-13T07:47:40.657Z</time>
      </trkpt>
      <trkpt lat="48.38606" lon="2.37399">
        <ele>92.67</ele>
        <time>2024-06-13T07:47:41.239Z</time>
      </trkpt>
      <trkpt lat="48.3861" lon="2.37401">
        <ele>92.91</ele>
        <time>2024-06-13T07:47:41.821Z</time>
      </trkpt>
      <trkpt lat="48.38611" lon="2.37402">
        <ele>93.12</ele>
        <time>2024-06-13T07:47:42.404Z</time>
      </trkpt>
      <trkpt lat="48.3861" lon="2.37397">
        <ele>93.81</ele>
        <time>2024-06-13T07:47:42.987Z</time>
      </trkpt>
      <trkpt lat="48.38608" lon="2.37384">
        <ele>95.85</ele>
        <time>2024-06-13T07:47:43.572Z</time>
      </trkpt>
      <trkpt lat="48.38607" lon="2.37377">
        <ele>97.05</ele>
        <time>2024-06-13T07:47:44.157Z</time>
      </trkpt>
      <trkpt lat="48.38607" lon="2.37375">
        <ele>97.55</ele>
        <time>2024-06-13T07:47:44.743Z</time>
      </trkpt>
      <trkpt lat="48.38601" lon="2.3736">
        <ele>101.06</ele>
        <time>2024-06-13T07:47:45.330Z</time>
      </trkpt>
      <trkpt lat="48.38597" lon="2.37348">
        <ele>103.68</ele>
        <time>2024-06-13T07:47:45.919Z</time>
      </trkpt>
      <trkpt lat="48.38595" lon="2.37342">
        <ele>104.94</ele>
        <time>2024-06-13T07:47:46.509Z</time>
      </trkpt>
      <trkpt lat="48.38594" lon="2.37339">
        <ele>105.53</ele>
        <time>2024-06-13T07:47:47.099Z</time>
      </trkpt>
      <trkpt lat="48.38594" lon="2.37336">
        <ele>106.11</ele>
        <time>2024-06-13T07:47:47.689Z</time>
      </trkpt>
      <trkpt lat="48.38594" lon="2.37329">
        <ele>107.17</ele>
        <time>2024-06-13T07:47:48.280Z</time>
      </trkpt>
      <trkpt lat="48.38593" lon="2.37322">
        <ele>108.1</ele>
        <time>2024-06-13T07:47:48.872Z</time>
      </trkpt>
      <trkpt lat="48.38593" lon="2.37316">
        <ele>108.92</ele>
        <time>2024-06-13T07:47:49.464Z</time>
      </trkpt>
      <trkpt lat="48.38593" lon="2.37309">
        <ele>109.64</ele>
        <time>2024-06-13T07:47:50.057Z</time>
      </trkpt>
      <trkpt lat="48.38592" lon="2.37302">
        <ele>110.3</ele>
        <time>2024-06-13T07:47:50.651Z</time>
      </trkpt>
      <trkpt lat="48.38592" lon="2.37297">
        <ele>110.87</ele>
        <time>2024-06-13T07:47:51.245Z</time>
      </trkpt>
      <trkpt lat="48.38592" lon="2.37296">
        <ele>110.87</ele>
        <time>2024-06-13T07:47:51.840Z</time>
      </trkpt>
      <trkpt lat="48.38592" lon="2.37289">
        <ele>111.37</ele>
        <time>2024-06-13T07:47:52.435Z</time>
      </trkpt>
      <trkpt lat="48.38592" lon="2.37282">
        <ele>111.79</ele>
        <time>2024-06-13T07:47:53.031Z</time>
      </trkpt>
      <trkpt lat="48.38592" lon="2.37262">
        <ele>112.94</ele>
        <time>2024-06-13T07:47:53.629Z</time>
      </trkpt>
      <trkpt lat="48.38592" lon="2.37256">
        <ele>113.36</ele>
        <time>2024-06-13T07:47:54.228Z</time>
      </trkpt>
      <trkpt lat="48.38591" lon="2.37242">
        <ele>114.25</ele>
        <time>2024-06-13T07:47:54.828Z</time>
      </trkpt>
      <trkpt lat="48.38591" lon="2.37236">
        <ele>114.74</ele>
        <time>2024-06-13T07:47:55.429Z</time>
      </trkpt>
      <trkpt lat="48.38591" lon="2.37229">
        <ele>115.27</ele>
        <time>2024-06-13T07:47:56.031Z</time>
      </trkpt>
      <trkpt lat="48.38591" lon="2.37195">
        <ele>118.2</ele>
        <time>2024-06-13T07:47:56.636Z</time>
      </trkpt>
      <trkpt lat="48.38591" lon="2.37194">
        <ele>118.27</ele>
        <time>2024-06-13T07:47:57.241Z</time>
      </trkpt>
      <trkpt lat="48.38598" lon="2.37192">
        <ele>118.82</ele>
        <time>2024-06-13T07:47:57.848Z</time>
      </trkpt>
      <trkpt lat="48.38601" lon="2.37191">
        <ele>118.99</ele>
        <time>2024-06-13T07:47:58.455Z</time>
      </trkpt>
      <trkpt lat="48.38605" lon="2.37185">
        <ele>119.36</ele>
        <time>2024-06-13T07:47:59.063Z</time>
      </trkpt>
      <trkpt lat="48.38608" lon="2.3718">
        <ele>119.59</ele>
        <time>2024-06-13T07:47:59.672Z</time>
      </trkpt>
      <trkpt lat="48.38611" lon="2.37176">
        <ele>119.79</ele>
        <time>2024-06-13T07:48:00.281Z</time>
      </trkpt>
      <trkpt lat="48.38617" lon="2.37167">
        <ele>120.13</ele>
        <time>2024-06-13T07:48:00.892Z</time>
      </trkpt>
      <trkpt lat="48.38623" lon="2.37157">
        <ele>120.38</ele>
        <time>2024-06-13T07:48:01.504Z</time>
      </trkpt>
      <trkpt lat="48.38629" lon="2.37148">
        <ele>120.55</ele>
        <time>2024-06-13T07:48:02.117Z</time>
      </trkpt>
      <trkpt lat="48.38642" lon="2.37147">
        <ele>120.78</ele>
        <time>2024-06-13T07:48:02.733Z</time>
      </trkpt>
      <trkpt lat="48.38642" lon="2.37121">
        <ele>120.97</ele>
        <time>2024-06-13T07:48:03.351Z</time>
      </trkpt>
      <trkpt lat="48.38642" lon="2.3708">
        <ele>121</ele>
        <time>2024-06-13T07:48:03.974Z</time>
      </trkpt>
      <trkpt lat="48.38642" lon="2.37067">
        <ele>120.98</ele>
        <time>2024-06-13T07:48:04.598Z</time>
      </trkpt>
      <trkpt lat="48.38642" lon="2.37053">
        <ele>120.9</ele>
        <time>2024-06-13T07:48:05.224Z</time>
      </trkpt>
      <trkpt lat="48.38642" lon="2.3704">
        <ele>120.75</ele>
        <time>2024-06-13T07:48:05.851Z</time>
      </trkpt>
      <trkpt lat="48.38642" lon="2.37023">
        <ele>120.5</ele>
        <time>2024-06-13T07:48:06.480Z</time>
      </trkpt>
      <trkpt lat="48.38634" lon="2.36981">
        <ele>119.85</ele>
        <time>2024-06-13T07:48:07.113Z</time>
      </trkpt>
      <trkpt lat="48.38632" lon="2.36972">
        <ele>119.74</ele>
        <time>2024-06-13T07:48:07.747Z</time>
      </trkpt>
      <trkpt lat="48.38632" lon="2.36954">
        <ele>119.53</ele>
        <time>2024-06-13T07:48:08.383Z</time>
      </trkpt>
      <trkpt lat="48.38632" lon="2.3695">
        <ele>119.46</ele>
        <time>2024-06-13T07:48:09.020Z</time>
      </trkpt>
      <trkpt lat="48.3863" lon="2.36941">
        <ele>119.31</ele>
        <time>2024-06-13T07:48:09.658Z</time>
      </trkpt>
      <trkpt lat="48.38626" lon="2.36926">
        <ele>119.02</ele>
        <time>2024-06-13T07:48:10.297Z</time>
      </trkpt>
      <trkpt lat="48.38627" lon="2.36922">
        <ele>118.95</ele>
        <time>2024-06-13T07:48:10.937Z</time>
      </trkpt>
      <trkpt lat="48.38629" lon="2.36909">
        <ele>118.66</ele>
        <time>2024-06-13T07:48:11.578Z</time>
      </trkpt>
      <trkpt lat="48.3863" lon="2.36902">
        <ele>118.48</ele>
        <time>2024-06-13T07:48:12.220Z</time>
      </trkpt>
      <trkpt lat="48.38631" lon="2.36896">
        <ele>118.28</ele>
        <time>2024-06-13T07:48:12.863Z</time>
      </trkpt>
      <trkpt lat="48.38633" lon="2.36884">
        <ele>117.88</ele>
        <time>2024-06-13T07:48:13.507Z</time>
      </trkpt>
      <trkpt lat="48.38632" lon="2.36876">
        <ele>117.61</ele>
        <time>2024-06-13T07:48:14.152Z</time>
      </trkpt>
      <trkpt lat="48.38629" lon="2.36862">
        <ele>117.2</ele>
        <time>2024-06-13T07:48:14.799Z</time>
      </trkpt>
      <trkpt lat="48.38635" lon="2.3687">
        <ele>116.37</ele>
        <time>2024-06-13T07:48:15.447Z</time>
      </trkpt>
      <trkpt lat="48.38648" lon="2.36889">
        <ele>114.59</ele>
        <time>2024-06-13T07:48:16.098Z</time>
      </trkpt>
      <trkpt lat="48.38657" lon="2.36903">
        <ele>113.41</ele>
        <time>2024-06-13T07:48:16.751Z</time>
      </trkpt>
      <trkpt lat="48.38663" lon="2.36912">
        <ele>112.73</ele>
        <time>2024-06-13T07:48:17.405Z</time>
      </trkpt>
      <trkpt lat="48.38666" lon="2.36918">
        <ele>112.31</ele>
        <time>2024-06-13T07:48:18.060Z</time>
      </trkpt>
      <trkpt lat="48.38672" lon="2.36928">
        <ele>111.66</ele>
        <time>2024-06-13T07:48:18.716Z</time>
      </trkpt>
      <trkpt lat="48.38675" lon="2.36933">
        <ele>111.36</ele>
        <time>2024-06-13T07:48:19.373Z</time>
      </trkpt>
      <trkpt lat="48.38678" lon="2.36939">
        <ele>111.09</ele>
        <time>2024-06-13T07:48:20.031Z</time>
      </trkpt>
      <trkpt lat="48.38681" lon="2.36944">
        <ele>110.85</ele>
        <time>2024-06-13T07:48:20.690Z</time>
      </trkpt>
      <trkpt lat="48.38683" lon="2.36949">
        <ele>110.65</ele>
        <time>2024-06-13T07:48:21.349Z</time>
      </trkpt>
      <trkpt lat="48.38688" lon="2.36957">
        <ele>110.37</ele>
        <time>2024-06-13T07:48:22.009Z</time>
      </trkpt>
      <trkpt lat="48.38689" lon="2.36959">
        <ele>110.3</ele>
        <time>2024-06-13T07:48:22.670Z</time>
      </trkpt>
      <trkpt lat="48.38691" lon="2.36965">
        <ele>110.16</ele>
        <time>2024-06-13T07:48:23.331Z</time>
      </trkpt>
      <trkpt lat="48.38694" lon="2.36971">
        <ele>110.05</ele>
        <time>2024-06-13T07:48:23.993Z</time>
      </trkpt>
      <trkpt lat="48.38698" lon="2.3698">
        <ele>109.9</ele>
        <time>2024-06-13T07:48:24.656Z</time>
      </trkpt>
      <trkpt lat="48.38699" lon="2.36982">
        <ele>109.87</ele>
        <time>2024-06-13T07:48:25.320Z</time>
      </trkpt>
      <trkpt lat="48.38701" lon="2.36988">
        <ele>109.82</ele>
        <time>2024-06-13T07:48:25.984Z</time>
      </trkpt>
      <trkpt lat="48.38703" lon="2.36994">
        <ele>109.81</ele>
        <time>2024-06-13T07:48:26.649Z</time>
      </trkpt>
      <trkpt lat="48.38705" lon="2.37">
        <ele>109.84</ele>
        <time>2024-06-13T07:48:27.315Z</time>
      </trkpt>
      <trkpt lat="48.38709" lon="2.37012">
        <ele>109.97</ele>
        <time>2024-06-13T07:48:27.982Z</time>
      </trkpt>
      <trkpt lat="48.38712" lon="2.37017">
        <ele>110.04</ele>
        <time>2024-06-13T07:48:28.650Z</time>
      </trkpt>
      <trkpt lat="48.38714" lon="2.37023">
        <ele>110.07</ele>
        <time>2024-06-13T07:48:29.319Z</time>
      </trkpt>
      <trkpt lat="48.38722" lon="2.37039">
        <ele>110.09</ele>
        <time>2024-06-13T07:48:29.990Z</time>
      </trkpt>
      <trkpt lat="48.38725" lon="2.37044">
        <ele>110.12</ele>
        <time>2024-06-13T07:48:30.661Z</time>
      </trkpt>
      <trkpt lat="48.38725" lon="2.37044">
        <ele>110.12</ele>
        <time>2024-06-13T07:48:31.332Z</time>
      </trkpt>
      <trkpt lat="48.38727" lon="2.37051">
        <ele>110.18</ele>
        <time>2024-06-13T07:48:32.004Z</time>
      </trkpt>
      <trkpt lat="48.38731" lon="2.3707">
        <ele>110.45</ele>
        <time>2024-06-13T07:48:32.678Z</time>
      </trkpt>
      <trkpt lat="48.38733" lon="2.37075">
        <ele>110.56</ele>
        <time>2024-06-13T07:48:33.353Z</time>
      </trkpt>
      <trkpt lat="48.38741" lon="2.37092">
        <ele>110.95</ele>
        <time>2024-06-13T07:48:34.030Z</time>
      </trkpt>
      <trkpt lat="48.38743" lon="2.37097">
        <ele>111.06</ele>
        <time>2024-06-13T07:48:34.708Z</time>
      </trkpt>
      <trkpt lat="48.38746" lon="2.37103">
        <ele>111.13</ele>
        <time>2024-06-13T07:48:35.387Z</time>
      </trkpt>
      <trkpt lat="48.3875" lon="2.37106">
        <ele>111.2</ele>
        <time>2024-06-13T07:48:36.066Z</time>
      </trkpt>
      <trkpt lat="48.38754" lon="2.37109">
        <ele>111.24</ele>
        <time>2024-06-13T07:48:36.746Z</time>
      </trkpt>
      <trkpt lat="48.38762" lon="2.37114">
        <ele>111.27</ele>
        <time>2024-06-13T07:48:37.427Z</time>
      </trkpt>
      <trkpt lat="48.38762" lon="2.37114">
        <ele>111.27</ele>
        <time>2024-06-13T07:48:38.108Z</time>
      </trkpt>
      <trkpt lat="48.38772" lon="2.37135">
        <ele>111.28</ele>
        <time>2024-06-13T07:48:38.792Z</time>
      </trkpt>
      <trkpt lat="48.38777" lon="2.37148">
        <ele>111.29</ele>
        <time>2024-06-13T07:48:39.478Z</time>
      </trkpt>
      <trkpt lat="48.38783" lon="2.37167">
        <ele>111.21</ele>
        <time>2024-06-13T07:48:40.166Z</time>
      </trkpt>
      <trkpt lat="48.38783" lon="2.37179">
        <ele>111.09</ele>
        <time>2024-06-13T07:48:40.855Z</time>
      </trkpt>
      <trkpt lat="48.38783" lon="2.37193">
        <ele>110.93</ele>
        <time>2024-06-13T07:48:41.546Z</time>
      </trkpt>
      <trkpt lat="48.38783" lon="2.372">
        <ele>110.83</ele>
        <time>2024-06-13T07:48:42.238Z</time>
      </trkpt>
      <trkpt lat="48.38788" lon="2.37221">
        <ele>110.54</ele>
        <time>2024-06-13T07:48:42.932Z</time>
      </trkpt>
      <trkpt lat="48.3878" lon="2.37227">
        <ele>113.17</ele>
        <time>2024-06-13T07:48:43.627Z</time>
      </trkpt>
      <trkpt lat="48.3878" lon="2.37227">
        <ele>113.17</ele>
        <time>2024-06-13T07:48:44.322Z</time>
      </trkpt>
      <trkpt lat="48.38768" lon="2.37231">
        <ele>116.02</ele>
        <time>2024-06-13T07:48:45.019Z</time>
      </trkpt>
      <trkpt lat="48.38758" lon="2.37234">
        <ele>117.37</ele>
        <time>2024-06-13T07:48:45.718Z</time>
      </trkpt>
      <trkpt lat="48.38748" lon="2.37238">
        <ele>119.18</ele>
        <time>2024-06-13T07:48:46.419Z</time>
      </trkpt>
      <trkpt lat="48.38727" lon="2.37245">
        <ele>121.12</ele>
        <time>2024-06-13T07:48:47.123Z</time>
      </trkpt>
      <trkpt lat="48.38706" lon="2.37251">
        <ele>121.34</ele>
        <time>2024-06-13T07:48:47.831Z</time>
      </trkpt>
      <trkpt lat="48.38677" lon="2.37258">
        <ele>120.83</ele>
        <time>2024-06-13T07:48:48.543Z</time>
      </trkpt>
      <trkpt lat="48.38662" lon="2.37263">
        <ele>120.39</ele>
        <time>2024-06-13T07:48:49.258Z</time>
      </trkpt>
      <trkpt lat="48.38648" lon="2.37267">
        <ele>119.75</ele>
        <time>2024-06-13T07:48:49.975Z</time>
      </trkpt>
      <trkpt lat="48.3865" lon="2.37281">
        <ele>117.04</ele>
        <time>2024-06-13T07:48:50.693Z</time>
      </trkpt>
      <trkpt lat="48.38651" lon="2.37287">
        <ele>116.72</ele>
        <time>2024-06-13T07:48:51.412Z</time>
      </trkpt>
      <trkpt lat="48.38652" lon="2.37294">
        <ele>116.47</ele>
        <time>2024-06-13T07:48:52.132Z</time>
      </trkpt>
      <trkpt lat="48.38653" lon="2.37301">
        <ele>116.29</ele>
        <time>2024-06-13T07:48:52.853Z</time>
      </trkpt>
      <trkpt lat="48.38653" lon="2.37304">
        <ele>116.21</ele>
        <time>2024-06-13T07:48:53.574Z</time>
      </trkpt>
      <trkpt lat="48.38661" lon="2.37324">
        <ele>115.73</ele>
        <time>2024-06-13T07:48:54.297Z</time>
      </trkpt>
      <trkpt lat="48.38663" lon="2.3733">
        <ele>115.56</ele>
        <time>2024-06-13T07:48:55.021Z</time>
      </trkpt>
      <trkpt lat="48.38666" lon="2.37335">
        <ele>115.35</ele>
        <time>2024-06-13T07:48:55.746Z</time>
      </trkpt>
      <trkpt lat="48.38668" lon="2.37341">
        <ele>115.09</ele>
        <time>2024-06-13T07:48:56.472Z</time>
      </trkpt>
      <trkpt lat="48.3867" lon="2.37347">
        <ele>114.8</ele>
        <time>2024-06-13T07:48:57.198Z</time>
      </trkpt>
      <trkpt lat="48.38673" lon="2.37353">
        <ele>114.46</ele>
        <time>2024-06-13T07:48:57.925Z</time>
      </trkpt>
      <trkpt lat="48.38675" lon="2.37358">
        <ele>114.05</ele>
        <time>2024-06-13T07:48:58.653Z</time>
      </trkpt>
      <trkpt lat="48.38677" lon="2.37364">
        <ele>113.56</ele>
        <time>2024-06-13T07:48:59.381Z</time>
      </trkpt>
      <trkpt lat="48.3868" lon="2.3737">
        <ele>112.98</ele>
        <time>2024-06-13T07:49:00.110Z</time>
      </trkpt>
      <trkpt lat="48.38684" lon="2.37381">
        <ele>111.66</ele>
        <time>2024-06-13T07:49:00.841Z</time>
      </trkpt>
      <trkpt lat="48.38687" lon="2.37387">
        <ele>111.09</ele>
        <time>2024-06-13T07:49:01.572Z</time>
      </trkpt>
      <trkpt lat="48.38689" lon="2.37393">
        <ele>110.66</ele>
        <time>2024-06-13T07:49:02.304Z</time>
      </trkpt>
      <trkpt lat="48.38691" lon="2.37398">
        <ele>110.3</ele>
        <time>2024-06-13T07:49:03.037Z</time>
      </trkpt>
      <trkpt lat="48.38696" lon="2.3741">
        <ele>109.65</ele>
        <time>2024-06-13T07:49:03.771Z</time>
      </trkpt>
      <trkpt lat="48.387" lon="2.37411">
        <ele>109.71</ele>
        <time>2024-06-13T07:49:04.506Z</time>
      </trkpt>
      <trkpt lat="48.38703" lon="2.37412">
        <ele>109.73</ele>
        <time>2024-06-13T07:49:05.241Z</time>
      </trkpt>
      <trkpt lat="48.38707" lon="2.37413">
        <ele>109.66</ele>
        <time>2024-06-13T07:49:05.977Z</time>
      </trkpt>
      <trkpt lat="48.38711" lon="2.37414">
        <ele>109.48</ele>
        <time>2024-06-13T07:49:06.714Z</time>
      </trkpt>
      <trkpt lat="48.38714" lon="2.37415">
        <ele>109.21</ele>
        <time>2024-06-13T07:49:07.451Z</time>
      </trkpt>
      <trkpt lat="48.38718" lon="2.37416">
        <ele>108.88</ele>
        <time>2024-06-13T07:49:08.189Z</time>
      </trkpt>
      <trkpt lat="48.38722" lon="2.37417">
        <ele>108.92</ele>
        <time>2024-06-13T07:49:08.928Z</time>
      </trkpt>
      <trkpt lat="48.38727" lon="2.37419">
        <ele>108.91</ele>
        <time>2024-06-13T07:49:09.667Z</time>
      </trkpt>
      <trkpt lat="48.38731" lon="2.3742">
        <ele>108.83</ele>
        <time>2024-06-13T07:49:10.407Z</time>
      </trkpt>
      <trkpt lat="48.38735" lon="2.37421">
        <ele>108.68</ele>
        <time>2024-06-13T07:49:11.148Z</time>
      </trkpt>
      <trkpt lat="48.38735" lon="2.37421">
        <ele>108.68</ele>
        <time>2024-06-13T07:49:11.889Z</time>
      </trkpt>
      <trkpt lat="48.38739" lon="2.37425">
        <ele>108.48</ele>
        <time>2024-06-13T07:49:12.630Z</time>
      </trkpt>
      <trkpt lat="48.38746" lon="2.37432">
        <ele>108.02</ele>
        <time>2024-06-13T07:49:13.373Z</time>
      </trkpt>
      <trkpt lat="48.3875" lon="2.37435">
        <ele>107.76</ele>
        <time>2024-06-13T07:49:14.116Z</time>
      </trkpt>
      <trkpt lat="48.38753" lon="2.37439">
        <ele>107.47</ele>
        <time>2024-06-13T07:49:14.860Z</time>
      </trkpt>
      <trkpt lat="48.38757" lon="2.37442">
        <ele>107.12</ele>
        <time>2024-06-13T07:49:15.605Z</time>
      </trkpt>
      <trkpt lat="48.38761" lon="2.37446">
        <ele>106.68</ele>
        <time>2024-06-13T07:49:16.350Z</time>
      </trkpt>
      <trkpt lat="48.38764" lon="2.3745">
        <ele>106.12</ele>
        <time>2024-06-13T07:49:17.096Z</time>
      </trkpt>
      <trkpt lat="48.38768" lon="2.37453">
        <ele>105.42</ele>
        <time>2024-06-13T07:49:17.843Z</time>
      </trkpt>
      <trkpt lat="48.38771" lon="2.37456">
        <ele>104.93</ele>
        <time>2024-06-13T07:49:18.590Z</time>
      </trkpt>
      <trkpt lat="48.38777" lon="2.37441">
        <ele>107.73</ele>
        <time>2024-06-13T07:49:19.339Z</time>
      </trkpt>
      <trkpt lat="48.38794" lon="2.3744">
        <ele>105.54</ele>
        <time>2024-06-13T07:49:20.091Z</time>
      </trkpt>
      <trkpt lat="48.38803" lon="2.37435">
        <ele>104.15</ele>
        <time>2024-06-13T07:49:20.845Z</time>
      </trkpt>
      <trkpt lat="48.38813" lon="2.3743">
        <ele>102.96</ele>
        <time>2024-06-13T07:49:21.600Z</time>
      </trkpt>
      <trkpt lat="48.38821" lon="2.3742">
        <ele>102.44</ele>
        <time>2024-06-13T07:49:22.357Z</time>
      </trkpt>
      <trkpt lat="48.38822" lon="2.37419">
        <ele>102.47</ele>
        <time>2024-06-13T07:49:23.114Z</time>
      </trkpt>
      <trkpt lat="48.38826" lon="2.37405">
        <ele>102.92</ele>
        <time>2024-06-13T07:49:23.873Z</time>
      </trkpt>
      <trkpt lat="48.38831" lon="2.37389">
        <ele>103.19</ele>
        <time>2024-06-13T07:49:24.634Z</time>
      </trkpt>
      <trkpt lat="48.38831" lon="2.37388">
        <ele>103.08</ele>
        <time>2024-06-13T07:49:25.395Z</time>
      </trkpt>
      <trkpt lat="48.38839" lon="2.37374">
        <ele>101.77</ele>
        <time>2024-06-13T07:49:26.158Z</time>
      </trkpt>
      <trkpt lat="48.38845" lon="2.37363">
        <ele>100.67</ele>
        <time>2024-06-13T07:49:26.922Z</time>
      </trkpt>
      <trkpt lat="48.38846" lon="2.37347">
        <ele>100.34</ele>
        <time>2024-06-13T07:49:27.688Z</time>
      </trkpt>
      <trkpt lat="48.38844" lon="2.37317">
        <ele>100.93</ele>
        <time>2024-06-13T07:49:28.457Z</time>
      </trkpt>
      <trkpt lat="48.38838" lon="2.37303">
        <ele>101.78</ele>
        <time>2024-06-13T07:49:29.228Z</time>
      </trkpt>
      <trkpt lat="48.38832" lon="2.37288">
        <ele>103.09</ele>
        <time>2024-06-13T07:49:30.001Z</time>
      </trkpt>
      <trkpt lat="48.38829" lon="2.37268">
        <ele>103.79</ele>
        <time>2024-06-13T07:49:30.776Z</time>
      </trkpt>
      <trkpt lat="48.38829" lon="2.37267">
        <ele>103.62</ele>
        <time>2024-06-13T07:49:31.551Z</time>
      </trkpt>
      <trkpt lat="48.38834" lon="2.37256">
        <ele>102.07</ele>
        <time>2024-06-13T07:49:32.328Z</time>
      </trkpt>
      <trkpt lat="48.38835" lon="2.37255">
        <ele>101.87</ele>
        <time>2024-06-13T07:49:33.105Z</time>
      </trkpt>
      <trkpt lat="48.38843" lon="2.37246">
        <ele>99.87</ele>
        <time>2024-06-13T07:49:33.883Z</time>
      </trkpt>
      <trkpt lat="48.38844" lon="2.37245">
        <ele>99.67</ele>
        <time>2024-06-13T07:49:34.661Z</time>
      </trkpt>
      <trkpt lat="48.3885" lon="2.37235">
        <ele>98.42</ele>
        <time>2024-06-13T07:49:35.441Z</time>
      </trkpt>
      <trkpt lat="48.38851" lon="2.37233">
        <ele>98.33</ele>
        <time>2024-06-13T07:49:36.221Z</time>
      </trkpt>
      <trkpt lat="48.38849" lon="2.3722">
        <ele>97.86</ele>
        <time>2024-06-13T07:49:37.003Z</time>
      </trkpt>
      <trkpt lat="48.38849" lon="2.37218">
        <ele>97.67</ele>
        <time>2024-06-13T07:49:37.785Z</time>
      </trkpt>
      <trkpt lat="48.38858" lon="2.37209">
        <ele>96.01</ele>
        <time>2024-06-13T07:49:38.569Z</time>
      </trkpt>
      <trkpt lat="48.38859" lon="2.37208">
        <ele>95.82</ele>
        <time>2024-06-13T07:49:39.353Z</time>
      </trkpt>
      <trkpt lat="48.38871" lon="2.37192">
        <ele>92.58</ele>
        <time>2024-06-13T07:49:40.139Z</time>
      </trkpt>
      <trkpt lat="48.38872" lon="2.37191">
        <ele>85.45</ele>
        <time>2024-06-13T07:49:40.925Z</time>
      </trkpt>
      <trkpt lat="48.38863" lon="2.37175">
        <ele>86.53</ele>
        <time>2024-06-13T07:49:41.714Z</time>
      </trkpt>
      <trkpt lat="48.38858" lon="2.37165">
        <ele>87.26</ele>
        <time>2024-06-13T07:49:42.504Z</time>
      </trkpt>
      <trkpt lat="48.38852" lon="2.37154">
        <ele>88.02</ele>
        <time>2024-06-13T07:49:43.296Z</time>
      </trkpt>
      <trkpt lat="48.38848" lon="2.37147">
        <ele>88.57</ele>
        <time>2024-06-13T07:49:44.089Z</time>
      </trkpt>
      <trkpt lat="48.38836" lon="2.37131">
        <ele>90.05</ele>
        <time>2024-06-13T07:49:44.884Z</time>
      </trkpt>
      <trkpt lat="48.38829" lon="2.37121">
        <ele>90.79</ele>
        <time>2024-06-13T07:49:45.681Z</time>
      </trkpt>
      <trkpt lat="48.38818" lon="2.3711">
        <ele>91.79</ele>
        <time>2024-06-13T07:49:46.480Z</time>
      </trkpt>
      <trkpt lat="48.38792" lon="2.37084">
        <ele>93.96</ele>
        <time>2024-06-13T07:49:47.284Z</time>
      </trkpt>
      <trkpt lat="48.38768" lon="2.3706">
        <ele>96.29</ele>
        <time>2024-06-13T07:49:48.092Z</time>
      </trkpt>
      <trkpt lat="48.38767" lon="2.37059">
        <ele>101.54</ele>
        <time>2024-06-13T07:49:48.901Z</time>
      </trkpt>
      <trkpt lat="48.38775" lon="2.37045">
        <ele>98.73</ele>
        <time>2024-06-13T07:49:49.712Z</time>
      </trkpt>
      <trkpt lat="48.38776" lon="2.37043">
        <ele>98.37</ele>
        <time>2024-06-13T07:49:50.523Z</time>
      </trkpt>
      <trkpt lat="48.38786" lon="2.37038">
        <ele>95.87</ele>
        <time>2024-06-13T07:49:51.335Z</time>
      </trkpt>
      <trkpt lat="48.38787" lon="2.37037">
        <ele>95.58</ele>
        <time>2024-06-13T07:49:52.148Z</time>
      </trkpt>
      <trkpt lat="48.38796" lon="2.37029">
        <ele>93.52</ele>
        <time>2024-06-13T07:49:52.962Z</time>
      </trkpt>
      <trkpt lat="48.38805" lon="2.37021">
        <ele>91.56</ele>
        <time>2024-06-13T07:49:53.778Z</time>
      </trkpt>
      <trkpt lat="48.38807" lon="2.3702">
        <ele>91.31</ele>
        <time>2024-06-13T07:49:54.594Z</time>
      </trkpt>
      <trkpt lat="48.38817" lon="2.37015">
        <ele>89.88</ele>
        <time>2024-06-13T07:49:55.412Z</time>
      </trkpt>
      <trkpt lat="48.38818" lon="2.37014">
        <ele>89.7</ele>
        <time>2024-06-13T07:49:56.230Z</time>
      </trkpt>
      <trkpt lat="48.38825" lon="2.37001">
        <ele>88.46</ele>
        <time>2024-06-13T07:49:57.050Z</time>
      </trkpt>
      <trkpt lat="48.38833" lon="2.36987">
        <ele>86.95</ele>
        <time>2024-06-13T07:49:57.872Z</time>
      </trkpt>
      <trkpt lat="48.38834" lon="2.36985">
        <ele>86.73</ele>
        <time>2024-06-13T07:49:58.694Z</time>
      </trkpt>
      <trkpt lat="48.38837" lon="2.36975">
        <ele>85.75</ele>
        <time>2024-06-13T07:49:59.517Z</time>
      </trkpt>
      <trkpt lat="48.38838" lon="2.36972">
        <ele>85.71</ele>
        <time>2024-06-13T07:50:00.341Z</time>
      </trkpt>
      <trkpt lat="48.38835" lon="2.36954">
        <ele>85.48</ele>
        <time>2024-06-13T07:50:01.167Z</time>
      </trkpt>
      <trkpt lat="48.38835" lon="2.36952">
        <ele>85.54</ele>
        <time>2024-06-13T07:50:01.993Z</time>
      </trkpt>
      <trkpt lat="48.38828" lon="2.36934">
        <ele>86.22</ele>
        <time>2024-06-13T07:50:02.821Z</time>
      </trkpt>
      <trkpt lat="48.38827" lon="2.36931">
        <ele>86.33</ele>
        <time>2024-06-13T07:50:03.650Z</time>
      </trkpt>
      <trkpt lat="48.38817" lon="2.36912">
        <ele>87.28</ele>
        <time>2024-06-13T07:50:04.481Z</time>
      </trkpt>
      <trkpt lat="48.38816" lon="2.3691">
        <ele>87.3</ele>
        <time>2024-06-13T07:50:05.312Z</time>
      </trkpt>
      <trkpt lat="48.38814" lon="2.36893">
        <ele>87.52</ele>
        <time>2024-06-13T07:50:06.145Z</time>
      </trkpt>
      <trkpt lat="48.38814" lon="2.36891">
        <ele>87.47</ele>
        <time>2024-06-13T07:50:06.978Z</time>
      </trkpt>
      <trkpt lat="48.38821" lon="2.36874">
        <ele>87.03</ele>
        <time>2024-06-13T07:50:07.814Z</time>
      </trkpt>
      <trkpt lat="48.3883" lon="2.36866">
        <ele>86.71</ele>
        <time>2024-06-13T07:50:08.651Z</time>
      </trkpt>
      <trkpt lat="48.38831" lon="2.36865">
        <ele>86.63</ele>
        <time>2024-06-13T07:50:09.488Z</time>
      </trkpt>
      <trkpt lat="48.38859" lon="2.3686">
        <ele>85.25</ele>
        <time>2024-06-13T07:50:10.330Z</time>
      </trkpt>
      <trkpt lat="48.3886" lon="2.3686">
        <ele>85.28</ele>
        <time>2024-06-13T07:50:11.172Z</time>
      </trkpt>
      <trkpt lat="48.38886" lon="2.36839">
        <ele>85.88</ele>
        <time>2024-06-13T07:50:12.019Z</time>
      </trkpt>
      <trkpt lat="48.38887" lon="2.36838">
        <ele>79.65</ele>
        <time>2024-06-13T07:50:12.866Z</time>
      </trkpt>
      <trkpt lat="48.38894" lon="2.36856">
        <ele>78.74</ele>
        <time>2024-06-13T07:50:13.715Z</time>
      </trkpt>
      <trkpt lat="48.38901" lon="2.36874">
        <ele>77.9</ele>
        <time>2024-06-13T07:50:14.566Z</time>
      </trkpt>
      <trkpt lat="48.38901" lon="2.36875">
        <ele>77.86</ele>
        <time>2024-06-13T07:50:15.418Z</time>
      </trkpt>
      <trkpt lat="48.3891" lon="2.36896">
        <ele>77.17</ele>
        <time>2024-06-13T07:50:16.272Z</time>
      </trkpt>
      <trkpt lat="48.38917" lon="2.36913">
        <ele>76.67</ele>
        <time>2024-06-13T07:50:17.128Z</time>
      </trkpt>
      <trkpt lat="48.38933" lon="2.36951">
        <ele>75.68</ele>
        <time>2024-06-13T07:50:17.989Z</time>
      </trkpt>
      <trkpt lat="48.38942" lon="2.36974">
        <ele>75.19</ele>
        <time>2024-06-13T07:50:18.853Z</time>
      </trkpt>
      <trkpt lat="48.38954" lon="2.37001">
        <ele>74.68</ele>
        <time>2024-06-13T07:50:19.721Z</time>
      </trkpt>
      <trkpt lat="48.38966" lon="2.37029">
        <ele>74.14</ele>
        <time>2024-06-13T07:50:20.592Z</time>
      </trkpt>
      <trkpt lat="48.38978" lon="2.37058">
        <ele>73.33</ele>
        <time>2024-06-13T07:50:21.467Z</time>
      </trkpt>
      <trkpt lat="48.38982" lon="2.37069">
        <ele>73.04</ele>
        <time>2024-06-13T07:50:22.343Z</time>
      </trkpt>
      <trkpt lat="48.38994" lon="2.37098">
        <ele>72.36</ele>
        <time>2024-06-13T07:50:23.223Z</time>
      </trkpt>
      <trkpt lat="48.39002" lon="2.37115">
        <ele>71.97</ele>
        <time>2024-06-13T07:50:24.105Z</time>
      </trkpt>
      <trkpt lat="48.39009" lon="2.37132">
        <ele>71.63</ele>
        <time>2024-06-13T07:50:24.989Z</time>
      </trkpt>
      <trkpt lat="48.39021" lon="2.3716">
        <ele>71.12</ele>
        <time>2024-06-13T07:50:25.877Z</time>
      </trkpt>
      <trkpt lat="48.39033" lon="2.37189">
        <ele>70.72</ele>
        <time>2024-06-13T07:50:26.768Z</time>
      </trkpt>
      <trkpt lat="48.39037" lon="2.372">
        <ele>70.62</ele>
        <time>2024-06-13T07:50:27.661Z</time>
      </trkpt>
      <trkpt lat="48.39047" lon="2.37223">
        <ele>70.46</ele>
        <time>2024-06-13T07:50:28.556Z</time>
      </trkpt>
      <trkpt lat="48.39057" lon="2.37246">
        <ele>70.22</ele>
        <time>2024-06-13T07:50:29.454Z</time>
      </trkpt>
      <trkpt lat="48.39064" lon="2.37263">
        <ele>70.08</ele>
        <time>2024-06-13T07:50:30.355Z</time>
      </trkpt>
      <trkpt lat="48.39075" lon="2.3729">
        <ele>69.92</ele>
        <time>2024-06-13T07:50:31.259Z</time>
      </trkpt>
      <trkpt lat="48.39084" lon="2.37307">
        <ele>69.81</ele>
        <time>2024-06-13T07:50:32.165Z</time>
      </trkpt>
      <trkpt lat="48.39093" lon="2.37323">
        <ele>69.76</ele>
        <time>2024-06-13T07:50:33.073Z</time>
      </trkpt>
      <trkpt lat="48.39099" lon="2.37333">
        <ele>69.78</ele>
        <time>2024-06-13T07:50:33.983Z</time>
      </trkpt>
      <trkpt lat="48.39107" lon="2.37349">
        <ele>69.86</ele>
        <time>2024-06-13T07:50:34.895Z</time>
      </trkpt>
      <trkpt lat="48.39113" lon="2.37359">
        <ele>69.95</ele>
        <time>2024-06-13T07:50:35.808Z</time>
      </trkpt>
      <trkpt lat="48.39125" lon="2.37381">
        <ele>70.17</ele>
        <time>2024-06-13T07:50:36.724Z</time>
      </trkpt>
      <trkpt lat="48.39132" lon="2.37375">
        <ele>70.45</ele>
        <time>2024-06-13T07:50:37.642Z</time>
      </trkpt>
      <trkpt lat="48.39136" lon="2.37372">
        <ele>70.62</ele>
        <time>2024-06-13T07:50:38.560Z</time>
      </trkpt>
      <trkpt lat="48.3914" lon="2.37368">
        <ele>70.82</ele>
        <time>2024-06-13T07:50:39.479Z</time>
      </trkpt>
      <trkpt lat="48.39147" lon="2.37362">
        <ele>71.26</ele>
        <time>2024-06-13T07:50:40.400Z</time>
      </trkpt>
      <trkpt lat="48.39155" lon="2.37355">
        <ele>71.65</ele>
        <time>2024-06-13T07:50:41.322Z</time>
      </trkpt>
      <trkpt lat="48.39156" lon="2.37354">
        <ele>71.67</ele>
        <time>2024-06-13T07:50:42.244Z</time>
      </trkpt>
      <trkpt lat="48.3916" lon="2.37309">
        <ele>72.39</ele>
        <time>2024-06-13T07:50:43.171Z</time>
      </trkpt>
      <trkpt lat="48.39167" lon="2.37286">
        <ele>72.8</ele>
        <time>2024-06-13T07:50:44.101Z</time>
      </trkpt>
      <trkpt lat="48.39168" lon="2.37284">
        <ele>72.83</ele>
        <time>2024-06-13T07:50:45.031Z</time>
      </trkpt>
      <trkpt lat="48.39174" lon="2.3727">
        <ele>73.08</ele>
        <time>2024-06-13T07:50:45.963Z</time>
      </trkpt>
      <trkpt lat="48.39192" lon="2.37232">
        <ele>73.82</ele>
        <time>2024-06-13T07:50:46.900Z</time>
      </trkpt>
      <trkpt lat="48.39197" lon="2.37221">
        <ele>74.08</ele>
        <time>2024-06-13T07:50:47.838Z</time>
      </trkpt>
      <trkpt lat="48.39201" lon="2.3721">
        <ele>74.39</ele>
        <time>2024-06-13T07:50:48.778Z</time>
      </trkpt>
      <trkpt lat="48.39202" lon="2.37209">
        <ele>74.42</ele>
        <time>2024-06-13T07:50:49.718Z</time>
      </trkpt>
      <trkpt lat="48.39235" lon="2.37225">
        <ele>75.51</ele>
        <time>2024-06-13T07:50:50.663Z</time>
      </trkpt>
      <trkpt lat="48.3926" lon="2.37238">
        <ele>76.38</ele>
        <time>2024-06-13T07:50:51.612Z</time>
      </trkpt>
      <trkpt lat="48.39269" lon="2.37242">
        <ele>76.7</ele>
        <time>2024-06-13T07:50:52.563Z</time>
      </trkpt>
      <trkpt lat="48.3928" lon="2.37248">
        <ele>77.15</ele>
        <time>2024-06-13T07:50:53.516Z</time>
      </trkpt>
      <trkpt lat="48.39286" lon="2.3725">
        <ele>77.38</ele>
        <time>2024-06-13T07:50:54.470Z</time>
      </trkpt>
      <trkpt lat="48.39299" lon="2.37253">
        <ele>77.85</ele>
        <time>2024-06-13T07:50:55.426Z</time>
      </trkpt>
      <trkpt lat="48.39308" lon="2.37255">
        <ele>78.12</ele>
        <time>2024-06-13T07:50:56.383Z</time>
      </trkpt>
      <trkpt lat="48.39321" lon="2.37259">
        <ele>78.49</ele>
        <time>2024-06-13T07:50:57.342Z</time>
      </trkpt>
      <trkpt lat="48.3933" lon="2.37261">
        <ele>78.78</ele>
        <time>2024-06-13T07:50:58.303Z</time>
      </trkpt>
      <trkpt lat="48.39336" lon="2.37263">
        <ele>79.04</ele>
        <time>2024-06-13T07:50:59.265Z</time>
      </trkpt>
      <trkpt lat="48.39338" lon="2.37265">
        <ele>79.14</ele>
        <time>2024-06-13T07:51:00.227Z</time>
      </trkpt>
      <trkpt lat="48.3934" lon="2.37266">
        <ele>79.23</ele>
        <time>2024-06-13T07:51:01.190Z</time>
      </trkpt>
      <trkpt lat="48.39348" lon="2.37278">
        <ele>79.77</ele>
        <time>2024-06-13T07:51:02.154Z</time>
      </trkpt>
      <trkpt lat="48.3935" lon="2.37284">
        <ele>79.99</ele>
        <time>2024-06-13T07:51:03.119Z</time>
      </trkpt>
      <trkpt lat="48.39363" lon="2.37319">
        <ele>81.15</ele>
        <time>2024-06-13T07:51:04.088Z</time>
      </trkpt>
      <trkpt lat="48.39367" lon="2.37331">
        <ele>81.51</ele>
        <time>2024-06-13T07:51:05.059Z</time>
      </trkpt>
      <trkpt lat="48.39375" lon="2.37355">
        <ele>82.16</ele>
        <time>2024-06-13T07:51:06.033Z</time>
      </trkpt>
      <trkpt lat="48.39382" lon="2.37374">
        <ele>82.78</ele>
        <time>2024-06-13T07:51:07.009Z</time>
      </trkpt>
      <trkpt lat="48.39385" lon="2.37376">
        <ele>82.94</ele>
        <time>2024-06-13T07:51:07.986Z</time>
      </trkpt>
      <trkpt lat="48.39386" lon="2.37377">
        <ele>82.94</ele>
        <time>2024-06-13T07:51:08.963Z</time>
      </trkpt>
      <trkpt lat="48.39385" lon="2.37372">
        <ele>82.94</ele>
        <time>2024-06-13T07:51:09.940Z</time>
      </trkpt>
      <trkpt lat="48.39391" lon="2.37366">
        <ele>83.72</ele>
        <time>2024-06-13T07:51:10.919Z</time>
      </trkpt>
      <trkpt lat="48.39395" lon="2.37362">
        <ele>84.13</ele>
        <time>2024-06-13T07:51:11.898Z</time>
      </trkpt>
      <trkpt lat="48.39396" lon="2.37361">
        <ele>84.24</ele>
        <time>2024-06-13T07:51:12.877Z</time>
      </trkpt>
      <trkpt lat="48.39401" lon="2.37352">
        <ele>85.01</ele>
        <time>2024-06-13T07:51:13.858Z</time>
      </trkpt>
      <trkpt lat="48.39407" lon="2.37343">
        <ele>85.96</ele>
        <time>2024-06-13T07:51:14.840Z</time>
      </trkpt>
      <trkpt lat="48.39412" lon="2.37333">
        <ele>86.99</ele>
        <time>2024-06-13T07:51:15.823Z</time>
      </trkpt>
      <trkpt lat="48.39424" lon="2.37313">
        <ele>89.14</ele>
        <time>2024-06-13T07:51:16.809Z</time>
      </trkpt>
      <trkpt lat="48.3943" lon="2.37303">
        <ele>90.29</ele>
        <time>2024-06-13T07:51:17.797Z</time>
      </trkpt>
      <trkpt lat="48.39442" lon="2.37282">
        <ele>92.75</ele>
        <time>2024-06-13T07:51:18.788Z</time>
      </trkpt>
      <trkpt lat="48.39444" lon="2.37277">
        <ele>93.3</ele>
        <time>2024-06-13T07:51:19.779Z</time>
      </trkpt>
      <trkpt lat="48.39447" lon="2.37273">
        <ele>93.8</ele>
        <time>2024-06-13T07:51:20.771Z</time>
      </trkpt>
      <trkpt lat="48.39447" lon="2.37272">
        <ele>93.8</ele>
        <time>2024-06-13T07:51:21.763Z</time>
      </trkpt>
      <trkpt lat="48.3945" lon="2.37266">
        <ele>94.26</ele>
        <time>2024-06-13T07:51:22.756Z</time>
      </trkpt>
      <trkpt lat="48.39452" lon="2.3726">
        <ele>94.69</ele>
        <time>2024-06-13T07:51:23.749Z</time>
      </trkpt>
      <trkpt lat="48.39467" lon="2.37219">
        <ele>97.64</ele>
        <time>2024-06-13T07:51:24.747Z</time>
      </trkpt>
      <trkpt lat="48.39469" lon="2.37214">
        <ele>97.96</ele>
        <time>2024-06-13T07:51:25.746Z</time>
      </trkpt>
      <trkpt lat="48.39475" lon="2.37187">
        <ele>99.57</ele>
        <time>2024-06-13T07:51:26.748Z</time>
      </trkpt>
      <trkpt lat="48.39476" lon="2.37181">
        <ele>99.97</ele>
        <time>2024-06-13T07:51:27.751Z</time>
      </trkpt>
      <trkpt lat="48.39474" lon="2.37175">
        <ele>100.42</ele>
        <time>2024-06-13T07:51:28.755Z</time>
      </trkpt>
      <trkpt lat="48.3947" lon="2.37162">
        <ele>101.36</ele>
        <time>2024-06-13T07:51:29.760Z</time>
      </trkpt>
      <trkpt lat="48.3947" lon="2.37156">
        <ele>101.87</ele>
        <time>2024-06-13T07:51:30.766Z</time>
      </trkpt>
      <trkpt lat="48.3947" lon="2.37149">
        <ele>102.41</ele>
        <time>2024-06-13T07:51:31.772Z</time>
      </trkpt>
      <trkpt lat="48.39469" lon="2.37135">
        <ele>103.58</ele>
        <time>2024-06-13T07:51:32.780Z</time>
      </trkpt>
      <trkpt lat="48.39469" lon="2.3713">
        <ele>104.1</ele>
        <time>2024-06-13T07:51:33.788Z</time>
      </trkpt>
      <trkpt lat="48.39468" lon="2.37122">
        <ele>104.89</ele>
        <time>2024-06-13T07:51:34.797Z</time>
      </trkpt>
      <trkpt lat="48.39467" lon="2.37117">
        <ele>105.45</ele>
        <time>2024-06-13T07:51:35.807Z</time>
      </trkpt>
      <trkpt lat="48.39467" lon="2.37115">
        <ele>105.62</ele>
        <time>2024-06-13T07:51:36.817Z</time>
      </trkpt>
      <trkpt lat="48.39468" lon="2.37109">
        <ele>106.41</ele>
        <time>2024-06-13T07:51:37.828Z</time>
      </trkpt>
      <trkpt lat="48.39469" lon="2.37103">
        <ele>107.3</ele>
        <time>2024-06-13T07:51:38.839Z</time>
      </trkpt>
      <trkpt lat="48.39469" lon="2.37102">
        <ele>107.3</ele>
        <time>2024-06-13T07:51:39.850Z</time>
      </trkpt>
      <trkpt lat="48.39467" lon="2.37096">
        <ele>108.3</ele>
        <time>2024-06-13T07:51:40.862Z</time>
      </trkpt>
      <trkpt lat="48.39466" lon="2.37089">
        <ele>109.41</ele>
        <time>2024-06-13T07:51:41.875Z</time>
      </trkpt>
      <trkpt lat="48.39464" lon="2.37081">
        <ele>110.97</ele>
        <time>2024-06-13T07:51:42.889Z</time>
      </trkpt>
      <trkpt lat="48.39466" lon="2.37077">
        <ele>111.79</ele>
        <time>2024-06-13T07:51:43.903Z</time>
      </trkpt>
      <trkpt lat="48.39468" lon="2.37072">
        <ele>112.9</ele>
        <time>2024-06-13T07:51:44.918Z</time>
      </trkpt>
      <trkpt lat="48.39471" lon="2.37066">
        <ele>113.85</ele>
        <time>2024-06-13T07:51:45.934Z</time>
      </trkpt>
      <trkpt lat="48.39473" lon="2.3706">
        <ele>114.64</ele>
        <time>2024-06-13T07:51:46.951Z</time>
      </trkpt>
      <trkpt lat="48.39476" lon="2.37055">
        <ele>115.29</ele>
        <time>2024-06-13T07:51:47.968Z</time>
      </trkpt>
      <trkpt lat="48.39478" lon="2.37049">
        <ele>115.88</ele>
        <time>2024-06-13T07:51:48.986Z</time>
      </trkpt>
      <trkpt lat="48.39479" lon="2.37047">
        <ele>116.04</ele>
        <time>2024-06-13T07:51:50.004Z</time>
      </trkpt>
      <trkpt lat="48.39482" lon="2.37047">
        <ele>116.33</ele>
        <time>2024-06-13T07:51:51.023Z</time>
      </trkpt>
      <trkpt lat="48.39486" lon="2.37048">
        <ele>116.74</ele>
        <time>2024-06-13T07:51:52.042Z</time>
      </trkpt>
      <trkpt lat="48.3949" lon="2.37048">
        <ele>117.07</ele>
        <time>2024-06-13T07:51:53.062Z</time>
      </trkpt>
      <trkpt lat="48.3949" lon="2.37048">
        <ele>117.07</ele>
        <time>2024-06-13T07:51:54.082Z</time>
      </trkpt>
      <trkpt lat="48.39494" lon="2.37052">
        <ele>117.34</ele>
        <time>2024-06-13T07:51:55.103Z</time>
      </trkpt>
      <trkpt lat="48.39498" lon="2.37055">
        <ele>117.54</ele>
        <time>2024-06-13T07:51:56.124Z</time>
      </trkpt>
      <trkpt lat="48.39499" lon="2.37056">
        <ele>117.58</ele>
        <time>2024-06-13T07:51:57.146Z</time>
      </trkpt>
      <trkpt lat="48.395" lon="2.37061">
        <ele>117.71</ele>
        <time>2024-06-13T07:51:58.168Z</time>
      </trkpt>
      <trkpt lat="48.39501" lon="2.37067">
        <ele>117.84</ele>
        <time>2024-06-13T07:51:59.191Z</time>
      </trkpt>
      <trkpt lat="48.39502" lon="2.37073">
        <ele>117.94</ele>
        <time>2024-06-13T07:52:00.215Z</time>
      </trkpt>
      <trkpt lat="48.39502" lon="2.37074">
        <ele>117.94</ele>
        <time>2024-06-13T07:52:01.239Z</time>
      </trkpt>
      <trkpt lat="48.39501" lon="2.3708">
        <ele>118.02</ele>
        <time>2024-06-13T07:52:02.263Z</time>
      </trkpt>
      <trkpt lat="48.395" lon="2.37087">
        <ele>118.07</ele>
        <time>2024-06-13T07:52:03.288Z</time>
      </trkpt>
      <trkpt lat="48.395" lon="2.37091">
        <ele>118.08</ele>
        <time>2024-06-13T07:52:04.313Z</time>
      </trkpt>
      <trkpt lat="48.39503" lon="2.37106">
        <ele>118.14</ele>
        <time>2024-06-13T07:52:05.340Z</time>
      </trkpt>
      <trkpt lat="48.39503" lon="2.37109">
        <ele>118.16</ele>
        <time>2024-06-13T07:52:06.367Z</time>
      </trkpt>
      <trkpt lat="48.39512" lon="2.37119">
        <ele>118.27</ele>
        <time>2024-06-13T07:52:07.396Z</time>
      </trkpt>
      <trkpt lat="48.39513" lon="2.37125">
        <ele>118.32</ele>
        <time>2024-06-13T07:52:08.426Z</time>
      </trkpt>
      <trkpt lat="48.39515" lon="2.37132">
        <ele>118.33</ele>
        <time>2024-06-13T07:52:09.457Z</time>
      </trkpt>
      <trkpt lat="48.39521" lon="2.37163">
        <ele>118.31</ele>
        <time>2024-06-13T07:52:10.491Z</time>
      </trkpt>
      <trkpt lat="48.39525" lon="2.37165">
        <ele>118.31</ele>
        <time>2024-06-13T07:52:11.526Z</time>
      </trkpt>
      <trkpt lat="48.39538" lon="2.37173">
        <ele>118.23</ele>
        <time>2024-06-13T07:52:12.563Z</time>
      </trkpt>
      <trkpt lat="48.39542" lon="2.37172">
        <ele>118.22</ele>
        <time>2024-06-13T07:52:13.601Z</time>
      </trkpt>
      <trkpt lat="48.3955" lon="2.3717">
        <ele>118.21</ele>
        <time>2024-06-13T07:52:14.640Z</time>
      </trkpt>
      <trkpt lat="48.39554" lon="2.37183">
        <ele>118.21</ele>
        <time>2024-06-13T07:52:15.681Z</time>
      </trkpt>
      <trkpt lat="48.39558" lon="2.37195">
        <ele>118.17</ele>
        <time>2024-06-13T07:52:16.723Z</time>
      </trkpt>
      <trkpt lat="48.39558" lon="2.37196">
        <ele>116.88</ele>
        <time>2024-06-13T07:52:17.765Z</time>
      </trkpt>
      <trkpt lat="48.39556" lon="2.37211">
        <ele>115.82</ele>
        <time>2024-06-13T07:52:18.809Z</time>
      </trkpt>
      <trkpt lat="48.39556" lon="2.37213">
        <ele>115.71</ele>
        <time>2024-06-13T07:52:19.853Z</time>
      </trkpt>
      <trkpt lat="48.39542" lon="2.37223">
        <ele>114.36</ele>
        <time>2024-06-13T07:52:20.899Z</time>
      </trkpt>
      <trkpt lat="48.39541" lon="2.37224">
        <ele>114.24</ele>
        <time>2024-06-13T07:52:21.946Z</time>
      </trkpt>
      <trkpt lat="48.39532" lon="2.3724">
        <ele>112.59</ele>
        <time>2024-06-13T07:52:22.995Z</time>
      </trkpt>
      <trkpt lat="48.39532" lon="2.37255">
        <ele>111.52</ele>
        <time>2024-06-13T07:52:24.045Z</time>
      </trkpt>
      <trkpt lat="48.39527" lon="2.37271">
        <ele>109.41</ele>
        <time>2024-06-13T07:52:25.097Z</time>
      </trkpt>
      <trkpt lat="48.39527" lon="2.37272">
        <ele>109.2</ele>
        <time>2024-06-13T07:52:26.149Z</time>
      </trkpt>
      <trkpt lat="48.39528" lon="2.37284">
        <ele>107.58</ele>
        <time>2024-06-13T07:52:27.203Z</time>
      </trkpt>
      <trkpt lat="48.39528" lon="2.37286">
        <ele>107.47</ele>
        <time>2024-06-13T07:52:28.257Z</time>
      </trkpt>
      <trkpt lat="48.39539" lon="2.37293">
        <ele>106.28</ele>
        <time>2024-06-13T07:52:29.313Z</time>
      </trkpt>
      <trkpt lat="48.3954" lon="2.37294">
        <ele>105.95</ele>
        <time>2024-06-13T07:52:30.369Z</time>
      </trkpt>
      <trkpt lat="48.39548" lon="2.37303">
        <ele>103.49</ele>
        <time>2024-06-13T07:52:31.427Z</time>
      </trkpt>
      <trkpt lat="48.39555" lon="2.37313">
        <ele>101.58</ele>
        <time>2024-06-13T07:52:32.486Z</time>
      </trkpt>
      <trkpt lat="48.39563" lon="2.37323">
        <ele>99.94</ele>
        <time>2024-06-13T07:52:33.547Z</time>
      </trkpt>
      <trkpt lat="48.39564" lon="2.37324">
        <ele>99.83</ele>
        <time>2024-06-13T07:52:34.608Z</time>
      </trkpt>
      <trkpt lat="48.39572" lon="2.37325">
        <ele>99.23</ele>
        <time>2024-06-13T07:52:35.670Z</time>
      </trkpt>
      <trkpt lat="48.39573" lon="2.37325">
        <ele>98.96</ele>
        <time>2024-06-13T07:52:36.732Z</time>
      </trkpt>
      <trkpt lat="48.39587" lon="2.37335">
        <ele>96.23</ele>
        <time>2024-06-13T07:52:37.797Z</time>
      </trkpt>
      <trkpt lat="48.39599" lon="2.37327">
        <ele>96.56</ele>
        <time>2024-06-13T07:52:38.864Z</time>
      </trkpt>
      <trkpt lat="48.396" lon="2.37326">
        <ele>96.8</ele>
        <time>2024-06-13T07:52:39.931Z</time>
      </trkpt>
      <trkpt lat="48.39605" lon="2.37311">
        <ele>98.51</ele>
        <time>2024-06-13T07:52:41.000Z</time>
      </trkpt>
      <trkpt lat="48.39609" lon="2.37298">
        <ele>100.7</ele>
        <time>2024-06-13T07:52:42.071Z</time>
      </trkpt>
      <trkpt lat="48.39615" lon="2.3728">
        <ele>102.96</ele>
        <time>2024-06-13T07:52:43.144Z</time>
      </trkpt>
      <trkpt lat="48.39616" lon="2.37278">
        <ele>103.26</ele>
        <time>2024-06-13T07:52:44.217Z</time>
      </trkpt>
      <trkpt lat="48.39618" lon="2.37265">
        <ele>105.09</ele>
        <time>2024-06-13T07:52:45.291Z</time>
      </trkpt>
      <trkpt lat="48.39618" lon="2.37264">
        <ele>105.28</ele>
        <time>2024-06-13T07:52:46.366Z</time>
      </trkpt>
      <trkpt lat="48.39623" lon="2.37253">
        <ele>107</ele>
        <time>2024-06-13T07:52:47.442Z</time>
      </trkpt>
      <trkpt lat="48.39629" lon="2.37242">
        <ele>107.69</ele>
        <time>2024-06-13T07:52:48.519Z</time>
      </trkpt>
      <trkpt lat="48.3963" lon="2.3724">
        <ele>108.04</ele>
        <time>2024-06-13T07:52:49.597Z</time>
      </trkpt>
      <trkpt lat="48.39633" lon="2.37223">
        <ele>110.89</ele>
        <time>2024-06-13T07:52:50.677Z</time>
      </trkpt>
      <trkpt lat="48.39633" lon="2.37222">
        <ele>111.1</ele>
        <time>2024-06-13T07:52:51.757Z</time>
      </trkpt>
      <trkpt lat="48.39629" lon="2.37182">
        <ele>117.64</ele>
        <time>2024-06-13T07:52:52.841Z</time>
      </trkpt>
      <trkpt lat="48.39629" lon="2.3718">
        <ele>117.21</ele>
        <time>2024-06-13T07:52:53.925Z</time>
      </trkpt>
      <trkpt lat="48.39631" lon="2.3718">
        <ele>117.19</ele>
        <time>2024-06-13T07:52:55.010Z</time>
      </trkpt>
      <trkpt lat="48.39636" lon="2.37169">
        <ele>117.11</ele>
        <time>2024-06-13T07:52:56.096Z</time>
      </trkpt>
      <trkpt lat="48.39643" lon="2.37153">
        <ele>117.07</ele>
        <time>2024-06-13T07:52:57.184Z</time>
      </trkpt>
      <trkpt lat="48.39653" lon="2.37132">
        <ele>117.45</ele>
        <time>2024-06-13T07:52:58.275Z</time>
      </trkpt>
      <trkpt lat="48.39663" lon="2.3711">
        <ele>117.68</ele>
        <time>2024-06-13T07:52:59.369Z</time>
      </trkpt>
      <trkpt lat="48.39666" lon="2.37105">
        <ele>117.75</ele>
        <time>2024-06-13T07:53:00.463Z</time>
      </trkpt>
      <trkpt lat="48.39671" lon="2.37094">
        <ele>117.95</ele>
        <time>2024-06-13T07:53:01.559Z</time>
      </trkpt>
      <trkpt lat="48.39676" lon="2.37083">
        <ele>118.18</ele>
        <time>2024-06-13T07:53:02.656Z</time>
      </trkpt>
      <trkpt lat="48.39678" lon="2.37077">
        <ele>118.28</ele>
        <time>2024-06-13T07:53:03.754Z</time>
      </trkpt>
      <trkpt lat="48.39681" lon="2.37072">
        <ele>118.35</ele>
        <time>2024-06-13T07:53:04.853Z</time>
      </trkpt>
      <trkpt lat="48.39683" lon="2.37067">
        <ele>118.38</ele>
        <time>2024-06-13T07:53:05.952Z</time>
      </trkpt>
      <trkpt lat="48.39685" lon="2.37063">
        <ele>118.38</ele>
        <time>2024-06-13T07:53:07.052Z</time>
      </trkpt>
      <trkpt lat="48.39686" lon="2.37062">
        <ele>118.38</ele>
        <time>2024-06-13T07:53:08.152Z</time>
      </trkpt>
      <trkpt lat="48.39699" lon="2.37044">
        <ele>118.21</ele>
        <time>2024-06-13T07:53:09.255Z</time>
      </trkpt>
      <trkpt lat="48.39702" lon="2.3704">
        <ele>118.2</ele>
        <time>2024-06-13T07:53:10.358Z</time>
      </trkpt>
      <trkpt lat="48.39706" lon="2.37035">
        <ele>118.23</ele>
        <time>2024-06-13T07:53:11.462Z</time>
      </trkpt>
      <trkpt lat="48.39706" lon="2.37029">
        <ele>118.29</ele>
        <time>2024-06-13T07:53:12.567Z</time>
      </trkpt>
      <trkpt lat="48.39706" lon="2.37022">
        <ele>118.38</ele>
        <time>2024-06-13T07:53:13.673Z</time>
      </trkpt>
      <trkpt lat="48.39703" lon="2.37018">
        <ele>118.02</ele>
        <time>2024-06-13T07:53:14.779Z</time>
      </trkpt>
      <trkpt lat="48.397" lon="2.37013">
        <ele>117.72</ele>
        <time>2024-06-13T07:53:15.886Z</time>
      </trkpt>
      <trkpt lat="48.39697" lon="2.37008">
        <ele>117.5</ele>
        <time>2024-06-13T07:53:16.994Z</time>
      </trkpt>
      <trkpt lat="48.39694" lon="2.37003">
        <ele>117.4</ele>
        <time>2024-06-13T07:53:18.102Z</time>
      </trkpt>
      <trkpt lat="48.3969" lon="2.37">
        <ele>117.4</ele>
        <time>2024-06-13T07:53:19.211Z</time>
      </trkpt>
      <trkpt lat="48.39682" lon="2.36994">
        <ele>117.48</ele>
        <time>2024-06-13T07:53:20.321Z</time>
      </trkpt>
      <trkpt lat="48.39666" lon="2.36983">
        <ele>117.58</ele>
        <time>2024-06-13T07:53:21.434Z</time>
      </trkpt>
      <trkpt lat="48.39646" lon="2.36969">
        <ele>117.76</ele>
        <time>2024-06-13T07:53:22.551Z</time>
      </trkpt>
      <trkpt lat="48.39645" lon="2.36968">
        <ele>117.76</ele>
        <time>2024-06-13T07:53:23.668Z</time>
      </trkpt>
      <trkpt lat="48.39637" lon="2.36971">
        <ele>117.8</ele>
        <time>2024-06-13T07:53:24.786Z</time>
      </trkpt>
      <trkpt lat="48.39633" lon="2.36972">
        <ele>117.75</ele>
        <time>2024-06-13T07:53:25.905Z</time>
      </trkpt>
      <trkpt lat="48.39629" lon="2.36974">
        <ele>117.65</ele>
        <time>2024-06-13T07:53:27.025Z</time>
      </trkpt>
      <trkpt lat="48.39616" lon="2.36978">
        <ele>117.21</ele>
        <time>2024-06-13T07:53:28.147Z</time>
      </trkpt>
      <trkpt lat="48.39612" lon="2.3698">
        <ele>117.11</ele>
        <time>2024-06-13T07:53:29.270Z</time>
      </trkpt>
      <trkpt lat="48.39603" lon="2.36983">
        <ele>117.15</ele>
        <time>2024-06-13T07:53:30.394Z</time>
      </trkpt>
      <trkpt lat="48.39598" lon="2.36984">
        <ele>117.21</ele>
        <time>2024-06-13T07:53:31.519Z</time>
      </trkpt>
      <trkpt lat="48.39594" lon="2.36986">
        <ele>117.32</ele>
        <time>2024-06-13T07:53:32.644Z</time>
      </trkpt>
      <trkpt lat="48.3959" lon="2.36987">
        <ele>117.47</ele>
        <time>2024-06-13T07:53:33.770Z</time>
      </trkpt>
      <trkpt lat="48.39581" lon="2.3699">
        <ele>117.82</ele>
        <time>2024-06-13T07:53:34.898Z</time>
      </trkpt>
      <trkpt lat="48.39577" lon="2.36992">
        <ele>117.98</ele>
        <time>2024-06-13T07:53:36.026Z</time>
      </trkpt>
      <trkpt lat="48.39572" lon="2.36993">
        <ele>118.1</ele>
        <time>2024-06-13T07:53:37.155Z</time>
      </trkpt>
      <trkpt lat="48.39568" lon="2.36995">
        <ele>118.2</ele>
        <time>2024-06-13T07:53:38.285Z</time>
      </trkpt>
      <trkpt lat="48.39556" lon="2.36999">
        <ele>118.39</ele>
        <time>2024-06-13T07:53:39.417Z</time>
      </trkpt>
      <trkpt lat="48.3955" lon="2.36998">
        <ele>118.49</ele>
        <time>2024-06-13T07:53:40.550Z</time>
      </trkpt>
      <trkpt lat="48.39541" lon="2.36997">
        <ele>118.7</ele>
        <time>2024-06-13T07:53:41.684Z</time>
      </trkpt>
      <trkpt lat="48.39532" lon="2.36995">
        <ele>118.95</ele>
        <time>2024-06-13T07:53:42.820Z</time>
      </trkpt>
      <trkpt lat="48.39533" lon="2.36983">
        <ele>119.16</ele>
        <time>2024-06-13T07:53:43.957Z</time>
      </trkpt>
      <trkpt lat="48.39533" lon="2.36979">
        <ele>119.24</ele>
        <time>2024-06-13T07:53:45.094Z</time>
      </trkpt>
      <trkpt lat="48.39534" lon="2.36977">
        <ele>119.3</ele>
        <time>2024-06-13T07:53:46.232Z</time>
      </trkpt>
      <trkpt lat="48.39537" lon="2.36973">
        <ele>119.48</ele>
        <time>2024-06-13T07:53:47.370Z</time>
      </trkpt>
      <trkpt lat="48.3954" lon="2.36968">
        <ele>119.69</ele>
        <time>2024-06-13T07:53:48.509Z</time>
      </trkpt>
      <trkpt lat="48.39543" lon="2.36963">
        <ele>119.93</ele>
        <time>2024-06-13T07:53:49.649Z</time>
      </trkpt>
      <trkpt lat="48.39549" lon="2.36954">
        <ele>120.49</ele>
        <time>2024-06-13T07:53:50.790Z</time>
      </trkpt>
      <trkpt lat="48.3955" lon="2.36952">
        <ele>120.63</ele>
        <time>2024-06-13T07:53:51.931Z</time>
      </trkpt>
      <trkpt lat="48.3956" lon="2.36947">
        <ele>121.42</ele>
        <time>2024-06-13T07:53:53.074Z</time>
      </trkpt>
      <trkpt lat="48.39568" lon="2.36944">
        <ele>122</ele>
        <time>2024-06-13T07:53:54.218Z</time>
      </trkpt>
      <trkpt lat="48.39576" lon="2.3694">
        <ele>122.49</ele>
        <time>2024-06-13T07:53:55.364Z</time>
      </trkpt>
      <trkpt lat="48.39585" lon="2.36936">
        <ele>122.95</ele>
        <time>2024-06-13T07:53:56.511Z</time>
      </trkpt>
      <trkpt lat="48.39593" lon="2.36933">
        <ele>123.29</ele>
        <time>2024-06-13T07:53:57.659Z</time>
      </trkpt>
      <trkpt lat="48.39601" lon="2.36929">
        <ele>123.59</ele>
        <time>2024-06-13T07:53:58.809Z</time>
      </trkpt>
      <trkpt lat="48.39605" lon="2.36927">
        <ele>123.72</ele>
        <time>2024-06-13T07:53:59.959Z</time>
      </trkpt>
      <trkpt lat="48.39626" lon="2.3693">
        <ele>124.39</ele>
        <time>2024-06-13T07:54:01.113Z</time>
      </trkpt>
      <trkpt lat="48.39643" lon="2.36933">
        <ele>124.82</ele>
        <time>2024-06-13T07:54:02.270Z</time>
      </trkpt>
      <trkpt lat="48.39661" lon="2.36936">
        <ele>125.2</ele>
        <time>2024-06-13T07:54:03.429Z</time>
      </trkpt>
      <trkpt lat="48.39669" lon="2.36939">
        <ele>125.26</ele>
        <time>2024-06-13T07:54:04.590Z</time>
      </trkpt>
      <trkpt lat="48.39673" lon="2.36941">
        <ele>125.26</ele>
        <time>2024-06-13T07:54:05.751Z</time>
      </trkpt>
      <trkpt lat="48.39695" lon="2.3695">
        <ele>125.13</ele>
        <time>2024-06-13T07:54:06.916Z</time>
      </trkpt>
      <trkpt lat="48.39707" lon="2.36954">
        <ele>125.06</ele>
        <time>2024-06-13T07:54:08.083Z</time>
      </trkpt>
      <trkpt lat="48.39729" lon="2.36961">
        <ele>125.02</ele>
        <time>2024-06-13T07:54:09.254Z</time>
      </trkpt>
      <trkpt lat="48.39734" lon="2.36963">
        <ele>124.98</ele>
        <time>2024-06-13T07:54:10.426Z</time>
      </trkpt>
      <trkpt lat="48.39742" lon="2.36965">
        <ele>124.94</ele>
        <time>2024-06-13T07:54:11.599Z</time>
      </trkpt>
      <trkpt lat="48.39755" lon="2.36969">
        <ele>124.78</ele>
        <time>2024-06-13T07:54:12.774Z</time>
      </trkpt>
      <trkpt lat="48.39774" lon="2.36974">
        <ele>124.47</ele>
        <time>2024-06-13T07:54:13.952Z</time>
      </trkpt>
      <trkpt lat="48.39794" lon="2.36976">
        <ele>124.15</ele>
        <time>2024-06-13T07:54:15.133Z</time>
      </trkpt>
      <trkpt lat="48.39799" lon="2.36974">
        <ele>124.08</ele>
        <time>2024-06-13T07:54:16.315Z</time>
      </trkpt>
      <trkpt lat="48.39805" lon="2.36966">
        <ele>123.91</ele>
        <time>2024-06-13T07:54:17.498Z</time>
      </trkpt>
      <trkpt lat="48.39806" lon="2.3696">
        <ele>123.83</ele>
        <time>2024-06-13T07:54:18.682Z</time>
      </trkpt>
      <trkpt lat="48.39813" lon="2.36931">
        <ele>123.34</ele>
        <time>2024-06-13T07:54:19.869Z</time>
      </trkpt>
      <trkpt lat="48.39814" lon="2.36911">
        <ele>123</ele>
        <time>2024-06-13T07:54:21.058Z</time>
      </trkpt>
      <trkpt lat="48.39814" lon="2.36905">
        <ele>122.91</ele>
        <time>2024-06-13T07:54:22.248Z</time>
      </trkpt>
      <trkpt lat="48.39814" lon="2.36894">
        <ele>122.84</ele>
        <time>2024-06-13T07:54:23.439Z</time>
      </trkpt>
      <trkpt lat="48.39814" lon="2.36891">
        <ele>122.83</ele>
        <time>2024-06-13T07:54:24.631Z</time>
      </trkpt>
      <trkpt lat="48.39813" lon="2.36885">
        <ele>122.83</ele>
        <time>2024-06-13T07:54:25.823Z</time>
      </trkpt>
      <trkpt lat="48.39812" lon="2.36872">
        <ele>122.88</ele>
        <time>2024-06-13T07:54:27.017Z</time>
      </trkpt>
      <trkpt lat="48.39809" lon="2.36845">
        <ele>123.06</ele>
        <time>2024-06-13T07:54:28.214Z</time>
      </trkpt>
      <trkpt lat="48.39808" lon="2.36832">
        <ele>123.1</ele>
        <time>2024-06-13T07:54:29.412Z</time>
      </trkpt>
      <trkpt lat="48.39805" lon="2.36802">
        <ele>123.05</ele>
        <time>2024-06-13T07:54:30.613Z</time>
      </trkpt>
      <trkpt lat="48.39805" lon="2.36793">
        <ele>123.04</ele>
        <time>2024-06-13T07:54:31.815Z</time>
      </trkpt>
      <trkpt lat="48.39806" lon="2.36773">
        <ele>122.96</ele>
        <time>2024-06-13T07:54:33.019Z</time>
      </trkpt>
      <trkpt lat="48.39811" lon="2.36783">
        <ele>123.04</ele>
        <time>2024-06-13T07:54:34.225Z</time>
      </trkpt>
      <trkpt lat="48.39814" lon="2.36788">
        <ele>123.04</ele>
        <time>2024-06-13T07:54:35.431Z</time>
      </trkpt>
      <trkpt lat="48.39817" lon="2.36793">
        <ele>122.98</ele>
        <time>2024-06-13T07:54:36.638Z</time>
      </trkpt>
      <trkpt lat="48.39817" lon="2.36793">
        <ele>122.98</ele>
        <time>2024-06-13T07:54:37.845Z</time>
      </trkpt>
      <trkpt lat="48.39821" lon="2.36796">
        <ele>122.89</ele>
        <time>2024-06-13T07:54:39.053Z</time>
      </trkpt>
      <trkpt lat="48.39831" lon="2.36806">
        <ele>122.55</ele>
        <time>2024-06-13T07:54:40.263Z</time>
      </trkpt>
      <trkpt lat="48.39835" lon="2.36812">
        <ele>122.39</ele>
        <time>2024-06-13T07:54:41.474Z</time>
      </trkpt>
      <trkpt lat="48.39837" lon="2.36816">
        <ele>122.28</ele>
        <time>2024-06-13T07:54:42.685Z</time>
      </trkpt>
      <trkpt lat="48.39839" lon="2.36824">
        <ele>122.1</ele>
        <time>2024-06-13T07:54:43.897Z</time>
      </trkpt>
      <trkpt lat="48.39841" lon="2.3683">
        <ele>121.93</ele>
        <time>2024-06-13T07:54:45.110Z</time>
      </trkpt>
      <trkpt lat="48.39845" lon="2.36842">
        <ele>121.56</ele>
        <time>2024-06-13T07:54:46.324Z</time>
      </trkpt>
      <trkpt lat="48.39846" lon="2.36848">
        <ele>121.35</ele>
        <time>2024-06-13T07:54:47.539Z</time>
      </trkpt>
      <trkpt lat="48.3985" lon="2.3686">
        <ele>120.87</ele>
        <time>2024-06-13T07:54:48.755Z</time>
      </trkpt>
      <trkpt lat="48.3985" lon="2.3686">
        <ele>120.87</ele>
        <time>2024-06-13T07:54:49.971Z</time>
      </trkpt>
      <trkpt lat="48.39856" lon="2.3687">
        <ele>120.27</ele>
        <time>2024-06-13T07:54:51.189Z</time>
      </trkpt>
      <trkpt lat="48.39865" lon="2.36885">
        <ele>119.21</ele>
        <time>2024-06-13T07:54:52.409Z</time>
      </trkpt>
      <trkpt lat="48.39867" lon="2.36891">
        <ele>118.98</ele>
        <time>2024-06-13T07:54:53.629Z</time>
      </trkpt>
      <trkpt lat="48.39869" lon="2.36896">
        <ele>118.79</ele>
        <time>2024-06-13T07:54:54.850Z</time>
      </trkpt>
      <trkpt lat="48.39871" lon="2.36902">
        <ele>118.66</ele>
        <time>2024-06-13T07:54:56.072Z</time>
      </trkpt>
      <trkpt lat="48.39873" lon="2.36908">
        <ele>118.57</ele>
        <time>2024-06-13T07:54:57.295Z</time>
      </trkpt>
      <trkpt lat="48.39873" lon="2.36909">
        <ele>118.56</ele>
        <time>2024-06-13T07:54:58.518Z</time>
      </trkpt>
      <trkpt lat="48.39875" lon="2.36913">
        <ele>118.53</ele>
        <time>2024-06-13T07:54:59.741Z</time>
      </trkpt>
      <trkpt lat="48.39881" lon="2.36922">
        <ele>118.49</ele>
        <time>2024-06-13T07:55:00.966Z</time>
      </trkpt>
      <trkpt lat="48.39888" lon="2.36933">
        <ele>118.48</ele>
        <time>2024-06-13T07:55:02.192Z</time>
      </trkpt>
      <trkpt lat="48.399" lon="2.36948">
        <ele>118.48</ele>
        <time>2024-06-13T07:55:03.421Z</time>
      </trkpt>
      <trkpt lat="48.39909" lon="2.3696">
        <ele>118.51</ele>
        <time>2024-06-13T07:55:04.652Z</time>
      </trkpt>
      <trkpt lat="48.39909" lon="2.3696">
        <ele>118.51</ele>
        <time>2024-06-13T07:55:05.883Z</time>
      </trkpt>
      <trkpt lat="48.39906" lon="2.36965">
        <ele>118.11</ele>
        <time>2024-06-13T07:55:07.114Z</time>
      </trkpt>
      <trkpt lat="48.39904" lon="2.3697">
        <ele>117.79</ele>
        <time>2024-06-13T07:55:08.346Z</time>
      </trkpt>
      <trkpt lat="48.39903" lon="2.36971">
        <ele>117.72</ele>
        <time>2024-06-13T07:55:09.578Z</time>
      </trkpt>
      <trkpt lat="48.39903" lon="2.36975">
        <ele>117.56</ele>
        <time>2024-06-13T07:55:10.811Z</time>
      </trkpt>
      <trkpt lat="48.39904" lon="2.3698">
        <ele>117.4</ele>
        <time>2024-06-13T07:55:12.044Z</time>
      </trkpt>
      <trkpt lat="48.39904" lon="2.36981">
        <ele>117.4</ele>
        <time>2024-06-13T07:55:13.277Z</time>
      </trkpt>
      <trkpt lat="48.39907" lon="2.36986">
        <ele>117.29</ele>
        <time>2024-06-13T07:55:14.511Z</time>
      </trkpt>
      <trkpt lat="48.39908" lon="2.36996">
        <ele>117.07</ele>
        <time>2024-06-13T07:55:15.746Z</time>
      </trkpt>
      <trkpt lat="48.39926" lon="2.37007">
        <ele>116.47</ele>
        <time>2024-06-13T07:55:16.984Z</time>
      </trkpt>
      <trkpt lat="48.39941" lon="2.37015">
        <ele>115.93</ele>
        <time>2024-06-13T07:55:18.225Z</time>
      </trkpt>
      <trkpt lat="48.39947" lon="2.37017">
        <ele>115.73</ele>
        <time>2024-06-13T07:55:19.467Z</time>
      </trkpt>
      <trkpt lat="48.39951" lon="2.37019">
        <ele>115.6</ele>
        <time>2024-06-13T07:55:20.709Z</time>
      </trkpt>
      <trkpt lat="48.39956" lon="2.37021">
        <ele>115.5</ele>
        <time>2024-06-13T07:55:21.952Z</time>
      </trkpt>
      <trkpt lat="48.3996" lon="2.37022">
        <ele>115.43</ele>
        <time>2024-06-13T07:55:23.196Z</time>
      </trkpt>
      <trkpt lat="48.39965" lon="2.37024">
        <ele>115.4</ele>
        <time>2024-06-13T07:55:24.441Z</time>
      </trkpt>
      <trkpt lat="48.39968" lon="2.37026">
        <ele>115.41</ele>
        <time>2024-06-13T07:55:25.686Z</time>
      </trkpt>
      <trkpt lat="48.39979" lon="2.37032">
        <ele>115.47</ele>
        <time>2024-06-13T07:55:26.933Z</time>
      </trkpt>
      <trkpt lat="48.39984" lon="2.37038">
        <ele>115.51</ele>
        <time>2024-06-13T07:55:28.181Z</time>
      </trkpt>
      <trkpt lat="48.39998" lon="2.37054">
        <ele>115.55</ele>
        <time>2024-06-13T07:55:29.432Z</time>
      </trkpt>
      <trkpt lat="48.40003" lon="2.37059">
        <ele>115.61</ele>
        <time>2024-06-13T07:55:30.684Z</time>
      </trkpt>
      <trkpt lat="48.40013" lon="2.37068">
        <ele>115.74</ele>
        <time>2024-06-13T07:55:31.938Z</time>
      </trkpt>
      <trkpt lat="48.40015" lon="2.3707">
        <ele>115.75</ele>
        <time>2024-06-13T07:55:33.192Z</time>
      </trkpt>
      <trkpt lat="48.40021" lon="2.37074">
        <ele>115.79</ele>
        <time>2024-06-13T07:55:34.447Z</time>
      </trkpt>
      <trkpt lat="48.40025" lon="2.37076">
        <ele>115.85</ele>
        <time>2024-06-13T07:55:35.703Z</time>
      </trkpt>
      <trkpt lat="48.40027" lon="2.37082">
        <ele>115.98</ele>
        <time>2024-06-13T07:55:36.959Z</time>
      </trkpt>
      <trkpt lat="48.40029" lon="2.37088">
        <ele>116.21</ele>
        <time>2024-06-13T07:55:38.216Z</time>
      </trkpt>
      <trkpt lat="48.40033" lon="2.37099">
        <ele>116.82</ele>
        <time>2024-06-13T07:55:39.475Z</time>
      </trkpt>
      <trkpt lat="48.40035" lon="2.37105">
        <ele>117.05</ele>
        <time>2024-06-13T07:55:40.734Z</time>
      </trkpt>
      <trkpt lat="48.40036" lon="2.37107">
        <ele>117.08</ele>
        <time>2024-06-13T07:55:41.994Z</time>
      </trkpt>
      <trkpt lat="48.40037" lon="2.37111">
        <ele>117.16</ele>
        <time>2024-06-13T07:55:43.254Z</time>
      </trkpt>
      <trkpt lat="48.40038" lon="2.37118">
        <ele>117.15</ele>
        <time>2024-06-13T07:55:44.515Z</time>
      </trkpt>
      <trkpt lat="48.4004" lon="2.37124">
        <ele>117.05</ele>
        <time>2024-06-13T07:55:45.776Z</time>
      </trkpt>
      <trkpt lat="48.40041" lon="2.3713">
        <ele>116.85</ele>
        <time>2024-06-13T07:55:47.038Z</time>
      </trkpt>
      <trkpt lat="48.40043" lon="2.37137">
        <ele>116.55</ele>
        <time>2024-06-13T07:55:48.301Z</time>
      </trkpt>
      <trkpt lat="48.40044" lon="2.37143">
        <ele>116.12</ele>
        <time>2024-06-13T07:55:49.565Z</time>
      </trkpt>
      <trkpt lat="48.40046" lon="2.37149">
        <ele>115.57</ele>
        <time>2024-06-13T07:55:50.829Z</time>
      </trkpt>
      <trkpt lat="48.40046" lon="2.37151">
        <ele>115.36</ele>
        <time>2024-06-13T07:55:52.093Z</time>
      </trkpt>
      <trkpt lat="48.40047" lon="2.37155">
        <ele>114.89</ele>
        <time>2024-06-13T07:55:53.358Z</time>
      </trkpt>
      <trkpt lat="48.4005" lon="2.37161">
        <ele>114.06</ele>
        <time>2024-06-13T07:55:54.624Z</time>
      </trkpt>
      <trkpt lat="48.40052" lon="2.37167">
        <ele>113.1</ele>
        <time>2024-06-13T07:55:55.890Z</time>
      </trkpt>
      <trkpt lat="48.40053" lon="2.3717">
        <ele>112.47</ele>
        <time>2024-06-13T07:55:57.157Z</time>
      </trkpt>
      <trkpt lat="48.40053" lon="2.37173">
        <ele>112.01</ele>
        <time>2024-06-13T07:55:58.424Z</time>
      </trkpt>
      <trkpt lat="48.40053" lon="2.37186">
        <ele>109.6</ele>
        <time>2024-06-13T07:55:59.692Z</time>
      </trkpt>
      <trkpt lat="48.40053" lon="2.37186">
        <ele>109.6</ele>
        <time>2024-06-13T07:56:00.960Z</time>
      </trkpt>
      <trkpt lat="48.40061" lon="2.37203">
        <ele>108.96</ele>
        <time>2024-06-13T07:56:02.231Z</time>
      </trkpt>
      <trkpt lat="48.40063" lon="2.37208">
        <ele>108.66</ele>
        <time>2024-06-13T07:56:03.502Z</time>
      </trkpt>
      <trkpt lat="48.40064" lon="2.3721">
        <ele>108.52</ele>
        <time>2024-06-13T07:56:04.774Z</time>
      </trkpt>
      <trkpt lat="48.40067" lon="2.3721">
        <ele>108.21</ele>
        <time>2024-06-13T07:56:06.046Z</time>
      </trkpt>
      <trkpt lat="48.40072" lon="2.3721">
        <ele>107.62</ele>
        <time>2024-06-13T07:56:07.319Z</time>
      </trkpt>
      <trkpt lat="48.40076" lon="2.37211">
        <ele>106.89</ele>
        <time>2024-06-13T07:56:08.593Z</time>
      </trkpt>
      <trkpt lat="48.40081" lon="2.37211">
        <ele>106.06</ele>
        <time>2024-06-13T07:56:09.867Z</time>
      </trkpt>
      <trkpt lat="48.40082" lon="2.37211">
        <ele>105.62</ele>
        <time>2024-06-13T07:56:11.141Z</time>
      </trkpt>
      <trkpt lat="48.40083" lon="2.37211">
        <ele>105.62</ele>
        <time>2024-06-13T07:56:12.416Z</time>
      </trkpt>
      <trkpt lat="48.40089" lon="2.37198">
        <ele>103.33</ele>
        <time>2024-06-13T07:56:13.692Z</time>
      </trkpt>
      <trkpt lat="48.40089" lon="2.37197">
        <ele>103.33</ele>
        <time>2024-06-13T07:56:14.968Z</time>
      </trkpt>
      <trkpt lat="48.40089" lon="2.37191">
        <ele>102.5</ele>
        <time>2024-06-13T07:56:16.245Z</time>
      </trkpt>
      <trkpt lat="48.4009" lon="2.37184">
        <ele>101.77</ele>
        <time>2024-06-13T07:56:17.523Z</time>
      </trkpt>
      <trkpt lat="48.4009" lon="2.37181">
        <ele>101.51</ele>
        <time>2024-06-13T07:56:18.801Z</time>
      </trkpt>
      <trkpt lat="48.40092" lon="2.37178">
        <ele>101.18</ele>
        <time>2024-06-13T07:56:20.080Z</time>
      </trkpt>
      <trkpt lat="48.40094" lon="2.37173">
        <ele>100.73</ele>
        <time>2024-06-13T07:56:21.359Z</time>
      </trkpt>
      <trkpt lat="48.40097" lon="2.37167">
        <ele>100.38</ele>
        <time>2024-06-13T07:56:22.639Z</time>
      </trkpt>
      <trkpt lat="48.40098" lon="2.37165">
        <ele>100.26</ele>
        <time>2024-06-13T07:56:23.919Z</time>
      </trkpt>
      <trkpt lat="48.40105" lon="2.37169">
        <ele>99.76</ele>
        <time>2024-06-13T07:56:25.200Z</time>
      </trkpt>
      <trkpt lat="48.40113" lon="2.37166">
        <ele>99.2</ele>
        <time>2024-06-13T07:56:26.483Z</time>
      </trkpt>
      <trkpt lat="48.40113" lon="2.37165">
        <ele>99.2</ele>
        <time>2024-06-13T07:56:27.766Z</time>
      </trkpt>
      <trkpt lat="48.40109" lon="2.37154">
        <ele>99.37</ele>
        <time>2024-06-13T07:56:29.050Z</time>
      </trkpt>
      <trkpt lat="48.40103" lon="2.37135">
        <ele>99.67</ele>
        <time>2024-06-13T07:56:30.336Z</time>
      </trkpt>
      <trkpt lat="48.40093" lon="2.37114">
        <ele>100.2</ele>
        <time>2024-06-13T07:56:31.625Z</time>
      </trkpt>
      <trkpt lat="48.40082" lon="2.37093">
        <ele>100.67</ele>
        <time>2024-06-13T07:56:32.917Z</time>
      </trkpt>
      <trkpt lat="48.40077" lon="2.37082">
        <ele>100.94</ele>
        <time>2024-06-13T07:56:34.211Z</time>
      </trkpt>
      <trkpt lat="48.40066" lon="2.3706">
        <ele>101.58</ele>
        <time>2024-06-13T07:56:35.507Z</time>
      </trkpt>
      <trkpt lat="48.40056" lon="2.37048">
        <ele>102.05</ele>
        <time>2024-06-13T07:56:36.806Z</time>
      </trkpt>
      <trkpt lat="48.40035" lon="2.37024">
        <ele>102.94</ele>
        <time>2024-06-13T07:56:38.109Z</time>
      </trkpt>
      <trkpt lat="48.40027" lon="2.37016">
        <ele>103.28</ele>
        <time>2024-06-13T07:56:39.413Z</time>
      </trkpt>
      <trkpt lat="48.4001" lon="2.36995">
        <ele>104.21</ele>
        <time>2024-06-13T07:56:40.721Z</time>
      </trkpt>
      <trkpt lat="48.40003" lon="2.36987">
        <ele>104.6</ele>
        <time>2024-06-13T07:56:42.030Z</time>
      </trkpt>
      <trkpt lat="48.39989" lon="2.36971">
        <ele>105.43</ele>
        <time>2024-06-13T07:56:43.342Z</time>
      </trkpt>
      <trkpt lat="48.39978" lon="2.36959">
        <ele>105.96</ele>
        <time>2024-06-13T07:56:44.656Z</time>
      </trkpt>
      <trkpt lat="48.3997" lon="2.3695">
        <ele>105.95</ele>
        <time>2024-06-13T07:56:45.972Z</time>
      </trkpt>
      <trkpt lat="48.39955" lon="2.36934">
        <ele>106.41</ele>
        <time>2024-06-13T07:56:47.291Z</time>
      </trkpt>
      <trkpt lat="48.39948" lon="2.36927">
        <ele>106.69</ele>
        <time>2024-06-13T07:56:48.611Z</time>
      </trkpt>
      <trkpt lat="48.39944" lon="2.36923">
        <ele>106.85</ele>
        <time>2024-06-13T07:56:49.932Z</time>
      </trkpt>
      <trkpt lat="48.39937" lon="2.36915">
        <ele>107.2</ele>
        <time>2024-06-13T07:56:51.254Z</time>
      </trkpt>
      <trkpt lat="48.39915" lon="2.36891">
        <ele>108.36</ele>
        <time>2024-06-13T07:56:52.581Z</time>
      </trkpt>
      <trkpt lat="48.39908" lon="2.36884">
        <ele>108.72</ele>
        <time>2024-06-13T07:56:53.909Z</time>
      </trkpt>
      <trkpt lat="48.39901" lon="2.36876">
        <ele>109.05</ele>
        <time>2024-06-13T07:56:55.238Z</time>
      </trkpt>
      <trkpt lat="48.39888" lon="2.36862">
        <ele>109.58</ele>
        <time>2024-06-13T07:56:56.570Z</time>
      </trkpt>
      <trkpt lat="48.39887" lon="2.36859">
        <ele>109.66</ele>
        <time>2024-06-13T07:56:57.902Z</time>
      </trkpt>
      <trkpt lat="48.39872" lon="2.3681">
        <ele>110.78</ele>
        <time>2024-06-13T07:56:59.240Z</time>
      </trkpt>
      <trkpt lat="48.39861" lon="2.36776">
        <ele>111.63</ele>
        <time>2024-06-13T07:57:00.582Z</time>
      </trkpt>
      <trkpt lat="48.39854" lon="2.36714">
        <ele>113.05</ele>
        <time>2024-06-13T07:57:01.931Z</time>
      </trkpt>
      <trkpt lat="48.39851" lon="2.36681">
        <ele>113.76</ele>
        <time>2024-06-13T07:57:03.283Z</time>
      </trkpt>
      <trkpt lat="48.39841" lon="2.36595">
        <ele>115.86</ele>
        <time>2024-06-13T07:57:04.645Z</time>
      </trkpt>
      <trkpt lat="48.3984" lon="2.36581">
        <ele>116.17</ele>
        <time>2024-06-13T07:57:06.008Z</time>
      </trkpt>
      <trkpt lat="48.39837" lon="2.36555">
        <ele>116.76</ele>
        <time>2024-06-13T07:57:07.374Z</time>
      </trkpt>
      <trkpt lat="48.39835" lon="2.36535">
        <ele>117.28</ele>
        <time>2024-06-13T07:57:08.742Z</time>
      </trkpt>
      <trkpt lat="48.39826" lon="2.36463">
        <ele>119.25</ele>
        <time>2024-06-13T07:57:10.118Z</time>
      </trkpt>
      <trkpt lat="48.39821" lon="2.3643">
        <ele>120.22</ele>
        <time>2024-06-13T07:57:11.497Z</time>
      </trkpt>
      <trkpt lat="48.39811" lon="2.36351">
        <ele>122.27</ele>
        <time>2024-06-13T07:57:12.885Z</time>
      </trkpt>
      <trkpt lat="48.3981" lon="2.36344">
        <ele>122.48</ele>
        <time>2024-06-13T07:57:14.274Z</time>
      </trkpt>
      <trkpt lat="48.39806" lon="2.36333">
        <ele>122.84</ele>
        <time>2024-06-13T07:57:15.664Z</time>
      </trkpt>
      <trkpt lat="48.39812" lon="2.36326">
        <ele>122.89</ele>
        <time>2024-06-13T07:57:17.055Z</time>
      </trkpt>
      <trkpt lat="48.39816" lon="2.36338">
        <ele>123.25</ele>
        <time>2024-06-13T07:57:18.448Z</time>
      </trkpt>
      <trkpt lat="48.39818" lon="2.36344">
        <ele>123.41</ele>
        <time>2024-06-13T07:57:19.841Z</time>
      </trkpt>
      <trkpt lat="48.3982" lon="2.36349">
        <ele>123.54</ele>
        <time>2024-06-13T07:57:21.235Z</time>
      </trkpt>
      <trkpt lat="48.39826" lon="2.36367">
        <ele>123.82</ele>
        <time>2024-06-13T07:57:22.631Z</time>
      </trkpt>
      <trkpt lat="48.39834" lon="2.3639">
        <ele>124.24</ele>
        <time>2024-06-13T07:57:24.030Z</time>
      </trkpt>
      <trkpt lat="48.39836" lon="2.36395">
        <ele>124.31</ele>
        <time>2024-06-13T07:57:25.430Z</time>
      </trkpt>
      <trkpt lat="48.39837" lon="2.36403">
        <ele>124.43</ele>
        <time>2024-06-13T07:57:26.831Z</time>
      </trkpt>
      <trkpt lat="48.39838" lon="2.36416">
        <ele>124.57</ele>
        <time>2024-06-13T07:57:28.233Z</time>
      </trkpt>
      <trkpt lat="48.3984" lon="2.36435">
        <ele>124.69</ele>
        <time>2024-06-13T07:57:29.637Z</time>
      </trkpt>
      <trkpt lat="48.39842" lon="2.36448">
        <ele>124.72</ele>
        <time>2024-06-13T07:57:31.042Z</time>
      </trkpt>
      <trkpt lat="48.39842" lon="2.36451">
        <ele>124.71</ele>
        <time>2024-06-13T07:57:32.448Z</time>
      </trkpt>
      <trkpt lat="48.39844" lon="2.36461">
        <ele>124.7</ele>
        <time>2024-06-13T07:57:33.855Z</time>
      </trkpt>
      <trkpt lat="48.39847" lon="2.36473">
        <ele>124.6</ele>
        <time>2024-06-13T07:57:35.263Z</time>
      </trkpt>
      <trkpt lat="48.39848" lon="2.3648">
        <ele>124.51</ele>
        <time>2024-06-13T07:57:36.672Z</time>
      </trkpt>
      <trkpt lat="48.39851" lon="2.36492">
        <ele>124.28</ele>
        <time>2024-06-13T07:57:38.082Z</time>
      </trkpt>
      <trkpt lat="48.39852" lon="2.36498">
        <ele>124.14</ele>
        <time>2024-06-13T07:57:39.493Z</time>
      </trkpt>
      <trkpt lat="48.39852" lon="2.36499">
        <ele>124.14</ele>
        <time>2024-06-13T07:57:40.904Z</time>
      </trkpt>
      <trkpt lat="48.39855" lon="2.36504">
        <ele>123.96</ele>
        <time>2024-06-13T07:57:42.316Z</time>
      </trkpt>
      <trkpt lat="48.3986" lon="2.36515">
        <ele>123.53</ele>
        <time>2024-06-13T07:57:43.729Z</time>
      </trkpt>
      <trkpt lat="48.39869" lon="2.36517">
        <ele>123</ele>
        <time>2024-06-13T07:57:45.144Z</time>
      </trkpt>
      <trkpt lat="48.3987" lon="2.36517">
        <ele>122.9</ele>
        <time>2024-06-13T07:57:46.559Z</time>
      </trkpt>
      <trkpt lat="48.39873" lon="2.36519">
        <ele>122.69</ele>
        <time>2024-06-13T07:57:47.974Z</time>
      </trkpt>
      <trkpt lat="48.39877" lon="2.36522">
        <ele>122.33</ele>
        <time>2024-06-13T07:57:49.390Z</time>
      </trkpt>
      <trkpt lat="48.39881" lon="2.36524">
        <ele>121.93</ele>
        <time>2024-06-13T07:57:50.807Z</time>
      </trkpt>
      <trkpt lat="48.39885" lon="2.36527">
        <ele>121.49</ele>
        <time>2024-06-13T07:57:52.224Z</time>
      </trkpt>
      <trkpt lat="48.39889" lon="2.36529">
        <ele>121.02</ele>
        <time>2024-06-13T07:57:53.642Z</time>
      </trkpt>
      <trkpt lat="48.39894" lon="2.36532">
        <ele>120.5</ele>
        <time>2024-06-13T07:57:55.061Z</time>
      </trkpt>
      <trkpt lat="48.39898" lon="2.36535">
        <ele>119.81</ele>
        <time>2024-06-13T07:57:56.481Z</time>
      </trkpt>
      <trkpt lat="48.39898" lon="2.36535">
        <ele>119.81</ele>
        <time>2024-06-13T07:57:57.901Z</time>
      </trkpt>
      <trkpt lat="48.39895" lon="2.36548">
        <ele>120.31</ele>
        <time>2024-06-13T07:57:59.322Z</time>
      </trkpt>
      <trkpt lat="48.39891" lon="2.36565">
        <ele>121.05</ele>
        <time>2024-06-13T07:58:00.745Z</time>
      </trkpt>
      <trkpt lat="48.39898" lon="2.36581">
        <ele>119.65</ele>
        <time>2024-06-13T07:58:02.170Z</time>
      </trkpt>
      <trkpt lat="48.39903" lon="2.36594">
        <ele>118.82</ele>
        <time>2024-06-13T07:58:03.597Z</time>
      </trkpt>
      <trkpt lat="48.39908" lon="2.36606">
        <ele>117.74</ele>
        <time>2024-06-13T07:58:05.025Z</time>
      </trkpt>
      <trkpt lat="48.39917" lon="2.36627">
        <ele>116.23</ele>
        <time>2024-06-13T07:58:06.456Z</time>
      </trkpt>
      <trkpt lat="48.39918" lon="2.36644">
        <ele>115.45</ele>
        <time>2024-06-13T07:58:07.889Z</time>
      </trkpt>
      <trkpt lat="48.39919" lon="2.3666">
        <ele>115.21</ele>
        <time>2024-06-13T07:58:09.323Z</time>
      </trkpt>
      <trkpt lat="48.39923" lon="2.36675">
        <ele>113.73</ele>
        <time>2024-06-13T07:58:10.759Z</time>
      </trkpt>
      <trkpt lat="48.39923" lon="2.36689">
        <ele>114.26</ele>
        <time>2024-06-13T07:58:12.197Z</time>
      </trkpt>
      <trkpt lat="48.39923" lon="2.36705">
        <ele>114.24</ele>
        <time>2024-06-13T07:58:13.636Z</time>
      </trkpt>
      <trkpt lat="48.39927" lon="2.36735">
        <ele>113.05</ele>
        <time>2024-06-13T07:58:15.079Z</time>
      </trkpt>
      <trkpt lat="48.39927" lon="2.36735">
        <ele>113.05</ele>
        <time>2024-06-13T07:58:16.522Z</time>
      </trkpt>
      <trkpt lat="48.39931" lon="2.3675">
        <ele>112.61</ele>
        <time>2024-06-13T07:58:17.966Z</time>
      </trkpt>
      <trkpt lat="48.39943" lon="2.36791">
        <ele>110.25</ele>
        <time>2024-06-13T07:58:19.415Z</time>
      </trkpt>
      <trkpt lat="48.39951" lon="2.368">
        <ele>108.78</ele>
        <time>2024-06-13T07:58:20.866Z</time>
      </trkpt>
      <trkpt lat="48.3996" lon="2.3681">
        <ele>107.35</ele>
        <time>2024-06-13T07:58:22.319Z</time>
      </trkpt>
      <trkpt lat="48.3996" lon="2.3681">
        <ele>107.35</ele>
        <time>2024-06-13T07:58:23.772Z</time>
      </trkpt>
      <trkpt lat="48.3997" lon="2.36818">
        <ele>105.52</ele>
        <time>2024-06-13T07:58:25.226Z</time>
      </trkpt>
      <trkpt lat="48.39976" lon="2.36829">
        <ele>104.37</ele>
        <time>2024-06-13T07:58:26.682Z</time>
      </trkpt>
      <trkpt lat="48.39982" lon="2.36844">
        <ele>103.26</ele>
        <time>2024-06-13T07:58:28.140Z</time>
      </trkpt>
      <trkpt lat="48.39986" lon="2.36856">
        <ele>102.44</ele>
        <time>2024-06-13T07:58:29.599Z</time>
      </trkpt>
      <trkpt lat="48.39992" lon="2.36872">
        <ele>102.31</ele>
        <time>2024-06-13T07:58:31.060Z</time>
      </trkpt>
      <trkpt lat="48.39992" lon="2.36872">
        <ele>102.31</ele>
        <time>2024-06-13T07:58:32.521Z</time>
      </trkpt>
      <trkpt lat="48.39995" lon="2.36886">
        <ele>102.47</ele>
        <time>2024-06-13T07:58:33.984Z</time>
      </trkpt>
      <trkpt lat="48.39995" lon="2.36886">
        <ele>102.47</ele>
        <time>2024-06-13T07:58:35.447Z</time>
      </trkpt>
      <trkpt lat="48.40001" lon="2.36898">
        <ele>101.64</ele>
        <time>2024-06-13T07:58:36.911Z</time>
      </trkpt>
      <trkpt lat="48.40004" lon="2.36911">
        <ele>100.98</ele>
        <time>2024-06-13T07:58:38.377Z</time>
      </trkpt>
      <trkpt lat="48.40004" lon="2.36925">
        <ele>101.71</ele>
        <time>2024-06-13T07:58:39.844Z</time>
      </trkpt>
      <trkpt lat="48.40009" lon="2.36939">
        <ele>101.48</ele>
        <time>2024-06-13T07:58:41.313Z</time>
      </trkpt>
      <trkpt lat="48.40011" lon="2.36954">
        <ele>103.2</ele>
        <time>2024-06-13T07:58:42.784Z</time>
      </trkpt>
      <trkpt lat="48.40012" lon="2.36978">
        <ele>104.6</ele>
        <time>2024-06-13T07:58:44.257Z</time>
      </trkpt>
      <trkpt lat="48.40012" lon="2.36978">
        <ele>104.6</ele>
        <time>2024-06-13T07:58:45.730Z</time>
      </trkpt>
      <trkpt lat="48.40005" lon="2.36991">
        <ele>106.52</ele>
        <time>2024-06-13T07:58:47.205Z</time>
      </trkpt>
      <trkpt lat="48.40027" lon="2.37015">
        <ele>103.28</ele>
        <time>2024-06-13T07:58:48.684Z</time>
      </trkpt>
      <trkpt lat="48.40034" lon="2.37023">
        <ele>102.94</ele>
        <time>2024-06-13T07:58:50.165Z</time>
      </trkpt>
      <trkpt lat="48.40055" lon="2.37048">
        <ele>102.05</ele>
        <time>2024-06-13T07:58:51.650Z</time>
      </trkpt>
      <trkpt lat="48.40066" lon="2.3706">
        <ele>101.55</ele>
        <time>2024-06-13T07:58:53.137Z</time>
      </trkpt>
      <trkpt lat="48.40076" lon="2.37081">
        <ele>100.94</ele>
        <time>2024-06-13T07:58:54.627Z</time>
      </trkpt>
      <trkpt lat="48.40082" lon="2.37092">
        <ele>100.67</ele>
        <time>2024-06-13T07:58:56.118Z</time>
      </trkpt>
      <trkpt lat="48.40092" lon="2.37113">
        <ele>100.2</ele>
        <time>2024-06-13T07:58:57.612Z</time>
      </trkpt>
      <trkpt lat="48.40103" lon="2.37135">
        <ele>99.67</ele>
        <time>2024-06-13T07:58:59.109Z</time>
      </trkpt>
      <trkpt lat="48.40106" lon="2.37131">
        <ele>100.17</ele>
        <time>2024-06-13T07:59:00.607Z</time>
      </trkpt>
      <trkpt lat="48.4011" lon="2.37127">
        <ele>100.57</ele>
        <time>2024-06-13T07:59:02.105Z</time>
      </trkpt>
      <trkpt lat="48.40113" lon="2.37123">
        <ele>100.79</ele>
        <time>2024-06-13T07:59:03.604Z</time>
      </trkpt>
      <trkpt lat="48.40113" lon="2.37123">
        <ele>100.79</ele>
        <time>2024-06-13T07:59:05.103Z</time>
      </trkpt>
      <trkpt lat="48.40117" lon="2.3712">
        <ele>100.73</ele>
        <time>2024-06-13T07:59:06.603Z</time>
      </trkpt>
      <trkpt lat="48.40121" lon="2.37117">
        <ele>100.37</ele>
        <time>2024-06-13T07:59:08.104Z</time>
      </trkpt>
      <trkpt lat="48.40121" lon="2.37117">
        <ele>100.37</ele>
        <time>2024-06-13T07:59:09.605Z</time>
      </trkpt>
      <trkpt lat="48.40126" lon="2.37116">
        <ele>99.74</ele>
        <time>2024-06-13T07:59:11.106Z</time>
      </trkpt>
      <trkpt lat="48.4013" lon="2.37115">
        <ele>98.93</ele>
        <time>2024-06-13T07:59:12.608Z</time>
      </trkpt>
      <trkpt lat="48.4014" lon="2.37112">
        <ele>96.85</ele>
        <time>2024-06-13T07:59:14.112Z</time>
      </trkpt>
      <trkpt lat="48.40143" lon="2.37114">
        <ele>96.16</ele>
        <time>2024-06-13T07:59:15.616Z</time>
      </trkpt>
      <trkpt lat="48.40147" lon="2.37116">
        <ele>95.27</ele>
        <time>2024-06-13T07:59:17.121Z</time>
      </trkpt>
      <trkpt lat="48.40149" lon="2.37117">
        <ele>94.96</ele>
        <time>2024-06-13T07:59:18.626Z</time>
      </trkpt>
      <trkpt lat="48.4015" lon="2.37121">
        <ele>94.47</ele>
        <time>2024-06-13T07:59:20.132Z</time>
      </trkpt>
      <trkpt lat="48.40151" lon="2.37127">
        <ele>93.81</ele>
        <time>2024-06-13T07:59:21.638Z</time>
      </trkpt>
      <trkpt lat="48.40152" lon="2.37134">
        <ele>93.31</ele>
        <time>2024-06-13T07:59:23.145Z</time>
      </trkpt>
      <trkpt lat="48.40154" lon="2.3714">
        <ele>92.99</ele>
        <time>2024-06-13T07:59:24.653Z</time>
      </trkpt>
      <trkpt lat="48.40155" lon="2.37147">
        <ele>92.82</ele>
        <time>2024-06-13T07:59:26.162Z</time>
      </trkpt>
      <trkpt lat="48.40156" lon="2.37152">
        <ele>92.79</ele>
        <time>2024-06-13T07:59:27.671Z</time>
      </trkpt>
      <trkpt lat="48.40156" lon="2.37153">
        <ele>92.79</ele>
        <time>2024-06-13T07:59:29.180Z</time>
      </trkpt>
      <trkpt lat="48.40159" lon="2.37159">
        <ele>92.86</ele>
        <time>2024-06-13T07:59:30.690Z</time>
      </trkpt>
      <trkpt lat="48.40161" lon="2.37164">
        <ele>93.02</ele>
        <time>2024-06-13T07:59:32.201Z</time>
      </trkpt>
      <trkpt lat="48.40164" lon="2.3717">
        <ele>93.25</ele>
        <time>2024-06-13T07:59:33.712Z</time>
      </trkpt>
      <trkpt lat="48.40166" lon="2.37175">
        <ele>93.55</ele>
        <time>2024-06-13T07:59:35.224Z</time>
      </trkpt>
      <trkpt lat="48.40167" lon="2.37177">
        <ele>93.64</ele>
        <time>2024-06-13T07:59:36.736Z</time>
      </trkpt>
      <trkpt lat="48.40169" lon="2.37188">
        <ele>94.25</ele>
        <time>2024-06-13T07:59:38.250Z</time>
      </trkpt>
      <trkpt lat="48.40169" lon="2.37195">
        <ele>94.57</ele>
        <time>2024-06-13T07:59:39.764Z</time>
      </trkpt>
      <trkpt lat="48.4017" lon="2.37202">
        <ele>94.81</ele>
        <time>2024-06-13T07:59:41.279Z</time>
      </trkpt>
      <trkpt lat="48.40171" lon="2.37207">
        <ele>94.95</ele>
        <time>2024-06-13T07:59:42.795Z</time>
      </trkpt>
      <trkpt lat="48.40171" lon="2.37208">
        <ele>94.95</ele>
        <time>2024-06-13T07:59:44.311Z</time>
      </trkpt>
      <trkpt lat="48.40174" lon="2.37214">
        <ele>94.95</ele>
        <time>2024-06-13T07:59:45.827Z</time>
      </trkpt>
      <trkpt lat="48.40176" lon="2.3722">
        <ele>94.82</ele>
        <time>2024-06-13T07:59:47.344Z</time>
      </trkpt>
      <trkpt lat="48.40178" lon="2.37225">
        <ele>94.56</ele>
        <time>2024-06-13T07:59:48.862Z</time>
      </trkpt>
      <trkpt lat="48.4018" lon="2.37229">
        <ele>94.31</ele>
        <time>2024-06-13T07:59:50.380Z</time>
      </trkpt>
      <trkpt lat="48.40181" lon="2.37231">
        <ele>94.18</ele>
        <time>2024-06-13T07:59:51.899Z</time>
      </trkpt>
      <trkpt lat="48.40184" lon="2.37236">
        <ele>93.7</ele>
        <time>2024-06-13T07:59:53.418Z</time>
      </trkpt>
      <trkpt lat="48.40187" lon="2.37241">
        <ele>93.12</ele>
        <time>2024-06-13T07:59:54.938Z</time>
      </trkpt>
      <trkpt lat="48.4019" lon="2.37246">
        <ele>92.48</ele>
        <time>2024-06-13T07:59:56.459Z</time>
      </trkpt>
      <trkpt lat="48.40205" lon="2.37261">
        <ele>89.62</ele>
        <time>2024-06-13T07:59:57.983Z</time>
      </trkpt>
      <trkpt lat="48.40208" lon="2.37265">
        <ele>89</ele>
        <time>2024-06-13T07:59:59.507Z</time>
      </trkpt>
      <trkpt lat="48.40211" lon="2.37271">
        <ele>88.28</ele>
        <time>2024-06-13T08:00:01.032Z</time>
      </trkpt>
      <trkpt lat="48.40216" lon="2.37282">
        <ele>87.07</ele>
        <time>2024-06-13T08:00:02.558Z</time>
      </trkpt>
      <trkpt lat="48.40219" lon="2.37287">
        <ele>86.54</ele>
        <time>2024-06-13T08:00:04.085Z</time>
      </trkpt>
      <trkpt lat="48.40221" lon="2.37293">
        <ele>86.06</ele>
        <time>2024-06-13T08:00:05.613Z</time>
      </trkpt>
      <trkpt lat="48.40224" lon="2.37298">
        <ele>85.63</ele>
        <time>2024-06-13T08:00:07.142Z</time>
      </trkpt>
      <trkpt lat="48.40227" lon="2.37304">
        <ele>85.21</ele>
        <time>2024-06-13T08:00:08.671Z</time>
      </trkpt>
      <trkpt lat="48.40228" lon="2.3731">
        <ele>84.88</ele>
        <time>2024-06-13T08:00:10.201Z</time>
      </trkpt>
      <trkpt lat="48.40231" lon="2.37319">
        <ele>84.38</ele>
        <time>2024-06-13T08:00:11.732Z</time>
      </trkpt>
      <trkpt lat="48.4023" lon="2.37322">
        <ele>84.22</ele>
        <time>2024-06-13T08:00:13.263Z</time>
      </trkpt>
      <trkpt lat="48.40229" lon="2.37329">
        <ele>83.91</ele>
        <time>2024-06-13T08:00:14.795Z</time>
      </trkpt>
      <trkpt lat="48.40226" lon="2.37341">
        <ele>83.34</ele>
        <time>2024-06-13T08:00:16.329Z</time>
      </trkpt>
      <trkpt lat="48.4022" lon="2.37368">
        <ele>82.26</ele>
        <time>2024-06-13T08:00:17.866Z</time>
      </trkpt>
      <trkpt lat="48.4023" lon="2.37371">
        <ele>81.47</ele>
        <time>2024-06-13T08:00:19.404Z</time>
      </trkpt>
      <trkpt lat="48.40244" lon="2.3738">
        <ele>80.41</ele>
        <time>2024-06-13T08:00:20.945Z</time>
      </trkpt>
      <trkpt lat="48.40248" lon="2.37382">
        <ele>80.08</ele>
        <time>2024-06-13T08:00:22.486Z</time>
      </trkpt>
      <trkpt lat="48.40252" lon="2.37385">
        <ele>79.71</ele>
        <time>2024-06-13T08:00:24.028Z</time>
      </trkpt>
      <trkpt lat="48.40263" lon="2.37392">
        <ele>78.47</ele>
        <time>2024-06-13T08:00:25.572Z</time>
      </trkpt>
      <trkpt lat="48.40267" lon="2.37395">
        <ele>78.09</ele>
        <time>2024-06-13T08:00:27.117Z</time>
      </trkpt>
      <trkpt lat="48.40269" lon="2.37396">
        <ele>77.96</ele>
        <time>2024-06-13T08:00:28.662Z</time>
      </trkpt>
      <trkpt lat="48.40272" lon="2.37397">
        <ele>77.78</ele>
        <time>2024-06-13T08:00:30.207Z</time>
      </trkpt>
      <trkpt lat="48.40276" lon="2.37398">
        <ele>77.53</ele>
        <time>2024-06-13T08:00:31.753Z</time>
      </trkpt>
      <trkpt lat="48.40284" lon="2.374">
        <ele>77.14</ele>
        <time>2024-06-13T08:00:33.301Z</time>
      </trkpt>
      <trkpt lat="48.40289" lon="2.37401">
        <ele>76.92</ele>
        <time>2024-06-13T08:00:34.849Z</time>
      </trkpt>
      <trkpt lat="48.40292" lon="2.37402">
        <ele>76.65</ele>
        <time>2024-06-13T08:00:36.398Z</time>
      </trkpt>
      <trkpt lat="48.40293" lon="2.37402">
        <ele>76.65</ele>
        <time>2024-06-13T08:00:37.947Z</time>
      </trkpt>
      <trkpt lat="48.40302" lon="2.374">
        <ele>76</ele>
        <time>2024-06-13T08:00:39.497Z</time>
      </trkpt>
      <trkpt lat="48.4031" lon="2.37404">
        <ele>75.43</ele>
        <time>2024-06-13T08:00:41.049Z</time>
      </trkpt>
      <trkpt lat="48.40314" lon="2.37406">
        <ele>75.18</ele>
        <time>2024-06-13T08:00:42.601Z</time>
      </trkpt>
      <trkpt lat="48.40318" lon="2.37409">
        <ele>74.97</ele>
        <time>2024-06-13T08:00:44.154Z</time>
      </trkpt>
      <trkpt lat="48.40327" lon="2.37413">
        <ele>74.65</ele>
        <time>2024-06-13T08:00:45.709Z</time>
      </trkpt>
      <trkpt lat="48.4033" lon="2.37415">
        <ele>74.54</ele>
        <time>2024-06-13T08:00:47.264Z</time>
      </trkpt>
      <trkpt lat="48.40334" lon="2.3742">
        <ele>74.39</ele>
        <time>2024-06-13T08:00:48.820Z</time>
      </trkpt>
      <trkpt lat="48.40348" lon="2.37438">
        <ele>73.94</ele>
        <time>2024-06-13T08:00:50.379Z</time>
      </trkpt>
      <trkpt lat="48.40358" lon="2.37451">
        <ele>73.64</ele>
        <time>2024-06-13T08:00:51.940Z</time>
      </trkpt>
      <trkpt lat="48.40359" lon="2.37452">
        <ele>73.6</ele>
        <time>2024-06-13T08:00:53.501Z</time>
      </trkpt>
      <trkpt lat="48.40359" lon="2.37457">
        <ele>73.54</ele>
        <time>2024-06-13T08:00:55.063Z</time>
      </trkpt>
      <trkpt lat="48.4036" lon="2.3747">
        <ele>73.4</ele>
        <time>2024-06-13T08:00:56.626Z</time>
      </trkpt>
      <trkpt lat="48.40362" lon="2.37502">
        <ele>73.14</ele>
        <time>2024-06-13T08:00:58.193Z</time>
      </trkpt>
      <trkpt lat="48.40362" lon="2.37504">
        <ele>73.13</ele>
        <time>2024-06-13T08:00:59.760Z</time>
      </trkpt>
      <trkpt lat="48.4036" lon="2.37517">
        <ele>72.99</ele>
        <time>2024-06-13T08:01:01.328Z</time>
      </trkpt>
      <trkpt lat="48.40358" lon="2.37543">
        <ele>72.44</ele>
        <time>2024-06-13T08:01:02.899Z</time>
      </trkpt>
      <trkpt lat="48.40356" lon="2.3756">
        <ele>72.12</ele>
        <time>2024-06-13T08:01:04.472Z</time>
      </trkpt>
      <trkpt lat="48.40356" lon="2.37583">
        <ele>71.69</ele>
        <time>2024-06-13T08:01:06.047Z</time>
      </trkpt>
      <trkpt lat="48.40356" lon="2.37598">
        <ele>71.44</ele>
        <time>2024-06-13T08:01:07.624Z</time>
      </trkpt>
      <trkpt lat="48.40354" lon="2.3761">
        <ele>71.25</ele>
        <time>2024-06-13T08:01:09.202Z</time>
      </trkpt>
      <trkpt lat="48.4035" lon="2.37629">
        <ele>70.97</ele>
        <time>2024-06-13T08:01:10.782Z</time>
      </trkpt>
      <trkpt lat="48.40342" lon="2.37675">
        <ele>70.44</ele>
        <time>2024-06-13T08:01:12.367Z</time>
      </trkpt>
      <trkpt lat="48.4034" lon="2.37688">
        <ele>70.32</ele>
        <time>2024-06-13T08:01:13.954Z</time>
      </trkpt>
      <trkpt lat="48.40328" lon="2.37707">
        <ele>70.11</ele>
        <time>2024-06-13T08:01:15.544Z</time>
      </trkpt>
      <trkpt lat="48.40322" lon="2.37717">
        <ele>69.98</ele>
        <time>2024-06-13T08:01:17.135Z</time>
      </trkpt>
      <trkpt lat="48.40316" lon="2.37727">
        <ele>69.8</ele>
        <time>2024-06-13T08:01:18.728Z</time>
      </trkpt>
      <trkpt lat="48.40307" lon="2.37741">
        <ele>69.5</ele>
        <time>2024-06-13T08:01:20.323Z</time>
      </trkpt>
      <trkpt lat="48.403" lon="2.37751">
        <ele>69.35</ele>
        <time>2024-06-13T08:01:21.919Z</time>
      </trkpt>
      <trkpt lat="48.40294" lon="2.37761">
        <ele>69.25</ele>
        <time>2024-06-13T08:01:23.517Z</time>
      </trkpt>
      <trkpt lat="48.40285" lon="2.37775">
        <ele>69.19</ele>
        <time>2024-06-13T08:01:25.117Z</time>
      </trkpt>
      <trkpt lat="48.40283" lon="2.37779">
        <ele>69.16</ele>
        <time>2024-06-13T08:01:26.717Z</time>
      </trkpt>
      <trkpt lat="48.40279" lon="2.37786">
        <ele>69.11</ele>
        <time>2024-06-13T08:01:28.318Z</time>
      </trkpt>
      <trkpt lat="48.40268" lon="2.37807">
        <ele>68.91</ele>
        <time>2024-06-13T08:01:29.922Z</time>
      </trkpt>
      <trkpt lat="48.40263" lon="2.37817">
        <ele>68.79</ele>
        <time>2024-06-13T08:01:31.527Z</time>
      </trkpt>
      <trkpt lat="48.40257" lon="2.37828">
        <ele>68.64</ele>
        <time>2024-06-13T08:01:33.134Z</time>
      </trkpt>
      <trkpt lat="48.40253" lon="2.37836">
        <ele>68.45</ele>
        <time>2024-06-13T08:01:34.742Z</time>
      </trkpt>
      <trkpt lat="48.40247" lon="2.3784">
        <ele>68.28</ele>
        <time>2024-06-13T08:01:36.351Z</time>
      </trkpt>
      <trkpt lat="48.40246" lon="2.37841">
        <ele>68.27</ele>
        <time>2024-06-13T08:01:37.960Z</time>
      </trkpt>
      <trkpt lat="48.40245" lon="2.37851">
        <ele>68.22</ele>
        <time>2024-06-13T08:01:39.570Z</time>
      </trkpt>
      <trkpt lat="48.40248" lon="2.37866">
        <ele>68.15</ele>
        <time>2024-06-13T08:01:41.182Z</time>
      </trkpt>
      <trkpt lat="48.40253" lon="2.37875">
        <ele>68.11</ele>
        <time>2024-06-13T08:01:42.795Z</time>
      </trkpt>
      <trkpt lat="48.40261" lon="2.3789">
        <ele>68.12</ele>
        <time>2024-06-13T08:01:44.410Z</time>
      </trkpt>
      <trkpt lat="48.40262" lon="2.37892">
        <ele>68.1</ele>
        <time>2024-06-13T08:01:46.025Z</time>
      </trkpt>
      <trkpt lat="48.40258" lon="2.37908">
        <ele>67.96</ele>
        <time>2024-06-13T08:01:47.642Z</time>
      </trkpt>
      <trkpt lat="48.40254" lon="2.37921">
        <ele>67.82</ele>
        <time>2024-06-13T08:01:49.261Z</time>
      </trkpt>
      <trkpt lat="48.40253" lon="2.37927">
        <ele>67.73</ele>
        <time>2024-06-13T08:01:50.881Z</time>
      </trkpt>
      <trkpt lat="48.40249" lon="2.3794">
        <ele>67.5</ele>
        <time>2024-06-13T08:01:52.502Z</time>
      </trkpt>
      <trkpt lat="48.40244" lon="2.37958">
        <ele>67.1</ele>
        <time>2024-06-13T08:01:54.125Z</time>
      </trkpt>
      <trkpt lat="48.40238" lon="2.37983">
        <ele>66.71</ele>
        <time>2024-06-13T08:01:55.751Z</time>
      </trkpt>
      <trkpt lat="48.40233" lon="2.38002">
        <ele>66.37</ele>
        <time>2024-06-13T08:01:57.379Z</time>
      </trkpt>
      <trkpt lat="48.40226" lon="2.38027">
        <ele>65.99</ele>
        <time>2024-06-13T08:01:59.010Z</time>
      </trkpt>
      <trkpt lat="48.40221" lon="2.38046">
        <ele>65.76</ele>
        <time>2024-06-13T08:02:00.643Z</time>
      </trkpt>
      <trkpt lat="48.40218" lon="2.38059">
        <ele>65.64</ele>
        <time>2024-06-13T08:02:02.278Z</time>
      </trkpt>
      <trkpt lat="48.40208" lon="2.38096">
        <ele>65.35</ele>
        <time>2024-06-13T08:02:03.917Z</time>
      </trkpt>
      <trkpt lat="48.40206" lon="2.38102">
        <ele>65.33</ele>
        <time>2024-06-13T08:02:05.557Z</time>
      </trkpt>
      <trkpt lat="48.40204" lon="2.38109">
        <ele>65.34</ele>
        <time>2024-06-13T08:02:07.197Z</time>
      </trkpt>
      <trkpt lat="48.40198" lon="2.38134">
        <ele>65.46</ele>
        <time>2024-06-13T08:02:08.840Z</time>
      </trkpt>
      <trkpt lat="48.40197" lon="2.38136">
        <ele>65.45</ele>
        <time>2024-06-13T08:02:10.483Z</time>
      </trkpt>
      <trkpt lat="48.40177" lon="2.38132">
        <ele>65.38</ele>
        <time>2024-06-13T08:02:12.130Z</time>
      </trkpt>
      <trkpt lat="48.40151" lon="2.38126">
        <ele>65.32</ele>
        <time>2024-06-13T08:02:13.781Z</time>
      </trkpt>
      <trkpt lat="48.40129" lon="2.38121">
        <ele>65.16</ele>
        <time>2024-06-13T08:02:15.435Z</time>
      </trkpt>
      <trkpt lat="48.40107" lon="2.38116">
        <ele>65.07</ele>
        <time>2024-06-13T08:02:17.093Z</time>
      </trkpt>
      <trkpt lat="48.40094" lon="2.38113">
        <ele>65.07</ele>
        <time>2024-06-13T08:02:18.753Z</time>
      </trkpt>
      <trkpt lat="48.40077" lon="2.38109">
        <ele>65.16</ele>
        <time>2024-06-13T08:02:20.416Z</time>
      </trkpt>
      <trkpt lat="48.40075" lon="2.38109">
        <ele>65.17</ele>
        <time>2024-06-13T08:02:22.079Z</time>
      </trkpt>
      <trkpt lat="48.4005" lon="2.38105">
        <ele>65.36</ele>
        <time>2024-06-13T08:02:23.746Z</time>
      </trkpt>
      <trkpt lat="48.40028" lon="2.38102">
        <ele>65.55</ele>
        <time>2024-06-13T08:02:25.417Z</time>
      </trkpt>
      <trkpt lat="48.40026" lon="2.38102">
        <ele>65.56</ele>
        <time>2024-06-13T08:02:27.088Z</time>
      </trkpt>
      <trkpt lat="48.40011" lon="2.38099">
        <ele>65.67</ele>
        <time>2024-06-13T08:02:28.762Z</time>
      </trkpt>
      <trkpt lat="48.40003" lon="2.38097">
        <ele>65.77</ele>
        <time>2024-06-13T08:02:30.437Z</time>
      </trkpt>
      <trkpt lat="48.39994" lon="2.38096">
        <ele>65.92</ele>
        <time>2024-06-13T08:02:32.113Z</time>
      </trkpt>
      <trkpt lat="48.39973" lon="2.38092">
        <ele>66.35</ele>
        <time>2024-06-13T08:02:33.793Z</time>
      </trkpt>
      <trkpt lat="48.39965" lon="2.3809">
        <ele>66.49</ele>
        <time>2024-06-13T08:02:35.474Z</time>
      </trkpt>
      <trkpt lat="48.39951" lon="2.38088">
        <ele>66.78</ele>
        <time>2024-06-13T08:02:37.157Z</time>
      </trkpt>
      <trkpt lat="48.39938" lon="2.38085">
        <ele>66.99</ele>
        <time>2024-06-13T08:02:38.842Z</time>
      </trkpt>
      <trkpt lat="48.39916" lon="2.38087">
        <ele>67.26</ele>
        <time>2024-06-13T08:02:40.531Z</time>
      </trkpt>
      <trkpt lat="48.39909" lon="2.38087">
        <ele>67.32</ele>
        <time>2024-06-13T08:02:42.221Z</time>
      </trkpt>
      <trkpt lat="48.39907" lon="2.38088">
        <ele>67.35</ele>
        <time>2024-06-13T08:02:43.911Z</time>
      </trkpt>
      <trkpt lat="48.39898" lon="2.38091">
        <ele>67.4</ele>
        <time>2024-06-13T08:02:45.603Z</time>
      </trkpt>
      <trkpt lat="48.39894" lon="2.38093">
        <ele>67.4</ele>
        <time>2024-06-13T08:02:47.296Z</time>
      </trkpt>
      <trkpt lat="48.39885" lon="2.38096">
        <ele>67.36</ele>
        <time>2024-06-13T08:02:48.990Z</time>
      </trkpt>
      <trkpt lat="48.3985" lon="2.38109">
        <ele>66.97</ele>
        <time>2024-06-13T08:02:50.690Z</time>
      </trkpt>
      <trkpt lat="48.39848" lon="2.3811">
        <ele>66.95</ele>
        <time>2024-06-13T08:02:52.390Z</time>
      </trkpt>
      <trkpt lat="48.39841" lon="2.38111">
        <ele>66.9</ele>
        <time>2024-06-13T08:02:54.091Z</time>
      </trkpt>
      <trkpt lat="48.3982" lon="2.38113">
        <ele>66.76</ele>
        <time>2024-06-13T08:02:55.796Z</time>
      </trkpt>
      <trkpt lat="48.398" lon="2.38113">
        <ele>66.63</ele>
        <time>2024-06-13T08:02:57.504Z</time>
      </trkpt>
      <trkpt lat="48.39784" lon="2.38103">
        <ele>66.53</ele>
        <time>2024-06-13T08:02:59.214Z</time>
      </trkpt>
      <trkpt lat="48.39783" lon="2.38102">
        <ele>66.52</ele>
        <time>2024-06-13T08:03:00.925Z</time>
      </trkpt>
      <trkpt lat="48.3977" lon="2.38089">
        <ele>66.47</ele>
        <time>2024-06-13T08:03:02.638Z</time>
      </trkpt>
      <trkpt lat="48.39766" lon="2.38085">
        <ele>66.44</ele>
        <time>2024-06-13T08:03:04.352Z</time>
      </trkpt>
      <trkpt lat="48.39744" lon="2.38059">
        <ele>66.24</ele>
        <time>2024-06-13T08:03:06.070Z</time>
      </trkpt>
      <trkpt lat="48.39742" lon="2.38057">
        <ele>66.23</ele>
        <time>2024-06-13T08:03:07.789Z</time>
      </trkpt>
      <trkpt lat="48.39716" lon="2.38032">
        <ele>66.09</ele>
        <time>2024-06-13T08:03:09.513Z</time>
      </trkpt>
      <trkpt lat="48.39696" lon="2.38017">
        <ele>66</ele>
        <time>2024-06-13T08:03:11.240Z</time>
      </trkpt>
      <trkpt lat="48.39689" lon="2.38012">
        <ele>66</ele>
        <time>2024-06-13T08:03:12.969Z</time>
      </trkpt>
      <trkpt lat="48.39673" lon="2.37998">
        <ele>66</ele>
        <time>2024-06-13T08:03:14.701Z</time>
      </trkpt>
      <trkpt lat="48.39661" lon="2.37988">
        <ele>66.05</ele>
        <time>2024-06-13T08:03:16.435Z</time>
      </trkpt>
      <trkpt lat="48.3965" lon="2.37979">
        <ele>66.16</ele>
        <time>2024-06-13T08:03:18.171Z</time>
      </trkpt>
      <trkpt lat="48.39648" lon="2.37977">
        <ele>66.09</ele>
        <time>2024-06-13T08:03:19.907Z</time>
      </trkpt>
      <trkpt lat="48.39646" lon="2.38014">
        <ele>65.25</ele>
        <time>2024-06-13T08:03:21.647Z</time>
      </trkpt>
      <trkpt lat="48.39645" lon="2.38034">
        <ele>64.86</ele>
        <time>2024-06-13T08:03:23.389Z</time>
      </trkpt>
      <trkpt lat="48.39644" lon="2.38048">
        <ele>64.56</ele>
        <time>2024-06-13T08:03:25.133Z</time>
      </trkpt>
      <trkpt lat="48.39643" lon="2.38075">
        <ele>63.84</ele>
        <time>2024-06-13T08:03:26.880Z</time>
      </trkpt>
      <trkpt lat="48.39642" lon="2.38095">
        <ele>63.23</ele>
        <time>2024-06-13T08:03:28.629Z</time>
      </trkpt>
      <trkpt lat="48.39641" lon="2.38102">
        <ele>63.04</ele>
        <time>2024-06-13T08:03:30.378Z</time>
      </trkpt>
      <trkpt lat="48.39641" lon="2.38108">
        <ele>62.88</ele>
        <time>2024-06-13T08:03:32.128Z</time>
      </trkpt>
      <trkpt lat="48.39641" lon="2.38115">
        <ele>62.75</ele>
        <time>2024-06-13T08:03:33.879Z</time>
      </trkpt>
      <trkpt lat="48.3964" lon="2.38122">
        <ele>62.65</ele>
        <time>2024-06-13T08:03:35.631Z</time>
      </trkpt>
      <trkpt lat="48.3964" lon="2.38135">
        <ele>62.51</ele>
        <time>2024-06-13T08:03:37.384Z</time>
      </trkpt>
      <trkpt lat="48.39637" lon="2.38189">
        <ele>62.15</ele>
        <time>2024-06-13T08:03:39.143Z</time>
      </trkpt>
      <trkpt lat="48.39634" lon="2.3825">
        <ele>61.9</ele>
        <time>2024-06-13T08:03:40.908Z</time>
      </trkpt>
      <trkpt lat="48.39632" lon="2.38283">
        <ele>61.8</ele>
        <time>2024-06-13T08:03:42.677Z</time>
      </trkpt>
      <trkpt lat="48.3963" lon="2.38317">
        <ele>61.58</ele>
        <time>2024-06-13T08:03:44.450Z</time>
      </trkpt>
      <trkpt lat="48.39629" lon="2.3833">
        <ele>61.53</ele>
        <time>2024-06-13T08:03:46.224Z</time>
      </trkpt>
      <trkpt lat="48.39629" lon="2.38337">
        <ele>61.54</ele>
        <time>2024-06-13T08:03:47.999Z</time>
      </trkpt>
      <trkpt lat="48.39625" lon="2.38343">
        <ele>61.55</ele>
        <time>2024-06-13T08:03:49.775Z</time>
      </trkpt>
      <trkpt lat="48.39622" lon="2.38343">
        <ele>61.57</ele>
        <time>2024-06-13T08:03:51.551Z</time>
      </trkpt>
      <trkpt lat="48.39608" lon="2.38344">
        <ele>61.57</ele>
        <time>2024-06-13T08:03:53.329Z</time>
      </trkpt>
      <trkpt lat="48.39595" lon="2.38345">
        <ele>61.63</ele>
        <time>2024-06-13T08:03:55.109Z</time>
      </trkpt>
      <trkpt lat="48.39586" lon="2.38346">
        <ele>61.69</ele>
        <time>2024-06-13T08:03:56.891Z</time>
      </trkpt>
      <trkpt lat="48.39568" lon="2.38347">
        <ele>61.89</ele>
        <time>2024-06-13T08:03:58.676Z</time>
      </trkpt>
      <trkpt lat="48.39554" lon="2.38349">
        <ele>61.98</ele>
        <time>2024-06-13T08:04:00.463Z</time>
      </trkpt>
      <trkpt lat="48.3955" lon="2.38349">
        <ele>61.98</ele>
        <time>2024-06-13T08:04:02.251Z</time>
      </trkpt>
      <trkpt lat="48.39541" lon="2.3835">
        <ele>61.94</ele>
        <time>2024-06-13T08:04:04.040Z</time>
      </trkpt>
      <trkpt lat="48.3951" lon="2.38352">
        <ele>61.64</ele>
        <time>2024-06-13T08:04:05.834Z</time>
      </trkpt>
      <trkpt lat="48.39501" lon="2.38353">
        <ele>61.6</ele>
        <time>2024-06-13T08:04:07.629Z</time>
      </trkpt>
      <trkpt lat="48.39492" lon="2.38353">
        <ele>61.66</ele>
        <time>2024-06-13T08:04:09.426Z</time>
      </trkpt>
      <trkpt lat="48.39474" lon="2.38355">
        <ele>61.85</ele>
        <time>2024-06-13T08:04:11.226Z</time>
      </trkpt>
      <trkpt lat="48.39472" lon="2.38355">
        <ele>61.87</ele>
        <time>2024-06-13T08:04:13.026Z</time>
      </trkpt>
      <trkpt lat="48.39466" lon="2.38342">
        <ele>62.03</ele>
        <time>2024-06-13T08:04:14.828Z</time>
      </trkpt>
      <trkpt lat="48.39447" lon="2.38318">
        <ele>62.32</ele>
        <time>2024-06-13T08:04:16.634Z</time>
      </trkpt>
      <trkpt lat="48.3944" lon="2.38309">
        <ele>62.45</ele>
        <time>2024-06-13T08:04:18.441Z</time>
      </trkpt>
      <trkpt lat="48.39437" lon="2.38307">
        <ele>62.51</ele>
        <time>2024-06-13T08:04:20.249Z</time>
      </trkpt>
      <trkpt lat="48.39435" lon="2.38306">
        <ele>62.36</ele>
        <time>2024-06-13T08:04:22.057Z</time>
      </trkpt>
      <trkpt lat="48.39433" lon="2.38306">
        <ele>62.2</ele>
        <time>2024-06-13T08:04:23.865Z</time>
      </trkpt>
      <trkpt lat="48.3943" lon="2.38305">
        <ele>62.17</ele>
        <time>2024-06-13T08:04:25.674Z</time>
      </trkpt>
      <trkpt lat="48.39429" lon="2.38318">
        <ele>62.11</ele>
        <time>2024-06-13T08:04:27.484Z</time>
      </trkpt>
      <trkpt lat="48.39429" lon="2.38337">
        <ele>62.07</ele>
        <time>2024-06-13T08:04:29.296Z</time>
      </trkpt>
      <trkpt lat="48.39428" lon="2.38349">
        <ele>62.08</ele>
        <time>2024-06-13T08:04:31.110Z</time>
      </trkpt>
      <trkpt lat="48.39427" lon="2.38376">
        <ele>62.06</ele>
        <time>2024-06-13T08:04:32.926Z</time>
      </trkpt>
      <trkpt lat="48.39426" lon="2.38404">
        <ele>62.01</ele>
        <time>2024-06-13T08:04:34.745Z</time>
      </trkpt>
      <trkpt lat="48.39426" lon="2.38409">
        <ele>62.01</ele>
        <time>2024-06-13T08:04:36.565Z</time>
      </trkpt>
      <trkpt lat="48.39423" lon="2.38433">
        <ele>62.01</ele>
        <time>2024-06-13T08:04:38.388Z</time>
      </trkpt>
      <trkpt lat="48.3942" lon="2.38447">
        <ele>62.02</ele>
        <time>2024-06-13T08:04:40.212Z</time>
      </trkpt>
      <trkpt lat="48.39419" lon="2.38452">
        <ele>62.01</ele>
        <time>2024-06-13T08:04:42.037Z</time>
      </trkpt>
      <trkpt lat="48.39411" lon="2.38471">
        <ele>62.01</ele>
        <time>2024-06-13T08:04:43.864Z</time>
      </trkpt>
      <trkpt lat="48.39392" lon="2.38515">
        <ele>62.01</ele>
        <time>2024-06-13T08:04:45.697Z</time>
      </trkpt>
      <trkpt lat="48.3938" lon="2.38542">
        <ele>61.93</ele>
        <time>2024-06-13T08:04:47.533Z</time>
      </trkpt>
      <trkpt lat="48.39372" lon="2.38567">
        <ele>61.87</ele>
        <time>2024-06-13T08:04:49.372Z</time>
      </trkpt>
      <trkpt lat="48.39361" lon="2.38602">
        <ele>61.89</ele>
        <time>2024-06-13T08:04:51.215Z</time>
      </trkpt>
      <trkpt lat="48.39345" lon="2.3865">
        <ele>61.95</ele>
        <time>2024-06-13T08:04:53.064Z</time>
      </trkpt>
      <trkpt lat="48.39344" lon="2.38654">
        <ele>61.95</ele>
        <time>2024-06-13T08:04:54.913Z</time>
      </trkpt>
      <trkpt lat="48.39331" lon="2.38702">
        <ele>61.95</ele>
        <time>2024-06-13T08:04:56.768Z</time>
      </trkpt>
      <trkpt lat="48.39328" lon="2.38716">
        <ele>61.95</ele>
        <time>2024-06-13T08:04:58.625Z</time>
      </trkpt>
      <trkpt lat="48.39321" lon="2.38748">
        <ele>62</ele>
        <time>2024-06-13T08:05:00.485Z</time>
      </trkpt>
      <trkpt lat="48.3931" lon="2.38805">
        <ele>62.09</ele>
        <time>2024-06-13T08:05:02.351Z</time>
      </trkpt>
      <trkpt lat="48.39308" lon="2.38818">
        <ele>62.08</ele>
        <time>2024-06-13T08:05:04.219Z</time>
      </trkpt>
      <trkpt lat="48.39299" lon="2.38862">
        <ele>61.97</ele>
        <time>2024-06-13T08:05:06.092Z</time>
      </trkpt>
      <trkpt lat="48.39291" lon="2.38907">
        <ele>61.93</ele>
        <time>2024-06-13T08:05:07.970Z</time>
      </trkpt>
      <trkpt lat="48.39287" lon="2.38926">
        <ele>61.97</ele>
        <time>2024-06-13T08:05:09.850Z</time>
      </trkpt>
      <trkpt lat="48.39281" lon="2.38958">
        <ele>62.13</ele>
        <time>2024-06-13T08:05:11.733Z</time>
      </trkpt>
      <trkpt lat="48.39276" lon="2.38989">
        <ele>62.18</ele>
        <time>2024-06-13T08:05:13.620Z</time>
      </trkpt>
      <trkpt lat="48.39266" lon="2.39038">
        <ele>62.34</ele>
        <time>2024-06-13T08:05:15.512Z</time>
      </trkpt>
      <trkpt lat="48.39258" lon="2.39082">
        <ele>62.57</ele>
        <time>2024-06-13T08:05:17.409Z</time>
      </trkpt>
      <trkpt lat="48.39257" lon="2.39087">
        <ele>62.57</ele>
        <time>2024-06-13T08:05:19.307Z</time>
      </trkpt>
      <trkpt lat="48.39254" lon="2.391">
        <ele>62.6</ele>
        <time>2024-06-13T08:05:21.206Z</time>
      </trkpt>
      <trkpt lat="48.39244" lon="2.3914">
        <ele>62.73</ele>
        <time>2024-06-13T08:05:23.110Z</time>
      </trkpt>
      <trkpt lat="48.39243" lon="2.39145">
        <ele>62.76</ele>
        <time>2024-06-13T08:05:25.014Z</time>
      </trkpt>
      <trkpt lat="48.39243" lon="2.39177">
        <ele>62.94</ele>
        <time>2024-06-13T08:05:26.922Z</time>
      </trkpt>
      <trkpt lat="48.39243" lon="2.39183">
        <ele>62.98</ele>
        <time>2024-06-13T08:05:28.830Z</time>
      </trkpt>
      <trkpt lat="48.39244" lon="2.39223">
        <ele>63.28</ele>
        <time>2024-06-13T08:05:30.743Z</time>
      </trkpt>
      <trkpt lat="48.39244" lon="2.39234">
        <ele>63.32</ele>
        <time>2024-06-13T08:05:32.657Z</time>
      </trkpt>
      <trkpt lat="48.39245" lon="2.39256">
        <ele>63.35</ele>
        <time>2024-06-13T08:05:34.573Z</time>
      </trkpt>
      <trkpt lat="48.39245" lon="2.39261">
        <ele>63.36</ele>
        <time>2024-06-13T08:05:36.490Z</time>
      </trkpt>
      <trkpt lat="48.39247" lon="2.39279">
        <ele>63.42</ele>
        <time>2024-06-13T08:05:38.409Z</time>
      </trkpt>
      <trkpt lat="48.39251" lon="2.39313">
        <ele>63.53</ele>
        <time>2024-06-13T08:05:40.331Z</time>
      </trkpt>
      <trkpt lat="48.39254" lon="2.39339">
        <ele>63.63</ele>
        <time>2024-06-13T08:05:42.256Z</time>
      </trkpt>
      <trkpt lat="48.39255" lon="2.39346">
        <ele>63.66</ele>
        <time>2024-06-13T08:05:44.182Z</time>
      </trkpt>
      <trkpt lat="48.3926" lon="2.39368">
        <ele>63.72</ele>
        <time>2024-06-13T08:05:46.110Z</time>
      </trkpt>
      <trkpt lat="48.39268" lon="2.39396">
        <ele>63.82</ele>
        <time>2024-06-13T08:05:48.042Z</time>
      </trkpt>
      <trkpt lat="48.39273" lon="2.39414">
        <ele>63.94</ele>
        <time>2024-06-13T08:05:49.976Z</time>
      </trkpt>
      <trkpt lat="48.39285" lon="2.39457">
        <ele>64.26</ele>
        <time>2024-06-13T08:05:51.915Z</time>
      </trkpt>
      <trkpt lat="48.39302" lon="2.39515">
        <ele>64.64</ele>
        <time>2024-06-13T08:05:53.860Z</time>
      </trkpt>
      <trkpt lat="48.39303" lon="2.3952">
        <ele>64.66</ele>
        <time>2024-06-13T08:05:55.806Z</time>
      </trkpt>
      <trkpt lat="48.39289" lon="2.39526">
        <ele>64.77</ele>
        <time>2024-06-13T08:05:57.754Z</time>
      </trkpt>
      <trkpt lat="48.39281" lon="2.39523">
        <ele>64.83</ele>
        <time>2024-06-13T08:05:59.704Z</time>
      </trkpt>
      <trkpt lat="48.39265" lon="2.39503">
        <ele>65</ele>
        <time>2024-06-13T08:06:01.657Z</time>
      </trkpt>
      <trkpt lat="48.39257" lon="2.39491">
        <ele>65.1</ele>
        <time>2024-06-13T08:06:03.612Z</time>
      </trkpt>
      <trkpt lat="48.39255" lon="2.39488">
        <ele>65.08</ele>
        <time>2024-06-13T08:06:05.567Z</time>
      </trkpt>
      <trkpt lat="48.3925" lon="2.39474">
        <ele>65.05</ele>
        <time>2024-06-13T08:06:07.524Z</time>
      </trkpt>
      <trkpt lat="48.39249" lon="2.3947">
        <ele>66.16</ele>
        <time>2024-06-13T08:06:09.481Z</time>
      </trkpt>
      <trkpt lat="48.39248" lon="2.39471">
        <ele>66.21</ele>
        <time>2024-06-13T08:06:11.439Z</time>
      </trkpt>
      <trkpt lat="48.39245" lon="2.39474">
        <ele>66.45</ele>
        <time>2024-06-13T08:06:13.397Z</time>
      </trkpt>
      <trkpt lat="48.39238" lon="2.39473">
        <ele>66.96</ele>
        <time>2024-06-13T08:06:15.356Z</time>
      </trkpt>
      <trkpt lat="48.39227" lon="2.39471">
        <ele>68.1</ele>
        <time>2024-06-13T08:06:17.317Z</time>
      </trkpt>
      <trkpt lat="48.39224" lon="2.3947">
        <ele>68.59</ele>
        <time>2024-06-13T08:06:19.279Z</time>
      </trkpt>
      <trkpt lat="48.39218" lon="2.39474">
        <ele>69.56</ele>
        <time>2024-06-13T08:06:21.242Z</time>
      </trkpt>
      <trkpt lat="48.39215" lon="2.39476">
        <ele>69.99</ele>
        <time>2024-06-13T08:06:23.205Z</time>
      </trkpt>
      <trkpt lat="48.39197" lon="2.39496">
        <ele>72.93</ele>
        <time>2024-06-13T08:06:25.172Z</time>
      </trkpt>
      <trkpt lat="48.39194" lon="2.39499">
        <ele>75.01</ele>
        <time>2024-06-13T08:06:27.139Z</time>
      </trkpt>
      <trkpt lat="48.39194" lon="2.39501">
        <ele>74.85</ele>
        <time>2024-06-13T08:06:29.107Z</time>
      </trkpt>
      <trkpt lat="48.39196" lon="2.39507">
        <ele>74.28</ele>
        <time>2024-06-13T08:06:31.075Z</time>
      </trkpt>
      <trkpt lat="48.39197" lon="2.39513">
        <ele>73.64</ele>
        <time>2024-06-13T08:06:33.044Z</time>
      </trkpt>
      <trkpt lat="48.392" lon="2.39532">
        <ele>71.6</ele>
        <time>2024-06-13T08:06:35.015Z</time>
      </trkpt>
      <trkpt lat="48.39201" lon="2.39535">
        <ele>71.37</ele>
        <time>2024-06-13T08:06:36.986Z</time>
      </trkpt>
      <trkpt lat="48.39202" lon="2.39536">
        <ele>71.21</ele>
        <time>2024-06-13T08:06:38.958Z</time>
      </trkpt>
      <trkpt lat="48.39206" lon="2.3954">
        <ele>70.87</ele>
        <time>2024-06-13T08:06:40.930Z</time>
      </trkpt>
      <trkpt lat="48.39209" lon="2.39544">
        <ele>70.59</ele>
        <time>2024-06-13T08:06:42.903Z</time>
      </trkpt>
      <trkpt lat="48.39213" lon="2.39547">
        <ele>70.38</ele>
        <time>2024-06-13T08:06:44.877Z</time>
      </trkpt>
      <trkpt lat="48.39216" lon="2.39551">
        <ele>70.24</ele>
        <time>2024-06-13T08:06:46.851Z</time>
      </trkpt>
      <trkpt lat="48.3922" lon="2.39554">
        <ele>70.18</ele>
        <time>2024-06-13T08:06:48.826Z</time>
      </trkpt>
      <trkpt lat="48.39223" lon="2.39558">
        <ele>70.21</ele>
        <time>2024-06-13T08:06:50.802Z</time>
      </trkpt>
      <trkpt lat="48.39224" lon="2.39559">
        <ele>70.25</ele>
        <time>2024-06-13T08:06:52.778Z</time>
      </trkpt>
      <trkpt lat="48.39225" lon="2.39563">
        <ele>70.34</ele>
        <time>2024-06-13T08:06:54.754Z</time>
      </trkpt>
      <trkpt lat="48.39226" lon="2.39569">
        <ele>70.58</ele>
        <time>2024-06-13T08:06:56.731Z</time>
      </trkpt>
      <trkpt lat="48.39227" lon="2.39575">
        <ele>70.9</ele>
        <time>2024-06-13T08:06:58.709Z</time>
      </trkpt>
      <trkpt lat="48.39228" lon="2.39581">
        <ele>71.27</ele>
        <time>2024-06-13T08:07:00.687Z</time>
      </trkpt>
      <trkpt lat="48.3923" lon="2.39598">
        <ele>71.83</ele>
        <time>2024-06-13T08:07:02.667Z</time>
      </trkpt>
      <trkpt lat="48.39232" lon="2.39609">
        <ele>72.12</ele>
        <time>2024-06-13T08:07:04.648Z</time>
      </trkpt>
      <trkpt lat="48.39233" lon="2.39613">
        <ele>72.4</ele>
        <time>2024-06-13T08:07:06.630Z</time>
      </trkpt>
      <trkpt lat="48.39232" lon="2.39623">
        <ele>73.12</ele>
        <time>2024-06-13T08:07:08.613Z</time>
      </trkpt>
      <trkpt lat="48.39232" lon="2.3963">
        <ele>73.52</ele>
        <time>2024-06-13T08:07:10.597Z</time>
      </trkpt>
      <trkpt lat="48.39233" lon="2.39636">
        <ele>73.81</ele>
        <time>2024-06-13T08:07:12.581Z</time>
      </trkpt>
      <trkpt lat="48.39235" lon="2.39642">
        <ele>73.98</ele>
        <time>2024-06-13T08:07:14.566Z</time>
      </trkpt>
      <trkpt lat="48.39236" lon="2.39648">
        <ele>74.06</ele>
        <time>2024-06-13T08:07:16.552Z</time>
      </trkpt>
      <trkpt lat="48.39238" lon="2.39654">
        <ele>74.06</ele>
        <time>2024-06-13T08:07:18.538Z</time>
      </trkpt>
      <trkpt lat="48.39239" lon="2.39661">
        <ele>74.03</ele>
        <time>2024-06-13T08:07:20.525Z</time>
      </trkpt>
      <trkpt lat="48.39242" lon="2.39674">
        <ele>73.91</ele>
        <time>2024-06-13T08:07:22.513Z</time>
      </trkpt>
      <trkpt lat="48.39242" lon="2.3968">
        <ele>73.87</ele>
        <time>2024-06-13T08:07:24.502Z</time>
      </trkpt>
      <trkpt lat="48.39242" lon="2.39687">
        <ele>73.88</ele>
        <time>2024-06-13T08:07:26.492Z</time>
      </trkpt>
      <trkpt lat="48.39243" lon="2.39693">
        <ele>73.94</ele>
        <time>2024-06-13T08:07:28.483Z</time>
      </trkpt>
      <trkpt lat="48.39243" lon="2.397">
        <ele>74.05</ele>
        <time>2024-06-13T08:07:30.474Z</time>
      </trkpt>
      <trkpt lat="48.39244" lon="2.3972">
        <ele>74.47</ele>
        <time>2024-06-13T08:07:32.467Z</time>
      </trkpt>
      <trkpt lat="48.39244" lon="2.39728">
        <ele>74.57</ele>
        <time>2024-06-13T08:07:34.461Z</time>
      </trkpt>
      <trkpt lat="48.39245" lon="2.39733">
        <ele>74.62</ele>
        <time>2024-06-13T08:07:36.456Z</time>
      </trkpt>
      <trkpt lat="48.39247" lon="2.39739">
        <ele>74.64</ele>
        <time>2024-06-13T08:07:38.452Z</time>
      </trkpt>
      <trkpt lat="48.39248" lon="2.39746">
        <ele>74.61</ele>
        <time>2024-06-13T08:07:40.448Z</time>
      </trkpt>
      <trkpt lat="48.3925" lon="2.39752">
        <ele>74.55</ele>
        <time>2024-06-13T08:07:42.445Z</time>
      </trkpt>
      <trkpt lat="48.39251" lon="2.39757">
        <ele>74.46</ele>
        <time>2024-06-13T08:07:44.443Z</time>
      </trkpt>
      <trkpt lat="48.39251" lon="2.39765">
        <ele>74.34</ele>
        <time>2024-06-13T08:07:46.441Z</time>
      </trkpt>
      <trkpt lat="48.3925" lon="2.39778">
        <ele>74.08</ele>
        <time>2024-06-13T08:07:48.441Z</time>
      </trkpt>
      <trkpt lat="48.3925" lon="2.39782">
        <ele>74.08</ele>
        <time>2024-06-13T08:07:50.441Z</time>
      </trkpt>
      <trkpt lat="48.39251" lon="2.39784">
        <ele>74.08</ele>
        <time>2024-06-13T08:07:52.441Z</time>
      </trkpt>
      <trkpt lat="48.39252" lon="2.3979">
        <ele>74.11</ele>
        <time>2024-06-13T08:07:54.442Z</time>
      </trkpt>
      <trkpt lat="48.39254" lon="2.39795">
        <ele>74.21</ele>
        <time>2024-06-13T08:07:56.444Z</time>
      </trkpt>
      <trkpt lat="48.39255" lon="2.39799">
        <ele>74.31</ele>
        <time>2024-06-13T08:07:58.446Z</time>
      </trkpt>
      <trkpt lat="48.39254" lon="2.39801">
        <ele>74.37</ele>
        <time>2024-06-13T08:08:00.448Z</time>
      </trkpt>
      <trkpt lat="48.39252" lon="2.39805">
        <ele>74.58</ele>
        <time>2024-06-13T08:08:02.451Z</time>
      </trkpt>
      <trkpt lat="48.39247" lon="2.39815">
        <ele>75.1</ele>
        <time>2024-06-13T08:08:04.455Z</time>
      </trkpt>
      <trkpt lat="48.39241" lon="2.39824">
        <ele>75.7</ele>
        <time>2024-06-13T08:08:06.461Z</time>
      </trkpt>
      <trkpt lat="48.3924" lon="2.39827">
        <ele>75.81</ele>
        <time>2024-06-13T08:08:08.467Z</time>
      </trkpt>
      <trkpt lat="48.39238" lon="2.39843">
        <ele>76.32</ele>
        <time>2024-06-13T08:08:10.475Z</time>
      </trkpt>
      <trkpt lat="48.39236" lon="2.39855">
        <ele>76.69</ele>
        <time>2024-06-13T08:08:12.484Z</time>
      </trkpt>
      <trkpt lat="48.39236" lon="2.39862">
        <ele>76.85</ele>
        <time>2024-06-13T08:08:14.494Z</time>
      </trkpt>
      <trkpt lat="48.39235" lon="2.39868">
        <ele>76.99</ele>
        <time>2024-06-13T08:08:16.504Z</time>
      </trkpt>
      <trkpt lat="48.39234" lon="2.39875">
        <ele>77.09</ele>
        <time>2024-06-13T08:08:18.515Z</time>
      </trkpt>
      <trkpt lat="48.39232" lon="2.39887">
        <ele>77.24</ele>
        <time>2024-06-13T08:08:20.528Z</time>
      </trkpt>
      <trkpt lat="48.39229" lon="2.39913">
        <ele>77.48</ele>
        <time>2024-06-13T08:08:22.543Z</time>
      </trkpt>
      <trkpt lat="48.39228" lon="2.39921">
        <ele>77.53</ele>
        <time>2024-06-13T08:08:24.559Z</time>
      </trkpt>
      <trkpt lat="48.39228" lon="2.39945">
        <ele>77.7</ele>
        <time>2024-06-13T08:08:26.578Z</time>
      </trkpt>
      <trkpt lat="48.39228" lon="2.39949">
        <ele>77.57</ele>
        <time>2024-06-13T08:08:28.597Z</time>
      </trkpt>
      <trkpt lat="48.3923" lon="2.39951">
        <ele>77.48</ele>
        <time>2024-06-13T08:08:30.617Z</time>
      </trkpt>
      <trkpt lat="48.39233" lon="2.39954">
        <ele>77.24</ele>
        <time>2024-06-13T08:08:32.637Z</time>
      </trkpt>
      <trkpt lat="48.39237" lon="2.39957">
        <ele>76.96</ele>
        <time>2024-06-13T08:08:34.658Z</time>
      </trkpt>
      <trkpt lat="48.39239" lon="2.39959">
        <ele>76.81</ele>
        <time>2024-06-13T08:08:36.679Z</time>
      </trkpt>
      <trkpt lat="48.3925" lon="2.3996">
        <ele>76.04</ele>
        <time>2024-06-13T08:08:38.702Z</time>
      </trkpt>
      <trkpt lat="48.39254" lon="2.3996">
        <ele>75.76</ele>
        <time>2024-06-13T08:08:40.726Z</time>
      </trkpt>
      <trkpt lat="48.39259" lon="2.39961">
        <ele>75.5</ele>
        <time>2024-06-13T08:08:42.750Z</time>
      </trkpt>
      <trkpt lat="48.39263" lon="2.39961">
        <ele>75.27</ele>
        <time>2024-06-13T08:08:44.775Z</time>
      </trkpt>
      <trkpt lat="48.39264" lon="2.39961">
        <ele>75.22</ele>
        <time>2024-06-13T08:08:46.800Z</time>
      </trkpt>
      <trkpt lat="48.39267" lon="2.39962">
        <ele>75.07</ele>
        <time>2024-06-13T08:08:48.826Z</time>
      </trkpt>
      <trkpt lat="48.39272" lon="2.39963">
        <ele>74.89</ele>
        <time>2024-06-13T08:08:50.853Z</time>
      </trkpt>
      <trkpt lat="48.39276" lon="2.39964">
        <ele>74.74</ele>
        <time>2024-06-13T08:08:52.880Z</time>
      </trkpt>
      <trkpt lat="48.39293" lon="2.39968">
        <ele>74.22</ele>
        <time>2024-06-13T08:08:54.910Z</time>
      </trkpt>
      <trkpt lat="48.39298" lon="2.39968">
        <ele>74.07</ele>
        <time>2024-06-13T08:08:56.941Z</time>
      </trkpt>
      <trkpt lat="48.393" lon="2.39969">
        <ele>73.96</ele>
        <time>2024-06-13T08:08:58.972Z</time>
      </trkpt>
      <trkpt lat="48.39306" lon="2.39971">
        <ele>73.7</ele>
        <time>2024-06-13T08:09:01.004Z</time>
      </trkpt>
      <trkpt lat="48.39332" lon="2.3998">
        <ele>72.49</ele>
        <time>2024-06-13T08:09:03.040Z</time>
      </trkpt>
      <trkpt lat="48.39333" lon="2.3998">
        <ele>72.42</ele>
        <time>2024-06-13T08:09:05.077Z</time>
      </trkpt>
      <trkpt lat="48.39336" lon="2.39982">
        <ele>72.27</ele>
        <time>2024-06-13T08:09:07.114Z</time>
      </trkpt>
      <trkpt lat="48.3934" lon="2.39984">
        <ele>72.03</ele>
        <time>2024-06-13T08:09:09.152Z</time>
      </trkpt>
      <trkpt lat="48.39344" lon="2.39986">
        <ele>71.76</ele>
        <time>2024-06-13T08:09:11.190Z</time>
      </trkpt>
      <trkpt lat="48.39357" lon="2.39992">
        <ele>70.87</ele>
        <time>2024-06-13T08:09:13.230Z</time>
      </trkpt>
      <trkpt lat="48.39359" lon="2.39993">
        <ele>71.02</ele>
        <time>2024-06-13T08:09:15.271Z</time>
      </trkpt>
      <trkpt lat="48.39359" lon="2.40002">
        <ele>71.4</ele>
        <time>2024-06-13T08:09:17.313Z</time>
      </trkpt>
      <trkpt lat="48.39359" lon="2.40015">
        <ele>71.99</ele>
        <time>2024-06-13T08:09:19.356Z</time>
      </trkpt>
      <trkpt lat="48.39358" lon="2.40041">
        <ele>73.24</ele>
        <time>2024-06-13T08:09:21.402Z</time>
      </trkpt>
      <trkpt lat="48.39358" lon="2.4006">
        <ele>74.24</ele>
        <time>2024-06-13T08:09:23.450Z</time>
      </trkpt>
      <trkpt lat="48.39358" lon="2.40064">
        <ele>74.48</ele>
        <time>2024-06-13T08:09:25.498Z</time>
      </trkpt>
      <trkpt lat="48.39357" lon="2.40087">
        <ele>75.83</ele>
        <time>2024-06-13T08:09:27.549Z</time>
      </trkpt>
      <trkpt lat="48.39357" lon="2.40109">
        <ele>77.1</ele>
        <time>2024-06-13T08:09:29.602Z</time>
      </trkpt>
      <trkpt lat="48.39351" lon="2.40115">
        <ele>77.73</ele>
        <time>2024-06-13T08:09:31.656Z</time>
      </trkpt>
      <trkpt lat="48.39347" lon="2.40118">
        <ele>78.16</ele>
        <time>2024-06-13T08:09:33.711Z</time>
      </trkpt>
      <trkpt lat="48.39343" lon="2.40121">
        <ele>78.62</ele>
        <time>2024-06-13T08:09:35.767Z</time>
      </trkpt>
      <trkpt lat="48.39339" lon="2.40125">
        <ele>79.14</ele>
        <time>2024-06-13T08:09:37.824Z</time>
      </trkpt>
      <trkpt lat="48.39331" lon="2.40131">
        <ele>80.36</ele>
        <time>2024-06-13T08:09:39.882Z</time>
      </trkpt>
      <trkpt lat="48.39325" lon="2.40137">
        <ele>81.5</ele>
        <time>2024-06-13T08:09:41.941Z</time>
      </trkpt>
      <trkpt lat="48.39324" lon="2.40138">
        <ele>81.73</ele>
        <time>2024-06-13T08:09:44.000Z</time>
      </trkpt>
      <trkpt lat="48.39317" lon="2.40146">
        <ele>83.22</ele>
        <time>2024-06-13T08:09:46.061Z</time>
      </trkpt>
      <trkpt lat="48.3931" lon="2.40154">
        <ele>84.86</ele>
        <time>2024-06-13T08:09:48.123Z</time>
      </trkpt>
      <trkpt lat="48.39292" lon="2.40174">
        <ele>89.09</ele>
        <time>2024-06-13T08:09:50.189Z</time>
      </trkpt>
      <trkpt lat="48.39274" lon="2.40194">
        <ele>93.19</ele>
        <time>2024-06-13T08:09:52.258Z</time>
      </trkpt>
      <trkpt lat="48.39267" lon="2.40203">
        <ele>94.78</ele>
        <time>2024-06-13T08:09:54.329Z</time>
      </trkpt>
      <trkpt lat="48.39263" lon="2.40207">
        <ele>95.52</ele>
        <time>2024-06-13T08:09:56.401Z</time>
      </trkpt>
      <trkpt lat="48.3926" lon="2.40211">
        <ele>96.2</ele>
        <time>2024-06-13T08:09:58.473Z</time>
      </trkpt>
      <trkpt lat="48.39256" lon="2.40215">
        <ele>96.82</ele>
        <time>2024-06-13T08:10:00.546Z</time>
      </trkpt>
      <trkpt lat="48.39249" lon="2.40223">
        <ele>97.93</ele>
        <time>2024-06-13T08:10:02.620Z</time>
      </trkpt>
      <trkpt lat="48.39247" lon="2.40225">
        <ele>98</ele>
        <time>2024-06-13T08:10:04.695Z</time>
      </trkpt>
      <trkpt lat="48.39259" lon="2.403">
        <ele>99.51</ele>
        <time>2024-06-13T08:10:06.778Z</time>
      </trkpt>
      <trkpt lat="48.39272" lon="2.40379">
        <ele>101.23</ele>
        <time>2024-06-13T08:10:08.870Z</time>
      </trkpt>
      <trkpt lat="48.39277" lon="2.40411">
        <ele>102.04</ele>
        <time>2024-06-13T08:10:10.965Z</time>
      </trkpt>
      <trkpt lat="48.39279" lon="2.40424">
        <ele>102.38</ele>
        <time>2024-06-13T08:10:13.062Z</time>
      </trkpt>
      <trkpt lat="48.3928" lon="2.40429">
        <ele>102.51</ele>
        <time>2024-06-13T08:10:15.159Z</time>
      </trkpt>
      <trkpt lat="48.39281" lon="2.40444">
        <ele>102.96</ele>
        <time>2024-06-13T08:10:17.258Z</time>
      </trkpt>
      <trkpt lat="48.39282" lon="2.4045">
        <ele>103.13</ele>
        <time>2024-06-13T08:10:19.357Z</time>
      </trkpt>
      <trkpt lat="48.3928" lon="2.40483">
        <ele>104.12</ele>
        <time>2024-06-13T08:10:21.460Z</time>
      </trkpt>
      <trkpt lat="48.39276" lon="2.40504">
        <ele>104.77</ele>
        <time>2024-06-13T08:10:23.565Z</time>
      </trkpt>
      <trkpt lat="48.39275" lon="2.40509">
        <ele>104.91</ele>
        <time>2024-06-13T08:10:25.671Z</time>
      </trkpt>
      <trkpt lat="48.39266" lon="2.40534">
        <ele>105.68</ele>
        <time>2024-06-13T08:10:27.780Z</time>
      </trkpt>
      <trkpt lat="48.39265" lon="2.40536">
        <ele>105.75</ele>
        <time>2024-06-13T08:10:29.889Z</time>
      </trkpt>
      <trkpt lat="48.39251" lon="2.40559">
        <ele>106.62</ele>
        <time>2024-06-13T08:10:32.001Z</time>
      </trkpt>
      <trkpt lat="48.39239" lon="2.40579">
        <ele>107.3</ele>
        <time>2024-06-13T08:10:34.116Z</time>
      </trkpt>
      <trkpt lat="48.39224" lon="2.40604">
        <ele>108.11</ele>
        <time>2024-06-13T08:10:36.235Z</time>
      </trkpt>
      <trkpt lat="48.39208" lon="2.40631">
        <ele>109.09</ele>
        <time>2024-06-13T08:10:38.358Z</time>
      </trkpt>
      <trkpt lat="48.39207" lon="2.40634">
        <ele>109.2</ele>
        <time>2024-06-13T08:10:40.481Z</time>
      </trkpt>
      <trkpt lat="48.39197" lon="2.40654">
        <ele>109.88</ele>
        <time>2024-06-13T08:10:42.607Z</time>
      </trkpt>
      <trkpt lat="48.39195" lon="2.40662">
        <ele>110.14</ele>
        <time>2024-06-13T08:10:44.734Z</time>
      </trkpt>
      <trkpt lat="48.39191" lon="2.40675">
        <ele>110.48</ele>
        <time>2024-06-13T08:10:46.862Z</time>
      </trkpt>
      <trkpt lat="48.39187" lon="2.40687">
        <ele>110.79</ele>
        <time>2024-06-13T08:10:48.992Z</time>
      </trkpt>
      <trkpt lat="48.39183" lon="2.40713">
        <ele>111.42</ele>
        <time>2024-06-13T08:10:51.125Z</time>
      </trkpt>
      <trkpt lat="48.39182" lon="2.40724">
        <ele>111.71</ele>
        <time>2024-06-13T08:10:53.259Z</time>
      </trkpt>
      <trkpt lat="48.39184" lon="2.40774">
        <ele>113.04</ele>
        <time>2024-06-13T08:10:55.398Z</time>
      </trkpt>
      <trkpt lat="48.39191" lon="2.40805">
        <ele>113.92</ele>
        <time>2024-06-13T08:10:57.541Z</time>
      </trkpt>
      <trkpt lat="48.39192" lon="2.4081">
        <ele>114.04</ele>
        <time>2024-06-13T08:10:59.684Z</time>
      </trkpt>
      <trkpt lat="48.39205" lon="2.40848">
        <ele>115.11</ele>
        <time>2024-06-13T08:11:01.832Z</time>
      </trkpt>
      <trkpt lat="48.39215" lon="2.40877">
        <ele>115.91</ele>
        <time>2024-06-13T08:11:03.983Z</time>
      </trkpt>
      <trkpt lat="48.39219" lon="2.40889">
        <ele>116.26</ele>
        <time>2024-06-13T08:11:06.136Z</time>
      </trkpt>
      <trkpt lat="48.3922" lon="2.40893">
        <ele>116.37</ele>
        <time>2024-06-13T08:11:08.289Z</time>
      </trkpt>
      <trkpt lat="48.39231" lon="2.40918">
        <ele>117.22</ele>
        <time>2024-06-13T08:11:10.445Z</time>
      </trkpt>
      <trkpt lat="48.39234" lon="2.40925">
        <ele>117.49</ele>
        <time>2024-06-13T08:11:12.602Z</time>
      </trkpt>
      <trkpt lat="48.39241" lon="2.4094">
        <ele>118.06</ele>
        <time>2024-06-13T08:11:14.761Z</time>
      </trkpt>
      <trkpt lat="48.39249" lon="2.40956">
        <ele>118.72</ele>
        <time>2024-06-13T08:11:16.922Z</time>
      </trkpt>
      <trkpt lat="48.3925" lon="2.40958">
        <ele>118.79</ele>
        <time>2024-06-13T08:11:19.083Z</time>
      </trkpt>
      <trkpt lat="48.39255" lon="2.40966">
        <ele>119.1</ele>
        <time>2024-06-13T08:11:21.246Z</time>
      </trkpt>
      <trkpt lat="48.39261" lon="2.40976">
        <ele>119.51</ele>
        <time>2024-06-13T08:11:23.410Z</time>
      </trkpt>
      <trkpt lat="48.39267" lon="2.40986">
        <ele>119.95</ele>
        <time>2024-06-13T08:11:25.575Z</time>
      </trkpt>
      <trkpt lat="48.39276" lon="2.41001">
        <ele>120.66</ele>
        <time>2024-06-13T08:11:27.743Z</time>
      </trkpt>
      <trkpt lat="48.39282" lon="2.41011">
        <ele>121.1</ele>
        <time>2024-06-13T08:11:29.912Z</time>
      </trkpt>
      <trkpt lat="48.39284" lon="2.41016">
        <ele>121.28</ele>
        <time>2024-06-13T08:11:32.082Z</time>
      </trkpt>
      <trkpt lat="48.39288" lon="2.41022">
        <ele>121.46</ele>
        <time>2024-06-13T08:11:34.253Z</time>
      </trkpt>
      <trkpt lat="48.39291" lon="2.41026">
        <ele>121.59</ele>
        <time>2024-06-13T08:11:36.424Z</time>
      </trkpt>
      <trkpt lat="48.39304" lon="2.41043">
        <ele>122.09</ele>
        <time>2024-06-13T08:11:38.598Z</time>
      </trkpt>
      <trkpt lat="48.39323" lon="2.41068">
        <ele>122.74</ele>
        <time>2024-06-13T08:11:40.776Z</time>
      </trkpt>
      <trkpt lat="48.39354" lon="2.41099">
        <ele>123.72</ele>
        <time>2024-06-13T08:11:42.960Z</time>
      </trkpt>
      <trkpt lat="48.39361" lon="2.41106">
        <ele>123.94</ele>
        <time>2024-06-13T08:11:45.145Z</time>
      </trkpt>
      <trkpt lat="48.39369" lon="2.41114">
        <ele>124.13</ele>
        <time>2024-06-13T08:11:47.332Z</time>
      </trkpt>
      <trkpt lat="48.3938" lon="2.41125">
        <ele>124.35</ele>
        <time>2024-06-13T08:11:49.521Z</time>
      </trkpt>
      <trkpt lat="48.3939" lon="2.41135">
        <ele>124.52</ele>
        <time>2024-06-13T08:11:51.712Z</time>
      </trkpt>
      <trkpt lat="48.39405" lon="2.41153">
        <ele>124.79</ele>
        <time>2024-06-13T08:11:53.906Z</time>
      </trkpt>
      <trkpt lat="48.39422" lon="2.41174">
        <ele>125.04</ele>
        <time>2024-06-13T08:11:56.104Z</time>
      </trkpt>
      <trkpt lat="48.39435" lon="2.41191">
        <ele>125.27</ele>
        <time>2024-06-13T08:11:58.304Z</time>
      </trkpt>
      <trkpt lat="48.39437" lon="2.41193">
        <ele>125.27</ele>
        <time>2024-06-13T08:12:00.505Z</time>
      </trkpt>
      <trkpt lat="48.3945" lon="2.41207">
        <ele>125.31</ele>
        <time>2024-06-13T08:12:02.708Z</time>
      </trkpt>
      <trkpt lat="48.39481" lon="2.41242">
        <ele>125.35</ele>
        <time>2024-06-13T08:12:04.917Z</time>
      </trkpt>
      <trkpt lat="48.39482" lon="2.41242">
        <ele>125.35</ele>
        <time>2024-06-13T08:12:07.127Z</time>
      </trkpt>
      <trkpt lat="48.39504" lon="2.41263">
        <ele>125.3</ele>
        <time>2024-06-13T08:12:09.341Z</time>
      </trkpt>
      <trkpt lat="48.39515" lon="2.41274">
        <ele>125.23</ele>
        <time>2024-06-13T08:12:11.557Z</time>
      </trkpt>
      <trkpt lat="48.39526" lon="2.41284">
        <ele>125.1</ele>
        <time>2024-06-13T08:12:13.775Z</time>
      </trkpt>
      <trkpt lat="48.39534" lon="2.41291">
        <ele>124.96</ele>
        <time>2024-06-13T08:12:15.994Z</time>
      </trkpt>
      <trkpt lat="48.39543" lon="2.413">
        <ele>124.75</ele>
        <time>2024-06-13T08:12:18.215Z</time>
      </trkpt>
      <trkpt lat="48.39545" lon="2.41302">
        <ele>124.71</ele>
        <time>2024-06-13T08:12:20.437Z</time>
      </trkpt>
      <trkpt lat="48.39565" lon="2.41317">
        <ele>124.23</ele>
        <time>2024-06-13T08:12:22.662Z</time>
      </trkpt>
      <trkpt lat="48.39577" lon="2.41326">
        <ele>124.02</ele>
        <time>2024-06-13T08:12:24.889Z</time>
      </trkpt>
      <trkpt lat="48.39588" lon="2.41335">
        <ele>123.88</ele>
        <time>2024-06-13T08:12:27.118Z</time>
      </trkpt>
      <trkpt lat="48.39604" lon="2.41347">
        <ele>123.82</ele>
        <time>2024-06-13T08:12:29.350Z</time>
      </trkpt>
      <trkpt lat="48.39606" lon="2.41349">
        <ele>123.82</ele>
        <time>2024-06-13T08:12:31.583Z</time>
      </trkpt>
      <trkpt lat="48.39603" lon="2.41358">
        <ele>123.84</ele>
        <time>2024-06-13T08:12:33.817Z</time>
      </trkpt>
      <trkpt lat="48.396" lon="2.41371">
        <ele>123.89</ele>
        <time>2024-06-13T08:12:36.052Z</time>
      </trkpt>
      <trkpt lat="48.39595" lon="2.41389">
        <ele>124.02</ele>
        <time>2024-06-13T08:12:38.289Z</time>
      </trkpt>
      <trkpt lat="48.39595" lon="2.4139">
        <ele>124.02</ele>
        <time>2024-06-13T08:12:40.526Z</time>
      </trkpt>
      <trkpt lat="48.3959" lon="2.41422">
        <ele>124.3</ele>
        <time>2024-06-13T08:12:42.767Z</time>
      </trkpt>
      <trkpt lat="48.39588" lon="2.41433">
        <ele>124.41</ele>
        <time>2024-06-13T08:12:45.009Z</time>
      </trkpt>
      <trkpt lat="48.39588" lon="2.41449">
        <ele>124.59</ele>
        <time>2024-06-13T08:12:47.253Z</time>
      </trkpt>
      <trkpt lat="48.39589" lon="2.41463">
        <ele>124.71</ele>
        <time>2024-06-13T08:12:49.498Z</time>
      </trkpt>
      <trkpt lat="48.39589" lon="2.41476">
        <ele>124.8</ele>
        <time>2024-06-13T08:12:51.745Z</time>
      </trkpt>
      <trkpt lat="48.3959" lon="2.41503">
        <ele>124.94</ele>
        <time>2024-06-13T08:12:53.994Z</time>
      </trkpt>
      <trkpt lat="48.39591" lon="2.41517">
        <ele>125.05</ele>
        <time>2024-06-13T08:12:56.245Z</time>
      </trkpt>
      <trkpt lat="48.39591" lon="2.41537">
        <ele>125.27</ele>
        <time>2024-06-13T08:12:58.498Z</time>
      </trkpt>
      <trkpt lat="48.39592" lon="2.41564">
        <ele>125.61</ele>
        <time>2024-06-13T08:13:00.754Z</time>
      </trkpt>
      <trkpt lat="48.39593" lon="2.41604">
        <ele>126.17</ele>
        <time>2024-06-13T08:13:03.014Z</time>
      </trkpt>
      <trkpt lat="48.39594" lon="2.41618">
        <ele>126.38</ele>
        <time>2024-06-13T08:13:05.276Z</time>
      </trkpt>
      <trkpt lat="48.39594" lon="2.4163">
        <ele>126.58</ele>
        <time>2024-06-13T08:13:07.539Z</time>
      </trkpt>
      <trkpt lat="48.39598" lon="2.41671">
        <ele>127.29</ele>
        <time>2024-06-13T08:13:09.806Z</time>
      </trkpt>
      <trkpt lat="48.396" lon="2.41686">
        <ele>127.52</ele>
        <time>2024-06-13T08:13:12.075Z</time>
      </trkpt>
      <trkpt lat="48.39603" lon="2.41718">
        <ele>128.03</ele>
        <time>2024-06-13T08:13:14.348Z</time>
      </trkpt>
      <trkpt lat="48.39607" lon="2.41772">
        <ele>128.93</ele>
        <time>2024-06-13T08:13:16.626Z</time>
      </trkpt>
      <trkpt lat="48.39608" lon="2.41778">
        <ele>129.02</ele>
        <time>2024-06-13T08:13:18.905Z</time>
      </trkpt>
      <trkpt lat="48.39609" lon="2.41792">
        <ele>129.16</ele>
        <time>2024-06-13T08:13:21.185Z</time>
      </trkpt>
      <trkpt lat="48.3961" lon="2.41812">
        <ele>129.31</ele>
        <time>2024-06-13T08:13:23.468Z</time>
      </trkpt>
      <trkpt lat="48.39613" lon="2.41843">
        <ele>129.49</ele>
        <time>2024-06-13T08:13:25.754Z</time>
      </trkpt>
      <trkpt lat="48.39617" lon="2.41865">
        <ele>129.63</ele>
        <time>2024-06-13T08:13:28.042Z</time>
      </trkpt>
      <trkpt lat="48.39623" lon="2.41905">
        <ele>129.82</ele>
        <time>2024-06-13T08:13:30.335Z</time>
      </trkpt>
      <trkpt lat="48.39629" lon="2.41944">
        <ele>129.97</ele>
        <time>2024-06-13T08:13:32.632Z</time>
      </trkpt>
      <trkpt lat="48.39631" lon="2.41956">
        <ele>130</ele>
        <time>2024-06-13T08:13:34.930Z</time>
      </trkpt>
      <trkpt lat="48.39634" lon="2.41977">
        <ele>130.06</ele>
        <time>2024-06-13T08:13:37.231Z</time>
      </trkpt>
      <trkpt lat="48.39637" lon="2.41997">
        <ele>130.09</ele>
        <time>2024-06-13T08:13:39.534Z</time>
      </trkpt>
      <trkpt lat="48.39641" lon="2.4203">
        <ele>130.06</ele>
        <time>2024-06-13T08:13:41.840Z</time>
      </trkpt>
      <trkpt lat="48.39652" lon="2.4211">
        <ele>129.74</ele>
        <time>2024-06-13T08:13:44.155Z</time>
      </trkpt>
      <trkpt lat="48.39655" lon="2.42136">
        <ele>129.68</ele>
        <time>2024-06-13T08:13:46.473Z</time>
      </trkpt>
      <trkpt lat="48.39662" lon="2.42182">
        <ele>129.61</ele>
        <time>2024-06-13T08:13:48.796Z</time>
      </trkpt>
      <trkpt lat="48.39662" lon="2.42184">
        <ele>129.6</ele>
        <time>2024-06-13T08:13:51.119Z</time>
      </trkpt>
      <trkpt lat="48.39662" lon="2.42203">
        <ele>129.54</ele>
        <time>2024-06-13T08:13:53.444Z</time>
      </trkpt>
      <trkpt lat="48.39662" lon="2.42206">
        <ele>129.51</ele>
        <time>2024-06-13T08:13:55.769Z</time>
      </trkpt>
      <trkpt lat="48.39653" lon="2.42224">
        <ele>129.35</ele>
        <time>2024-06-13T08:13:58.097Z</time>
      </trkpt>
      <trkpt lat="48.39648" lon="2.42243">
        <ele>129.21</ele>
        <time>2024-06-13T08:14:00.427Z</time>
      </trkpt>
      <trkpt lat="48.39647" lon="2.42255">
        <ele>129.12</ele>
        <time>2024-06-13T08:14:02.758Z</time>
      </trkpt>
      <trkpt lat="48.39649" lon="2.42261">
        <ele>129.08</ele>
        <time>2024-06-13T08:14:05.090Z</time>
      </trkpt>
      <trkpt lat="48.39654" lon="2.42272">
        <ele>129.13</ele>
        <time>2024-06-13T08:14:07.423Z</time>
      </trkpt>
      <trkpt lat="48.39655" lon="2.42274">
        <ele>129.14</ele>
        <time>2024-06-13T08:14:09.757Z</time>
      </trkpt>
      <trkpt lat="48.39662" lon="2.4227">
        <ele>129.22</ele>
        <time>2024-06-13T08:14:12.092Z</time>
      </trkpt>
      <trkpt lat="48.39664" lon="2.42269">
        <ele>129.22</ele>
        <time>2024-06-13T08:14:14.427Z</time>
      </trkpt>
      <trkpt lat="48.39672" lon="2.42275">
        <ele>129.25</ele>
        <time>2024-06-13T08:14:16.764Z</time>
      </trkpt>
      <trkpt lat="48.39679" lon="2.42275">
        <ele>129.27</ele>
        <time>2024-06-13T08:14:19.102Z</time>
      </trkpt>
      <trkpt lat="48.39685" lon="2.42272">
        <ele>129.3</ele>
        <time>2024-06-13T08:14:21.441Z</time>
      </trkpt>
      <trkpt lat="48.39686" lon="2.42271">
        <ele>129.29</ele>
        <time>2024-06-13T08:14:23.780Z</time>
      </trkpt>
      <trkpt lat="48.39694" lon="2.42254">
        <ele>129.26</ele>
        <time>2024-06-13T08:14:26.121Z</time>
      </trkpt>
      <trkpt lat="48.39695" lon="2.42253">
        <ele>129.25</ele>
        <time>2024-06-13T08:14:28.462Z</time>
      </trkpt>
      <trkpt lat="48.39718" lon="2.42245">
        <ele>129.03</ele>
        <time>2024-06-13T08:14:30.807Z</time>
      </trkpt>
      <trkpt lat="48.39745" lon="2.4224">
        <ele>128.79</ele>
        <time>2024-06-13T08:14:33.157Z</time>
      </trkpt>
      <trkpt lat="48.39763" lon="2.42236">
        <ele>128.58</ele>
        <time>2024-06-13T08:14:35.509Z</time>
      </trkpt>
      <trkpt lat="48.39776" lon="2.42234">
        <ele>128.38</ele>
        <time>2024-06-13T08:14:37.864Z</time>
      </trkpt>
      <trkpt lat="48.3981" lon="2.42227">
        <ele>128.11</ele>
        <time>2024-06-13T08:14:40.224Z</time>
      </trkpt>
      <trkpt lat="48.39818" lon="2.42224">
        <ele>128.05</ele>
        <time>2024-06-13T08:14:42.585Z</time>
      </trkpt>
      <trkpt lat="48.39836" lon="2.42216">
        <ele>127.84</ele>
        <time>2024-06-13T08:14:44.949Z</time>
      </trkpt>
      <trkpt lat="48.39844" lon="2.42213">
        <ele>127.78</ele>
        <time>2024-06-13T08:14:47.315Z</time>
      </trkpt>
      <trkpt lat="48.39853" lon="2.42209">
        <ele>127.75</ele>
        <time>2024-06-13T08:14:49.682Z</time>
      </trkpt>
      <trkpt lat="48.39885" lon="2.42196">
        <ele>127.76</ele>
        <time>2024-06-13T08:14:52.055Z</time>
      </trkpt>
      <trkpt lat="48.39887" lon="2.42194">
        <ele>127.77</ele>
        <time>2024-06-13T08:14:54.428Z</time>
      </trkpt>
      <trkpt lat="48.39924" lon="2.42156">
        <ele>127.89</ele>
        <time>2024-06-13T08:14:56.808Z</time>
      </trkpt>
      <trkpt lat="48.39937" lon="2.42137">
        <ele>127.94</ele>
        <time>2024-06-13T08:14:59.191Z</time>
      </trkpt>
      <trkpt lat="48.39949" lon="2.42119">
        <ele>127.94</ele>
        <time>2024-06-13T08:15:01.577Z</time>
      </trkpt>
      <trkpt lat="48.39959" lon="2.42102">
        <ele>127.95</ele>
        <time>2024-06-13T08:15:03.965Z</time>
      </trkpt>
      <trkpt lat="48.39963" lon="2.42091">
        <ele>127.96</ele>
        <time>2024-06-13T08:15:06.354Z</time>
      </trkpt>
      <trkpt lat="48.3997" lon="2.42067">
        <ele>127.93</ele>
        <time>2024-06-13T08:15:08.746Z</time>
      </trkpt>
      <trkpt lat="48.39971" lon="2.42065">
        <ele>127.93</ele>
        <time>2024-06-13T08:15:11.139Z</time>
      </trkpt>
      <trkpt lat="48.39975" lon="2.42034">
        <ele>127.94</ele>
        <time>2024-06-13T08:15:13.535Z</time>
      </trkpt>
      <trkpt lat="48.39977" lon="2.42018">
        <ele>127.98</ele>
        <time>2024-06-13T08:15:15.933Z</time>
      </trkpt>
      <trkpt lat="48.39977" lon="2.42007">
        <ele>128.01</ele>
        <time>2024-06-13T08:15:18.332Z</time>
      </trkpt>
      <trkpt lat="48.39977" lon="2.42">
        <ele>128.01</ele>
        <time>2024-06-13T08:15:20.731Z</time>
      </trkpt>
      <trkpt lat="48.39979" lon="2.41913">
        <ele>127.83</ele>
        <time>2024-06-13T08:15:23.140Z</time>
      </trkpt>
      <trkpt lat="48.39981" lon="2.41839">
        <ele>127.63</ele>
        <time>2024-06-13T08:15:25.557Z</time>
      </trkpt>
      <trkpt lat="48.39982" lon="2.41819">
        <ele>127.54</ele>
        <time>2024-06-13T08:15:27.976Z</time>
      </trkpt>
      <trkpt lat="48.39982" lon="2.41792">
        <ele>127.33</ele>
        <time>2024-06-13T08:15:30.398Z</time>
      </trkpt>
      <trkpt lat="48.39983" lon="2.41752">
        <ele>127.15</ele>
        <time>2024-06-13T08:15:32.824Z</time>
      </trkpt>
      <trkpt lat="48.39984" lon="2.41731">
        <ele>127</ele>
        <time>2024-06-13T08:15:35.252Z</time>
      </trkpt>
      <trkpt lat="48.39984" lon="2.41717">
        <ele>126.86</ele>
        <time>2024-06-13T08:15:37.682Z</time>
      </trkpt>
      <trkpt lat="48.39997" lon="2.41716">
        <ele>126.47</ele>
        <time>2024-06-13T08:15:40.114Z</time>
      </trkpt>
      <trkpt lat="48.40023" lon="2.41715">
        <ele>125.87</ele>
        <time>2024-06-13T08:15:42.550Z</time>
      </trkpt>
      <trkpt lat="48.40054" lon="2.41713">
        <ele>125.2</ele>
        <time>2024-06-13T08:15:44.991Z</time>
      </trkpt>
      <trkpt lat="48.40076" lon="2.41712">
        <ele>124.79</ele>
        <time>2024-06-13T08:15:47.436Z</time>
      </trkpt>
      <trkpt lat="48.40098" lon="2.4171">
        <ele>124.47</ele>
        <time>2024-06-13T08:15:49.884Z</time>
      </trkpt>
      <trkpt lat="48.40138" lon="2.41708">
        <ele>124.07</ele>
        <time>2024-06-13T08:15:52.338Z</time>
      </trkpt>
      <trkpt lat="48.40165" lon="2.41706">
        <ele>123.77</ele>
        <time>2024-06-13T08:15:54.797Z</time>
      </trkpt>
      <trkpt lat="48.40174" lon="2.41706">
        <ele>123.7</ele>
        <time>2024-06-13T08:15:57.257Z</time>
      </trkpt>
      <trkpt lat="48.40187" lon="2.41705">
        <ele>123.64</ele>
        <time>2024-06-13T08:15:59.719Z</time>
      </trkpt>
      <trkpt lat="48.40196" lon="2.41705">
        <ele>123.63</ele>
        <time>2024-06-13T08:16:02.183Z</time>
      </trkpt>
      <trkpt lat="48.40209" lon="2.41704">
        <ele>123.66</ele>
        <time>2024-06-13T08:16:04.649Z</time>
      </trkpt>
      <trkpt lat="48.40222" lon="2.41703">
        <ele>123.74</ele>
        <time>2024-06-13T08:16:07.117Z</time>
      </trkpt>
      <trkpt lat="48.40258" lon="2.41701">
        <ele>124.05</ele>
        <time>2024-06-13T08:16:09.591Z</time>
      </trkpt>
      <trkpt lat="48.40259" lon="2.41701">
        <ele>124.91</ele>
        <time>2024-06-13T08:16:12.065Z</time>
      </trkpt>
      <trkpt lat="48.40317" lon="2.41687">
        <ele>114.56</ele>
        <time>2024-06-13T08:16:14.548Z</time>
      </trkpt>
      <trkpt lat="48.40318" lon="2.41687">
        <ele>124.04</ele>
        <time>2024-06-13T08:16:17.031Z</time>
      </trkpt>
      <trkpt lat="48.40317" lon="2.41657">
        <ele>124.02</ele>
        <time>2024-06-13T08:16:19.518Z</time>
      </trkpt>
      <trkpt lat="48.40317" lon="2.41642">
        <ele>123.93</ele>
        <time>2024-06-13T08:16:22.006Z</time>
      </trkpt>
      <trkpt lat="48.40314" lon="2.41639">
        <ele>123.91</ele>
        <time>2024-06-13T08:16:24.495Z</time>
      </trkpt>
      <trkpt lat="48.403" lon="2.41623">
        <ele>123.66</ele>
        <time>2024-06-13T08:16:26.987Z</time>
      </trkpt>
      <trkpt lat="48.40295" lon="2.41618">
        <ele>123.55</ele>
        <time>2024-06-13T08:16:29.480Z</time>
      </trkpt>
      <trkpt lat="48.40294" lon="2.41614">
        <ele>123.51</ele>
        <time>2024-06-13T08:16:31.973Z</time>
      </trkpt>
      <trkpt lat="48.4029" lon="2.41602">
        <ele>123.32</ele>
        <time>2024-06-13T08:16:34.467Z</time>
      </trkpt>
      <trkpt lat="48.40289" lon="2.416">
        <ele>123.27</ele>
        <time>2024-06-13T08:16:36.962Z</time>
      </trkpt>
      <trkpt lat="48.4028" lon="2.4158">
        <ele>122.8</ele>
        <time>2024-06-13T08:16:39.459Z</time>
      </trkpt>
      <trkpt lat="48.40275" lon="2.41569">
        <ele>122.58</ele>
        <time>2024-06-13T08:16:41.958Z</time>
      </trkpt>
      <trkpt lat="48.40274" lon="2.41568">
        <ele>122.56</ele>
        <time>2024-06-13T08:16:44.457Z</time>
      </trkpt>
      <trkpt lat="48.40273" lon="2.41563">
        <ele>122.49</ele>
        <time>2024-06-13T08:16:46.956Z</time>
      </trkpt>
      <trkpt lat="48.40272" lon="2.41549">
        <ele>122.38</ele>
        <time>2024-06-13T08:16:49.457Z</time>
      </trkpt>
      <trkpt lat="48.40271" lon="2.41543">
        <ele>122.35</ele>
        <time>2024-06-13T08:16:51.959Z</time>
      </trkpt>
      <trkpt lat="48.40269" lon="2.41537">
        <ele>122.33</ele>
        <time>2024-06-13T08:16:54.461Z</time>
      </trkpt>
      <trkpt lat="48.40259" lon="2.41514">
        <ele>122.27</ele>
        <time>2024-06-13T08:16:56.966Z</time>
      </trkpt>
      <trkpt lat="48.40255" lon="2.41503">
        <ele>122.22</ele>
        <time>2024-06-13T08:16:59.473Z</time>
      </trkpt>
      <trkpt lat="48.40255" lon="2.41489">
        <ele>122.17</ele>
        <time>2024-06-13T08:17:01.981Z</time>
      </trkpt>
      <trkpt lat="48.40255" lon="2.41485">
        <ele>122.16</ele>
        <time>2024-06-13T08:17:04.489Z</time>
      </trkpt>
      <trkpt lat="48.40256" lon="2.41476">
        <ele>122.15</ele>
        <time>2024-06-13T08:17:06.998Z</time>
      </trkpt>
      <trkpt lat="48.40258" lon="2.41463">
        <ele>122.16</ele>
        <time>2024-06-13T08:17:09.509Z</time>
      </trkpt>
      <trkpt lat="48.4026" lon="2.41453">
        <ele>122.19</ele>
        <time>2024-06-13T08:17:12.021Z</time>
      </trkpt>
      <trkpt lat="48.4026" lon="2.41435">
        <ele>122.26</ele>
        <time>2024-06-13T08:17:14.535Z</time>
      </trkpt>
      <trkpt lat="48.40257" lon="2.41432">
        <ele>122.29</ele>
        <time>2024-06-13T08:17:17.049Z</time>
      </trkpt>
      <trkpt lat="48.40249" lon="2.41425">
        <ele>122.29</ele>
        <time>2024-06-13T08:17:19.565Z</time>
      </trkpt>
      <trkpt lat="48.40246" lon="2.41421">
        <ele>122.27</ele>
        <time>2024-06-13T08:17:22.082Z</time>
      </trkpt>
      <trkpt lat="48.40244" lon="2.4142">
        <ele>122.24</ele>
        <time>2024-06-13T08:17:24.599Z</time>
      </trkpt>
      <trkpt lat="48.40243" lon="2.41416">
        <ele>122.21</ele>
        <time>2024-06-13T08:17:27.116Z</time>
      </trkpt>
      <trkpt lat="48.40238" lon="2.41401">
        <ele>122</ele>
        <time>2024-06-13T08:17:29.635Z</time>
      </trkpt>
      <trkpt lat="48.40238" lon="2.41398">
        <ele>121.97</ele>
        <time>2024-06-13T08:17:32.154Z</time>
      </trkpt>
      <trkpt lat="48.40235" lon="2.41385">
        <ele>121.84</ele>
        <time>2024-06-13T08:17:34.675Z</time>
      </trkpt>
      <trkpt lat="48.40233" lon="2.41372">
        <ele>121.77</ele>
        <time>2024-06-13T08:17:37.197Z</time>
      </trkpt>
      <trkpt lat="48.40231" lon="2.41359">
        <ele>121.77</ele>
        <time>2024-06-13T08:17:39.721Z</time>
      </trkpt>
      <trkpt lat="48.4023" lon="2.41351">
        <ele>121.81</ele>
        <time>2024-06-13T08:17:42.246Z</time>
      </trkpt>
      <trkpt lat="48.40227" lon="2.41347">
        <ele>121.84</ele>
        <time>2024-06-13T08:17:44.771Z</time>
      </trkpt>
      <trkpt lat="48.40226" lon="2.41344">
        <ele>120.2</ele>
        <time>2024-06-13T08:17:47.297Z</time>
      </trkpt>
      <trkpt lat="48.40235" lon="2.4133">
        <ele>117.99</ele>
        <time>2024-06-13T08:17:49.825Z</time>
      </trkpt>
      <trkpt lat="48.40237" lon="2.41328">
        <ele>117.74</ele>
        <time>2024-06-13T08:17:52.353Z</time>
      </trkpt>
      <trkpt lat="48.40241" lon="2.41303">
        <ele>115.7</ele>
        <time>2024-06-13T08:17:54.884Z</time>
      </trkpt>
      <trkpt lat="48.40241" lon="2.413">
        <ele>115.35</ele>
        <time>2024-06-13T08:17:57.415Z</time>
      </trkpt>
      <trkpt lat="48.40246" lon="2.41288">
        <ele>113.4</ele>
        <time>2024-06-13T08:17:59.948Z</time>
      </trkpt>
      <trkpt lat="48.40247" lon="2.41285">
        <ele>113.04</ele>
        <time>2024-06-13T08:18:02.481Z</time>
      </trkpt>
      <trkpt lat="48.4025" lon="2.41261">
        <ele>110.3</ele>
        <time>2024-06-13T08:18:05.017Z</time>
      </trkpt>
      <trkpt lat="48.4025" lon="2.41258">
        <ele>109.57</ele>
        <time>2024-06-13T08:18:07.553Z</time>
      </trkpt>
      <trkpt lat="48.40253" lon="2.41246">
        <ele>106.72</ele>
        <time>2024-06-13T08:18:10.090Z</time>
      </trkpt>
      <trkpt lat="48.40254" lon="2.41244">
        <ele>106.35</ele>
        <time>2024-06-13T08:18:12.627Z</time>
      </trkpt>
      <trkpt lat="48.40262" lon="2.41239">
        <ele>104.59</ele>
        <time>2024-06-13T08:18:15.166Z</time>
      </trkpt>
      <trkpt lat="48.40264" lon="2.41238">
        <ele>104.04</ele>
        <time>2024-06-13T08:18:17.705Z</time>
      </trkpt>
      <trkpt lat="48.40269" lon="2.41228">
        <ele>101.9</ele>
        <time>2024-06-13T08:18:20.246Z</time>
      </trkpt>
      <trkpt lat="48.4027" lon="2.41225">
        <ele>101.5</ele>
        <time>2024-06-13T08:18:22.787Z</time>
      </trkpt>
      <trkpt lat="48.40268" lon="2.41213">
        <ele>100.01</ele>
        <time>2024-06-13T08:18:25.329Z</time>
      </trkpt>
      <trkpt lat="48.40264" lon="2.41182">
        <ele>96.36</ele>
        <time>2024-06-13T08:18:27.875Z</time>
      </trkpt>
      <trkpt lat="48.40263" lon="2.41179">
        <ele>96.07</ele>
        <time>2024-06-13T08:18:30.421Z</time>
      </trkpt>
      <trkpt lat="48.40258" lon="2.41169">
        <ele>95.07</ele>
        <time>2024-06-13T08:18:32.968Z</time>
      </trkpt>
      <trkpt lat="48.40253" lon="2.41157">
        <ele>94.29</ele>
        <time>2024-06-13T08:18:35.517Z</time>
      </trkpt>
      <trkpt lat="48.40252" lon="2.41154">
        <ele>94.15</ele>
        <time>2024-06-13T08:18:38.066Z</time>
      </trkpt>
      <trkpt lat="48.40245" lon="2.4115">
        <ele>93.76</ele>
        <time>2024-06-13T08:18:40.616Z</time>
      </trkpt>
      <trkpt lat="48.40243" lon="2.41148">
        <ele>93.94</ele>
        <time>2024-06-13T08:18:43.167Z</time>
      </trkpt>
      <trkpt lat="48.40234" lon="2.41146">
        <ele>94.59</ele>
        <time>2024-06-13T08:18:45.719Z</time>
      </trkpt>
      <trkpt lat="48.40231" lon="2.41146">
        <ele>95.17</ele>
        <time>2024-06-13T08:18:48.272Z</time>
      </trkpt>
      <trkpt lat="48.40223" lon="2.4116">
        <ele>97.86</ele>
        <time>2024-06-13T08:18:50.827Z</time>
      </trkpt>
      <trkpt lat="48.40221" lon="2.41163">
        <ele>103.61</ele>
        <time>2024-06-13T08:18:53.382Z</time>
      </trkpt>
      <trkpt lat="48.40217" lon="2.41161">
        <ele>102.08</ele>
        <time>2024-06-13T08:18:55.938Z</time>
      </trkpt>
      <trkpt lat="48.40212" lon="2.41158">
        <ele>100.74</ele>
        <time>2024-06-13T08:18:58.495Z</time>
      </trkpt>
      <trkpt lat="48.40208" lon="2.41156">
        <ele>99.55</ele>
        <time>2024-06-13T08:19:01.052Z</time>
      </trkpt>
      <trkpt lat="48.40204" lon="2.41154">
        <ele>98.52</ele>
        <time>2024-06-13T08:19:03.610Z</time>
      </trkpt>
      <trkpt lat="48.40204" lon="2.41154">
        <ele>98.52</ele>
        <time>2024-06-13T08:19:06.168Z</time>
      </trkpt>
      <trkpt lat="48.402" lon="2.41153">
        <ele>97.6</ele>
        <time>2024-06-13T08:19:08.727Z</time>
      </trkpt>
      <trkpt lat="48.40191" lon="2.41152">
        <ele>95.92</ele>
        <time>2024-06-13T08:19:11.287Z</time>
      </trkpt>
      <trkpt lat="48.40186" lon="2.41151">
        <ele>95.04</ele>
        <time>2024-06-13T08:19:13.848Z</time>
      </trkpt>
      <trkpt lat="48.40182" lon="2.41151">
        <ele>94.09</ele>
        <time>2024-06-13T08:19:16.410Z</time>
      </trkpt>
      <trkpt lat="48.40168" lon="2.41149">
        <ele>90.99</ele>
        <time>2024-06-13T08:19:18.974Z</time>
      </trkpt>
      <trkpt lat="48.40164" lon="2.41148">
        <ele>90.04</ele>
        <time>2024-06-13T08:19:21.538Z</time>
      </trkpt>
      <trkpt lat="48.40159" lon="2.41148">
        <ele>89.18</ele>
        <time>2024-06-13T08:19:24.103Z</time>
      </trkpt>
      <trkpt lat="48.40155" lon="2.41147">
        <ele>88.4</ele>
        <time>2024-06-13T08:19:26.669Z</time>
      </trkpt>
      <trkpt lat="48.40142" lon="2.41145">
        <ele>86.24</ele>
        <time>2024-06-13T08:19:29.237Z</time>
      </trkpt>
      <trkpt lat="48.4014" lon="2.41145">
        <ele>86.02</ele>
        <time>2024-06-13T08:19:31.805Z</time>
      </trkpt>
      <trkpt lat="48.40136" lon="2.41128">
        <ele>84.46</ele>
        <time>2024-06-13T08:19:34.375Z</time>
      </trkpt>
      <trkpt lat="48.40133" lon="2.41116">
        <ele>83.31</ele>
        <time>2024-06-13T08:19:36.947Z</time>
      </trkpt>
      <trkpt lat="48.40132" lon="2.41109">
        <ele>82.77</ele>
        <time>2024-06-13T08:19:39.519Z</time>
      </trkpt>
      <trkpt lat="48.40135" lon="2.41105">
        <ele>82.3</ele>
        <time>2024-06-13T08:19:42.092Z</time>
      </trkpt>
      <trkpt lat="48.40139" lon="2.41102">
        <ele>81.87</ele>
        <time>2024-06-13T08:19:44.666Z</time>
      </trkpt>
      <trkpt lat="48.40143" lon="2.41098">
        <ele>81.49</ele>
        <time>2024-06-13T08:19:47.240Z</time>
      </trkpt>
      <trkpt lat="48.40146" lon="2.41094">
        <ele>81.15</ele>
        <time>2024-06-13T08:19:49.815Z</time>
      </trkpt>
      <trkpt lat="48.4015" lon="2.4109">
        <ele>80.84</ele>
        <time>2024-06-13T08:19:52.391Z</time>
      </trkpt>
      <trkpt lat="48.40158" lon="2.41083">
        <ele>80.29</ele>
        <time>2024-06-13T08:19:54.968Z</time>
      </trkpt>
      <trkpt lat="48.40169" lon="2.41072">
        <ele>79.52</ele>
        <time>2024-06-13T08:19:57.547Z</time>
      </trkpt>
      <trkpt lat="48.40174" lon="2.41066">
        <ele>79.15</ele>
        <time>2024-06-13T08:20:00.127Z</time>
      </trkpt>
      <trkpt lat="48.40178" lon="2.41058">
        <ele>78.79</ele>
        <time>2024-06-13T08:20:02.709Z</time>
      </trkpt>
      <trkpt lat="48.40187" lon="2.41043">
        <ele>78.1</ele>
        <time>2024-06-13T08:20:05.293Z</time>
      </trkpt>
      <trkpt lat="48.40201" lon="2.41018">
        <ele>77.05</ele>
        <time>2024-06-13T08:20:07.880Z</time>
      </trkpt>
      <trkpt lat="48.40217" lon="2.41005">
        <ele>76.17</ele>
        <time>2024-06-13T08:20:10.470Z</time>
      </trkpt>
      <trkpt lat="48.40229" lon="2.40995">
        <ele>75.55</ele>
        <time>2024-06-13T08:20:13.062Z</time>
      </trkpt>
      <trkpt lat="48.40237" lon="2.40989">
        <ele>75.1</ele>
        <time>2024-06-13T08:20:15.656Z</time>
      </trkpt>
      <trkpt lat="48.40239" lon="2.40987">
        <ele>74.94</ele>
        <time>2024-06-13T08:20:18.250Z</time>
      </trkpt>
      <trkpt lat="48.4024" lon="2.40985">
        <ele>74.85</ele>
        <time>2024-06-13T08:20:20.844Z</time>
      </trkpt>
      <trkpt lat="48.40247" lon="2.40977">
        <ele>74.31</ele>
        <time>2024-06-13T08:20:23.440Z</time>
      </trkpt>
      <trkpt lat="48.40251" lon="2.40971">
        <ele>73.93</ele>
        <time>2024-06-13T08:20:26.037Z</time>
      </trkpt>
      <trkpt lat="48.40252" lon="2.4097">
        <ele>79.71</ele>
        <time>2024-06-13T08:20:28.634Z</time>
      </trkpt>
      <trkpt lat="48.40273" lon="2.41011">
        <ele>80.24</ele>
        <time>2024-06-13T08:20:31.236Z</time>
      </trkpt>
      <trkpt lat="48.40274" lon="2.41013">
        <ele>80.22</ele>
        <time>2024-06-13T08:20:33.839Z</time>
      </trkpt>
      <trkpt lat="48.403" lon="2.41014">
        <ele>80.04</ele>
        <time>2024-06-13T08:20:36.446Z</time>
      </trkpt>
      <trkpt lat="48.40324" lon="2.41014">
        <ele>79.88</ele>
        <time>2024-06-13T08:20:39.057Z</time>
      </trkpt>
      <trkpt lat="48.40334" lon="2.41014">
        <ele>79.7</ele>
        <time>2024-06-13T08:20:41.669Z</time>
      </trkpt>
      <trkpt lat="48.40336" lon="2.41014">
        <ele>79.62</ele>
        <time>2024-06-13T08:20:44.282Z</time>
      </trkpt>
      <trkpt lat="48.40344" lon="2.41012">
        <ele>79.28</ele>
        <time>2024-06-13T08:20:46.896Z</time>
      </trkpt>
      <trkpt lat="48.40346" lon="2.41012">
        <ele>79.27</ele>
        <time>2024-06-13T08:20:49.510Z</time>
      </trkpt>
      <trkpt lat="48.40355" lon="2.41014">
        <ele>79.22</ele>
        <time>2024-06-13T08:20:52.126Z</time>
      </trkpt>
      <trkpt lat="48.40356" lon="2.41014">
        <ele>79.21</ele>
        <time>2024-06-13T08:20:54.742Z</time>
      </trkpt>
      <trkpt lat="48.40373" lon="2.41027">
        <ele>79.2</ele>
        <time>2024-06-13T08:20:57.361Z</time>
      </trkpt>
      <trkpt lat="48.40374" lon="2.41028">
        <ele>79.22</ele>
        <time>2024-06-13T08:20:59.980Z</time>
      </trkpt>
      <trkpt lat="48.40381" lon="2.41035">
        <ele>79.35</ele>
        <time>2024-06-13T08:21:02.600Z</time>
      </trkpt>
      <trkpt lat="48.40382" lon="2.41036">
        <ele>79.32</ele>
        <time>2024-06-13T08:21:05.221Z</time>
      </trkpt>
      <trkpt lat="48.40397" lon="2.4105">
        <ele>79.1</ele>
        <time>2024-06-13T08:21:07.844Z</time>
      </trkpt>
      <trkpt lat="48.40399" lon="2.41051">
        <ele>78.99</ele>
        <time>2024-06-13T08:21:10.468Z</time>
      </trkpt>
      <trkpt lat="48.40409" lon="2.41049">
        <ele>78.42</ele>
        <time>2024-06-13T08:21:13.093Z</time>
      </trkpt>
      <trkpt lat="48.40411" lon="2.41049">
        <ele>78.32</ele>
        <time>2024-06-13T08:21:15.719Z</time>
      </trkpt>
      <trkpt lat="48.40418" lon="2.41052">
        <ele>78.01</ele>
        <time>2024-06-13T08:21:18.346Z</time>
      </trkpt>
      <trkpt lat="48.40419" lon="2.41053">
        <ele>78.07</ele>
        <time>2024-06-13T08:21:20.973Z</time>
      </trkpt>
      <trkpt lat="48.40421" lon="2.41072">
        <ele>78.65</ele>
        <time>2024-06-13T08:21:23.602Z</time>
      </trkpt>
      <trkpt lat="48.40423" lon="2.41095">
        <ele>79.29</ele>
        <time>2024-06-13T08:21:26.234Z</time>
      </trkpt>
      <trkpt lat="48.40423" lon="2.41097">
        <ele>79.37</ele>
        <time>2024-06-13T08:21:28.866Z</time>
      </trkpt>
      <trkpt lat="48.40421" lon="2.41111">
        <ele>80.2</ele>
        <time>2024-06-13T08:21:31.499Z</time>
      </trkpt>
      <trkpt lat="48.40421" lon="2.41113">
        <ele>80.23</ele>
        <time>2024-06-13T08:21:34.132Z</time>
      </trkpt>
      <trkpt lat="48.40421" lon="2.41125">
        <ele>80.49</ele>
        <time>2024-06-13T08:21:36.767Z</time>
      </trkpt>
      <trkpt lat="48.40422" lon="2.41144">
        <ele>81.25</ele>
        <time>2024-06-13T08:21:39.404Z</time>
      </trkpt>
      <trkpt lat="48.40421" lon="2.41163">
        <ele>81.95</ele>
        <time>2024-06-13T08:21:42.043Z</time>
      </trkpt>
      <trkpt lat="48.4042" lon="2.41187">
        <ele>82.58</ele>
        <time>2024-06-13T08:21:44.684Z</time>
      </trkpt>
      <trkpt lat="48.40419" lon="2.41203">
        <ele>82.65</ele>
        <time>2024-06-13T08:21:47.327Z</time>
      </trkpt>
      <trkpt lat="48.40419" lon="2.41204">
        <ele>82.72</ele>
        <time>2024-06-13T08:21:49.970Z</time>
      </trkpt>
      <trkpt lat="48.40415" lon="2.41217">
        <ele>83.41</ele>
        <time>2024-06-13T08:21:52.615Z</time>
      </trkpt>
      <trkpt lat="48.40405" lon="2.41214">
        <ele>84.61</ele>
        <time>2024-06-13T08:21:55.261Z</time>
      </trkpt>
      <trkpt lat="48.40403" lon="2.41213">
        <ele>84.66</ele>
        <time>2024-06-13T08:21:57.908Z</time>
      </trkpt>
      <trkpt lat="48.40398" lon="2.412">
        <ele>85.02</ele>
        <time>2024-06-13T08:22:00.556Z</time>
      </trkpt>
      <trkpt lat="48.40397" lon="2.41198">
        <ele>85.21</ele>
        <time>2024-06-13T08:22:03.205Z</time>
      </trkpt>
      <trkpt lat="48.40388" lon="2.41204">
        <ele>86.6</ele>
        <time>2024-06-13T08:22:05.855Z</time>
      </trkpt>
      <trkpt lat="48.40387" lon="2.41205">
        <ele>86.69</ele>
        <time>2024-06-13T08:22:08.505Z</time>
      </trkpt>
      <trkpt lat="48.40381" lon="2.41227">
        <ele>87.76</ele>
        <time>2024-06-13T08:22:11.158Z</time>
      </trkpt>
      <trkpt lat="48.4038" lon="2.41229">
        <ele>87.83</ele>
        <time>2024-06-13T08:22:13.811Z</time>
      </trkpt>
      <trkpt lat="48.40377" lon="2.41241">
        <ele>88.26</ele>
        <time>2024-06-13T08:22:16.465Z</time>
      </trkpt>
      <trkpt lat="48.40377" lon="2.41243">
        <ele>88.29</ele>
        <time>2024-06-13T08:22:19.120Z</time>
      </trkpt>
      <trkpt lat="48.40375" lon="2.41264">
        <ele>88.64</ele>
        <time>2024-06-13T08:22:21.777Z</time>
      </trkpt>
      <trkpt lat="48.40375" lon="2.41266">
        <ele>88.65</ele>
        <time>2024-06-13T08:22:24.434Z</time>
      </trkpt>
      <trkpt lat="48.40376" lon="2.41284">
        <ele>88.75</ele>
        <time>2024-06-13T08:22:27.093Z</time>
      </trkpt>
      <trkpt lat="48.40376" lon="2.41286">
        <ele>88.72</ele>
        <time>2024-06-13T08:22:29.752Z</time>
      </trkpt>
      <trkpt lat="48.40379" lon="2.413">
        <ele>88.57</ele>
        <time>2024-06-13T08:22:32.413Z</time>
      </trkpt>
      <trkpt lat="48.40379" lon="2.41302">
        <ele>88.44</ele>
        <time>2024-06-13T08:22:35.074Z</time>
      </trkpt>
      <trkpt lat="48.40388" lon="2.41326">
        <ele>86.82</ele>
        <time>2024-06-13T08:22:37.738Z</time>
      </trkpt>
      <trkpt lat="48.40389" lon="2.41328">
        <ele>86.66</ele>
        <time>2024-06-13T08:22:40.402Z</time>
      </trkpt>
      <trkpt lat="48.40398" lon="2.41343">
        <ele>85.33</ele>
        <time>2024-06-13T08:22:43.068Z</time>
      </trkpt>
      <trkpt lat="48.40399" lon="2.41345">
        <ele>85.13</ele>
        <time>2024-06-13T08:22:45.735Z</time>
      </trkpt>
      <trkpt lat="48.40407" lon="2.41351">
        <ele>84.1</ele>
        <time>2024-06-13T08:22:48.403Z</time>
      </trkpt>
      <trkpt lat="48.40416" lon="2.41357">
        <ele>82.63</ele>
        <time>2024-06-13T08:22:51.073Z</time>
      </trkpt>
      <trkpt lat="48.40417" lon="2.41358">
        <ele>82.42</ele>
        <time>2024-06-13T08:22:53.743Z</time>
      </trkpt>
      <trkpt lat="48.40437" lon="2.41364">
        <ele>79.48</ele>
        <time>2024-06-13T08:22:56.416Z</time>
      </trkpt>
      <trkpt lat="48.40439" lon="2.41364">
        <ele>74.31</ele>
        <time>2024-06-13T08:22:59.089Z</time>
      </trkpt>
      <trkpt lat="48.40438" lon="2.41373">
        <ele>74.56</ele>
        <time>2024-06-13T08:23:01.763Z</time>
      </trkpt>
      <trkpt lat="48.40437" lon="2.41386">
        <ele>74.98</ele>
        <time>2024-06-13T08:23:04.439Z</time>
      </trkpt>
      <trkpt lat="48.40436" lon="2.41393">
        <ele>75.23</ele>
        <time>2024-06-13T08:23:07.116Z</time>
      </trkpt>
      <trkpt lat="48.40434" lon="2.41406">
        <ele>75.79</ele>
        <time>2024-06-13T08:23:09.794Z</time>
      </trkpt>
      <trkpt lat="48.40434" lon="2.41412">
        <ele>76.11</ele>
        <time>2024-06-13T08:23:12.473Z</time>
      </trkpt>
      <trkpt lat="48.40432" lon="2.41426">
        <ele>76.8</ele>
        <time>2024-06-13T08:23:15.153Z</time>
      </trkpt>
      <trkpt lat="48.4043" lon="2.41446">
        <ele>77.89</ele>
        <time>2024-06-13T08:23:17.835Z</time>
      </trkpt>
      <trkpt lat="48.40428" lon="2.41466">
        <ele>79.05</ele>
        <time>2024-06-13T08:23:20.519Z</time>
      </trkpt>
      <trkpt lat="48.40427" lon="2.41479">
        <ele>79.86</ele>
        <time>2024-06-13T08:23:23.205Z</time>
      </trkpt>
      <trkpt lat="48.40426" lon="2.41484">
        <ele>80.2</ele>
        <time>2024-06-13T08:23:25.891Z</time>
      </trkpt>
      <trkpt lat="48.40423" lon="2.41491">
        <ele>80.74</ele>
        <time>2024-06-13T08:23:28.578Z</time>
      </trkpt>
      <trkpt lat="48.4041" lon="2.4153">
        <ele>83.84</ele>
        <time>2024-06-13T08:23:31.270Z</time>
      </trkpt>
      <trkpt lat="48.4041" lon="2.41533">
        <ele>84.07</ele>
        <time>2024-06-13T08:23:33.962Z</time>
      </trkpt>
      <trkpt lat="48.40409" lon="2.41547">
        <ele>84.98</ele>
        <time>2024-06-13T08:23:36.656Z</time>
      </trkpt>
      <trkpt lat="48.40407" lon="2.4158">
        <ele>87.2</ele>
        <time>2024-06-13T08:23:39.353Z</time>
      </trkpt>
      <trkpt lat="48.40406" lon="2.41593">
        <ele>88.13</ele>
        <time>2024-06-13T08:23:42.052Z</time>
      </trkpt>
      <trkpt lat="48.40405" lon="2.41607">
        <ele>89.16</ele>
        <time>2024-06-13T08:23:44.752Z</time>
      </trkpt>
      <trkpt lat="48.40404" lon="2.4162">
        <ele>90.31</ele>
        <time>2024-06-13T08:23:47.454Z</time>
      </trkpt>
      <trkpt lat="48.40403" lon="2.41633">
        <ele>91.58</ele>
        <time>2024-06-13T08:23:50.157Z</time>
      </trkpt>
      <trkpt lat="48.40402" lon="2.41647">
        <ele>92.93</ele>
        <time>2024-06-13T08:23:52.861Z</time>
      </trkpt>
      <trkpt lat="48.40401" lon="2.4166">
        <ele>94.34</ele>
        <time>2024-06-13T08:23:55.567Z</time>
      </trkpt>
      <trkpt lat="48.404" lon="2.41673">
        <ele>95.87</ele>
        <time>2024-06-13T08:23:58.274Z</time>
      </trkpt>
      <trkpt lat="48.40399" lon="2.417">
        <ele>99.09</ele>
        <time>2024-06-13T08:24:00.984Z</time>
      </trkpt>
      <trkpt lat="48.40398" lon="2.41707">
        <ele>99.94</ele>
        <time>2024-06-13T08:24:03.695Z</time>
      </trkpt>
      <trkpt lat="48.40398" lon="2.41711">
        <ele>100.51</ele>
        <time>2024-06-13T08:24:06.406Z</time>
      </trkpt>
      <trkpt lat="48.40393" lon="2.41725">
        <ele>102.64</ele>
        <time>2024-06-13T08:24:09.119Z</time>
      </trkpt>
      <trkpt lat="48.40391" lon="2.41731">
        <ele>103.51</ele>
        <time>2024-06-13T08:24:11.833Z</time>
      </trkpt>
      <trkpt lat="48.40389" lon="2.41737">
        <ele>104.32</ele>
        <time>2024-06-13T08:24:14.547Z</time>
      </trkpt>
      <trkpt lat="48.40387" lon="2.4175">
        <ele>105.89</ele>
        <time>2024-06-13T08:24:17.263Z</time>
      </trkpt>
      <trkpt lat="48.40386" lon="2.41757">
        <ele>106.74</ele>
        <time>2024-06-13T08:24:19.980Z</time>
      </trkpt>
      <trkpt lat="48.40385" lon="2.41763">
        <ele>107.66</ele>
        <time>2024-06-13T08:24:22.697Z</time>
      </trkpt>
      <trkpt lat="48.40384" lon="2.4177">
        <ele>108.68</ele>
        <time>2024-06-13T08:24:25.415Z</time>
      </trkpt>
      <trkpt lat="48.40383" lon="2.41776">
        <ele>109.78</ele>
        <time>2024-06-13T08:24:28.134Z</time>
      </trkpt>
      <trkpt lat="48.40382" lon="2.41783">
        <ele>110.98</ele>
        <time>2024-06-13T08:24:30.853Z</time>
      </trkpt>
      <trkpt lat="48.40381" lon="2.41789">
        <ele>112.27</ele>
        <time>2024-06-13T08:24:33.573Z</time>
      </trkpt>
      <trkpt lat="48.4038" lon="2.41796">
        <ele>113.63</ele>
        <time>2024-06-13T08:24:36.294Z</time>
      </trkpt>
      <trkpt lat="48.40377" lon="2.41815">
        <ele>118</ele>
        <time>2024-06-13T08:24:39.017Z</time>
      </trkpt>
      <trkpt lat="48.40376" lon="2.41823">
        <ele>119.37</ele>
        <time>2024-06-13T08:24:41.741Z</time>
      </trkpt>
      <trkpt lat="48.40374" lon="2.41828">
        <ele>120.65</ele>
        <time>2024-06-13T08:24:44.465Z</time>
      </trkpt>
      <trkpt lat="48.40371" lon="2.41833">
        <ele>121.8</ele>
        <time>2024-06-13T08:24:47.190Z</time>
      </trkpt>
      <trkpt lat="48.40369" lon="2.41839">
        <ele>122.81</ele>
        <time>2024-06-13T08:24:49.916Z</time>
      </trkpt>
      <trkpt lat="48.40367" lon="2.41844">
        <ele>123.72</ele>
        <time>2024-06-13T08:24:52.643Z</time>
      </trkpt>
      <trkpt lat="48.40362" lon="2.41856">
        <ele>124.27</ele>
        <time>2024-06-13T08:24:55.371Z</time>
      </trkpt>
      <trkpt lat="48.40359" lon="2.41861">
        <ele>124.51</ele>
        <time>2024-06-13T08:24:58.100Z</time>
      </trkpt>
      <trkpt lat="48.40358" lon="2.41864">
        <ele>124.61</ele>
        <time>2024-06-13T08:25:00.829Z</time>
      </trkpt>
      <trkpt lat="48.40354" lon="2.41872">
        <ele>124.93</ele>
        <time>2024-06-13T08:25:03.559Z</time>
      </trkpt>
      <trkpt lat="48.40348" lon="2.41882">
        <ele>125.29</ele>
        <time>2024-06-13T08:25:06.291Z</time>
      </trkpt>
      <trkpt lat="48.40339" lon="2.41897">
        <ele>125.72</ele>
        <time>2024-06-13T08:25:09.025Z</time>
      </trkpt>
      <trkpt lat="48.40333" lon="2.41906">
        <ele>125.94</ele>
        <time>2024-06-13T08:25:11.760Z</time>
      </trkpt>
      <trkpt lat="48.40332" lon="2.41908">
        <ele>125.95</ele>
        <time>2024-06-13T08:25:14.495Z</time>
      </trkpt>
      <trkpt lat="48.40349" lon="2.41926">
        <ele>126.13</ele>
        <time>2024-06-13T08:25:17.234Z</time>
      </trkpt>
      <trkpt lat="48.4036" lon="2.41938">
        <ele>126.28</ele>
        <time>2024-06-13T08:25:19.975Z</time>
      </trkpt>
      <trkpt lat="48.40371" lon="2.4195">
        <ele>126.47</ele>
        <time>2024-06-13T08:25:22.718Z</time>
      </trkpt>
      <trkpt lat="48.40401" lon="2.41982">
        <ele>127.03</ele>
        <time>2024-06-13T08:25:25.467Z</time>
      </trkpt>
      <trkpt lat="48.40405" lon="2.41983">
        <ele>127.07</ele>
        <time>2024-06-13T08:25:28.217Z</time>
      </trkpt>
      <trkpt lat="48.40413" lon="2.41987">
        <ele>127.09</ele>
        <time>2024-06-13T08:25:30.968Z</time>
      </trkpt>
      <trkpt lat="48.40422" lon="2.4199">
        <ele>126.99</ele>
        <time>2024-06-13T08:25:33.720Z</time>
      </trkpt>
      <trkpt lat="48.4044" lon="2.41997">
        <ele>126.63</ele>
        <time>2024-06-13T08:25:36.475Z</time>
      </trkpt>
      <trkpt lat="48.40451" lon="2.42006">
        <ele>126.42</ele>
        <time>2024-06-13T08:25:39.232Z</time>
      </trkpt>
      <trkpt lat="48.40459" lon="2.42012">
        <ele>126.33</ele>
        <time>2024-06-13T08:25:41.991Z</time>
      </trkpt>
      <trkpt lat="48.40464" lon="2.42016">
        <ele>126.29</ele>
        <time>2024-06-13T08:25:44.751Z</time>
      </trkpt>
      <trkpt lat="48.40481" lon="2.4201">
        <ele>126.19</ele>
        <time>2024-06-13T08:25:47.513Z</time>
      </trkpt>
      <trkpt lat="48.40507" lon="2.42001">
        <ele>126.06</ele>
        <time>2024-06-13T08:25:50.280Z</time>
      </trkpt>
      <trkpt lat="48.40509" lon="2.42">
        <ele>126.05</ele>
        <time>2024-06-13T08:25:53.047Z</time>
      </trkpt>
      <trkpt lat="48.40517" lon="2.42028">
        <ele>126</ele>
        <time>2024-06-13T08:25:55.817Z</time>
      </trkpt>
      <trkpt lat="48.40523" lon="2.42054">
        <ele>125.92</ele>
        <time>2024-06-13T08:25:58.590Z</time>
      </trkpt>
      <trkpt lat="48.40532" lon="2.42086">
        <ele>125.85</ele>
        <time>2024-06-13T08:26:01.367Z</time>
      </trkpt>
      <trkpt lat="48.40531" lon="2.42105">
        <ele>125.82</ele>
        <time>2024-06-13T08:26:04.146Z</time>
      </trkpt>
      <trkpt lat="48.40529" lon="2.42129">
        <ele>125.73</ele>
        <time>2024-06-13T08:26:06.928Z</time>
      </trkpt>
      <trkpt lat="48.40529" lon="2.42132">
        <ele>125.73</ele>
        <time>2024-06-13T08:26:09.710Z</time>
      </trkpt>
      <trkpt lat="48.40531" lon="2.42165">
        <ele>125.58</ele>
        <time>2024-06-13T08:26:12.495Z</time>
      </trkpt>
      <trkpt lat="48.40539" lon="2.42182">
        <ele>125.49</ele>
        <time>2024-06-13T08:26:15.283Z</time>
      </trkpt>
      <trkpt lat="48.40569" lon="2.4225">
        <ele>125.21</ele>
        <time>2024-06-13T08:26:18.079Z</time>
      </trkpt>
      <trkpt lat="48.40576" lon="2.42267">
        <ele>125.2</ele>
        <time>2024-06-13T08:26:20.878Z</time>
      </trkpt>
      <trkpt lat="48.4058" lon="2.42275">
        <ele>125.21</ele>
        <time>2024-06-13T08:26:23.678Z</time>
      </trkpt>
      <trkpt lat="48.40604" lon="2.42282">
        <ele>125.25</ele>
        <time>2024-06-13T08:26:26.482Z</time>
      </trkpt>
      <trkpt lat="48.40606" lon="2.42283">
        <ele>125.24</ele>
        <time>2024-06-13T08:26:29.286Z</time>
      </trkpt>
      <trkpt lat="48.40618" lon="2.42281">
        <ele>125.23</ele>
        <time>2024-06-13T08:26:32.092Z</time>
      </trkpt>
      <trkpt lat="48.40627" lon="2.42279">
        <ele>125.2</ele>
        <time>2024-06-13T08:26:34.899Z</time>
      </trkpt>
      <trkpt lat="48.40639" lon="2.42264">
        <ele>125.15</ele>
        <time>2024-06-13T08:26:37.709Z</time>
      </trkpt>
      <trkpt lat="48.40641" lon="2.42264">
        <ele>125.15</ele>
        <time>2024-06-13T08:26:40.519Z</time>
      </trkpt>
      <trkpt lat="48.40651" lon="2.42264">
        <ele>125.08</ele>
        <time>2024-06-13T08:26:43.331Z</time>
      </trkpt>
      <trkpt lat="48.40667" lon="2.42283">
        <ele>124.95</ele>
        <time>2024-06-13T08:26:46.146Z</time>
      </trkpt>
      <trkpt lat="48.40668" lon="2.42283">
        <ele>124.95</ele>
        <time>2024-06-13T08:26:48.961Z</time>
      </trkpt>
      <trkpt lat="48.40677" lon="2.42286">
        <ele>124.91</ele>
        <time>2024-06-13T08:26:51.778Z</time>
      </trkpt>
      <trkpt lat="48.40685" lon="2.42288">
        <ele>124.9</ele>
        <time>2024-06-13T08:26:54.596Z</time>
      </trkpt>
      <trkpt lat="48.40703" lon="2.42293">
        <ele>124.92</ele>
        <time>2024-06-13T08:26:57.417Z</time>
      </trkpt>
      <trkpt lat="48.40712" lon="2.42296">
        <ele>124.97</ele>
        <time>2024-06-13T08:27:00.239Z</time>
      </trkpt>
      <trkpt lat="48.40721" lon="2.42299">
        <ele>125.06</ele>
        <time>2024-06-13T08:27:03.063Z</time>
      </trkpt>
      <trkpt lat="48.40729" lon="2.42301">
        <ele>125.19</ele>
        <time>2024-06-13T08:27:05.888Z</time>
      </trkpt>
      <trkpt lat="48.40756" lon="2.42309">
        <ele>125.63</ele>
        <time>2024-06-13T08:27:08.717Z</time>
      </trkpt>
      <trkpt lat="48.40769" lon="2.42313">
        <ele>125.76</ele>
        <time>2024-06-13T08:27:11.549Z</time>
      </trkpt>
      <trkpt lat="48.40777" lon="2.42315">
        <ele>125.81</ele>
        <time>2024-06-13T08:27:14.382Z</time>
      </trkpt>
      <trkpt lat="48.40778" lon="2.42316">
        <ele>125.81</ele>
        <time>2024-06-13T08:27:17.215Z</time>
      </trkpt>
      <trkpt lat="48.40786" lon="2.42322">
        <ele>125.81</ele>
        <time>2024-06-13T08:27:20.049Z</time>
      </trkpt>
      <trkpt lat="48.40813" lon="2.42344">
        <ele>125.76</ele>
        <time>2024-06-13T08:27:22.888Z</time>
      </trkpt>
      <trkpt lat="48.40817" lon="2.42347">
        <ele>125.74</ele>
        <time>2024-06-13T08:27:25.728Z</time>
      </trkpt>
      <trkpt lat="48.40825" lon="2.42354">
        <ele>125.67</ele>
        <time>2024-06-13T08:27:28.570Z</time>
      </trkpt>
      <trkpt lat="48.40839" lon="2.42365">
        <ele>125.44</ele>
        <time>2024-06-13T08:27:31.414Z</time>
      </trkpt>
      <trkpt lat="48.40846" lon="2.42366">
        <ele>125.35</ele>
        <time>2024-06-13T08:27:34.259Z</time>
      </trkpt>
      <trkpt lat="48.40859" lon="2.42367">
        <ele>125.26</ele>
        <time>2024-06-13T08:27:37.106Z</time>
      </trkpt>
      <trkpt lat="48.40868" lon="2.42368">
        <ele>125.25</ele>
        <time>2024-06-13T08:27:39.955Z</time>
      </trkpt>
      <trkpt lat="48.40872" lon="2.42369">
        <ele>125.27</ele>
        <time>2024-06-13T08:27:42.804Z</time>
      </trkpt>
      <trkpt lat="48.40882" lon="2.4237">
        <ele>125.34</ele>
        <time>2024-06-13T08:27:45.655Z</time>
      </trkpt>
      <trkpt lat="48.4087" lon="2.42351">
        <ele>125.51</ele>
        <time>2024-06-13T08:27:48.509Z</time>
      </trkpt>
      <trkpt lat="48.40855" lon="2.42327">
        <ele>125.64</ele>
        <time>2024-06-13T08:27:51.366Z</time>
      </trkpt>
      <trkpt lat="48.4085" lon="2.42319">
        <ele>125.71</ele>
        <time>2024-06-13T08:27:54.225Z</time>
      </trkpt>
      <trkpt lat="48.40849" lon="2.42317">
        <ele>125.73</ele>
        <time>2024-06-13T08:27:57.084Z</time>
      </trkpt>
      <trkpt lat="48.40838" lon="2.42288">
        <ele>126</ele>
        <time>2024-06-13T08:27:59.946Z</time>
      </trkpt>
      <trkpt lat="48.40837" lon="2.42285">
        <ele>126</ele>
        <time>2024-06-13T08:28:02.809Z</time>
      </trkpt>
      <trkpt lat="48.40841" lon="2.42277">
        <ele>126.03</ele>
        <time>2024-06-13T08:28:05.673Z</time>
      </trkpt>
      <trkpt lat="48.40843" lon="2.42274">
        <ele>126.01</ele>
        <time>2024-06-13T08:28:08.537Z</time>
      </trkpt>
      <trkpt lat="48.40841" lon="2.42264">
        <ele>125.99</ele>
        <time>2024-06-13T08:28:11.402Z</time>
      </trkpt>
      <trkpt lat="48.40837" lon="2.4224">
        <ele>125.87</ele>
        <time>2024-06-13T08:28:14.270Z</time>
      </trkpt>
      <trkpt lat="48.40828" lon="2.42215">
        <ele>125.75</ele>
        <time>2024-06-13T08:28:17.141Z</time>
      </trkpt>
      <trkpt lat="48.40821" lon="2.42195">
        <ele>125.6</ele>
        <time>2024-06-13T08:28:20.014Z</time>
      </trkpt>
      <trkpt lat="48.40814" lon="2.42181">
        <ele>125.49</ele>
        <time>2024-06-13T08:28:22.889Z</time>
      </trkpt>
      <trkpt lat="48.40808" lon="2.4217">
        <ele>125.42</ele>
        <time>2024-06-13T08:28:25.766Z</time>
      </trkpt>
      <trkpt lat="48.40792" lon="2.42138">
        <ele>125.3</ele>
        <time>2024-06-13T08:28:28.647Z</time>
      </trkpt>
      <trkpt lat="48.4079" lon="2.42133">
        <ele>125.26</ele>
        <time>2024-06-13T08:28:31.529Z</time>
      </trkpt>
      <trkpt lat="48.40786" lon="2.42128">
        <ele>125.21</ele>
        <time>2024-06-13T08:28:34.411Z</time>
      </trkpt>
      <trkpt lat="48.40777" lon="2.42114">
        <ele>125.03</ele>
        <time>2024-06-13T08:28:37.296Z</time>
      </trkpt>
      <trkpt lat="48.4077" lon="2.42105">
        <ele>124.95</ele>
        <time>2024-06-13T08:28:40.182Z</time>
      </trkpt>
      <trkpt lat="48.4076" lon="2.4209">
        <ele>124.95</ele>
        <time>2024-06-13T08:28:43.070Z</time>
      </trkpt>
      <trkpt lat="48.40756" lon="2.4209">
        <ele>124.79</ele>
        <time>2024-06-13T08:28:45.959Z</time>
      </trkpt>
      <trkpt lat="48.40752" lon="2.4209">
        <ele>124.47</ele>
        <time>2024-06-13T08:28:48.849Z</time>
      </trkpt>
      <trkpt lat="48.40747" lon="2.4209">
        <ele>123.9</ele>
        <time>2024-06-13T08:28:51.739Z</time>
      </trkpt>
      <trkpt lat="48.40743" lon="2.4209">
        <ele>123.01</ele>
        <time>2024-06-13T08:28:54.630Z</time>
      </trkpt>
      <trkpt lat="48.40738" lon="2.4209">
        <ele>121.8</ele>
        <time>2024-06-13T08:28:57.522Z</time>
      </trkpt>
      <trkpt lat="48.40734" lon="2.4209">
        <ele>120.34</ele>
        <time>2024-06-13T08:29:00.414Z</time>
      </trkpt>
      <trkpt lat="48.4073" lon="2.4209">
        <ele>118.95</ele>
        <time>2024-06-13T08:29:03.307Z</time>
      </trkpt>
      <trkpt lat="48.40726" lon="2.42086">
        <ele>117.14</ele>
        <time>2024-06-13T08:29:06.201Z</time>
      </trkpt>
      <trkpt lat="48.40722" lon="2.42082">
        <ele>115.66</ele>
        <time>2024-06-13T08:29:09.096Z</time>
      </trkpt>
      <trkpt lat="48.40719" lon="2.42078">
        <ele>114.39</ele>
        <time>2024-06-13T08:29:11.991Z</time>
      </trkpt>
      <trkpt lat="48.40716" lon="2.42075">
        <ele>113.65</ele>
        <time>2024-06-13T08:29:14.887Z</time>
      </trkpt>
      <trkpt lat="48.40716" lon="2.42073">
        <ele>113.37</ele>
        <time>2024-06-13T08:29:17.783Z</time>
      </trkpt>
      <trkpt lat="48.40714" lon="2.42067">
        <ele>112.57</ele>
        <time>2024-06-13T08:29:20.680Z</time>
      </trkpt>
      <trkpt lat="48.40713" lon="2.4206">
        <ele>111.92</ele>
        <time>2024-06-13T08:29:23.577Z</time>
      </trkpt>
      <trkpt lat="48.40712" lon="2.42054">
        <ele>111.36</ele>
        <time>2024-06-13T08:29:26.475Z</time>
      </trkpt>
      <trkpt lat="48.40709" lon="2.42041">
        <ele>110.31</ele>
        <time>2024-06-13T08:29:29.375Z</time>
      </trkpt>
      <trkpt lat="48.40707" lon="2.4203">
        <ele>109.45</ele>
        <time>2024-06-13T08:29:32.276Z</time>
      </trkpt>
      <trkpt lat="48.40707" lon="2.42028">
        <ele>109.32</ele>
        <time>2024-06-13T08:29:35.177Z</time>
      </trkpt>
      <trkpt lat="48.40709" lon="2.42022">
        <ele>108.87</ele>
        <time>2024-06-13T08:29:38.079Z</time>
      </trkpt>
      <trkpt lat="48.40711" lon="2.42016">
        <ele>108.47</ele>
        <time>2024-06-13T08:29:40.981Z</time>
      </trkpt>
      <trkpt lat="48.40713" lon="2.4201">
        <ele>108.11</ele>
        <time>2024-06-13T08:29:43.884Z</time>
      </trkpt>
      <trkpt lat="48.40719" lon="2.41992">
        <ele>107.11</ele>
        <time>2024-06-13T08:29:46.789Z</time>
      </trkpt>
      <trkpt lat="48.4072" lon="2.41986">
        <ele>106.72</ele>
        <time>2024-06-13T08:29:49.695Z</time>
      </trkpt>
      <trkpt lat="48.40722" lon="2.4198">
        <ele>106.25</ele>
        <time>2024-06-13T08:29:52.602Z</time>
      </trkpt>
      <trkpt lat="48.40722" lon="2.41979">
        <ele>106.25</ele>
        <time>2024-06-13T08:29:55.509Z</time>
      </trkpt>
      <trkpt lat="48.40724" lon="2.41974">
        <ele>105.69</ele>
        <time>2024-06-13T08:29:58.416Z</time>
      </trkpt>
      <trkpt lat="48.40726" lon="2.41968">
        <ele>105.01</ele>
        <time>2024-06-13T08:30:01.324Z</time>
      </trkpt>
      <trkpt lat="48.40728" lon="2.41962">
        <ele>104.19</ele>
        <time>2024-06-13T08:30:04.233Z</time>
      </trkpt>
      <trkpt lat="48.40731" lon="2.41956">
        <ele>103.24</ele>
        <time>2024-06-13T08:30:07.143Z</time>
      </trkpt>
      <trkpt lat="48.40733" lon="2.4195">
        <ele>102.18</ele>
        <time>2024-06-13T08:30:10.053Z</time>
      </trkpt>
      <trkpt lat="48.40734" lon="2.41946">
        <ele>101.44</ele>
        <time>2024-06-13T08:30:12.964Z</time>
      </trkpt>
      <trkpt lat="48.40736" lon="2.41917">
        <ele>96.37</ele>
        <time>2024-06-13T08:30:15.878Z</time>
      </trkpt>
      <trkpt lat="48.40736" lon="2.41915">
        <ele>96.14</ele>
        <time>2024-06-13T08:30:18.792Z</time>
      </trkpt>
      <trkpt lat="48.40742" lon="2.41908">
        <ele>94.81</ele>
        <time>2024-06-13T08:30:21.707Z</time>
      </trkpt>
      <trkpt lat="48.40751" lon="2.41899">
        <ele>93.11</ele>
        <time>2024-06-13T08:30:24.624Z</time>
      </trkpt>
      <trkpt lat="48.40754" lon="2.41898">
        <ele>92.7</ele>
        <time>2024-06-13T08:30:27.542Z</time>
      </trkpt>
      <trkpt lat="48.40762" lon="2.41896">
        <ele>91.15</ele>
        <time>2024-06-13T08:30:30.461Z</time>
      </trkpt>
      <trkpt lat="48.40769" lon="2.41894">
        <ele>89.82</ele>
        <time>2024-06-13T08:30:33.381Z</time>
      </trkpt>
      <trkpt lat="48.4077" lon="2.41891">
        <ele>89.4</ele>
        <time>2024-06-13T08:30:36.301Z</time>
      </trkpt>
      <trkpt lat="48.40773" lon="2.41878">
        <ele>87.52</ele>
        <time>2024-06-13T08:30:39.223Z</time>
      </trkpt>
      <trkpt lat="48.40773" lon="2.41877">
        <ele>87.31</ele>
        <time>2024-06-13T08:30:42.145Z</time>
      </trkpt>
      <trkpt lat="48.40781" lon="2.41866">
        <ele>84.87</ele>
        <time>2024-06-13T08:30:45.069Z</time>
      </trkpt>
      <trkpt lat="48.40787" lon="2.41864">
        <ele>83.5</ele>
        <time>2024-06-13T08:30:47.994Z</time>
      </trkpt>
      <trkpt lat="48.40791" lon="2.41863">
        <ele>82.57</ele>
        <time>2024-06-13T08:30:50.919Z</time>
      </trkpt>
      <trkpt lat="48.40796" lon="2.41862">
        <ele>81.72</ele>
        <time>2024-06-13T08:30:53.845Z</time>
      </trkpt>
      <trkpt lat="48.408" lon="2.41861">
        <ele>80.99</ele>
        <time>2024-06-13T08:30:56.772Z</time>
      </trkpt>
      <trkpt lat="48.40802" lon="2.4186">
        <ele>80.71</ele>
        <time>2024-06-13T08:30:59.699Z</time>
      </trkpt>
      <trkpt lat="48.40804" lon="2.41857">
        <ele>80.38</ele>
        <time>2024-06-13T08:31:02.626Z</time>
      </trkpt>
      <trkpt lat="48.40807" lon="2.41852">
        <ele>79.86</ele>
        <time>2024-06-13T08:31:05.554Z</time>
      </trkpt>
      <trkpt lat="48.4081" lon="2.41847">
        <ele>79.41</ele>
        <time>2024-06-13T08:31:08.483Z</time>
      </trkpt>
      <trkpt lat="48.40813" lon="2.41842">
        <ele>79</ele>
        <time>2024-06-13T08:31:11.413Z</time>
      </trkpt>
      <trkpt lat="48.40818" lon="2.41832">
        <ele>78.25</ele>
        <time>2024-06-13T08:31:14.344Z</time>
      </trkpt>
      <trkpt lat="48.40824" lon="2.41822">
        <ele>77.54</ele>
        <time>2024-06-13T08:31:17.276Z</time>
      </trkpt>
      <trkpt lat="48.4083" lon="2.41812">
        <ele>76.87</ele>
        <time>2024-06-13T08:31:20.210Z</time>
      </trkpt>
      <trkpt lat="48.40831" lon="2.41811">
        <ele>76.84</ele>
        <time>2024-06-13T08:31:23.144Z</time>
      </trkpt>
      <trkpt lat="48.40826" lon="2.41802">
        <ele>76.67</ele>
        <time>2024-06-13T08:31:26.079Z</time>
      </trkpt>
      <trkpt lat="48.4082" lon="2.41792">
        <ele>76.53</ele>
        <time>2024-06-13T08:31:29.016Z</time>
      </trkpt>
      <trkpt lat="48.40802" lon="2.41763">
        <ele>76.26</ele>
        <time>2024-06-13T08:31:31.957Z</time>
      </trkpt>
      <trkpt lat="48.40793" lon="2.41748">
        <ele>76.17</ele>
        <time>2024-06-13T08:31:34.900Z</time>
      </trkpt>
      <trkpt lat="48.40775" lon="2.41718">
        <ele>76.09</ele>
        <time>2024-06-13T08:31:37.847Z</time>
      </trkpt>
      <trkpt lat="48.40769" lon="2.41708">
        <ele>76.01</ele>
        <time>2024-06-13T08:31:40.796Z</time>
      </trkpt>
      <trkpt lat="48.40763" lon="2.41699">
        <ele>75.84</ele>
        <time>2024-06-13T08:31:43.746Z</time>
      </trkpt>
      <trkpt lat="48.40746" lon="2.41669">
        <ele>75.13</ele>
        <time>2024-06-13T08:31:46.700Z</time>
      </trkpt>
      <trkpt lat="48.4074" lon="2.41659">
        <ele>74.94</ele>
        <time>2024-06-13T08:31:49.656Z</time>
      </trkpt>
      <trkpt lat="48.40739" lon="2.41658">
        <ele>74.92</ele>
        <time>2024-06-13T08:31:52.612Z</time>
      </trkpt>
      <trkpt lat="48.40737" lon="2.41654">
        <ele>74.88</ele>
        <time>2024-06-13T08:31:55.569Z</time>
      </trkpt>
      <trkpt lat="48.40732" lon="2.41643">
        <ele>74.8</ele>
        <time>2024-06-13T08:31:58.527Z</time>
      </trkpt>
      <trkpt lat="48.40723" lon="2.41627">
        <ele>74.75</ele>
        <time>2024-06-13T08:32:01.487Z</time>
      </trkpt>
      <trkpt lat="48.40715" lon="2.41612">
        <ele>74.72</ele>
        <time>2024-06-13T08:32:04.449Z</time>
      </trkpt>
      <trkpt lat="48.40707" lon="2.41595">
        <ele>74.74</ele>
        <time>2024-06-13T08:32:07.414Z</time>
      </trkpt>
      <trkpt lat="48.40717" lon="2.41597">
        <ele>74.72</ele>
        <time>2024-06-13T08:32:10.380Z</time>
      </trkpt>
      <trkpt lat="48.40728" lon="2.41595">
        <ele>74.84</ele>
        <time>2024-06-13T08:32:13.348Z</time>
      </trkpt>
      <trkpt lat="48.4073" lon="2.41594">
        <ele>74.86</ele>
        <time>2024-06-13T08:32:16.316Z</time>
      </trkpt>
      <trkpt lat="48.40738" lon="2.41589">
        <ele>74.98</ele>
        <time>2024-06-13T08:32:19.286Z</time>
      </trkpt>
      <trkpt lat="48.40747" lon="2.41584">
        <ele>75.15</ele>
        <time>2024-06-13T08:32:22.257Z</time>
      </trkpt>
      <trkpt lat="48.4075" lon="2.41581">
        <ele>75.23</ele>
        <time>2024-06-13T08:32:25.229Z</time>
      </trkpt>
      <trkpt lat="48.40757" lon="2.41573">
        <ele>75.44</ele>
        <time>2024-06-13T08:32:28.202Z</time>
      </trkpt>
      <trkpt lat="48.40776" lon="2.41554">
        <ele>76.05</ele>
        <time>2024-06-13T08:32:31.179Z</time>
      </trkpt>
      <trkpt lat="48.4078" lon="2.41549">
        <ele>76.2</ele>
        <time>2024-06-13T08:32:34.157Z</time>
      </trkpt>
      <trkpt lat="48.40794" lon="2.4154">
        <ele>76.65</ele>
        <time>2024-06-13T08:32:37.137Z</time>
      </trkpt>
      <trkpt lat="48.40796" lon="2.41539">
        <ele>76.71</ele>
        <time>2024-06-13T08:32:40.117Z</time>
      </trkpt>
      <trkpt lat="48.40805" lon="2.41537">
        <ele>77.02</ele>
        <time>2024-06-13T08:32:43.099Z</time>
      </trkpt>
      <trkpt lat="48.40811" lon="2.41535">
        <ele>77.29</ele>
        <time>2024-06-13T08:32:46.082Z</time>
      </trkpt>
      <trkpt lat="48.40821" lon="2.41526">
        <ele>77.76</ele>
        <time>2024-06-13T08:32:49.067Z</time>
      </trkpt>
      <trkpt lat="48.40825" lon="2.41514">
        <ele>78.06</ele>
        <time>2024-06-13T08:32:52.053Z</time>
      </trkpt>
      <trkpt lat="48.40825" lon="2.41496">
        <ele>78.38</ele>
        <time>2024-06-13T08:32:55.041Z</time>
      </trkpt>
      <trkpt lat="48.40821" lon="2.41484">
        <ele>78.61</ele>
        <time>2024-06-13T08:32:58.030Z</time>
      </trkpt>
      <trkpt lat="48.40817" lon="2.41478">
        <ele>78.76</ele>
        <time>2024-06-13T08:33:01.020Z</time>
      </trkpt>
      <trkpt lat="48.40814" lon="2.41473">
        <ele>78.84</ele>
        <time>2024-06-13T08:33:04.011Z</time>
      </trkpt>
      <trkpt lat="48.40813" lon="2.41472">
        <ele>78.85</ele>
        <time>2024-06-13T08:33:07.002Z</time>
      </trkpt>
      <trkpt lat="48.40804" lon="2.41465">
        <ele>78.95</ele>
        <time>2024-06-13T08:33:09.995Z</time>
      </trkpt>
      <trkpt lat="48.40803" lon="2.41462">
        <ele>78.98</ele>
        <time>2024-06-13T08:33:12.988Z</time>
      </trkpt>
      <trkpt lat="48.40799" lon="2.4145">
        <ele>79.14</ele>
        <time>2024-06-13T08:33:15.983Z</time>
      </trkpt>
      <trkpt lat="48.40797" lon="2.41444">
        <ele>79.25</ele>
        <time>2024-06-13T08:33:18.978Z</time>
      </trkpt>
      <trkpt lat="48.40795" lon="2.41438">
        <ele>79.4</ele>
        <time>2024-06-13T08:33:21.974Z</time>
      </trkpt>
      <trkpt lat="48.40793" lon="2.41432">
        <ele>79.58</ele>
        <time>2024-06-13T08:33:24.971Z</time>
      </trkpt>
      <trkpt lat="48.40791" lon="2.41426">
        <ele>79.8</ele>
        <time>2024-06-13T08:33:27.969Z</time>
      </trkpt>
      <trkpt lat="48.40789" lon="2.4142">
        <ele>80.05</ele>
        <time>2024-06-13T08:33:30.967Z</time>
      </trkpt>
      <trkpt lat="48.40787" lon="2.41414">
        <ele>80.35</ele>
        <time>2024-06-13T08:33:33.966Z</time>
      </trkpt>
      <trkpt lat="48.40785" lon="2.41408">
        <ele>80.69</ele>
        <time>2024-06-13T08:33:36.966Z</time>
      </trkpt>
      <trkpt lat="48.40784" lon="2.41405">
        <ele>80.88</ele>
        <time>2024-06-13T08:33:39.966Z</time>
      </trkpt>
      <trkpt lat="48.40786" lon="2.41389">
        <ele>81.79</ele>
        <time>2024-06-13T08:33:42.968Z</time>
      </trkpt>
      <trkpt lat="48.40787" lon="2.41382">
        <ele>82.08</ele>
        <time>2024-06-13T08:33:45.971Z</time>
      </trkpt>
      <trkpt lat="48.40787" lon="2.4138">
        <ele>82.14</ele>
        <time>2024-06-13T08:33:48.974Z</time>
      </trkpt>
      <trkpt lat="48.40785" lon="2.41376">
        <ele>82.29</ele>
        <time>2024-06-13T08:33:51.977Z</time>
      </trkpt>
      <trkpt lat="48.40782" lon="2.41371">
        <ele>82.42</ele>
        <time>2024-06-13T08:33:54.981Z</time>
      </trkpt>
      <trkpt lat="48.40779" lon="2.41366">
        <ele>82.47</ele>
        <time>2024-06-13T08:33:57.986Z</time>
      </trkpt>
      <trkpt lat="48.40774" lon="2.41355">
        <ele>82.45</ele>
        <time>2024-06-13T08:34:00.992Z</time>
      </trkpt>
      <trkpt lat="48.40771" lon="2.4135">
        <ele>82.4</ele>
        <time>2024-06-13T08:34:03.999Z</time>
      </trkpt>
      <trkpt lat="48.40769" lon="2.41329">
        <ele>82.19</ele>
        <time>2024-06-13T08:34:07.008Z</time>
      </trkpt>
      <trkpt lat="48.40759" lon="2.41317">
        <ele>82</ele>
        <time>2024-06-13T08:34:10.019Z</time>
      </trkpt>
      <trkpt lat="48.40756" lon="2.41312">
        <ele>81.94</ele>
        <time>2024-06-13T08:34:13.031Z</time>
      </trkpt>
      <trkpt lat="48.40753" lon="2.41305">
        <ele>81.89</ele>
        <time>2024-06-13T08:34:16.044Z</time>
      </trkpt>
      <trkpt lat="48.40755" lon="2.41302">
        <ele>81.87</ele>
        <time>2024-06-13T08:34:19.057Z</time>
      </trkpt>
      <trkpt lat="48.40757" lon="2.41299">
        <ele>81.87</ele>
        <time>2024-06-13T08:34:22.071Z</time>
      </trkpt>
      <trkpt lat="48.40763" lon="2.41298">
        <ele>81.89</ele>
        <time>2024-06-13T08:34:25.086Z</time>
      </trkpt>
      <trkpt lat="48.40775" lon="2.41295">
        <ele>81.95</ele>
        <time>2024-06-13T08:34:28.103Z</time>
      </trkpt>
      <trkpt lat="48.40774" lon="2.41293">
        <ele>81.97</ele>
        <time>2024-06-13T08:34:31.120Z</time>
      </trkpt>
      <trkpt lat="48.40769" lon="2.41267">
        <ele>81.94</ele>
        <time>2024-06-13T08:34:34.140Z</time>
      </trkpt>
      <trkpt lat="48.40765" lon="2.41248">
        <ele>81.96</ele>
        <time>2024-06-13T08:34:37.162Z</time>
      </trkpt>
      <trkpt lat="48.40763" lon="2.41238">
        <ele>81.99</ele>
        <time>2024-06-13T08:34:40.185Z</time>
      </trkpt>
      <trkpt lat="48.40773" lon="2.4122">
        <ele>82.07</ele>
        <time>2024-06-13T08:34:43.210Z</time>
      </trkpt>
      <trkpt lat="48.40779" lon="2.4121">
        <ele>82.13</ele>
        <time>2024-06-13T08:34:46.237Z</time>
      </trkpt>
      <trkpt lat="48.40782" lon="2.41205">
        <ele>82.2</ele>
        <time>2024-06-13T08:34:49.265Z</time>
      </trkpt>
      <trkpt lat="48.40784" lon="2.41199">
        <ele>82.3</ele>
        <time>2024-06-13T08:34:52.293Z</time>
      </trkpt>
      <trkpt lat="48.40793" lon="2.41184">
        <ele>82.71</ele>
        <time>2024-06-13T08:34:55.323Z</time>
      </trkpt>
      <trkpt lat="48.40796" lon="2.41179">
        <ele>82.82</ele>
        <time>2024-06-13T08:34:58.354Z</time>
      </trkpt>
      <trkpt lat="48.40797" lon="2.41177">
        <ele>82.84</ele>
        <time>2024-06-13T08:35:01.385Z</time>
      </trkpt>
      <trkpt lat="48.40798" lon="2.41173">
        <ele>82.89</ele>
        <time>2024-06-13T08:35:04.417Z</time>
      </trkpt>
      <trkpt lat="48.408" lon="2.41167">
        <ele>82.92</ele>
        <time>2024-06-13T08:35:07.450Z</time>
      </trkpt>
      <trkpt lat="48.40803" lon="2.41153">
        <ele>82.86</ele>
        <time>2024-06-13T08:35:10.484Z</time>
      </trkpt>
      <trkpt lat="48.40799" lon="2.41143">
        <ele>82.81</ele>
        <time>2024-06-13T08:35:13.520Z</time>
      </trkpt>
      <trkpt lat="48.40796" lon="2.41137">
        <ele>82.82</ele>
        <time>2024-06-13T08:35:16.556Z</time>
      </trkpt>
      <trkpt lat="48.40794" lon="2.41131">
        <ele>82.87</ele>
        <time>2024-06-13T08:35:19.593Z</time>
      </trkpt>
      <trkpt lat="48.40792" lon="2.41126">
        <ele>82.93</ele>
        <time>2024-06-13T08:35:22.631Z</time>
      </trkpt>
      <trkpt lat="48.40792" lon="2.41105">
        <ele>83.15</ele>
        <time>2024-06-13T08:35:25.671Z</time>
      </trkpt>
      <trkpt lat="48.40792" lon="2.41098">
        <ele>83.2</ele>
        <time>2024-06-13T08:35:28.712Z</time>
      </trkpt>
      <trkpt lat="48.40793" lon="2.41092">
        <ele>83.21</ele>
        <time>2024-06-13T08:35:31.753Z</time>
      </trkpt>
      <trkpt lat="48.40795" lon="2.41086">
        <ele>83.18</ele>
        <time>2024-06-13T08:35:34.795Z</time>
      </trkpt>
      <trkpt lat="48.40796" lon="2.41079">
        <ele>83.11</ele>
        <time>2024-06-13T08:35:37.838Z</time>
      </trkpt>
      <trkpt lat="48.40797" lon="2.41073">
        <ele>83</ele>
        <time>2024-06-13T08:35:40.881Z</time>
      </trkpt>
      <trkpt lat="48.40799" lon="2.41066">
        <ele>82.84</ele>
        <time>2024-06-13T08:35:43.925Z</time>
      </trkpt>
      <trkpt lat="48.408" lon="2.4106">
        <ele>82.66</ele>
        <time>2024-06-13T08:35:46.970Z</time>
      </trkpt>
      <trkpt lat="48.40802" lon="2.41054">
        <ele>82.44</ele>
        <time>2024-06-13T08:35:50.016Z</time>
      </trkpt>
      <trkpt lat="48.40803" lon="2.41047">
        <ele>82.19</ele>
        <time>2024-06-13T08:35:53.062Z</time>
      </trkpt>
      <trkpt lat="48.40802" lon="2.41041">
        <ele>81.92</ele>
        <time>2024-06-13T08:35:56.109Z</time>
      </trkpt>
      <trkpt lat="48.40797" lon="2.41022">
        <ele>81.04</ele>
        <time>2024-06-13T08:35:59.158Z</time>
      </trkpt>
      <trkpt lat="48.40796" lon="2.41015">
        <ele>80.77</ele>
        <time>2024-06-13T08:36:02.208Z</time>
      </trkpt>
      <trkpt lat="48.40794" lon="2.41009">
        <ele>80.53</ele>
        <time>2024-06-13T08:36:05.259Z</time>
      </trkpt>
      <trkpt lat="48.40793" lon="2.41003">
        <ele>80.33</ele>
        <time>2024-06-13T08:36:08.310Z</time>
      </trkpt>
      <trkpt lat="48.40792" lon="2.40999">
        <ele>80.23</ele>
        <time>2024-06-13T08:36:11.362Z</time>
      </trkpt>
      <trkpt lat="48.40793" lon="2.40996">
        <ele>80.17</ele>
        <time>2024-06-13T08:36:14.414Z</time>
      </trkpt>
      <trkpt lat="48.40794" lon="2.4099">
        <ele>80.08</ele>
        <time>2024-06-13T08:36:17.467Z</time>
      </trkpt>
      <trkpt lat="48.40796" lon="2.40984">
        <ele>80.03</ele>
        <time>2024-06-13T08:36:20.520Z</time>
      </trkpt>
      <trkpt lat="48.40798" lon="2.40978">
        <ele>80.02</ele>
        <time>2024-06-13T08:36:23.574Z</time>
      </trkpt>
      <trkpt lat="48.40799" lon="2.40971">
        <ele>80.05</ele>
        <time>2024-06-13T08:36:26.629Z</time>
      </trkpt>
      <trkpt lat="48.408" lon="2.40968">
        <ele>80.08</ele>
        <time>2024-06-13T08:36:29.684Z</time>
      </trkpt>
      <trkpt lat="48.40805" lon="2.40962">
        <ele>80.19</ele>
        <time>2024-06-13T08:36:32.740Z</time>
      </trkpt>
      <trkpt lat="48.40809" lon="2.40958">
        <ele>80.31</ele>
        <time>2024-06-13T08:36:35.797Z</time>
      </trkpt>
      <trkpt lat="48.40812" lon="2.40954">
        <ele>80.46</ele>
        <time>2024-06-13T08:36:38.855Z</time>
      </trkpt>
      <trkpt lat="48.40813" lon="2.40953">
        <ele>80.5</ele>
        <time>2024-06-13T08:36:41.913Z</time>
      </trkpt>
      <trkpt lat="48.40817" lon="2.40953">
        <ele>80.66</ele>
        <time>2024-06-13T08:36:44.971Z</time>
      </trkpt>
      <trkpt lat="48.40821" lon="2.40953">
        <ele>80.88</ele>
        <time>2024-06-13T08:36:48.030Z</time>
      </trkpt>
      <trkpt lat="48.4083" lon="2.40952">
        <ele>81.42</ele>
        <time>2024-06-13T08:36:51.091Z</time>
      </trkpt>
      <trkpt lat="48.40826" lon="2.4094">
        <ele>81.29</ele>
        <time>2024-06-13T08:36:54.153Z</time>
      </trkpt>
      <trkpt lat="48.40816" lon="2.40911">
        <ele>80.86</ele>
        <time>2024-06-13T08:36:57.219Z</time>
      </trkpt>
      <trkpt lat="48.40815" lon="2.40909">
        <ele>80.84</ele>
        <time>2024-06-13T08:37:00.285Z</time>
      </trkpt>
      <trkpt lat="48.4081" lon="2.409">
        <ele>80.73</ele>
        <time>2024-06-13T08:37:03.352Z</time>
      </trkpt>
      <trkpt lat="48.40802" lon="2.40884">
        <ele>80.64</ele>
        <time>2024-06-13T08:37:06.421Z</time>
      </trkpt>
      <trkpt lat="48.40789" lon="2.40857">
        <ele>80.61</ele>
        <time>2024-06-13T08:37:09.494Z</time>
      </trkpt>
      <trkpt lat="48.40786" lon="2.40852">
        <ele>80.58</ele>
        <time>2024-06-13T08:37:12.567Z</time>
      </trkpt>
      <trkpt lat="48.40781" lon="2.40841">
        <ele>80.48</ele>
        <time>2024-06-13T08:37:15.642Z</time>
      </trkpt>
      <trkpt lat="48.40775" lon="2.4083">
        <ele>80.33</ele>
        <time>2024-06-13T08:37:18.718Z</time>
      </trkpt>
      <trkpt lat="48.40761" lon="2.40815">
        <ele>79.95</ele>
        <time>2024-06-13T08:37:21.797Z</time>
      </trkpt>
      <trkpt lat="48.40739" lon="2.40791">
        <ele>79.24</ele>
        <time>2024-06-13T08:37:24.880Z</time>
      </trkpt>
      <trkpt lat="48.40728" lon="2.40779">
        <ele>78.84</ele>
        <time>2024-06-13T08:37:27.966Z</time>
      </trkpt>
      <trkpt lat="48.40721" lon="2.40772">
        <ele>78.53</ele>
        <time>2024-06-13T08:37:31.053Z</time>
      </trkpt>
      <trkpt lat="48.40717" lon="2.40767">
        <ele>78.33</ele>
        <time>2024-06-13T08:37:34.141Z</time>
      </trkpt>
      <trkpt lat="48.40703" lon="2.40753">
        <ele>77.69</ele>
        <time>2024-06-13T08:37:37.232Z</time>
      </trkpt>
      <trkpt lat="48.40681" lon="2.4073">
        <ele>76.83</ele>
        <time>2024-06-13T08:37:40.327Z</time>
      </trkpt>
      <trkpt lat="48.40648" lon="2.40697">
        <ele>75.39</ele>
        <time>2024-06-13T08:37:43.428Z</time>
      </trkpt>
      <trkpt lat="48.40631" lon="2.4068">
        <ele>74.7</ele>
        <time>2024-06-13T08:37:46.532Z</time>
      </trkpt>
      <trkpt lat="48.40625" lon="2.40675">
        <ele>74.48</ele>
        <time>2024-06-13T08:37:49.637Z</time>
      </trkpt>
      <trkpt lat="48.4061" lon="2.40662">
        <ele>73.9</ele>
        <time>2024-06-13T08:37:52.745Z</time>
      </trkpt>
      <trkpt lat="48.40596" lon="2.4065">
        <ele>73.35</ele>
        <time>2024-06-13T08:37:55.856Z</time>
      </trkpt>
      <trkpt lat="48.40583" lon="2.40636">
        <ele>72.83</ele>
        <time>2024-06-13T08:37:58.969Z</time>
      </trkpt>
      <trkpt lat="48.40576" lon="2.40631">
        <ele>72.57</ele>
        <time>2024-06-13T08:38:02.084Z</time>
      </trkpt>
      <trkpt lat="48.40556" lon="2.40616">
        <ele>71.98</ele>
        <time>2024-06-13T08:38:05.202Z</time>
      </trkpt>
      <trkpt lat="48.4054" lon="2.40604">
        <ele>71.48</ele>
        <time>2024-06-13T08:38:08.323Z</time>
      </trkpt>
      <trkpt lat="48.40538" lon="2.40603">
        <ele>71.38</ele>
        <time>2024-06-13T08:38:11.444Z</time>
      </trkpt>
      <trkpt lat="48.40529" lon="2.40596">
        <ele>74.06</ele>
        <time>2024-06-13T08:38:14.567Z</time>
      </trkpt>
      <trkpt lat="48.40529" lon="2.40596">
        <ele>74.06</ele>
        <time>2024-06-13T08:38:17.690Z</time>
      </trkpt>
      <trkpt lat="48.4054" lon="2.40605">
        <ele>71.48</ele>
        <time>2024-06-13T08:38:20.815Z</time>
      </trkpt>
      <trkpt lat="48.4054" lon="2.40605">
        <ele>71.48</ele>
        <time>2024-06-13T08:38:23.940Z</time>
      </trkpt>
      <trkpt lat="48.40598" lon="2.40575">
        <ele>71.92</ele>
        <time>2024-06-13T08:38:27.075Z</time>
      </trkpt>
      <trkpt lat="48.40622" lon="2.40555">
        <ele>72.12</ele>
        <time>2024-06-13T08:38:30.214Z</time>
      </trkpt>
      <trkpt lat="48.40665" lon="2.40532">
        <ele>72.45</ele>
        <time>2024-06-13T08:38:33.361Z</time>
      </trkpt>
      <trkpt lat="48.40733" lon="2.40489">
        <ele>72.99</ele>
        <time>2024-06-13T08:38:36.519Z</time>
      </trkpt>
      <trkpt lat="48.40746" lon="2.40474">
        <ele>73.1</ele>
        <time>2024-06-13T08:38:39.680Z</time>
      </trkpt>
      <trkpt lat="48.40763" lon="2.40463">
        <ele>73.25</ele>
        <time>2024-06-13T08:38:42.844Z</time>
      </trkpt>
      <trkpt lat="48.40764" lon="2.40463">
        <ele>73.25</ele>
        <time>2024-06-13T08:38:46.008Z</time>
      </trkpt>
      <trkpt lat="48.40827" lon="2.40467">
        <ele>73.7</ele>
        <time>2024-06-13T08:38:49.182Z</time>
      </trkpt>
      <trkpt lat="48.40865" lon="2.40513">
        <ele>74.06</ele>
        <time>2024-06-13T08:38:52.364Z</time>
      </trkpt>
      <trkpt lat="48.4089" lon="2.40513">
        <ele>74.24</ele>
        <time>2024-06-13T08:38:55.550Z</time>
      </trkpt>
      <trkpt lat="48.40918" lon="2.405">
        <ele>74.45</ele>
        <time>2024-06-13T08:38:58.741Z</time>
      </trkpt>
      <trkpt lat="48.40928" lon="2.40506">
        <ele>74.53</ele>
        <time>2024-06-13T08:39:01.933Z</time>
      </trkpt>
      <trkpt lat="48.40957" lon="2.40516">
        <ele>74.75</ele>
        <time>2024-06-13T08:39:05.130Z</time>
      </trkpt>
      <trkpt lat="48.40986" lon="2.40497">
        <ele>74.98</ele>
        <time>2024-06-13T08:39:08.332Z</time>
      </trkpt>
      <trkpt lat="48.41002" lon="2.40467">
        <ele>75.17</ele>
        <time>2024-06-13T08:39:11.538Z</time>
      </trkpt>
      <trkpt lat="48.41025" lon="2.40442">
        <ele>75.37</ele>
        <time>2024-06-13T08:39:14.749Z</time>
      </trkpt>
      <trkpt lat="48.41035" lon="2.40423">
        <ele>75.5</ele>
        <time>2024-06-13T08:39:17.963Z</time>
      </trkpt>
      <trkpt lat="48.41036" lon="2.40424">
        <ele>75.5</ele>
        <time>2024-06-13T08:39:21.177Z</time>
      </trkpt>
      <trkpt lat="48.4105" lon="2.40443">
        <ele>120.6</ele>
        <time>2024-06-13T08:39:24.394Z</time>
      </trkpt>
      <trkpt lat="48.4105" lon="2.40443">
        <ele>120.6</ele>
        <time>2024-06-13T08:39:27.611Z</time>
      </trkpt>
      <trkpt lat="48.41061" lon="2.40452">
        <ele>119.44</ele>
        <time>2024-06-13T08:39:30.830Z</time>
      </trkpt>
      <trkpt lat="48.41065" lon="2.40465">
        <ele>119.78</ele>
        <time>2024-06-13T08:39:34.050Z</time>
      </trkpt>
      <trkpt lat="48.41069" lon="2.40481">
        <ele>119.41</ele>
        <time>2024-06-13T08:39:37.272Z</time>
      </trkpt>
      <trkpt lat="48.41073" lon="2.40493">
        <ele>119.3</ele>
        <time>2024-06-13T08:39:40.496Z</time>
      </trkpt>
      <trkpt lat="48.41073" lon="2.40493">
        <ele>119.3</ele>
        <time>2024-06-13T08:39:43.720Z</time>
      </trkpt>
      <trkpt lat="48.41092" lon="2.40509">
        <ele>115.83</ele>
        <time>2024-06-13T08:39:46.947Z</time>
      </trkpt>
      <trkpt lat="48.41105" lon="2.4052">
        <ele>114</ele>
        <time>2024-06-13T08:39:50.176Z</time>
      </trkpt>
      <trkpt lat="48.41105" lon="2.4052">
        <ele>114</ele>
        <time>2024-06-13T08:39:53.405Z</time>
      </trkpt>
      <trkpt lat="48.41111" lon="2.40535">
        <ele>113.06</ele>
        <time>2024-06-13T08:39:56.636Z</time>
      </trkpt>
      <trkpt lat="48.41111" lon="2.40535">
        <ele>113.06</ele>
        <time>2024-06-13T08:39:59.867Z</time>
      </trkpt>
      <trkpt lat="48.4112" lon="2.40531">
        <ele>109.96</ele>
        <time>2024-06-13T08:40:03.100Z</time>
      </trkpt>
      <trkpt lat="48.4112" lon="2.4053">
        <ele>109.96</ele>
        <time>2024-06-13T08:40:06.333Z</time>
      </trkpt>
      <trkpt lat="48.41131" lon="2.40518">
        <ele>107.16</ele>
        <time>2024-06-13T08:40:09.568Z</time>
      </trkpt>
      <trkpt lat="48.41139" lon="2.40503">
        <ele>104.39</ele>
        <time>2024-06-13T08:40:12.805Z</time>
      </trkpt>
      <trkpt lat="48.41139" lon="2.40502">
        <ele>104.39</ele>
        <time>2024-06-13T08:40:16.042Z</time>
      </trkpt>
      <trkpt lat="48.41143" lon="2.40489">
        <ele>102.07</ele>
        <time>2024-06-13T08:40:19.281Z</time>
      </trkpt>
      <trkpt lat="48.41148" lon="2.40473">
        <ele>99.44</ele>
        <time>2024-06-13T08:40:22.522Z</time>
      </trkpt>
      <trkpt lat="48.41148" lon="2.40473">
        <ele>99.44</ele>
        <time>2024-06-13T08:40:25.763Z</time>
      </trkpt>
      <trkpt lat="48.41159" lon="2.40476">
        <ele>98.03</ele>
        <time>2024-06-13T08:40:29.005Z</time>
      </trkpt>
      <trkpt lat="48.41167" lon="2.40469">
        <ele>95.74</ele>
        <time>2024-06-13T08:40:32.249Z</time>
      </trkpt>
      <trkpt lat="48.41178" lon="2.40468">
        <ele>93.68</ele>
        <time>2024-06-13T08:40:35.495Z</time>
      </trkpt>
      <trkpt lat="48.41218" lon="2.40446">
        <ele>85.91</ele>
        <time>2024-06-13T08:40:38.747Z</time>
      </trkpt>
      <trkpt lat="48.41223" lon="2.40466">
        <ele>81.97</ele>
        <time>2024-06-13T08:40:42.002Z</time>
      </trkpt>
      <trkpt lat="48.41225" lon="2.40473">
        <ele>82.25</ele>
        <time>2024-06-13T08:40:45.257Z</time>
      </trkpt>
      <trkpt lat="48.41226" lon="2.40479">
        <ele>82.5</ele>
        <time>2024-06-13T08:40:48.513Z</time>
      </trkpt>
      <trkpt lat="48.41228" lon="2.40485">
        <ele>82.72</ele>
        <time>2024-06-13T08:40:51.770Z</time>
      </trkpt>
      <trkpt lat="48.41229" lon="2.40492">
        <ele>82.92</ele>
        <time>2024-06-13T08:40:55.028Z</time>
      </trkpt>
      <trkpt lat="48.41231" lon="2.40498">
        <ele>83.06</ele>
        <time>2024-06-13T08:40:58.286Z</time>
      </trkpt>
      <trkpt lat="48.41233" lon="2.40504">
        <ele>83.14</ele>
        <time>2024-06-13T08:41:01.545Z</time>
      </trkpt>
      <trkpt lat="48.41233" lon="2.40506">
        <ele>83.13</ele>
        <time>2024-06-13T08:41:04.804Z</time>
      </trkpt>
      <trkpt lat="48.41236" lon="2.40506">
        <ele>83.13</ele>
        <time>2024-06-13T08:41:08.064Z</time>
      </trkpt>
      <trkpt lat="48.41241" lon="2.40505">
        <ele>83.02</ele>
        <time>2024-06-13T08:41:11.324Z</time>
      </trkpt>
      <trkpt lat="48.41245" lon="2.40504">
        <ele>82.81</ele>
        <time>2024-06-13T08:41:14.585Z</time>
      </trkpt>
      <trkpt lat="48.41249" lon="2.40503">
        <ele>82.51</ele>
        <time>2024-06-13T08:41:17.847Z</time>
      </trkpt>
      <trkpt lat="48.41254" lon="2.40503">
        <ele>82.15</ele>
        <time>2024-06-13T08:41:21.110Z</time>
      </trkpt>
      <trkpt lat="48.41267" lon="2.40501">
        <ele>80.92</ele>
        <time>2024-06-13T08:41:24.375Z</time>
      </trkpt>
      <trkpt lat="48.41272" lon="2.405">
        <ele>80.57</ele>
        <time>2024-06-13T08:41:27.641Z</time>
      </trkpt>
      <trkpt lat="48.41276" lon="2.40499">
        <ele>80.29</ele>
        <time>2024-06-13T08:41:30.907Z</time>
      </trkpt>
      <trkpt lat="48.41278" lon="2.40499">
        <ele>80.19</ele>
        <time>2024-06-13T08:41:34.174Z</time>
      </trkpt>
      <trkpt lat="48.41279" lon="2.40503">
        <ele>80.07</ele>
        <time>2024-06-13T08:41:37.441Z</time>
      </trkpt>
      <trkpt lat="48.4128" lon="2.40509">
        <ele>79.92</ele>
        <time>2024-06-13T08:41:40.709Z</time>
      </trkpt>
      <trkpt lat="48.41281" lon="2.40516">
        <ele>79.82</ele>
        <time>2024-06-13T08:41:43.977Z</time>
      </trkpt>
      <trkpt lat="48.41282" lon="2.40522">
        <ele>79.76</ele>
        <time>2024-06-13T08:41:47.246Z</time>
      </trkpt>
      <trkpt lat="48.41283" lon="2.40529">
        <ele>79.74</ele>
        <time>2024-06-13T08:41:50.516Z</time>
      </trkpt>
      <trkpt lat="48.41287" lon="2.40548">
        <ele>79.74</ele>
        <time>2024-06-13T08:41:53.788Z</time>
      </trkpt>
      <trkpt lat="48.41288" lon="2.40555">
        <ele>79.72</ele>
        <time>2024-06-13T08:41:57.061Z</time>
      </trkpt>
      <trkpt lat="48.41288" lon="2.40557">
        <ele>79.7</ele>
        <time>2024-06-13T08:42:00.334Z</time>
      </trkpt>
      <trkpt lat="48.41293" lon="2.40566">
        <ele>79.6</ele>
        <time>2024-06-13T08:42:03.608Z</time>
      </trkpt>
      <trkpt lat="48.41302" lon="2.40581">
        <ele>79.34</ele>
        <time>2024-06-13T08:42:06.884Z</time>
      </trkpt>
      <trkpt lat="48.41311" lon="2.40596">
        <ele>79.13</ele>
        <time>2024-06-13T08:42:10.162Z</time>
      </trkpt>
      <trkpt lat="48.41315" lon="2.40607">
        <ele>79.05</ele>
        <time>2024-06-13T08:42:13.442Z</time>
      </trkpt>
      <trkpt lat="48.41317" lon="2.40613">
        <ele>79.03</ele>
        <time>2024-06-13T08:42:16.723Z</time>
      </trkpt>
      <trkpt lat="48.41322" lon="2.40625">
        <ele>79.03</ele>
        <time>2024-06-13T08:42:20.005Z</time>
      </trkpt>
      <trkpt lat="48.41328" lon="2.40643">
        <ele>79.15</ele>
        <time>2024-06-13T08:42:23.289Z</time>
      </trkpt>
      <trkpt lat="48.41333" lon="2.40655">
        <ele>79.3</ele>
        <time>2024-06-13T08:42:26.575Z</time>
      </trkpt>
      <trkpt lat="48.41335" lon="2.4066">
        <ele>79.4</ele>
        <time>2024-06-13T08:42:29.861Z</time>
      </trkpt>
      <trkpt lat="48.41337" lon="2.40666">
        <ele>79.54</ele>
        <time>2024-06-13T08:42:33.148Z</time>
      </trkpt>
      <trkpt lat="48.41339" lon="2.40672">
        <ele>79.71</ele>
        <time>2024-06-13T08:42:36.436Z</time>
      </trkpt>
      <trkpt lat="48.41344" lon="2.40684">
        <ele>80.13</ele>
        <time>2024-06-13T08:42:39.725Z</time>
      </trkpt>
      <trkpt lat="48.41348" lon="2.40696">
        <ele>80.27</ele>
        <time>2024-06-13T08:42:43.016Z</time>
      </trkpt>
      <trkpt lat="48.41352" lon="2.40707">
        <ele>80.47</ele>
        <time>2024-06-13T08:42:46.308Z</time>
      </trkpt>
      <trkpt lat="48.41358" lon="2.40723">
        <ele>80.79</ele>
        <time>2024-06-13T08:42:49.602Z</time>
      </trkpt>
      <trkpt lat="48.41367" lon="2.4074">
        <ele>81.18</ele>
        <time>2024-06-13T08:42:52.898Z</time>
      </trkpt>
      <trkpt lat="48.41376" lon="2.40755">
        <ele>81.56</ele>
        <time>2024-06-13T08:42:56.196Z</time>
      </trkpt>
      <trkpt lat="48.41381" lon="2.40766">
        <ele>81.79</ele>
        <time>2024-06-13T08:42:59.496Z</time>
      </trkpt>
      <trkpt lat="48.41393" lon="2.40786">
        <ele>82.16</ele>
        <time>2024-06-13T08:43:02.799Z</time>
      </trkpt>
      <trkpt lat="48.41398" lon="2.40796">
        <ele>82.32</ele>
        <time>2024-06-13T08:43:06.103Z</time>
      </trkpt>
      <trkpt lat="48.41398" lon="2.40796">
        <ele>82.32</ele>
        <time>2024-06-13T08:43:09.407Z</time>
      </trkpt>
      <trkpt lat="48.41402" lon="2.408">
        <ele>82.36</ele>
        <time>2024-06-13T08:43:12.712Z</time>
      </trkpt>
      <trkpt lat="48.41406" lon="2.40804">
        <ele>82.37</ele>
        <time>2024-06-13T08:43:16.018Z</time>
      </trkpt>
      <trkpt lat="48.4142" lon="2.40817">
        <ele>82.33</ele>
        <time>2024-06-13T08:43:19.326Z</time>
      </trkpt>
      <trkpt lat="48.41424" lon="2.40823">
        <ele>82.32</ele>
        <time>2024-06-13T08:43:22.635Z</time>
      </trkpt>
      <trkpt lat="48.41442" lon="2.40847">
        <ele>82.29</ele>
        <time>2024-06-13T08:43:25.948Z</time>
      </trkpt>
      <trkpt lat="48.41449" lon="2.40861">
        <ele>82.29</ele>
        <time>2024-06-13T08:43:29.263Z</time>
      </trkpt>
      <trkpt lat="48.41462" lon="2.40887">
        <ele>82.25</ele>
        <time>2024-06-13T08:43:32.581Z</time>
      </trkpt>
      <trkpt lat="48.41471" lon="2.40903">
        <ele>82.28</ele>
        <time>2024-06-13T08:43:35.901Z</time>
      </trkpt>
      <trkpt lat="48.41476" lon="2.40913">
        <ele>82.34</ele>
        <time>2024-06-13T08:43:39.223Z</time>
      </trkpt>
      <trkpt lat="48.41484" lon="2.40929">
        <ele>82.47</ele>
        <time>2024-06-13T08:43:42.547Z</time>
      </trkpt>
      <trkpt lat="48.4149" lon="2.4094">
        <ele>82.58</ele>
        <time>2024-06-13T08:43:45.872Z</time>
      </trkpt>
      <trkpt lat="48.41498" lon="2.40956">
        <ele>82.8</ele>
        <time>2024-06-13T08:43:49.200Z</time>
      </trkpt>
      <trkpt lat="48.41506" lon="2.40971">
        <ele>83.13</ele>
        <time>2024-06-13T08:43:52.530Z</time>
      </trkpt>
      <trkpt lat="48.41519" lon="2.40997">
        <ele>83.75</ele>
        <time>2024-06-13T08:43:55.863Z</time>
      </trkpt>
      <trkpt lat="48.41519" lon="2.40998">
        <ele>83.75</ele>
        <time>2024-06-13T08:43:59.196Z</time>
      </trkpt>
      <trkpt lat="48.41521" lon="2.41011">
        <ele>84.12</ele>
        <time>2024-06-13T08:44:02.531Z</time>
      </trkpt>
      <trkpt lat="48.41522" lon="2.41018">
        <ele>84.32</ele>
        <time>2024-06-13T08:44:05.866Z</time>
      </trkpt>
      <trkpt lat="48.41523" lon="2.41031">
        <ele>84.77</ele>
        <time>2024-06-13T08:44:09.203Z</time>
      </trkpt>
      <trkpt lat="48.41525" lon="2.41044">
        <ele>85.28</ele>
        <time>2024-06-13T08:44:12.541Z</time>
      </trkpt>
      <trkpt lat="48.41527" lon="2.41057">
        <ele>85.84</ele>
        <time>2024-06-13T08:44:15.881Z</time>
      </trkpt>
      <trkpt lat="48.41528" lon="2.41063">
        <ele>86.16</ele>
        <time>2024-06-13T08:44:19.221Z</time>
      </trkpt>
      <trkpt lat="48.41528" lon="2.41066">
        <ele>86.29</ele>
        <time>2024-06-13T08:44:22.562Z</time>
      </trkpt>
      <trkpt lat="48.41532" lon="2.41075">
        <ele>86.85</ele>
        <time>2024-06-13T08:44:25.904Z</time>
      </trkpt>
      <trkpt lat="48.41534" lon="2.41081">
        <ele>87.23</ele>
        <time>2024-06-13T08:44:29.246Z</time>
      </trkpt>
      <trkpt lat="48.41539" lon="2.41092">
        <ele>88.09</ele>
        <time>2024-06-13T08:44:32.590Z</time>
      </trkpt>
      <trkpt lat="48.41543" lon="2.41104">
        <ele>89.07</ele>
        <time>2024-06-13T08:44:35.935Z</time>
      </trkpt>
      <trkpt lat="48.41545" lon="2.41109">
        <ele>89.61</ele>
        <time>2024-06-13T08:44:39.281Z</time>
      </trkpt>
      <trkpt lat="48.4155" lon="2.41121">
        <ele>90.78</ele>
        <time>2024-06-13T08:44:42.628Z</time>
      </trkpt>
      <trkpt lat="48.41559" lon="2.41143">
        <ele>93.28</ele>
        <time>2024-06-13T08:44:45.978Z</time>
      </trkpt>
      <trkpt lat="48.41559" lon="2.41143">
        <ele>93.28</ele>
        <time>2024-06-13T08:44:49.328Z</time>
      </trkpt>
      <trkpt lat="48.41561" lon="2.41163">
        <ele>94.68</ele>
        <time>2024-06-13T08:44:52.680Z</time>
      </trkpt>
      <trkpt lat="48.41564" lon="2.41203">
        <ele>97.37</ele>
        <time>2024-06-13T08:44:56.037Z</time>
      </trkpt>
      <trkpt lat="48.41565" lon="2.41217">
        <ele>98.31</ele>
        <time>2024-06-13T08:44:59.395Z</time>
      </trkpt>
      <trkpt lat="48.41566" lon="2.4123">
        <ele>99.31</ele>
        <time>2024-06-13T08:45:02.755Z</time>
      </trkpt>
      <trkpt lat="48.41567" lon="2.41241">
        <ele>100.22</ele>
        <time>2024-06-13T08:45:06.116Z</time>
      </trkpt>
      <trkpt lat="48.41567" lon="2.41243">
        <ele>100.4</ele>
        <time>2024-06-13T08:45:09.477Z</time>
      </trkpt>
      <trkpt lat="48.41567" lon="2.41263">
        <ele>102.16</ele>
        <time>2024-06-13T08:45:12.840Z</time>
      </trkpt>
      <trkpt lat="48.41567" lon="2.41277">
        <ele>103.39</ele>
        <time>2024-06-13T08:45:16.205Z</time>
      </trkpt>
      <trkpt lat="48.41567" lon="2.41325">
        <ele>107.96</ele>
        <time>2024-06-13T08:45:19.575Z</time>
      </trkpt>
      <trkpt lat="48.41568" lon="2.41337">
        <ele>109.12</ele>
        <time>2024-06-13T08:45:22.946Z</time>
      </trkpt>
      <trkpt lat="48.41571" lon="2.41357">
        <ele>110.98</ele>
        <time>2024-06-13T08:45:26.319Z</time>
      </trkpt>
      <trkpt lat="48.41574" lon="2.4139">
        <ele>113.88</ele>
        <time>2024-06-13T08:45:29.696Z</time>
      </trkpt>
      <trkpt lat="48.41578" lon="2.41422">
        <ele>116.68</ele>
        <time>2024-06-13T08:45:33.076Z</time>
      </trkpt>
      <trkpt lat="48.41579" lon="2.41423">
        <ele>116.68</ele>
        <time>2024-06-13T08:45:36.456Z</time>
      </trkpt>
      <trkpt lat="48.41582" lon="2.41426">
        <ele>116.72</ele>
        <time>2024-06-13T08:45:39.837Z</time>
      </trkpt>
      <trkpt lat="48.41582" lon="2.41425">
        <ele>116.72</ele>
        <time>2024-06-13T08:45:43.218Z</time>
      </trkpt>
      <trkpt lat="48.41582" lon="2.41412">
        <ele>116.31</ele>
        <time>2024-06-13T08:45:46.600Z</time>
      </trkpt>
      <trkpt lat="48.41583" lon="2.41399">
        <ele>115.86</ele>
        <time>2024-06-13T08:45:49.984Z</time>
      </trkpt>
      <trkpt lat="48.41583" lon="2.41385">
        <ele>115.38</ele>
        <time>2024-06-13T08:45:53.369Z</time>
      </trkpt>
      <trkpt lat="48.41583" lon="2.41379">
        <ele>115.12</ele>
        <time>2024-06-13T08:45:56.755Z</time>
      </trkpt>
      <trkpt lat="48.41584" lon="2.41365">
        <ele>114.49</ele>
        <time>2024-06-13T08:46:00.142Z</time>
      </trkpt>
      <trkpt lat="48.41584" lon="2.41354">
        <ele>113.87</ele>
        <time>2024-06-13T08:46:03.531Z</time>
      </trkpt>
      <trkpt lat="48.41583" lon="2.41345">
        <ele>113.38</ele>
        <time>2024-06-13T08:46:06.921Z</time>
      </trkpt>
      <trkpt lat="48.41582" lon="2.41338">
        <ele>113.06</ele>
        <time>2024-06-13T08:46:10.311Z</time>
      </trkpt>
      <trkpt lat="48.41581" lon="2.41325">
        <ele>112.49</ele>
        <time>2024-06-13T08:46:13.703Z</time>
      </trkpt>
      <trkpt lat="48.4158" lon="2.41313">
        <ele>111.95</ele>
        <time>2024-06-13T08:46:17.096Z</time>
      </trkpt>
      <trkpt lat="48.4158" lon="2.41312">
        <ele>111.95</ele>
        <time>2024-06-13T08:46:20.489Z</time>
      </trkpt>
      <trkpt lat="48.41581" lon="2.41299">
        <ele>111.47</ele>
        <time>2024-06-13T08:46:23.884Z</time>
      </trkpt>
      <trkpt lat="48.41581" lon="2.41292">
        <ele>111.21</ele>
        <time>2024-06-13T08:46:27.279Z</time>
      </trkpt>
      <trkpt lat="48.41581" lon="2.41285">
        <ele>110.87</ele>
        <time>2024-06-13T08:46:30.675Z</time>
      </trkpt>
      <trkpt lat="48.41581" lon="2.41279">
        <ele>110.39</ele>
        <time>2024-06-13T08:46:34.072Z</time>
      </trkpt>
      <trkpt lat="48.41582" lon="2.41272">
        <ele>109.77</ele>
        <time>2024-06-13T08:46:37.469Z</time>
      </trkpt>
      <trkpt lat="48.41582" lon="2.41265">
        <ele>109.02</ele>
        <time>2024-06-13T08:46:40.867Z</time>
      </trkpt>
      <trkpt lat="48.41583" lon="2.41245">
        <ele>106.6</ele>
        <time>2024-06-13T08:46:44.267Z</time>
      </trkpt>
      <trkpt lat="48.41583" lon="2.41239">
        <ele>105.9</ele>
        <time>2024-06-13T08:46:47.668Z</time>
      </trkpt>
      <trkpt lat="48.41583" lon="2.41232">
        <ele>105.26</ele>
        <time>2024-06-13T08:46:51.070Z</time>
      </trkpt>
      <trkpt lat="48.41584" lon="2.41225">
        <ele>104.69</ele>
        <time>2024-06-13T08:46:54.472Z</time>
      </trkpt>
      <trkpt lat="48.41584" lon="2.41218">
        <ele>104.17</ele>
        <time>2024-06-13T08:46:57.875Z</time>
      </trkpt>
      <trkpt lat="48.41584" lon="2.41215">
        <ele>103.94</ele>
        <time>2024-06-13T08:47:01.279Z</time>
      </trkpt>
      <trkpt lat="48.41581" lon="2.41192">
        <ele>102.39</ele>
        <time>2024-06-13T08:47:04.685Z</time>
      </trkpt>
      <trkpt lat="48.41579" lon="2.41179">
        <ele>101.58</ele>
        <time>2024-06-13T08:47:08.092Z</time>
      </trkpt>
      <trkpt lat="48.41577" lon="2.41159">
        <ele>100.5</ele>
        <time>2024-06-13T08:47:11.502Z</time>
      </trkpt>
      <trkpt lat="48.41576" lon="2.41153">
        <ele>100.11</ele>
        <time>2024-06-13T08:47:14.912Z</time>
      </trkpt>
      <trkpt lat="48.41575" lon="2.41146">
        <ele>99.69</ele>
        <time>2024-06-13T08:47:18.323Z</time>
      </trkpt>
      <trkpt lat="48.41574" lon="2.41139">
        <ele>99.24</ele>
        <time>2024-06-13T08:47:21.735Z</time>
      </trkpt>
      <trkpt lat="48.41573" lon="2.41133">
        <ele>98.75</ele>
        <time>2024-06-13T08:47:25.147Z</time>
      </trkpt>
      <trkpt lat="48.41572" lon="2.41125">
        <ele>98.1</ele>
        <time>2024-06-13T08:47:28.560Z</time>
      </trkpt>
      <trkpt lat="48.41573" lon="2.4112">
        <ele>97.69</ele>
        <time>2024-06-13T08:47:31.974Z</time>
      </trkpt>
      <trkpt lat="48.41574" lon="2.41114">
        <ele>97.22</ele>
        <time>2024-06-13T08:47:35.389Z</time>
      </trkpt>
      <trkpt lat="48.41575" lon="2.41107">
        <ele>96.87</ele>
        <time>2024-06-13T08:47:38.804Z</time>
      </trkpt>
      <trkpt lat="48.41577" lon="2.41101">
        <ele>96.68</ele>
        <time>2024-06-13T08:47:42.220Z</time>
      </trkpt>
      <trkpt lat="48.41578" lon="2.41094">
        <ele>96.64</ele>
        <time>2024-06-13T08:47:45.637Z</time>
      </trkpt>
      <trkpt lat="48.41579" lon="2.41088">
        <ele>96.7</ele>
        <time>2024-06-13T08:47:49.054Z</time>
      </trkpt>
      <trkpt lat="48.41581" lon="2.41077">
        <ele>96.82</ele>
        <time>2024-06-13T08:47:52.473Z</time>
      </trkpt>
      <trkpt lat="48.41582" lon="2.41075">
        <ele>96.85</ele>
        <time>2024-06-13T08:47:55.892Z</time>
      </trkpt>
      <trkpt lat="48.41585" lon="2.41071">
        <ele>96.82</ele>
        <time>2024-06-13T08:47:59.312Z</time>
      </trkpt>
      <trkpt lat="48.41589" lon="2.41067">
        <ele>96.71</ele>
        <time>2024-06-13T08:48:02.732Z</time>
      </trkpt>
      <trkpt lat="48.41592" lon="2.41062">
        <ele>96.55</ele>
        <time>2024-06-13T08:48:06.153Z</time>
      </trkpt>
      <trkpt lat="48.41595" lon="2.41058">
        <ele>96.44</ele>
        <time>2024-06-13T08:48:09.575Z</time>
      </trkpt>
      <trkpt lat="48.41599" lon="2.41053">
        <ele>96.46</ele>
        <time>2024-06-13T08:48:12.997Z</time>
      </trkpt>
      <trkpt lat="48.41602" lon="2.41049">
        <ele>96.64</ele>
        <time>2024-06-13T08:48:16.420Z</time>
      </trkpt>
      <trkpt lat="48.41605" lon="2.41044">
        <ele>96.95</ele>
        <time>2024-06-13T08:48:19.844Z</time>
      </trkpt>
      <trkpt lat="48.41612" lon="2.41036">
        <ele>97.67</ele>
        <time>2024-06-13T08:48:23.269Z</time>
      </trkpt>
      <trkpt lat="48.41615" lon="2.41031">
        <ele>97.98</ele>
        <time>2024-06-13T08:48:26.695Z</time>
      </trkpt>
      <trkpt lat="48.41619" lon="2.41027">
        <ele>98.24</ele>
        <time>2024-06-13T08:48:30.122Z</time>
      </trkpt>
      <trkpt lat="48.4162" lon="2.41025">
        <ele>98.3</ele>
        <time>2024-06-13T08:48:33.549Z</time>
      </trkpt>
      <trkpt lat="48.41622" lon="2.41022">
        <ele>98.42</ele>
        <time>2024-06-13T08:48:36.976Z</time>
      </trkpt>
      <trkpt lat="48.41625" lon="2.41017">
        <ele>98.51</ele>
        <time>2024-06-13T08:48:40.404Z</time>
      </trkpt>
      <trkpt lat="48.41628" lon="2.41012">
        <ele>98.51</ele>
        <time>2024-06-13T08:48:43.833Z</time>
      </trkpt>
      <trkpt lat="48.41631" lon="2.41007">
        <ele>98.43</ele>
        <time>2024-06-13T08:48:47.263Z</time>
      </trkpt>
      <trkpt lat="48.41637" lon="2.40998">
        <ele>98.17</ele>
        <time>2024-06-13T08:48:50.694Z</time>
      </trkpt>
      <trkpt lat="48.4164" lon="2.40993">
        <ele>98.07</ele>
        <time>2024-06-13T08:48:54.126Z</time>
      </trkpt>
      <trkpt lat="48.41643" lon="2.40988">
        <ele>98.04</ele>
        <time>2024-06-13T08:48:57.558Z</time>
      </trkpt>
      <trkpt lat="48.41646" lon="2.40983">
        <ele>98.08</ele>
        <time>2024-06-13T08:49:00.991Z</time>
      </trkpt>
      <trkpt lat="48.41652" lon="2.40973">
        <ele>98.22</ele>
        <time>2024-06-13T08:49:04.426Z</time>
      </trkpt>
      <trkpt lat="48.41655" lon="2.40968">
        <ele>98.21</ele>
        <time>2024-06-13T08:49:07.861Z</time>
      </trkpt>
      <trkpt lat="48.41658" lon="2.40964">
        <ele>98.07</ele>
        <time>2024-06-13T08:49:11.297Z</time>
      </trkpt>
      <trkpt lat="48.41658" lon="2.40963">
        <ele>98.07</ele>
        <time>2024-06-13T08:49:14.733Z</time>
      </trkpt>
      <trkpt lat="48.41658" lon="2.40957">
        <ele>97.77</ele>
        <time>2024-06-13T08:49:18.170Z</time>
      </trkpt>
      <trkpt lat="48.41659" lon="2.4095">
        <ele>97.32</ele>
        <time>2024-06-13T08:49:21.607Z</time>
      </trkpt>
      <trkpt lat="48.41659" lon="2.40943">
        <ele>96.74</ele>
        <time>2024-06-13T08:49:25.045Z</time>
      </trkpt>
      <trkpt lat="48.41657" lon="2.40937">
        <ele>96.06</ele>
        <time>2024-06-13T08:49:28.484Z</time>
      </trkpt>
      <trkpt lat="48.41655" lon="2.40931">
        <ele>95.31</ele>
        <time>2024-06-13T08:49:31.924Z</time>
      </trkpt>
      <trkpt lat="48.41651" lon="2.4092">
        <ele>93.66</ele>
        <time>2024-06-13T08:49:35.365Z</time>
      </trkpt>
      <trkpt lat="48.41651" lon="2.40919">
        <ele>93.66</ele>
        <time>2024-06-13T08:49:38.806Z</time>
      </trkpt>
      <trkpt lat="48.41654" lon="2.40887">
        <ele>90.31</ele>
        <time>2024-06-13T08:49:42.250Z</time>
      </trkpt>
      <trkpt lat="48.41655" lon="2.40874">
        <ele>89.04</ele>
        <time>2024-06-13T08:49:45.696Z</time>
      </trkpt>
      <trkpt lat="48.41656" lon="2.40864">
        <ele>88.04</ele>
        <time>2024-06-13T08:49:49.143Z</time>
      </trkpt>
      <trkpt lat="48.41657" lon="2.40862">
        <ele>87.83</ele>
        <time>2024-06-13T08:49:52.590Z</time>
      </trkpt>
      <trkpt lat="48.41675" lon="2.40826">
        <ele>83.91</ele>
        <time>2024-06-13T08:49:56.042Z</time>
      </trkpt>
      <trkpt lat="48.4168" lon="2.40815">
        <ele>82.84</ele>
        <time>2024-06-13T08:49:59.495Z</time>
      </trkpt>
      <trkpt lat="48.41685" lon="2.40805">
        <ele>81.84</ele>
        <time>2024-06-13T08:50:02.950Z</time>
      </trkpt>
      <trkpt lat="48.41685" lon="2.40805">
        <ele>81.84</ele>
        <time>2024-06-13T08:50:06.405Z</time>
      </trkpt>
      <trkpt lat="48.41688" lon="2.4081">
        <ele>81.95</ele>
        <time>2024-06-13T08:50:09.860Z</time>
      </trkpt>
      <trkpt lat="48.41692" lon="2.40814">
        <ele>82.12</ele>
        <time>2024-06-13T08:50:13.316Z</time>
      </trkpt>
      <trkpt lat="48.41695" lon="2.40818">
        <ele>82.38</ele>
        <time>2024-06-13T08:50:16.773Z</time>
      </trkpt>
      <trkpt lat="48.41699" lon="2.40823">
        <ele>82.78</ele>
        <time>2024-06-13T08:50:20.231Z</time>
      </trkpt>
      <trkpt lat="48.41701" lon="2.40826">
        <ele>83.15</ele>
        <time>2024-06-13T08:50:23.689Z</time>
      </trkpt>
      <trkpt lat="48.41702" lon="2.40828">
        <ele>83.33</ele>
        <time>2024-06-13T08:50:27.147Z</time>
      </trkpt>
      <trkpt lat="48.41703" lon="2.40834">
        <ele>84.01</ele>
        <time>2024-06-13T08:50:30.606Z</time>
      </trkpt>
      <trkpt lat="48.41705" lon="2.4084">
        <ele>84.82</ele>
        <time>2024-06-13T08:50:34.066Z</time>
      </trkpt>
      <trkpt lat="48.41707" lon="2.40846">
        <ele>85.69</ele>
        <time>2024-06-13T08:50:37.527Z</time>
      </trkpt>
      <trkpt lat="48.41717" lon="2.40877">
        <ele>90.08</ele>
        <time>2024-06-13T08:50:40.991Z</time>
      </trkpt>
      <trkpt lat="48.41719" lon="2.40885">
        <ele>91.23</ele>
        <time>2024-06-13T08:50:44.456Z</time>
      </trkpt>
      <trkpt lat="48.41725" lon="2.40892">
        <ele>92.77</ele>
        <time>2024-06-13T08:50:47.922Z</time>
      </trkpt>
      <trkpt lat="48.41736" lon="2.40905">
        <ele>95.58</ele>
        <time>2024-06-13T08:50:51.390Z</time>
      </trkpt>
      <trkpt lat="48.41746" lon="2.40918">
        <ele>98.58</ele>
        <time>2024-06-13T08:50:54.861Z</time>
      </trkpt>
      <trkpt lat="48.41749" lon="2.40921">
        <ele>99.54</ele>
        <time>2024-06-13T08:50:58.332Z</time>
      </trkpt>
      <trkpt lat="48.4175" lon="2.40921">
        <ele>99.54</ele>
        <time>2024-06-13T08:51:01.803Z</time>
      </trkpt>
      <trkpt lat="48.41754" lon="2.40922">
        <ele>100.38</ele>
        <time>2024-06-13T08:51:05.275Z</time>
      </trkpt>
      <trkpt lat="48.41759" lon="2.40923">
        <ele>101.03</ele>
        <time>2024-06-13T08:51:08.748Z</time>
      </trkpt>
      <trkpt lat="48.41763" lon="2.40925">
        <ele>101.42</ele>
        <time>2024-06-13T08:51:12.221Z</time>
      </trkpt>
      <trkpt lat="48.41768" lon="2.40926">
        <ele>101.55</ele>
        <time>2024-06-13T08:51:15.695Z</time>
      </trkpt>
      <trkpt lat="48.41772" lon="2.40927">
        <ele>101.47</ele>
        <time>2024-06-13T08:51:19.170Z</time>
      </trkpt>
      <trkpt lat="48.41776" lon="2.40928">
        <ele>101.25</ele>
        <time>2024-06-13T08:51:22.646Z</time>
      </trkpt>
      <trkpt lat="48.41785" lon="2.4093">
        <ele>100.66</ele>
        <time>2024-06-13T08:51:26.123Z</time>
      </trkpt>
      <trkpt lat="48.41789" lon="2.40931">
        <ele>100.39</ele>
        <time>2024-06-13T08:51:29.601Z</time>
      </trkpt>
      <trkpt lat="48.41789" lon="2.40932">
        <ele>100.39</ele>
        <time>2024-06-13T08:51:33.079Z</time>
      </trkpt>
      <trkpt lat="48.41792" lon="2.40937">
        <ele>100.17</ele>
        <time>2024-06-13T08:51:36.558Z</time>
      </trkpt>
      <trkpt lat="48.41806" lon="2.40964">
        <ele>99.2</ele>
        <time>2024-06-13T08:51:40.040Z</time>
      </trkpt>
      <trkpt lat="48.41812" lon="2.40974">
        <ele>98.9</ele>
        <time>2024-06-13T08:51:43.524Z</time>
      </trkpt>
      <trkpt lat="48.41814" lon="2.4098">
        <ele>98.8</ele>
        <time>2024-06-13T08:51:47.008Z</time>
      </trkpt>
      <trkpt lat="48.41817" lon="2.40985">
        <ele>98.74</ele>
        <time>2024-06-13T08:51:50.493Z</time>
      </trkpt>
      <trkpt lat="48.4182" lon="2.4099">
        <ele>98.72</ele>
        <time>2024-06-13T08:51:53.979Z</time>
      </trkpt>
      <trkpt lat="48.41823" lon="2.40996">
        <ele>98.75</ele>
        <time>2024-06-13T08:51:57.465Z</time>
      </trkpt>
      <trkpt lat="48.41826" lon="2.41002">
        <ele>98.82</ele>
        <time>2024-06-13T08:52:00.952Z</time>
      </trkpt>
      <trkpt lat="48.41826" lon="2.41002">
        <ele>98.82</ele>
        <time>2024-06-13T08:52:04.439Z</time>
      </trkpt>
      <trkpt lat="48.41821" lon="2.41008">
        <ele>107.73</ele>
        <time>2024-06-13T08:52:07.927Z</time>
      </trkpt>
      <trkpt lat="48.41821" lon="2.41008">
        <ele>107.73</ele>
        <time>2024-06-13T08:52:11.415Z</time>
      </trkpt>
      <trkpt lat="48.41829" lon="2.41">
        <ele>107.43</ele>
        <time>2024-06-13T08:52:14.905Z</time>
      </trkpt>
      <trkpt lat="48.41829" lon="2.41">
        <ele>107.43</ele>
        <time>2024-06-13T08:52:18.395Z</time>
      </trkpt>
      <trkpt lat="48.41842" lon="2.40998">
        <ele>107.24</ele>
        <time>2024-06-13T08:52:21.887Z</time>
      </trkpt>
      <trkpt lat="48.41852" lon="2.41002">
        <ele>107.03</ele>
        <time>2024-06-13T08:52:25.381Z</time>
      </trkpt>
      <trkpt lat="48.41852" lon="2.41002">
        <ele>107.03</ele>
        <time>2024-06-13T08:52:28.875Z</time>
      </trkpt>
      <trkpt lat="48.41864" lon="2.41">
        <ele>106.94</ele>
        <time>2024-06-13T08:52:32.371Z</time>
      </trkpt>
      <trkpt lat="48.41873" lon="2.40999">
        <ele>106.99</ele>
        <time>2024-06-13T08:52:35.868Z</time>
      </trkpt>
      <trkpt lat="48.41873" lon="2.40999">
        <ele>106.99</ele>
        <time>2024-06-13T08:52:39.365Z</time>
      </trkpt>
      <trkpt lat="48.41889" lon="2.40995">
        <ele>107.23</ele>
        <time>2024-06-13T08:52:42.865Z</time>
      </trkpt>
      <trkpt lat="48.41889" lon="2.40995">
        <ele>107.23</ele>
        <time>2024-06-13T08:52:46.365Z</time>
      </trkpt>
      <trkpt lat="48.41898" lon="2.40989">
        <ele>107.49</ele>
        <time>2024-06-13T08:52:49.866Z</time>
      </trkpt>
      <trkpt lat="48.41898" lon="2.40989">
        <ele>107.49</ele>
        <time>2024-06-13T08:52:53.367Z</time>
      </trkpt>
      <trkpt lat="48.41909" lon="2.40985">
        <ele>107.81</ele>
        <time>2024-06-13T08:52:56.870Z</time>
      </trkpt>
      <trkpt lat="48.41921" lon="2.4098">
        <ele>108.26</ele>
        <time>2024-06-13T08:53:00.375Z</time>
      </trkpt>
      <trkpt lat="48.41952" lon="2.40973">
        <ele>109.6</ele>
        <time>2024-06-13T08:53:03.885Z</time>
      </trkpt>
      <trkpt lat="48.41953" lon="2.40966">
        <ele>104.33</ele>
        <time>2024-06-13T08:53:07.396Z</time>
      </trkpt>
      <trkpt lat="48.41954" lon="2.4096">
        <ele>104.2</ele>
        <time>2024-06-13T08:53:10.907Z</time>
      </trkpt>
      <trkpt lat="48.41955" lon="2.40953">
        <ele>104.14</ele>
        <time>2024-06-13T08:53:14.419Z</time>
      </trkpt>
      <trkpt lat="48.41955" lon="2.40947">
        <ele>104.17</ele>
        <time>2024-06-13T08:53:17.932Z</time>
      </trkpt>
      <trkpt lat="48.41956" lon="2.40942">
        <ele>104.23</ele>
        <time>2024-06-13T08:53:21.445Z</time>
      </trkpt>
      <trkpt lat="48.41957" lon="2.40941">
        <ele>104.26</ele>
        <time>2024-06-13T08:53:24.959Z</time>
      </trkpt>
      <trkpt lat="48.41961" lon="2.40938">
        <ele>104.42</ele>
        <time>2024-06-13T08:53:28.473Z</time>
      </trkpt>
      <trkpt lat="48.41969" lon="2.40931">
        <ele>104.78</ele>
        <time>2024-06-13T08:53:31.989Z</time>
      </trkpt>
      <trkpt lat="48.41973" lon="2.40927">
        <ele>104.89</ele>
        <time>2024-06-13T08:53:35.505Z</time>
      </trkpt>
      <trkpt lat="48.41977" lon="2.40924">
        <ele>104.91</ele>
        <time>2024-06-13T08:53:39.022Z</time>
      </trkpt>
      <trkpt lat="48.4198" lon="2.40921">
        <ele>104.84</ele>
        <time>2024-06-13T08:53:42.540Z</time>
      </trkpt>
      <trkpt lat="48.41984" lon="2.40917">
        <ele>104.7</ele>
        <time>2024-06-13T08:53:46.059Z</time>
      </trkpt>
      <trkpt lat="48.41988" lon="2.40914">
        <ele>104.5</ele>
        <time>2024-06-13T08:53:49.578Z</time>
      </trkpt>
      <trkpt lat="48.41992" lon="2.4091">
        <ele>104.25</ele>
        <time>2024-06-13T08:53:53.098Z</time>
      </trkpt>
      <trkpt lat="48.41996" lon="2.40907">
        <ele>103.92</ele>
        <time>2024-06-13T08:53:56.619Z</time>
      </trkpt>
      <trkpt lat="48.42" lon="2.40903">
        <ele>103.41</ele>
        <time>2024-06-13T08:54:00.140Z</time>
      </trkpt>
      <trkpt lat="48.42004" lon="2.409">
        <ele>102.65</ele>
        <time>2024-06-13T08:54:03.662Z</time>
      </trkpt>
      <trkpt lat="48.42008" lon="2.40897">
        <ele>101.56</ele>
        <time>2024-06-13T08:54:07.185Z</time>
      </trkpt>
      <trkpt lat="48.42011" lon="2.40893">
        <ele>100.21</ele>
        <time>2024-06-13T08:54:10.709Z</time>
      </trkpt>
      <trkpt lat="48.42015" lon="2.4089">
        <ele>98.76</ele>
        <time>2024-06-13T08:54:14.233Z</time>
      </trkpt>
      <trkpt lat="48.42019" lon="2.40886">
        <ele>97.41</ele>
        <time>2024-06-13T08:54:17.758Z</time>
      </trkpt>
      <trkpt lat="48.42023" lon="2.40883">
        <ele>96.27</ele>
        <time>2024-06-13T08:54:21.284Z</time>
      </trkpt>
      <trkpt lat="48.42027" lon="2.4088">
        <ele>95.32</ele>
        <time>2024-06-13T08:54:24.811Z</time>
      </trkpt>
      <trkpt lat="48.42031" lon="2.40876">
        <ele>94.49</ele>
        <time>2024-06-13T08:54:28.338Z</time>
      </trkpt>
      <trkpt lat="48.42033" lon="2.40881">
        <ele>94.79</ele>
        <time>2024-06-13T08:54:31.866Z</time>
      </trkpt>
      <trkpt lat="48.42036" lon="2.40886">
        <ele>95.22</ele>
        <time>2024-06-13T08:54:35.395Z</time>
      </trkpt>
      <trkpt lat="48.42039" lon="2.40891">
        <ele>95.87</ele>
        <time>2024-06-13T08:54:38.924Z</time>
      </trkpt>
      <trkpt lat="48.42041" lon="2.40897">
        <ele>96.74</ele>
        <time>2024-06-13T08:54:42.454Z</time>
      </trkpt>
      <trkpt lat="48.42044" lon="2.40902">
        <ele>97.84</ele>
        <time>2024-06-13T08:54:45.985Z</time>
      </trkpt>
      <trkpt lat="48.42047" lon="2.40907">
        <ele>99.11</ele>
        <time>2024-06-13T08:54:49.516Z</time>
      </trkpt>
      <trkpt lat="48.42053" lon="2.4092">
        <ele>102.35</ele>
        <time>2024-06-13T08:54:53.049Z</time>
      </trkpt>
      <trkpt lat="48.42055" lon="2.40923">
        <ele>103.19</ele>
        <time>2024-06-13T08:54:56.583Z</time>
      </trkpt>
      <trkpt lat="48.42061" lon="2.40932">
        <ele>105.85</ele>
        <time>2024-06-13T08:55:00.118Z</time>
      </trkpt>
      <trkpt lat="48.42065" lon="2.40936">
        <ele>107.17</ele>
        <time>2024-06-13T08:55:03.654Z</time>
      </trkpt>
      <trkpt lat="48.42068" lon="2.40941">
        <ele>108.39</ele>
        <time>2024-06-13T08:55:07.190Z</time>
      </trkpt>
      <trkpt lat="48.42071" lon="2.40945">
        <ele>109.39</ele>
        <time>2024-06-13T08:55:10.727Z</time>
      </trkpt>
      <trkpt lat="48.42074" lon="2.4095">
        <ele>110.02</ele>
        <time>2024-06-13T08:55:14.265Z</time>
      </trkpt>
      <trkpt lat="48.42078" lon="2.40954">
        <ele>110.21</ele>
        <time>2024-06-13T08:55:17.804Z</time>
      </trkpt>
      <trkpt lat="48.42079" lon="2.40956">
        <ele>110.1</ele>
        <time>2024-06-13T08:55:21.343Z</time>
      </trkpt>
      <trkpt lat="48.42081" lon="2.40955">
        <ele>109.94</ele>
        <time>2024-06-13T08:55:24.882Z</time>
      </trkpt>
      <trkpt lat="48.42086" lon="2.40952">
        <ele>109.29</ele>
        <time>2024-06-13T08:55:28.422Z</time>
      </trkpt>
      <trkpt lat="48.4209" lon="2.4095">
        <ele>108.41</ele>
        <time>2024-06-13T08:55:31.963Z</time>
      </trkpt>
      <trkpt lat="48.42098" lon="2.40945">
        <ele>106.44</ele>
        <time>2024-06-13T08:55:35.505Z</time>
      </trkpt>
      <trkpt lat="48.42102" lon="2.40942">
        <ele>105.53</ele>
        <time>2024-06-13T08:55:39.048Z</time>
      </trkpt>
      <trkpt lat="48.42106" lon="2.4094">
        <ele>104.73</ele>
        <time>2024-06-13T08:55:42.591Z</time>
      </trkpt>
      <trkpt lat="48.42107" lon="2.40939">
        <ele>104.55</ele>
        <time>2024-06-13T08:55:46.135Z</time>
      </trkpt>
      <trkpt lat="48.42107" lon="2.40934">
        <ele>104.03</ele>
        <time>2024-06-13T08:55:49.679Z</time>
      </trkpt>
      <trkpt lat="48.42106" lon="2.40927">
        <ele>103.42</ele>
        <time>2024-06-13T08:55:53.224Z</time>
      </trkpt>
      <trkpt lat="48.42106" lon="2.40921">
        <ele>102.89</ele>
        <time>2024-06-13T08:55:56.770Z</time>
      </trkpt>
      <trkpt lat="48.42106" lon="2.40914">
        <ele>102.44</ele>
        <time>2024-06-13T08:56:00.316Z</time>
      </trkpt>
      <trkpt lat="48.42105" lon="2.40908">
        <ele>102.05</ele>
        <time>2024-06-13T08:56:03.863Z</time>
      </trkpt>
      <trkpt lat="48.42105" lon="2.40904">
        <ele>101.89</ele>
        <time>2024-06-13T08:56:07.410Z</time>
      </trkpt>
      <trkpt lat="48.42104" lon="2.40901">
        <ele>101.76</ele>
        <time>2024-06-13T08:56:10.958Z</time>
      </trkpt>
      <trkpt lat="48.42103" lon="2.40895">
        <ele>101.54</ele>
        <time>2024-06-13T08:56:14.506Z</time>
      </trkpt>
      <trkpt lat="48.42101" lon="2.40882">
        <ele>101.21</ele>
        <time>2024-06-13T08:56:18.056Z</time>
      </trkpt>
      <trkpt lat="48.421" lon="2.40875">
        <ele>101.02</ele>
        <time>2024-06-13T08:56:21.607Z</time>
      </trkpt>
      <trkpt lat="48.42099" lon="2.40869">
        <ele>100.8</ele>
        <time>2024-06-13T08:56:25.158Z</time>
      </trkpt>
      <trkpt lat="48.42097" lon="2.40863">
        <ele>100.53</ele>
        <time>2024-06-13T08:56:28.710Z</time>
      </trkpt>
      <trkpt lat="48.42096" lon="2.40856">
        <ele>100.22</ele>
        <time>2024-06-13T08:56:32.263Z</time>
      </trkpt>
      <trkpt lat="48.42096" lon="2.40855">
        <ele>100.09</ele>
        <time>2024-06-13T08:56:35.816Z</time>
      </trkpt>
      <trkpt lat="48.42088" lon="2.40852">
        <ele>99.08</ele>
        <time>2024-06-13T08:56:39.370Z</time>
      </trkpt>
      <trkpt lat="48.42087" lon="2.40851">
        <ele>98.88</ele>
        <time>2024-06-13T08:56:42.924Z</time>
      </trkpt>
      <trkpt lat="48.42087" lon="2.40846">
        <ele>98.46</ele>
        <time>2024-06-13T08:56:46.479Z</time>
      </trkpt>
      <trkpt lat="48.42087" lon="2.40819">
        <ele>95.75</ele>
        <time>2024-06-13T08:56:50.037Z</time>
      </trkpt>
      <trkpt lat="48.42086" lon="2.40792">
        <ele>93.11</ele>
        <time>2024-06-13T08:56:53.598Z</time>
      </trkpt>
      <trkpt lat="48.42086" lon="2.40786">
        <ele>92.4</ele>
        <time>2024-06-13T08:56:57.159Z</time>
      </trkpt>
      <trkpt lat="48.42086" lon="2.40779">
        <ele>91.65</ele>
        <time>2024-06-13T08:57:00.721Z</time>
      </trkpt>
      <trkpt lat="48.42086" lon="2.40755">
        <ele>88.81</ele>
        <time>2024-06-13T08:57:04.286Z</time>
      </trkpt>
      <trkpt lat="48.42087" lon="2.40752">
        <ele>88.45</ele>
        <time>2024-06-13T08:57:07.851Z</time>
      </trkpt>
      <trkpt lat="48.42089" lon="2.40746">
        <ele>87.7</ele>
        <time>2024-06-13T08:57:11.417Z</time>
      </trkpt>
      <trkpt lat="48.42092" lon="2.40734">
        <ele>86.31</ele>
        <time>2024-06-13T08:57:14.984Z</time>
      </trkpt>
      <trkpt lat="48.42094" lon="2.40728">
        <ele>85.66</ele>
        <time>2024-06-13T08:57:18.552Z</time>
      </trkpt>
      <trkpt lat="48.42096" lon="2.40721">
        <ele>85.05</ele>
        <time>2024-06-13T08:57:22.120Z</time>
      </trkpt>
      <trkpt lat="48.42098" lon="2.40714">
        <ele>84.37</ele>
        <time>2024-06-13T08:57:25.689Z</time>
      </trkpt>
      <trkpt lat="48.42096" lon="2.40709">
        <ele>83.91</ele>
        <time>2024-06-13T08:57:29.259Z</time>
      </trkpt>
      <trkpt lat="48.42091" lon="2.40698">
        <ele>82.87</ele>
        <time>2024-06-13T08:57:32.830Z</time>
      </trkpt>
      <trkpt lat="48.42084" lon="2.40681">
        <ele>81.41</ele>
        <time>2024-06-13T08:57:36.403Z</time>
      </trkpt>
      <trkpt lat="48.42089" lon="2.40656">
        <ele>79.81</ele>
        <time>2024-06-13T08:57:39.979Z</time>
      </trkpt>
      <trkpt lat="48.42091" lon="2.40643">
        <ele>79.07</ele>
        <time>2024-06-13T08:57:43.557Z</time>
      </trkpt>
      <trkpt lat="48.42092" lon="2.40637">
        <ele>78.72</ele>
        <time>2024-06-13T08:57:47.135Z</time>
      </trkpt>
      <trkpt lat="48.42093" lon="2.4063">
        <ele>78.4</ele>
        <time>2024-06-13T08:57:50.714Z</time>
      </trkpt>
      <trkpt lat="48.42095" lon="2.40617">
        <ele>77.8</ele>
        <time>2024-06-13T08:57:54.295Z</time>
      </trkpt>
      <trkpt lat="48.42098" lon="2.40605">
        <ele>77.25</ele>
        <time>2024-06-13T08:57:57.877Z</time>
      </trkpt>
      <trkpt lat="48.421" lon="2.40592">
        <ele>76.74</ele>
        <time>2024-06-13T08:58:01.460Z</time>
      </trkpt>
      <trkpt lat="48.42105" lon="2.40581">
        <ele>76.55</ele>
        <time>2024-06-13T08:58:05.045Z</time>
      </trkpt>
      <trkpt lat="48.42107" lon="2.40576">
        <ele>76.5</ele>
        <time>2024-06-13T08:58:08.630Z</time>
      </trkpt>
      <trkpt lat="48.4211" lon="2.4057">
        <ele>76.5</ele>
        <time>2024-06-13T08:58:12.216Z</time>
      </trkpt>
      <trkpt lat="48.42112" lon="2.40565">
        <ele>76.56</ele>
        <time>2024-06-13T08:58:15.803Z</time>
      </trkpt>
      <trkpt lat="48.42115" lon="2.40559">
        <ele>76.67</ele>
        <time>2024-06-13T08:58:19.391Z</time>
      </trkpt>
      <trkpt lat="48.42122" lon="2.40542">
        <ele>77.16</ele>
        <time>2024-06-13T08:58:22.981Z</time>
      </trkpt>
      <trkpt lat="48.42125" lon="2.40537">
        <ele>77.29</ele>
        <time>2024-06-13T08:58:26.571Z</time>
      </trkpt>
      <trkpt lat="48.42127" lon="2.40531">
        <ele>77.37</ele>
        <time>2024-06-13T08:58:30.162Z</time>
      </trkpt>
      <trkpt lat="48.4213" lon="2.40526">
        <ele>77.4</ele>
        <time>2024-06-13T08:58:33.754Z</time>
      </trkpt>
      <trkpt lat="48.42132" lon="2.4052">
        <ele>77.38</ele>
        <time>2024-06-13T08:58:37.347Z</time>
      </trkpt>
      <trkpt lat="48.42135" lon="2.40515">
        <ele>77.33</ele>
        <time>2024-06-13T08:58:40.940Z</time>
      </trkpt>
      <trkpt lat="48.4214" lon="2.40503">
        <ele>77.18</ele>
        <time>2024-06-13T08:58:44.535Z</time>
      </trkpt>
      <trkpt lat="48.42143" lon="2.40485">
        <ele>76.91</ele>
        <time>2024-06-13T08:58:48.132Z</time>
      </trkpt>
      <trkpt lat="48.42145" lon="2.40474">
        <ele>76.72</ele>
        <time>2024-06-13T08:58:51.730Z</time>
      </trkpt>
      <trkpt lat="48.42158" lon="2.40463">
        <ele>76.36</ele>
        <time>2024-06-13T08:58:55.330Z</time>
      </trkpt>
      <trkpt lat="48.42162" lon="2.4046">
        <ele>76.28</ele>
        <time>2024-06-13T08:58:58.931Z</time>
      </trkpt>
      <trkpt lat="48.42166" lon="2.40457">
        <ele>76.24</ele>
        <time>2024-06-13T08:59:02.533Z</time>
      </trkpt>
      <trkpt lat="48.42167" lon="2.40456">
        <ele>76.23</ele>
        <time>2024-06-13T08:59:06.135Z</time>
      </trkpt>
      <trkpt lat="48.42169" lon="2.40452">
        <ele>76.23</ele>
        <time>2024-06-13T08:59:09.737Z</time>
      </trkpt>
      <trkpt lat="48.42171" lon="2.40447">
        <ele>76.25</ele>
        <time>2024-06-13T08:59:13.340Z</time>
      </trkpt>
      <trkpt lat="48.42181" lon="2.40425">
        <ele>76.37</ele>
        <time>2024-06-13T08:59:16.946Z</time>
      </trkpt>
      <trkpt lat="48.42189" lon="2.40408">
        <ele>76.43</ele>
        <time>2024-06-13T08:59:20.554Z</time>
      </trkpt>
      <trkpt lat="48.42196" lon="2.40392">
        <ele>76.37</ele>
        <time>2024-06-13T08:59:24.164Z</time>
      </trkpt>
      <trkpt lat="48.42197" lon="2.40392">
        <ele>76.37</ele>
        <time>2024-06-13T08:59:27.774Z</time>
      </trkpt>
      <trkpt lat="48.42204" lon="2.40408">
        <ele>77</ele>
        <time>2024-06-13T08:59:31.386Z</time>
      </trkpt>
      <trkpt lat="48.42211" lon="2.40425">
        <ele>77.73</ele>
        <time>2024-06-13T08:59:35.001Z</time>
      </trkpt>
      <trkpt lat="48.42216" lon="2.40436">
        <ele>78.36</ele>
        <time>2024-06-13T08:59:38.617Z</time>
      </trkpt>
      <trkpt lat="48.42221" lon="2.40447">
        <ele>79.05</ele>
        <time>2024-06-13T08:59:42.234Z</time>
      </trkpt>
      <trkpt lat="48.42231" lon="2.40469">
        <ele>80.49</ele>
        <time>2024-06-13T08:59:45.854Z</time>
      </trkpt>
      <trkpt lat="48.42251" lon="2.40514">
        <ele>83.23</ele>
        <time>2024-06-13T08:59:49.480Z</time>
      </trkpt>
      <trkpt lat="48.42257" lon="2.40528">
        <ele>84.1</ele>
        <time>2024-06-13T08:59:53.108Z</time>
      </trkpt>
      <trkpt lat="48.4226" lon="2.40537">
        <ele>84.65</ele>
        <time>2024-06-13T08:59:56.737Z</time>
      </trkpt>
      <trkpt lat="48.42265" lon="2.40548">
        <ele>85.38</ele>
        <time>2024-06-13T09:00:00.367Z</time>
      </trkpt>
      <trkpt lat="48.4227" lon="2.4056">
        <ele>86.17</ele>
        <time>2024-06-13T09:00:03.999Z</time>
      </trkpt>
      <trkpt lat="48.42274" lon="2.40571">
        <ele>87.07</ele>
        <time>2024-06-13T09:00:07.632Z</time>
      </trkpt>
      <trkpt lat="48.42285" lon="2.406">
        <ele>89.5</ele>
        <time>2024-06-13T09:00:11.269Z</time>
      </trkpt>
      <trkpt lat="48.42297" lon="2.40629">
        <ele>91.8</ele>
        <time>2024-06-13T09:00:14.909Z</time>
      </trkpt>
      <trkpt lat="48.42304" lon="2.40646">
        <ele>93.27</ele>
        <time>2024-06-13T09:00:18.551Z</time>
      </trkpt>
      <trkpt lat="48.42311" lon="2.40664">
        <ele>94.8</ele>
        <time>2024-06-13T09:00:22.196Z</time>
      </trkpt>
      <trkpt lat="48.42322" lon="2.40693">
        <ele>97.45</ele>
        <time>2024-06-13T09:00:25.844Z</time>
      </trkpt>
      <trkpt lat="48.42324" lon="2.40699">
        <ele>97.91</ele>
        <time>2024-06-13T09:00:29.493Z</time>
      </trkpt>
      <trkpt lat="48.42327" lon="2.40705">
        <ele>98.33</ele>
        <time>2024-06-13T09:00:33.143Z</time>
      </trkpt>
      <trkpt lat="48.42329" lon="2.4071">
        <ele>98.68</ele>
        <time>2024-06-13T09:00:36.793Z</time>
      </trkpt>
      <trkpt lat="48.42331" lon="2.40716">
        <ele>98.99</ele>
        <time>2024-06-13T09:00:40.444Z</time>
      </trkpt>
      <trkpt lat="48.42333" lon="2.40721">
        <ele>99.21</ele>
        <time>2024-06-13T09:00:44.096Z</time>
      </trkpt>
      <trkpt lat="48.42344" lon="2.40735">
        <ele>100.1</ele>
        <time>2024-06-13T09:00:47.750Z</time>
      </trkpt>
      <trkpt lat="48.42351" lon="2.40743">
        <ele>100.8</ele>
        <time>2024-06-13T09:00:51.405Z</time>
      </trkpt>
      <trkpt lat="48.42355" lon="2.40747">
        <ele>101.21</ele>
        <time>2024-06-13T09:00:55.061Z</time>
      </trkpt>
      <trkpt lat="48.42358" lon="2.40751">
        <ele>101.66</ele>
        <time>2024-06-13T09:00:58.718Z</time>
      </trkpt>
      <trkpt lat="48.42365" lon="2.4076">
        <ele>102.64</ele>
        <time>2024-06-13T09:01:02.376Z</time>
      </trkpt>
      <trkpt lat="48.42365" lon="2.4076">
        <ele>102.64</ele>
        <time>2024-06-13T09:01:06.034Z</time>
      </trkpt>
      <trkpt lat="48.4237" lon="2.40771">
        <ele>103.69</ele>
        <time>2024-06-13T09:01:09.694Z</time>
      </trkpt>
      <trkpt lat="48.42375" lon="2.40782">
        <ele>104.81</ele>
        <time>2024-06-13T09:01:13.355Z</time>
      </trkpt>
      <trkpt lat="48.4238" lon="2.40793">
        <ele>106.02</ele>
        <time>2024-06-13T09:01:17.018Z</time>
      </trkpt>
      <trkpt lat="48.42383" lon="2.40799">
        <ele>106.67</ele>
        <time>2024-06-13T09:01:20.681Z</time>
      </trkpt>
      <trkpt lat="48.42385" lon="2.40805">
        <ele>107.37</ele>
        <time>2024-06-13T09:01:24.345Z</time>
      </trkpt>
      <trkpt lat="48.4239" lon="2.40816">
        <ele>108.92</ele>
        <time>2024-06-13T09:01:28.010Z</time>
      </trkpt>
      <trkpt lat="48.42391" lon="2.40817">
        <ele>109.11</ele>
        <time>2024-06-13T09:01:31.676Z</time>
      </trkpt>
      <trkpt lat="48.42409" lon="2.40831">
        <ele>112.88</ele>
        <time>2024-06-13T09:01:35.345Z</time>
      </trkpt>
      <trkpt lat="48.4241" lon="2.40833">
        <ele>113.11</ele>
        <time>2024-06-13T09:01:39.014Z</time>
      </trkpt>
      <trkpt lat="48.42414" lon="2.40844">
        <ele>114.88</ele>
        <time>2024-06-13T09:01:42.684Z</time>
      </trkpt>
      <trkpt lat="48.42418" lon="2.40856">
        <ele>116.83</ele>
        <time>2024-06-13T09:01:46.356Z</time>
      </trkpt>
      <trkpt lat="48.42423" lon="2.40868">
        <ele>118.7</ele>
        <time>2024-06-13T09:01:50.029Z</time>
      </trkpt>
      <trkpt lat="48.42426" lon="2.40876">
        <ele>119.94</ele>
        <time>2024-06-13T09:01:53.703Z</time>
      </trkpt>
      <trkpt lat="48.42426" lon="2.40877">
        <ele>119.94</ele>
        <time>2024-06-13T09:01:57.377Z</time>
      </trkpt>
      <trkpt lat="48.42425" lon="2.40887">
        <ele>121.24</ele>
        <time>2024-06-13T09:02:01.053Z</time>
      </trkpt>
      <trkpt lat="48.42424" lon="2.409">
        <ele>122.69</ele>
        <time>2024-06-13T09:02:04.730Z</time>
      </trkpt>
      <trkpt lat="48.42423" lon="2.40913">
        <ele>124.08</ele>
        <time>2024-06-13T09:02:08.408Z</time>
      </trkpt>
      <trkpt lat="48.42421" lon="2.40934">
        <ele>126.09</ele>
        <time>2024-06-13T09:02:12.089Z</time>
      </trkpt>
      <trkpt lat="48.42414" lon="2.4094">
        <ele>126</ele>
        <time>2024-06-13T09:02:15.771Z</time>
      </trkpt>
      <trkpt lat="48.42406" lon="2.40945">
        <ele>125.88</ele>
        <time>2024-06-13T09:02:19.454Z</time>
      </trkpt>
      <trkpt lat="48.42402" lon="2.40948">
        <ele>125.81</ele>
        <time>2024-06-13T09:02:23.138Z</time>
      </trkpt>
      <trkpt lat="48.42394" lon="2.40954">
        <ele>125.62</ele>
        <time>2024-06-13T09:02:26.823Z</time>
      </trkpt>
      <trkpt lat="48.42377" lon="2.40946">
        <ele>123.12</ele>
        <time>2024-06-13T09:02:30.511Z</time>
      </trkpt>
      <trkpt lat="48.4237" lon="2.40943">
        <ele>122.16</ele>
        <time>2024-06-13T09:02:34.200Z</time>
      </trkpt>
      <trkpt lat="48.42368" lon="2.40942">
        <ele>121.94</ele>
        <time>2024-06-13T09:02:37.890Z</time>
      </trkpt>
      <trkpt lat="48.42364" lon="2.40939">
        <ele>121.41</ele>
        <time>2024-06-13T09:02:41.580Z</time>
      </trkpt>
      <trkpt lat="48.4236" lon="2.40936">
        <ele>120.97</ele>
        <time>2024-06-13T09:02:45.271Z</time>
      </trkpt>
      <trkpt lat="48.42356" lon="2.40933">
        <ele>120.69</ele>
        <time>2024-06-13T09:02:48.963Z</time>
      </trkpt>
      <trkpt lat="48.42352" lon="2.4093">
        <ele>120.57</ele>
        <time>2024-06-13T09:02:52.656Z</time>
      </trkpt>
      <trkpt lat="48.42348" lon="2.40927">
        <ele>120.6</ele>
        <time>2024-06-13T09:02:56.349Z</time>
      </trkpt>
      <trkpt lat="48.42344" lon="2.40924">
        <ele>120.7</ele>
        <time>2024-06-13T09:03:00.043Z</time>
      </trkpt>
      <trkpt lat="48.42336" lon="2.40918">
        <ele>121.01</ele>
        <time>2024-06-13T09:03:03.738Z</time>
      </trkpt>
      <trkpt lat="48.42324" lon="2.40909">
        <ele>121.53</ele>
        <time>2024-06-13T09:03:07.436Z</time>
      </trkpt>
      <trkpt lat="48.42321" lon="2.40904">
        <ele>121.67</ele>
        <time>2024-06-13T09:03:11.134Z</time>
      </trkpt>
      <trkpt lat="48.42318" lon="2.40899">
        <ele>121.78</ele>
        <time>2024-06-13T09:03:14.833Z</time>
      </trkpt>
      <trkpt lat="48.42316" lon="2.40894">
        <ele>121.84</ele>
        <time>2024-06-13T09:03:18.533Z</time>
      </trkpt>
      <trkpt lat="48.42313" lon="2.40889">
        <ele>121.85</ele>
        <time>2024-06-13T09:03:22.233Z</time>
      </trkpt>
      <trkpt lat="48.42313" lon="2.40888">
        <ele>121.85</ele>
        <time>2024-06-13T09:03:25.934Z</time>
      </trkpt>
      <trkpt lat="48.42314" lon="2.40882">
        <ele>121.83</ele>
        <time>2024-06-13T09:03:29.635Z</time>
      </trkpt>
      <trkpt lat="48.42314" lon="2.40875">
        <ele>121.68</ele>
        <time>2024-06-13T09:03:33.337Z</time>
      </trkpt>
      <trkpt lat="48.42315" lon="2.40868">
        <ele>121.26</ele>
        <time>2024-06-13T09:03:37.040Z</time>
      </trkpt>
      <trkpt lat="48.42316" lon="2.40862">
        <ele>120.47</ele>
        <time>2024-06-13T09:03:40.743Z</time>
      </trkpt>
      <trkpt lat="48.42317" lon="2.40855">
        <ele>119.33</ele>
        <time>2024-06-13T09:03:44.447Z</time>
      </trkpt>
      <trkpt lat="48.42317" lon="2.40852">
        <ele>118.69</ele>
        <time>2024-06-13T09:03:48.151Z</time>
      </trkpt>
      <trkpt lat="48.42316" lon="2.40849">
        <ele>117.95</ele>
        <time>2024-06-13T09:03:51.856Z</time>
      </trkpt>
      <trkpt lat="48.4231" lon="2.40838">
        <ele>114.83</ele>
        <time>2024-06-13T09:03:55.562Z</time>
      </trkpt>
      <trkpt lat="48.42308" lon="2.40833">
        <ele>113.14</ele>
        <time>2024-06-13T09:03:59.269Z</time>
      </trkpt>
      <trkpt lat="48.42305" lon="2.40827">
        <ele>111.37</ele>
        <time>2024-06-13T09:04:02.977Z</time>
      </trkpt>
      <trkpt lat="48.42298" lon="2.40813">
        <ele>106.28</ele>
        <time>2024-06-13T09:04:06.687Z</time>
      </trkpt>
      <trkpt lat="48.42296" lon="2.40812">
        <ele>105.59</ele>
        <time>2024-06-13T09:04:10.397Z</time>
      </trkpt>
      <trkpt lat="48.42292" lon="2.4081">
        <ele>103.85</ele>
        <time>2024-06-13T09:04:14.108Z</time>
      </trkpt>
      <trkpt lat="48.42288" lon="2.40807">
        <ele>102.44</ele>
        <time>2024-06-13T09:04:17.819Z</time>
      </trkpt>
      <trkpt lat="48.42284" lon="2.40808">
        <ele>101.39</ele>
        <time>2024-06-13T09:04:21.531Z</time>
      </trkpt>
      <trkpt lat="48.42279" lon="2.40809">
        <ele>100.6</ele>
        <time>2024-06-13T09:04:25.244Z</time>
      </trkpt>
      <trkpt lat="48.42275" lon="2.40811">
        <ele>99.99</ele>
        <time>2024-06-13T09:04:28.957Z</time>
      </trkpt>
      <trkpt lat="48.42271" lon="2.40812">
        <ele>99.51</ele>
        <time>2024-06-13T09:04:32.671Z</time>
      </trkpt>
      <trkpt lat="48.42266" lon="2.40813">
        <ele>99.12</ele>
        <time>2024-06-13T09:04:36.386Z</time>
      </trkpt>
      <trkpt lat="48.42257" lon="2.40828">
        <ele>98.11</ele>
        <time>2024-06-13T09:04:40.103Z</time>
      </trkpt>
      <trkpt lat="48.42254" lon="2.40833">
        <ele>97.71</ele>
        <time>2024-06-13T09:04:43.821Z</time>
      </trkpt>
      <trkpt lat="48.42251" lon="2.40838">
        <ele>97.2</ele>
        <time>2024-06-13T09:04:47.539Z</time>
      </trkpt>
      <trkpt lat="48.42248" lon="2.40843">
        <ele>96.54</ele>
        <time>2024-06-13T09:04:51.258Z</time>
      </trkpt>
      <trkpt lat="48.42245" lon="2.40848">
        <ele>95.69</ele>
        <time>2024-06-13T09:04:54.978Z</time>
      </trkpt>
      <trkpt lat="48.42242" lon="2.40853">
        <ele>94.68</ele>
        <time>2024-06-13T09:04:58.699Z</time>
      </trkpt>
      <trkpt lat="48.42234" lon="2.40868">
        <ele>91.21</ele>
        <time>2024-06-13T09:05:02.422Z</time>
      </trkpt>
      <trkpt lat="48.42234" lon="2.40867">
        <ele>91.21</ele>
        <time>2024-06-13T09:05:06.145Z</time>
      </trkpt>
      <trkpt lat="48.42228" lon="2.40849">
        <ele>89.86</ele>
        <time>2024-06-13T09:05:09.870Z</time>
      </trkpt>
      <trkpt lat="48.42225" lon="2.40836">
        <ele>89.02</ele>
        <time>2024-06-13T09:05:13.596Z</time>
      </trkpt>
      <trkpt lat="48.42221" lon="2.40824">
        <ele>88.22</ele>
        <time>2024-06-13T09:05:17.324Z</time>
      </trkpt>
      <trkpt lat="48.4221" lon="2.40786">
        <ele>85.92</ele>
        <time>2024-06-13T09:05:21.056Z</time>
      </trkpt>
      <trkpt lat="48.422" lon="2.40765">
        <ele>84.47</ele>
        <time>2024-06-13T09:05:24.791Z</time>
      </trkpt>
      <trkpt lat="48.42197" lon="2.40759">
        <ele>84.11</ele>
        <time>2024-06-13T09:05:28.527Z</time>
      </trkpt>
      <trkpt lat="48.42192" lon="2.40749">
        <ele>83.45</ele>
        <time>2024-06-13T09:05:32.264Z</time>
      </trkpt>
      <trkpt lat="48.42192" lon="2.4075">
        <ele>83.45</ele>
        <time>2024-06-13T09:05:36.001Z</time>
      </trkpt>
      <trkpt lat="48.42189" lon="2.40755">
        <ele>83.6</ele>
        <time>2024-06-13T09:05:39.739Z</time>
      </trkpt>
      <trkpt lat="48.42186" lon="2.4076">
        <ele>83.82</ele>
        <time>2024-06-13T09:05:43.478Z</time>
      </trkpt>
      <trkpt lat="48.42183" lon="2.40765">
        <ele>84.2</ele>
        <time>2024-06-13T09:05:47.217Z</time>
      </trkpt>
      <trkpt lat="48.42181" lon="2.40769">
        <ele>84.66</ele>
        <time>2024-06-13T09:05:50.957Z</time>
      </trkpt>
      <trkpt lat="48.4218" lon="2.4077">
        <ele>84.79</ele>
        <time>2024-06-13T09:05:54.697Z</time>
      </trkpt>
      <trkpt lat="48.42176" lon="2.40772">
        <ele>85.62</ele>
        <time>2024-06-13T09:05:58.438Z</time>
      </trkpt>
      <trkpt lat="48.42172" lon="2.40774">
        <ele>86.66</ele>
        <time>2024-06-13T09:06:02.179Z</time>
      </trkpt>
      <trkpt lat="48.42168" lon="2.40777">
        <ele>87.84</ele>
        <time>2024-06-13T09:06:05.921Z</time>
      </trkpt>
      <trkpt lat="48.42164" lon="2.40779">
        <ele>88.96</ele>
        <time>2024-06-13T09:06:09.664Z</time>
      </trkpt>
      <trkpt lat="48.42165" lon="2.40786">
        <ele>90.34</ele>
        <time>2024-06-13T09:06:13.408Z</time>
      </trkpt>
      <trkpt lat="48.42167" lon="2.40792">
        <ele>91.52</ele>
        <time>2024-06-13T09:06:17.152Z</time>
      </trkpt>
      <trkpt lat="48.42168" lon="2.40799">
        <ele>92.58</ele>
        <time>2024-06-13T09:06:20.897Z</time>
      </trkpt>
      <trkpt lat="48.42169" lon="2.40805">
        <ele>93.46</ele>
        <time>2024-06-13T09:06:24.643Z</time>
      </trkpt>
      <trkpt lat="48.4217" lon="2.40812">
        <ele>94.17</ele>
        <time>2024-06-13T09:06:28.389Z</time>
      </trkpt>
      <trkpt lat="48.42172" lon="2.40818">
        <ele>94.75</ele>
        <time>2024-06-13T09:06:32.136Z</time>
      </trkpt>
      <trkpt lat="48.42174" lon="2.40831">
        <ele>95.77</ele>
        <time>2024-06-13T09:06:35.885Z</time>
      </trkpt>
      <trkpt lat="48.42176" lon="2.40837">
        <ele>96.35</ele>
        <time>2024-06-13T09:06:39.634Z</time>
      </trkpt>
      <trkpt lat="48.42179" lon="2.40857">
        <ele>98.42</ele>
        <time>2024-06-13T09:06:43.385Z</time>
      </trkpt>
      <trkpt lat="48.42181" lon="2.40863">
        <ele>98.97</ele>
        <time>2024-06-13T09:06:47.137Z</time>
      </trkpt>
      <trkpt lat="48.42182" lon="2.40869">
        <ele>99.35</ele>
        <time>2024-06-13T09:06:50.890Z</time>
      </trkpt>
      <trkpt lat="48.42183" lon="2.40876">
        <ele>99.59</ele>
        <time>2024-06-13T09:06:54.644Z</time>
      </trkpt>
      <trkpt lat="48.42186" lon="2.40889">
        <ele>99.94</ele>
        <time>2024-06-13T09:06:58.399Z</time>
      </trkpt>
      <trkpt lat="48.42187" lon="2.40895">
        <ele>100.14</ele>
        <time>2024-06-13T09:07:02.155Z</time>
      </trkpt>
      <trkpt lat="48.42188" lon="2.40901">
        <ele>100.41</ele>
        <time>2024-06-13T09:07:05.911Z</time>
      </trkpt>
      <trkpt lat="48.42191" lon="2.40914">
        <ele>101.05</ele>
        <time>2024-06-13T09:07:09.669Z</time>
      </trkpt>
      <trkpt lat="48.42193" lon="2.40925">
        <ele>101.68</ele>
        <time>2024-06-13T09:07:13.428Z</time>
      </trkpt>
      <trkpt lat="48.42192" lon="2.40925">
        <ele>101.68</ele>
        <time>2024-06-13T09:07:17.187Z</time>
      </trkpt>
      <trkpt lat="48.42164" lon="2.40943">
        <ele>111.02</ele>
        <time>2024-06-13T09:07:20.951Z</time>
      </trkpt>
      <trkpt lat="48.42163" lon="2.40943">
        <ele>111.02</ele>
        <time>2024-06-13T09:07:24.715Z</time>
      </trkpt>
      <trkpt lat="48.42159" lon="2.40944">
        <ele>109.87</ele>
        <time>2024-06-13T09:07:28.480Z</time>
      </trkpt>
      <trkpt lat="48.42146" lon="2.40947">
        <ele>110.53</ele>
        <time>2024-06-13T09:07:32.247Z</time>
      </trkpt>
      <trkpt lat="48.42141" lon="2.40948">
        <ele>110.7</ele>
        <time>2024-06-13T09:07:36.015Z</time>
      </trkpt>
      <trkpt lat="48.42137" lon="2.40949">
        <ele>110.85</ele>
        <time>2024-06-13T09:07:39.783Z</time>
      </trkpt>
      <trkpt lat="48.42134" lon="2.40955">
        <ele>111.01</ele>
        <time>2024-06-13T09:07:43.552Z</time>
      </trkpt>
      <trkpt lat="48.42132" lon="2.4096">
        <ele>111.26</ele>
        <time>2024-06-13T09:07:47.322Z</time>
      </trkpt>
      <trkpt lat="48.4213" lon="2.40966">
        <ele>111.65</ele>
        <time>2024-06-13T09:07:51.093Z</time>
      </trkpt>
      <trkpt lat="48.42127" lon="2.40971">
        <ele>112.19</ele>
        <time>2024-06-13T09:07:54.864Z</time>
      </trkpt>
      <trkpt lat="48.42125" lon="2.40977">
        <ele>112.88</ele>
        <time>2024-06-13T09:07:58.636Z</time>
      </trkpt>
      <trkpt lat="48.42122" lon="2.40982">
        <ele>113.7</ele>
        <time>2024-06-13T09:08:02.409Z</time>
      </trkpt>
      <trkpt lat="48.42118" lon="2.40992">
        <ele>115.18</ele>
        <time>2024-06-13T09:08:06.183Z</time>
      </trkpt>
      <trkpt lat="48.42117" lon="2.40993">
        <ele>115.44</ele>
        <time>2024-06-13T09:08:09.957Z</time>
      </trkpt>
      <trkpt lat="48.42113" lon="2.40995">
        <ele>116.23</ele>
        <time>2024-06-13T09:08:13.732Z</time>
      </trkpt>
      <trkpt lat="48.42108" lon="2.40997">
        <ele>116.91</ele>
        <time>2024-06-13T09:08:17.508Z</time>
      </trkpt>
      <trkpt lat="48.42104" lon="2.40999">
        <ele>117.46</ele>
        <time>2024-06-13T09:08:21.284Z</time>
      </trkpt>
      <trkpt lat="48.42102" lon="2.41">
        <ele>117.68</ele>
        <time>2024-06-13T09:08:25.061Z</time>
      </trkpt>
      <trkpt lat="48.42095" lon="2.40987">
        <ele>118.81</ele>
        <time>2024-06-13T09:08:28.839Z</time>
      </trkpt>
      <trkpt lat="48.42094" lon="2.40984">
        <ele>119.07</ele>
        <time>2024-06-13T09:08:32.618Z</time>
      </trkpt>
      <trkpt lat="48.42092" lon="2.40985">
        <ele>119.34</ele>
        <time>2024-06-13T09:08:36.397Z</time>
      </trkpt>
      <trkpt lat="48.42087" lon="2.40986">
        <ele>119.97</ele>
        <time>2024-06-13T09:08:40.177Z</time>
      </trkpt>
      <trkpt lat="48.42074" lon="2.40989">
        <ele>122.02</ele>
        <time>2024-06-13T09:08:43.959Z</time>
      </trkpt>
      <trkpt lat="48.4207" lon="2.4099">
        <ele>122.61</ele>
        <time>2024-06-13T09:08:47.742Z</time>
      </trkpt>
      <trkpt lat="48.42069" lon="2.4099">
        <ele>122.72</ele>
        <time>2024-06-13T09:08:51.525Z</time>
      </trkpt>
      <trkpt lat="48.42067" lon="2.40994">
        <ele>123.11</ele>
        <time>2024-06-13T09:08:55.308Z</time>
      </trkpt>
      <trkpt lat="48.42065" lon="2.41">
        <ele>123.52</ele>
        <time>2024-06-13T09:08:59.092Z</time>
      </trkpt>
      <trkpt lat="48.42062" lon="2.41005">
        <ele>123.83</ele>
        <time>2024-06-13T09:09:02.877Z</time>
      </trkpt>
      <trkpt lat="48.42059" lon="2.41011">
        <ele>124.06</ele>
        <time>2024-06-13T09:09:06.663Z</time>
      </trkpt>
      <trkpt lat="48.42057" lon="2.41016">
        <ele>124.21</ele>
        <time>2024-06-13T09:09:10.449Z</time>
      </trkpt>
      <trkpt lat="48.42054" lon="2.41022">
        <ele>124.28</ele>
        <time>2024-06-13T09:09:14.236Z</time>
      </trkpt>
      <trkpt lat="48.42052" lon="2.41027">
        <ele>124.27</ele>
        <time>2024-06-13T09:09:18.024Z</time>
      </trkpt>
      <trkpt lat="48.42049" lon="2.41033">
        <ele>124.21</ele>
        <time>2024-06-13T09:09:21.812Z</time>
      </trkpt>
      <trkpt lat="48.42047" lon="2.41038">
        <ele>124.09</ele>
        <time>2024-06-13T09:09:25.601Z</time>
      </trkpt>
      <trkpt lat="48.42044" lon="2.41044">
        <ele>123.91</ele>
        <time>2024-06-13T09:09:29.391Z</time>
      </trkpt>
      <trkpt lat="48.42042" lon="2.41049">
        <ele>123.68</ele>
        <time>2024-06-13T09:09:33.181Z</time>
      </trkpt>
      <trkpt lat="48.42037" lon="2.4106">
        <ele>123.16</ele>
        <time>2024-06-13T09:09:36.973Z</time>
      </trkpt>
      <trkpt lat="48.42034" lon="2.41066">
        <ele>122.93</ele>
        <time>2024-06-13T09:09:40.766Z</time>
      </trkpt>
      <trkpt lat="48.42032" lon="2.41071">
        <ele>122.78</ele>
        <time>2024-06-13T09:09:44.559Z</time>
      </trkpt>
      <trkpt lat="48.42031" lon="2.41073">
        <ele>122.75</ele>
        <time>2024-06-13T09:09:48.353Z</time>
      </trkpt>
      <trkpt lat="48.42031" lon="2.41078">
        <ele>122.7</ele>
        <time>2024-06-13T09:09:52.147Z</time>
      </trkpt>
      <trkpt lat="48.42031" lon="2.41084">
        <ele>122.7</ele>
        <time>2024-06-13T09:09:55.942Z</time>
      </trkpt>
      <trkpt lat="48.42032" lon="2.41091">
        <ele>122.77</ele>
        <time>2024-06-13T09:09:59.737Z</time>
      </trkpt>
      <trkpt lat="48.42032" lon="2.41098">
        <ele>122.88</ele>
        <time>2024-06-13T09:10:03.533Z</time>
      </trkpt>
      <trkpt lat="48.42032" lon="2.41101">
        <ele>122.96</ele>
        <time>2024-06-13T09:10:07.330Z</time>
      </trkpt>
      <trkpt lat="48.42031" lon="2.41104">
        <ele>123.04</ele>
        <time>2024-06-13T09:10:11.127Z</time>
      </trkpt>
      <trkpt lat="48.4203" lon="2.4111">
        <ele>123.23</ele>
        <time>2024-06-13T09:10:14.925Z</time>
      </trkpt>
      <trkpt lat="48.42025" lon="2.41129">
        <ele>123.88</ele>
        <time>2024-06-13T09:10:18.725Z</time>
      </trkpt>
      <trkpt lat="48.4202" lon="2.41147">
        <ele>124.63</ele>
        <time>2024-06-13T09:10:22.527Z</time>
      </trkpt>
      <trkpt lat="48.42019" lon="2.4115">
        <ele>124.71</ele>
        <time>2024-06-13T09:10:26.329Z</time>
      </trkpt>
      <trkpt lat="48.42017" lon="2.41149">
        <ele>124.84</ele>
        <time>2024-06-13T09:10:30.132Z</time>
      </trkpt>
      <trkpt lat="48.42012" lon="2.41146">
        <ele>125</ele>
        <time>2024-06-13T09:10:33.935Z</time>
      </trkpt>
      <trkpt lat="48.42008" lon="2.41144">
        <ele>125.09</ele>
        <time>2024-06-13T09:10:37.739Z</time>
      </trkpt>
      <trkpt lat="48.42004" lon="2.41141">
        <ele>125.1</ele>
        <time>2024-06-13T09:10:41.544Z</time>
      </trkpt>
      <trkpt lat="48.42" lon="2.41139">
        <ele>125.06</ele>
        <time>2024-06-13T09:10:45.349Z</time>
      </trkpt>
      <trkpt lat="48.41997" lon="2.41137">
        <ele>125</ele>
        <time>2024-06-13T09:10:49.155Z</time>
      </trkpt>
      <trkpt lat="48.41997" lon="2.41139">
        <ele>124.98</ele>
        <time>2024-06-13T09:10:52.961Z</time>
      </trkpt>
      <trkpt lat="48.42" lon="2.41151">
        <ele>125.54</ele>
        <time>2024-06-13T09:10:56.769Z</time>
      </trkpt>
      <trkpt lat="48.42001" lon="2.41158">
        <ele>125.77</ele>
        <time>2024-06-13T09:11:00.577Z</time>
      </trkpt>
      <trkpt lat="48.42002" lon="2.41164">
        <ele>125.93</ele>
        <time>2024-06-13T09:11:04.386Z</time>
      </trkpt>
      <trkpt lat="48.42003" lon="2.4117">
        <ele>126.03</ele>
        <time>2024-06-13T09:11:08.196Z</time>
      </trkpt>
      <trkpt lat="48.42004" lon="2.41177">
        <ele>126.07</ele>
        <time>2024-06-13T09:11:12.006Z</time>
      </trkpt>
      <trkpt lat="48.42005" lon="2.41183">
        <ele>126.04</ele>
        <time>2024-06-13T09:11:15.817Z</time>
      </trkpt>
      <trkpt lat="48.42006" lon="2.41189">
        <ele>125.95</ele>
        <time>2024-06-13T09:11:19.629Z</time>
      </trkpt>
      <trkpt lat="48.42008" lon="2.41196">
        <ele>125.78</ele>
        <time>2024-06-13T09:11:23.441Z</time>
      </trkpt>
      <trkpt lat="48.42009" lon="2.41202">
        <ele>125.49</ele>
        <time>2024-06-13T09:11:27.254Z</time>
      </trkpt>
      <trkpt lat="48.4201" lon="2.41208">
        <ele>125.09</ele>
        <time>2024-06-13T09:11:31.068Z</time>
      </trkpt>
      <trkpt lat="48.42011" lon="2.41214">
        <ele>124.59</ele>
        <time>2024-06-13T09:11:34.883Z</time>
      </trkpt>
      <trkpt lat="48.42012" lon="2.41221">
        <ele>123.99</ele>
        <time>2024-06-13T09:11:38.698Z</time>
      </trkpt>
      <trkpt lat="48.42013" lon="2.41226">
        <ele>123.34</ele>
        <time>2024-06-13T09:11:42.514Z</time>
      </trkpt>
      <trkpt lat="48.42013" lon="2.41227">
        <ele>123.34</ele>
        <time>2024-06-13T09:11:46.330Z</time>
      </trkpt>
      <trkpt lat="48.42011" lon="2.41233">
        <ele>122.62</ele>
        <time>2024-06-13T09:11:50.147Z</time>
      </trkpt>
      <trkpt lat="48.42009" lon="2.41239">
        <ele>121.84</ele>
        <time>2024-06-13T09:11:53.964Z</time>
      </trkpt>
      <trkpt lat="48.42002" lon="2.41256">
        <ele>119.37</ele>
        <time>2024-06-13T09:11:57.783Z</time>
      </trkpt>
      <trkpt lat="48.42" lon="2.41262">
        <ele>118.59</ele>
        <time>2024-06-13T09:12:01.603Z</time>
      </trkpt>
      <trkpt lat="48.42" lon="2.41263">
        <ele>118.42</ele>
        <time>2024-06-13T09:12:05.423Z</time>
      </trkpt>
      <trkpt lat="48.41992" lon="2.41265">
        <ele>117.15</ele>
        <time>2024-06-13T09:12:09.244Z</time>
      </trkpt>
      <trkpt lat="48.41988" lon="2.41266">
        <ele>116.5</ele>
        <time>2024-06-13T09:12:13.066Z</time>
      </trkpt>
      <trkpt lat="48.41984" lon="2.41267">
        <ele>115.89</ele>
        <time>2024-06-13T09:12:16.889Z</time>
      </trkpt>
      <trkpt lat="48.41979" lon="2.41268">
        <ele>115.33</ele>
        <time>2024-06-13T09:12:20.713Z</time>
      </trkpt>
      <trkpt lat="48.41975" lon="2.41268">
        <ele>114.82</ele>
        <time>2024-06-13T09:12:24.537Z</time>
      </trkpt>
      <trkpt lat="48.41971" lon="2.41269">
        <ele>114.34</ele>
        <time>2024-06-13T09:12:28.362Z</time>
      </trkpt>
      <trkpt lat="48.41962" lon="2.41271">
        <ele>113.36</ele>
        <time>2024-06-13T09:12:32.188Z</time>
      </trkpt>
      <trkpt lat="48.4195" lon="2.41274">
        <ele>111.83</ele>
        <time>2024-06-13T09:12:36.016Z</time>
      </trkpt>
      <trkpt lat="48.4195" lon="2.41274">
        <ele>111.83</ele>
        <time>2024-06-13T09:12:39.844Z</time>
      </trkpt>
      <trkpt lat="48.41946" lon="2.41277">
        <ele>111.94</ele>
        <time>2024-06-13T09:12:43.673Z</time>
      </trkpt>
      <trkpt lat="48.41941" lon="2.4128">
        <ele>112.08</ele>
        <time>2024-06-13T09:12:47.503Z</time>
      </trkpt>
      <trkpt lat="48.41937" lon="2.41282">
        <ele>112.28</ele>
        <time>2024-06-13T09:12:51.334Z</time>
      </trkpt>
      <trkpt lat="48.41933" lon="2.41285">
        <ele>112.59</ele>
        <time>2024-06-13T09:12:55.165Z</time>
      </trkpt>
      <trkpt lat="48.41929" lon="2.41288">
        <ele>113.02</ele>
        <time>2024-06-13T09:12:58.997Z</time>
      </trkpt>
      <trkpt lat="48.41925" lon="2.4129">
        <ele>113.56</ele>
        <time>2024-06-13T09:13:02.830Z</time>
      </trkpt>
      <trkpt lat="48.41918" lon="2.41295">
        <ele>114.55</ele>
        <time>2024-06-13T09:13:06.664Z</time>
      </trkpt>
      <trkpt lat="48.41917" lon="2.41295">
        <ele>114.73</ele>
        <time>2024-06-13T09:13:10.498Z</time>
      </trkpt>
      <trkpt lat="48.41908" lon="2.41297">
        <ele>115.78</ele>
        <time>2024-06-13T09:13:14.334Z</time>
      </trkpt>
      <trkpt lat="48.41903" lon="2.41298">
        <ele>116.33</ele>
        <time>2024-06-13T09:13:18.170Z</time>
      </trkpt>
      <trkpt lat="48.41901" lon="2.41299">
        <ele>116.76</ele>
        <time>2024-06-13T09:13:22.007Z</time>
      </trkpt>
      <trkpt lat="48.41901" lon="2.413">
        <ele>116.76</ele>
        <time>2024-06-13T09:13:25.844Z</time>
      </trkpt>
      <trkpt lat="48.41901" lon="2.41304">
        <ele>119.48</ele>
        <time>2024-06-13T09:13:29.681Z</time>
      </trkpt>
      <trkpt lat="48.41902" lon="2.41318">
        <ele>121.32</ele>
        <time>2024-06-13T09:13:33.520Z</time>
      </trkpt>
      <trkpt lat="48.41902" lon="2.41319">
        <ele>121.32</ele>
        <time>2024-06-13T09:13:37.359Z</time>
      </trkpt>
      <trkpt lat="48.41907" lon="2.4133">
        <ele>122.3</ele>
        <time>2024-06-13T09:13:41.199Z</time>
      </trkpt>
      <trkpt lat="48.41908" lon="2.41331">
        <ele>122.3</ele>
        <time>2024-06-13T09:13:45.039Z</time>
      </trkpt>
      <trkpt lat="48.41914" lon="2.41339">
        <ele>122.75</ele>
        <time>2024-06-13T09:13:48.881Z</time>
      </trkpt>
      <trkpt lat="48.41915" lon="2.41341">
        <ele>122.82</ele>
        <time>2024-06-13T09:13:52.723Z</time>
      </trkpt>
      <trkpt lat="48.4192" lon="2.41351">
        <ele>123.37</ele>
        <time>2024-06-13T09:13:56.566Z</time>
      </trkpt>
      <trkpt lat="48.4192" lon="2.41352">
        <ele>123.44</ele>
        <time>2024-06-13T09:14:00.409Z</time>
      </trkpt>
      <trkpt lat="48.41927" lon="2.41369">
        <ele>124.88</ele>
        <time>2024-06-13T09:14:04.255Z</time>
      </trkpt>
      <trkpt lat="48.41933" lon="2.41387">
        <ele>126.19</ele>
        <time>2024-06-13T09:14:08.103Z</time>
      </trkpt>
      <trkpt lat="48.41938" lon="2.41401">
        <ele>127.54</ele>
        <time>2024-06-13T09:14:11.952Z</time>
      </trkpt>
      <trkpt lat="48.41943" lon="2.41415">
        <ele>128.49</ele>
        <time>2024-06-13T09:14:15.803Z</time>
      </trkpt>
      <trkpt lat="48.41943" lon="2.41417">
        <ele>128.6</ele>
        <time>2024-06-13T09:14:19.654Z</time>
      </trkpt>
      <trkpt lat="48.41945" lon="2.41433">
        <ele>129.68</ele>
        <time>2024-06-13T09:14:23.507Z</time>
      </trkpt>
      <trkpt lat="48.41947" lon="2.41446">
        <ele>130.34</ele>
        <time>2024-06-13T09:14:27.361Z</time>
      </trkpt>
      <trkpt lat="48.41947" lon="2.41447">
        <ele>130.42</ele>
        <time>2024-06-13T09:14:31.216Z</time>
      </trkpt>
      <trkpt lat="48.41938" lon="2.41476">
        <ele>131.18</ele>
        <time>2024-06-13T09:14:35.074Z</time>
      </trkpt>
      <trkpt lat="48.41937" lon="2.41477">
        <ele>131.23</ele>
        <time>2024-06-13T09:14:38.932Z</time>
      </trkpt>
      <trkpt lat="48.4193" lon="2.41486">
        <ele>131.49</ele>
        <time>2024-06-13T09:14:42.792Z</time>
      </trkpt>
      <trkpt lat="48.41922" lon="2.41497">
        <ele>131.85</ele>
        <time>2024-06-13T09:14:46.653Z</time>
      </trkpt>
      <trkpt lat="48.4192" lon="2.41497">
        <ele>131.91</ele>
        <time>2024-06-13T09:14:50.515Z</time>
      </trkpt>
      <trkpt lat="48.41908" lon="2.41496">
        <ele>131.67</ele>
        <time>2024-06-13T09:14:54.379Z</time>
      </trkpt>
      <trkpt lat="48.41886" lon="2.41487">
        <ele>131.24</ele>
        <time>2024-06-13T09:14:58.246Z</time>
      </trkpt>
      <trkpt lat="48.41884" lon="2.41487">
        <ele>131.21</ele>
        <time>2024-06-13T09:15:02.114Z</time>
      </trkpt>
      <trkpt lat="48.41871" lon="2.41488">
        <ele>131.16</ele>
        <time>2024-06-13T09:15:05.984Z</time>
      </trkpt>
      <trkpt lat="48.4187" lon="2.41488">
        <ele>131.16</ele>
        <time>2024-06-13T09:15:09.854Z</time>
      </trkpt>
      <trkpt lat="48.41858" lon="2.41485">
        <ele>131.16</ele>
        <time>2024-06-13T09:15:13.726Z</time>
      </trkpt>
      <trkpt lat="48.41857" lon="2.41486">
        <ele>131.17</ele>
        <time>2024-06-13T09:15:17.598Z</time>
      </trkpt>
      <trkpt lat="48.41794" lon="2.41535">
        <ele>131.66</ele>
        <time>2024-06-13T09:15:21.481Z</time>
      </trkpt>
      <trkpt lat="48.41794" lon="2.41537">
        <ele>131.67</ele>
        <time>2024-06-13T09:15:25.364Z</time>
      </trkpt>
      <trkpt lat="48.41792" lon="2.41577">
        <ele>128.07</ele>
        <time>2024-06-13T09:15:29.252Z</time>
      </trkpt>
      <trkpt lat="48.41801" lon="2.41606">
        <ele>128.19</ele>
        <time>2024-06-13T09:15:33.143Z</time>
      </trkpt>
      <trkpt lat="48.41815" lon="2.41649">
        <ele>128.26</ele>
        <time>2024-06-13T09:15:37.039Z</time>
      </trkpt>
      <trkpt lat="48.41819" lon="2.41723">
        <ele>128.38</ele>
        <time>2024-06-13T09:15:40.943Z</time>
      </trkpt>
      <trkpt lat="48.4182" lon="2.41743">
        <ele>128.47</ele>
        <time>2024-06-13T09:15:44.849Z</time>
      </trkpt>
      <trkpt lat="48.41821" lon="2.41777">
        <ele>128.76</ele>
        <time>2024-06-13T09:15:48.759Z</time>
      </trkpt>
      <trkpt lat="48.41822" lon="2.41787">
        <ele>128.81</ele>
        <time>2024-06-13T09:15:52.670Z</time>
      </trkpt>
      <trkpt lat="48.41823" lon="2.4179">
        <ele>128.84</ele>
        <time>2024-06-13T09:15:56.581Z</time>
      </trkpt>
      <trkpt lat="48.41842" lon="2.41836">
        <ele>128.94</ele>
        <time>2024-06-13T09:16:00.498Z</time>
      </trkpt>
      <trkpt lat="48.41846" lon="2.41848">
        <ele>128.98</ele>
        <time>2024-06-13T09:16:04.417Z</time>
      </trkpt>
      <trkpt lat="48.41858" lon="2.41877">
        <ele>129.14</ele>
        <time>2024-06-13T09:16:08.339Z</time>
      </trkpt>
      <trkpt lat="48.41863" lon="2.41888">
        <ele>129.18</ele>
        <time>2024-06-13T09:16:12.263Z</time>
      </trkpt>
      <trkpt lat="48.41869" lon="2.41906">
        <ele>129.2</ele>
        <time>2024-06-13T09:16:16.189Z</time>
      </trkpt>
      <trkpt lat="48.41874" lon="2.41917">
        <ele>129.24</ele>
        <time>2024-06-13T09:16:20.116Z</time>
      </trkpt>
      <trkpt lat="48.41883" lon="2.4194">
        <ele>129.36</ele>
        <time>2024-06-13T09:16:24.046Z</time>
      </trkpt>
      <trkpt lat="48.41894" lon="2.41967">
        <ele>129.46</ele>
        <time>2024-06-13T09:16:27.979Z</time>
      </trkpt>
      <trkpt lat="48.41892" lon="2.41967">
        <ele>129.47</ele>
        <time>2024-06-13T09:16:31.913Z</time>
      </trkpt>
      <trkpt lat="48.41884" lon="2.41964">
        <ele>129.22</ele>
        <time>2024-06-13T09:16:35.848Z</time>
      </trkpt>
      <trkpt lat="48.41875" lon="2.41962">
        <ele>129.01</ele>
        <time>2024-06-13T09:16:39.785Z</time>
      </trkpt>
      <trkpt lat="48.41857" lon="2.41957">
        <ele>128.66</ele>
        <time>2024-06-13T09:16:43.724Z</time>
      </trkpt>
      <trkpt lat="48.41834" lon="2.41945">
        <ele>128.19</ele>
        <time>2024-06-13T09:16:47.667Z</time>
      </trkpt>
      <trkpt lat="48.41814" lon="2.41932">
        <ele>127.78</ele>
        <time>2024-06-13T09:16:51.614Z</time>
      </trkpt>
      <trkpt lat="48.41813" lon="2.41931">
        <ele>127.75</ele>
        <time>2024-06-13T09:16:55.561Z</time>
      </trkpt>
      <trkpt lat="48.41801" lon="2.41921">
        <ele>127.75</ele>
        <time>2024-06-13T09:16:59.510Z</time>
      </trkpt>
      <trkpt lat="48.41796" lon="2.41917">
        <ele>127.73</ele>
        <time>2024-06-13T09:17:03.460Z</time>
      </trkpt>
      <trkpt lat="48.41793" lon="2.41914">
        <ele>127.72</ele>
        <time>2024-06-13T09:17:07.411Z</time>
      </trkpt>
      <trkpt lat="48.41784" lon="2.41903">
        <ele>127.65</ele>
        <time>2024-06-13T09:17:11.364Z</time>
      </trkpt>
      <trkpt lat="48.41768" lon="2.41877">
        <ele>127.52</ele>
        <time>2024-06-13T09:17:15.320Z</time>
      </trkpt>
      <trkpt lat="48.41751" lon="2.4185">
        <ele>127.4</ele>
        <time>2024-06-13T09:17:19.280Z</time>
      </trkpt>
      <trkpt lat="48.41745" lon="2.41843">
        <ele>127.37</ele>
        <time>2024-06-13T09:17:23.241Z</time>
      </trkpt>
      <trkpt lat="48.41724" lon="2.41819">
        <ele>127.1</ele>
        <time>2024-06-13T09:17:27.207Z</time>
      </trkpt>
      <trkpt lat="48.41698" lon="2.41791">
        <ele>126.75</ele>
        <time>2024-06-13T09:17:31.178Z</time>
      </trkpt>
      <trkpt lat="48.41681" lon="2.41771">
        <ele>126.6</ele>
        <time>2024-06-13T09:17:35.152Z</time>
      </trkpt>
      <trkpt lat="48.41678" lon="2.41768">
        <ele>126.57</ele>
        <time>2024-06-13T09:17:39.127Z</time>
      </trkpt>
      <trkpt lat="48.41657" lon="2.41751">
        <ele>126.38</ele>
        <time>2024-06-13T09:17:43.106Z</time>
      </trkpt>
      <trkpt lat="48.41645" lon="2.41742">
        <ele>126.3</ele>
        <time>2024-06-13T09:17:47.087Z</time>
      </trkpt>
      <trkpt lat="48.41629" lon="2.41729">
        <ele>126.26</ele>
        <time>2024-06-13T09:17:51.071Z</time>
      </trkpt>
      <trkpt lat="48.4161" lon="2.41713">
        <ele>126.28</ele>
        <time>2024-06-13T09:17:55.058Z</time>
      </trkpt>
      <trkpt lat="48.41598" lon="2.41704">
        <ele>126.26</ele>
        <time>2024-06-13T09:17:59.047Z</time>
      </trkpt>
      <trkpt lat="48.4159" lon="2.41697">
        <ele>126.27</ele>
        <time>2024-06-13T09:18:03.038Z</time>
      </trkpt>
      <trkpt lat="48.41578" lon="2.41688">
        <ele>126.36</ele>
        <time>2024-06-13T09:18:07.031Z</time>
      </trkpt>
      <trkpt lat="48.41563" lon="2.41676">
        <ele>126.57</ele>
        <time>2024-06-13T09:18:11.027Z</time>
      </trkpt>
      <trkpt lat="48.41563" lon="2.41678">
        <ele>126.59</ele>
        <time>2024-06-13T09:18:15.023Z</time>
      </trkpt>
      <trkpt lat="48.41558" lon="2.4173">
        <ele>126.67</ele>
        <time>2024-06-13T09:18:19.025Z</time>
      </trkpt>
      <trkpt lat="48.41557" lon="2.4175">
        <ele>126.76</ele>
        <time>2024-06-13T09:18:23.029Z</time>
      </trkpt>
      <trkpt lat="48.41552" lon="2.41803">
        <ele>127.06</ele>
        <time>2024-06-13T09:18:27.038Z</time>
      </trkpt>
      <trkpt lat="48.41547" lon="2.41869">
        <ele>127.22</ele>
        <time>2024-06-13T09:18:31.054Z</time>
      </trkpt>
      <trkpt lat="48.41545" lon="2.41889">
        <ele>127.16</ele>
        <time>2024-06-13T09:18:35.073Z</time>
      </trkpt>
      <trkpt lat="48.41544" lon="2.41903">
        <ele>127.13</ele>
        <time>2024-06-13T09:18:39.093Z</time>
      </trkpt>
      <trkpt lat="48.41543" lon="2.41908">
        <ele>127.13</ele>
        <time>2024-06-13T09:18:43.114Z</time>
      </trkpt>
      <trkpt lat="48.41538" lon="2.41927">
        <ele>127.14</ele>
        <time>2024-06-13T09:18:47.137Z</time>
      </trkpt>
      <trkpt lat="48.41536" lon="2.41936">
        <ele>127.16</ele>
        <time>2024-06-13T09:18:51.161Z</time>
      </trkpt>
      <trkpt lat="48.41536" lon="2.41953">
        <ele>127.2</ele>
        <time>2024-06-13T09:18:55.187Z</time>
      </trkpt>
      <trkpt lat="48.41536" lon="2.41967">
        <ele>127.2</ele>
        <time>2024-06-13T09:18:59.214Z</time>
      </trkpt>
      <trkpt lat="48.41535" lon="2.42007">
        <ele>127.03</ele>
        <time>2024-06-13T09:19:03.245Z</time>
      </trkpt>
      <trkpt lat="48.41535" lon="2.42011">
        <ele>127.02</ele>
        <time>2024-06-13T09:19:07.277Z</time>
      </trkpt>
      <trkpt lat="48.41534" lon="2.42033">
        <ele>127.02</ele>
        <time>2024-06-13T09:19:11.311Z</time>
      </trkpt>
      <trkpt lat="48.41533" lon="2.4204">
        <ele>127</ele>
        <time>2024-06-13T09:19:15.346Z</time>
      </trkpt>
      <trkpt lat="48.41532" lon="2.42067">
        <ele>126.87</ele>
        <time>2024-06-13T09:19:19.384Z</time>
      </trkpt>
      <trkpt lat="48.4153" lon="2.42093">
        <ele>126.81</ele>
        <time>2024-06-13T09:19:23.425Z</time>
      </trkpt>
      <trkpt lat="48.41529" lon="2.42112">
        <ele>126.7</ele>
        <time>2024-06-13T09:19:27.468Z</time>
      </trkpt>
      <trkpt lat="48.41528" lon="2.42154">
        <ele>126.47</ele>
        <time>2024-06-13T09:19:31.515Z</time>
      </trkpt>
      <trkpt lat="48.41528" lon="2.42165">
        <ele>126.43</ele>
        <time>2024-06-13T09:19:35.563Z</time>
      </trkpt>
      <trkpt lat="48.41529" lon="2.42194">
        <ele>126.36</ele>
        <time>2024-06-13T09:19:39.614Z</time>
      </trkpt>
      <trkpt lat="48.41529" lon="2.42227">
        <ele>126.19</ele>
        <time>2024-06-13T09:19:43.669Z</time>
      </trkpt>
      <trkpt lat="48.41529" lon="2.42241">
        <ele>126.07</ele>
        <time>2024-06-13T09:19:47.725Z</time>
      </trkpt>
      <trkpt lat="48.4153" lon="2.42261">
        <ele>125.82</ele>
        <time>2024-06-13T09:19:51.784Z</time>
      </trkpt>
      <trkpt lat="48.41531" lon="2.42308">
        <ele>125.34</ele>
        <time>2024-06-13T09:19:55.848Z</time>
      </trkpt>
      <trkpt lat="48.41531" lon="2.42341">
        <ele>125.12</ele>
        <time>2024-06-13T09:19:59.915Z</time>
      </trkpt>
      <trkpt lat="48.41532" lon="2.42375">
        <ele>124.84</ele>
        <time>2024-06-13T09:20:03.986Z</time>
      </trkpt>
      <trkpt lat="48.41532" lon="2.42385">
        <ele>124.79</ele>
        <time>2024-06-13T09:20:08.058Z</time>
      </trkpt>
      <trkpt lat="48.41536" lon="2.42401">
        <ele>124.71</ele>
        <time>2024-06-13T09:20:12.132Z</time>
      </trkpt>
      <trkpt lat="48.4154" lon="2.42413">
        <ele>124.59</ele>
        <time>2024-06-13T09:20:16.207Z</time>
      </trkpt>
      <trkpt lat="48.41545" lon="2.42432">
        <ele>124.35</ele>
        <time>2024-06-13T09:20:20.284Z</time>
      </trkpt>
      <trkpt lat="48.41546" lon="2.42438">
        <ele>124.3</ele>
        <time>2024-06-13T09:20:24.362Z</time>
      </trkpt>
      <trkpt lat="48.41548" lon="2.42444">
        <ele>124.28</ele>
        <time>2024-06-13T09:20:28.441Z</time>
      </trkpt>
      <trkpt lat="48.41549" lon="2.42448">
        <ele>124.3</ele>
        <time>2024-06-13T09:20:32.520Z</time>
      </trkpt>
      <trkpt lat="48.41549" lon="2.4245">
        <ele>124.32</ele>
        <time>2024-06-13T09:20:36.599Z</time>
      </trkpt>
      <trkpt lat="48.41548" lon="2.42457">
        <ele>124.41</ele>
        <time>2024-06-13T09:20:40.679Z</time>
      </trkpt>
      <trkpt lat="48.41547" lon="2.42464">
        <ele>124.55</ele>
        <time>2024-06-13T09:20:44.760Z</time>
      </trkpt>
      <trkpt lat="48.41546" lon="2.42467">
        <ele>124.64</ele>
        <time>2024-06-13T09:20:48.841Z</time>
      </trkpt>
      <trkpt lat="48.41545" lon="2.4247">
        <ele>124.73</ele>
        <time>2024-06-13T09:20:52.922Z</time>
      </trkpt>
      <trkpt lat="48.41536" lon="2.42493">
        <ele>125.54</ele>
        <time>2024-06-13T09:20:57.006Z</time>
      </trkpt>
      <trkpt lat="48.41534" lon="2.42499">
        <ele>125.71</ele>
        <time>2024-06-13T09:21:01.091Z</time>
      </trkpt>
      <trkpt lat="48.4153" lon="2.4251">
        <ele>126</ele>
        <time>2024-06-13T09:21:05.177Z</time>
      </trkpt>
      <trkpt lat="48.41529" lon="2.42512">
        <ele>126.03</ele>
        <time>2024-06-13T09:21:09.264Z</time>
      </trkpt>
      <trkpt lat="48.41527" lon="2.42523">
        <ele>126.26</ele>
        <time>2024-06-13T09:21:13.352Z</time>
      </trkpt>
      <trkpt lat="48.41521" lon="2.42549">
        <ele>126.73</ele>
        <time>2024-06-13T09:21:17.443Z</time>
      </trkpt>
      <trkpt lat="48.41518" lon="2.42561">
        <ele>126.94</ele>
        <time>2024-06-13T09:21:21.535Z</time>
      </trkpt>
      <trkpt lat="48.41517" lon="2.42568">
        <ele>127.02</ele>
        <time>2024-06-13T09:21:25.628Z</time>
      </trkpt>
      <trkpt lat="48.41514" lon="2.4258">
        <ele>127.13</ele>
        <time>2024-06-13T09:21:29.722Z</time>
      </trkpt>
      <trkpt lat="48.41508" lon="2.42606">
        <ele>127.31</ele>
        <time>2024-06-13T09:21:33.819Z</time>
      </trkpt>
      <trkpt lat="48.41504" lon="2.42625">
        <ele>127.4</ele>
        <time>2024-06-13T09:21:37.918Z</time>
      </trkpt>
      <trkpt lat="48.41501" lon="2.42638">
        <ele>127.4</ele>
        <time>2024-06-13T09:21:42.019Z</time>
      </trkpt>
      <trkpt lat="48.41497" lon="2.42656">
        <ele>127.35</ele>
        <time>2024-06-13T09:21:46.122Z</time>
      </trkpt>
      <trkpt lat="48.41497" lon="2.42657">
        <ele>127.35</ele>
        <time>2024-06-13T09:21:50.225Z</time>
      </trkpt>
      <trkpt lat="48.41497" lon="2.42677">
        <ele>127.27</ele>
        <time>2024-06-13T09:21:54.330Z</time>
      </trkpt>
      <trkpt lat="48.41498" lon="2.42691">
        <ele>127.24</ele>
        <time>2024-06-13T09:21:58.436Z</time>
      </trkpt>
      <trkpt lat="48.41499" lon="2.42759">
        <ele>127.29</ele>
        <time>2024-06-13T09:22:02.550Z</time>
      </trkpt>
      <trkpt lat="48.41493" lon="2.42798">
        <ele>127.37</ele>
        <time>2024-06-13T09:22:06.668Z</time>
      </trkpt>
      <trkpt lat="48.41491" lon="2.42811">
        <ele>127.36</ele>
        <time>2024-06-13T09:22:10.787Z</time>
      </trkpt>
      <trkpt lat="48.4149" lon="2.42817">
        <ele>127.33</ele>
        <time>2024-06-13T09:22:14.907Z</time>
      </trkpt>
      <trkpt lat="48.41489" lon="2.42824">
        <ele>127.27</ele>
        <time>2024-06-13T09:22:19.028Z</time>
      </trkpt>
      <trkpt lat="48.41488" lon="2.42831">
        <ele>127.16</ele>
        <time>2024-06-13T09:22:23.150Z</time>
      </trkpt>
      <trkpt lat="48.41487" lon="2.42837">
        <ele>126.99</ele>
        <time>2024-06-13T09:22:27.272Z</time>
      </trkpt>
      <trkpt lat="48.41486" lon="2.42844">
        <ele>126.73</ele>
        <time>2024-06-13T09:22:31.395Z</time>
      </trkpt>
      <trkpt lat="48.41485" lon="2.4285">
        <ele>126.37</ele>
        <time>2024-06-13T09:22:35.519Z</time>
      </trkpt>
      <trkpt lat="48.41484" lon="2.42857">
        <ele>125.9</ele>
        <time>2024-06-13T09:22:39.644Z</time>
      </trkpt>
      <trkpt lat="48.41483" lon="2.42863">
        <ele>125.33</ele>
        <time>2024-06-13T09:22:43.769Z</time>
      </trkpt>
      <trkpt lat="48.41482" lon="2.4287">
        <ele>124.67</ele>
        <time>2024-06-13T09:22:47.895Z</time>
      </trkpt>
      <trkpt lat="48.41479" lon="2.4289">
        <ele>122.52</ele>
        <time>2024-06-13T09:22:52.023Z</time>
      </trkpt>
      <trkpt lat="48.41478" lon="2.42896">
        <ele>121.76</ele>
        <time>2024-06-13T09:22:56.152Z</time>
      </trkpt>
      <trkpt lat="48.41478" lon="2.42896">
        <ele>121.76</ele>
        <time>2024-06-13T09:23:00.281Z</time>
      </trkpt>
      <trkpt lat="48.4148" lon="2.42903">
        <ele>120.93</ele>
        <time>2024-06-13T09:23:04.411Z</time>
      </trkpt>
      <trkpt lat="48.41482" lon="2.42909">
        <ele>120.05</ele>
        <time>2024-06-13T09:23:08.541Z</time>
      </trkpt>
      <trkpt lat="48.41486" lon="2.42924">
        <ele>117.72</ele>
        <time>2024-06-13T09:23:12.673Z</time>
      </trkpt>
      <trkpt lat="48.41486" lon="2.42935">
        <ele>116.24</ele>
        <time>2024-06-13T09:23:16.806Z</time>
      </trkpt>
      <trkpt lat="48.41487" lon="2.42948">
        <ele>114.42</ele>
        <time>2024-06-13T09:23:20.941Z</time>
      </trkpt>
      <trkpt lat="48.41488" lon="2.42975">
        <ele>110.97</ele>
        <time>2024-06-13T09:23:25.078Z</time>
      </trkpt>
      <trkpt lat="48.41488" lon="2.42988">
        <ele>109.34</ele>
        <time>2024-06-13T09:23:29.217Z</time>
      </trkpt>
      <trkpt lat="48.41489" lon="2.43002">
        <ele>107.85</ele>
        <time>2024-06-13T09:23:33.357Z</time>
      </trkpt>
      <trkpt lat="48.41489" lon="2.4301">
        <ele>107.16</ele>
        <time>2024-06-13T09:23:37.498Z</time>
      </trkpt>
      <trkpt lat="48.41487" lon="2.43015">
        <ele>106.5</ele>
        <time>2024-06-13T09:23:41.640Z</time>
      </trkpt>
      <trkpt lat="48.41482" lon="2.43026">
        <ele>105.23</ele>
        <time>2024-06-13T09:23:45.783Z</time>
      </trkpt>
      <trkpt lat="48.41478" lon="2.43038">
        <ele>104.04</ele>
        <time>2024-06-13T09:23:49.928Z</time>
      </trkpt>
      <trkpt lat="48.41475" lon="2.43044">
        <ele>103.47</ele>
        <time>2024-06-13T09:23:54.073Z</time>
      </trkpt>
      <trkpt lat="48.41471" lon="2.43055">
        <ele>102.39</ele>
        <time>2024-06-13T09:23:58.220Z</time>
      </trkpt>
      <trkpt lat="48.41466" lon="2.43067">
        <ele>101.38</ele>
        <time>2024-06-13T09:24:02.368Z</time>
      </trkpt>
      <trkpt lat="48.41457" lon="2.4309">
        <ele>99.42</ele>
        <time>2024-06-13T09:24:06.519Z</time>
      </trkpt>
      <trkpt lat="48.4145" lon="2.43107">
        <ele>98</ele>
        <time>2024-06-13T09:24:10.672Z</time>
      </trkpt>
      <trkpt lat="48.41443" lon="2.43124">
        <ele>96.63</ele>
        <time>2024-06-13T09:24:14.827Z</time>
      </trkpt>
      <trkpt lat="48.41438" lon="2.43136">
        <ele>95.8</ele>
        <time>2024-06-13T09:24:18.984Z</time>
      </trkpt>
      <trkpt lat="48.41435" lon="2.43143">
        <ele>95.32</ele>
        <time>2024-06-13T09:24:23.142Z</time>
      </trkpt>
      <trkpt lat="48.41433" lon="2.43154">
        <ele>94.65</ele>
        <time>2024-06-13T09:24:27.301Z</time>
      </trkpt>
      <trkpt lat="48.4143" lon="2.43167">
        <ele>93.97</ele>
        <time>2024-06-13T09:24:31.462Z</time>
      </trkpt>
      <trkpt lat="48.41424" lon="2.432">
        <ele>92.39</ele>
        <time>2024-06-13T09:24:35.626Z</time>
      </trkpt>
      <trkpt lat="48.41423" lon="2.43206">
        <ele>92.05</ele>
        <time>2024-06-13T09:24:39.791Z</time>
      </trkpt>
      <trkpt lat="48.41421" lon="2.43213">
        <ele>91.67</ele>
        <time>2024-06-13T09:24:43.957Z</time>
      </trkpt>
      <trkpt lat="48.41421" lon="2.43214">
        <ele>91.58</ele>
        <time>2024-06-13T09:24:48.123Z</time>
      </trkpt>
      <trkpt lat="48.41419" lon="2.43218">
        <ele>91.25</ele>
        <time>2024-06-13T09:24:52.289Z</time>
      </trkpt>
      <trkpt lat="48.41416" lon="2.43223">
        <ele>90.77</ele>
        <time>2024-06-13T09:24:56.456Z</time>
      </trkpt>
      <trkpt lat="48.41404" lon="2.43244">
        <ele>88.66</ele>
        <time>2024-06-13T09:25:00.626Z</time>
      </trkpt>
      <trkpt lat="48.41402" lon="2.4325">
        <ele>88.17</ele>
        <time>2024-06-13T09:25:04.797Z</time>
      </trkpt>
      <trkpt lat="48.41399" lon="2.43255">
        <ele>87.7</ele>
        <time>2024-06-13T09:25:08.968Z</time>
      </trkpt>
      <trkpt lat="48.41396" lon="2.4326">
        <ele>87.27</ele>
        <time>2024-06-13T09:25:13.140Z</time>
      </trkpt>
      <trkpt lat="48.41393" lon="2.43265">
        <ele>86.87</ele>
        <time>2024-06-13T09:25:17.313Z</time>
      </trkpt>
      <trkpt lat="48.41387" lon="2.43276">
        <ele>86.14</ele>
        <time>2024-06-13T09:25:21.487Z</time>
      </trkpt>
      <trkpt lat="48.41373" lon="2.43302">
        <ele>84.44</ele>
        <time>2024-06-13T09:25:25.665Z</time>
      </trkpt>
      <trkpt lat="48.41371" lon="2.43306">
        <ele>84.13</ele>
        <time>2024-06-13T09:25:29.843Z</time>
      </trkpt>
      <trkpt lat="48.4137" lon="2.43321">
        <ele>83.3</ele>
        <time>2024-06-13T09:25:34.023Z</time>
      </trkpt>
      <trkpt lat="48.4137" lon="2.43327">
        <ele>82.93</ele>
        <time>2024-06-13T09:25:38.204Z</time>
      </trkpt>
      <trkpt lat="48.41368" lon="2.43334">
        <ele>82.49</ele>
        <time>2024-06-13T09:25:42.385Z</time>
      </trkpt>
      <trkpt lat="48.41359" lon="2.43357">
        <ele>80.65</ele>
        <time>2024-06-13T09:25:46.569Z</time>
      </trkpt>
      <trkpt lat="48.41357" lon="2.43363">
        <ele>80.25</ele>
        <time>2024-06-13T09:25:50.754Z</time>
      </trkpt>
      <trkpt lat="48.41355" lon="2.43369">
        <ele>79.88</ele>
        <time>2024-06-13T09:25:54.940Z</time>
      </trkpt>
      <trkpt lat="48.41351" lon="2.43381">
        <ele>79.22</ele>
        <time>2024-06-13T09:25:59.127Z</time>
      </trkpt>
      <trkpt lat="48.41338" lon="2.434">
        <ele>77.86</ele>
        <time>2024-06-13T09:26:03.317Z</time>
      </trkpt>
      <trkpt lat="48.41331" lon="2.43409">
        <ele>77.28</ele>
        <time>2024-06-13T09:26:07.508Z</time>
      </trkpt>
      <trkpt lat="48.41323" lon="2.43421">
        <ele>76.58</ele>
        <time>2024-06-13T09:26:11.701Z</time>
      </trkpt>
      <trkpt lat="48.41323" lon="2.43422">
        <ele>76.51</ele>
        <time>2024-06-13T09:26:15.894Z</time>
      </trkpt>
      <trkpt lat="48.41322" lon="2.43422">
        <ele>76.51</ele>
        <time>2024-06-13T09:26:20.088Z</time>
      </trkpt>
      <trkpt lat="48.41314" lon="2.43419">
        <ele>76.28</ele>
        <time>2024-06-13T09:26:24.283Z</time>
      </trkpt>
      <trkpt lat="48.41305" lon="2.43416">
        <ele>76.13</ele>
        <time>2024-06-13T09:26:28.479Z</time>
      </trkpt>
      <trkpt lat="48.41303" lon="2.43415">
        <ele>76.11</ele>
        <time>2024-06-13T09:26:32.676Z</time>
      </trkpt>
      <trkpt lat="48.41297" lon="2.43411">
        <ele>76.06</ele>
        <time>2024-06-13T09:26:36.874Z</time>
      </trkpt>
      <trkpt lat="48.41289" lon="2.43406">
        <ele>76.06</ele>
        <time>2024-06-13T09:26:41.073Z</time>
      </trkpt>
      <trkpt lat="48.41284" lon="2.43403">
        <ele>76.09</ele>
        <time>2024-06-13T09:26:45.273Z</time>
      </trkpt>
      <trkpt lat="48.41264" lon="2.4339">
        <ele>76.33</ele>
        <time>2024-06-13T09:26:49.476Z</time>
      </trkpt>
      <trkpt lat="48.41243" lon="2.43378">
        <ele>76.5</ele>
        <time>2024-06-13T09:26:53.683Z</time>
      </trkpt>
      <trkpt lat="48.41209" lon="2.43356">
        <ele>76.92</ele>
        <time>2024-06-13T09:26:57.896Z</time>
      </trkpt>
      <trkpt lat="48.41206" lon="2.43356">
        <ele>76.96</ele>
        <time>2024-06-13T09:27:02.109Z</time>
      </trkpt>
      <trkpt lat="48.41197" lon="2.43355">
        <ele>76.99</ele>
        <time>2024-06-13T09:27:06.324Z</time>
      </trkpt>
      <trkpt lat="48.41188" lon="2.43353">
        <ele>76.93</ele>
        <time>2024-06-13T09:27:10.540Z</time>
      </trkpt>
      <trkpt lat="48.4118" lon="2.43352">
        <ele>76.81</ele>
        <time>2024-06-13T09:27:14.758Z</time>
      </trkpt>
      <trkpt lat="48.41175" lon="2.43352">
        <ele>76.72</ele>
        <time>2024-06-13T09:27:18.976Z</time>
      </trkpt>
      <trkpt lat="48.41171" lon="2.43351">
        <ele>76.61</ele>
        <time>2024-06-13T09:27:23.195Z</time>
      </trkpt>
      <trkpt lat="48.41153" lon="2.43349">
        <ele>76.06</ele>
        <time>2024-06-13T09:27:27.417Z</time>
      </trkpt>
      <trkpt lat="48.41144" lon="2.43348">
        <ele>75.83</ele>
        <time>2024-06-13T09:27:31.640Z</time>
      </trkpt>
      <trkpt lat="48.4114" lon="2.43347">
        <ele>75.75</ele>
        <time>2024-06-13T09:27:35.864Z</time>
      </trkpt>
      <trkpt lat="48.41135" lon="2.43347">
        <ele>75.7</ele>
        <time>2024-06-13T09:27:40.089Z</time>
      </trkpt>
      <trkpt lat="48.41131" lon="2.43346">
        <ele>75.68</ele>
        <time>2024-06-13T09:27:44.315Z</time>
      </trkpt>
      <trkpt lat="48.41126" lon="2.43346">
        <ele>75.69</ele>
        <time>2024-06-13T09:27:48.541Z</time>
      </trkpt>
      <trkpt lat="48.41122" lon="2.43345">
        <ele>75.72</ele>
        <time>2024-06-13T09:27:52.768Z</time>
      </trkpt>
      <trkpt lat="48.4112" lon="2.43345">
        <ele>75.74</ele>
        <time>2024-06-13T09:27:56.995Z</time>
      </trkpt>
      <trkpt lat="48.41114" lon="2.43339">
        <ele>75.84</ele>
        <time>2024-06-13T09:28:01.223Z</time>
      </trkpt>
      <trkpt lat="48.41107" lon="2.43332">
        <ele>75.98</ele>
        <time>2024-06-13T09:28:05.453Z</time>
      </trkpt>
      <trkpt lat="48.41104" lon="2.43327">
        <ele>76.06</ele>
        <time>2024-06-13T09:28:09.684Z</time>
      </trkpt>
      <trkpt lat="48.41092" lon="2.43308">
        <ele>76.32</ele>
        <time>2024-06-13T09:28:13.917Z</time>
      </trkpt>
      <trkpt lat="48.41086" lon="2.43298">
        <ele>76.47</ele>
        <time>2024-06-13T09:28:18.152Z</time>
      </trkpt>
      <trkpt lat="48.41079" lon="2.43288">
        <ele>76.65</ele>
        <time>2024-06-13T09:28:22.388Z</time>
      </trkpt>
      <trkpt lat="48.41073" lon="2.43278">
        <ele>76.86</ele>
        <time>2024-06-13T09:28:26.626Z</time>
      </trkpt>
      <trkpt lat="48.41075" lon="2.43252">
        <ele>77.42</ele>
        <time>2024-06-13T09:28:30.867Z</time>
      </trkpt>
      <trkpt lat="48.41078" lon="2.43205">
        <ele>78.29</ele>
        <time>2024-06-13T09:28:35.113Z</time>
      </trkpt>
      <trkpt lat="48.41079" lon="2.43191">
        <ele>78.59</ele>
        <time>2024-06-13T09:28:39.360Z</time>
      </trkpt>
      <trkpt lat="48.4108" lon="2.43178">
        <ele>78.92</ele>
        <time>2024-06-13T09:28:43.609Z</time>
      </trkpt>
      <trkpt lat="48.41081" lon="2.43158">
        <ele>79.46</ele>
        <time>2024-06-13T09:28:47.860Z</time>
      </trkpt>
      <trkpt lat="48.41082" lon="2.43144">
        <ele>79.87</ele>
        <time>2024-06-13T09:28:52.112Z</time>
      </trkpt>
      <trkpt lat="48.41083" lon="2.43131">
        <ele>80.34</ele>
        <time>2024-06-13T09:28:56.366Z</time>
      </trkpt>
      <trkpt lat="48.41084" lon="2.43117">
        <ele>80.86</ele>
        <time>2024-06-13T09:29:00.621Z</time>
      </trkpt>
      <trkpt lat="48.41081" lon="2.43112">
        <ele>81.14</ele>
        <time>2024-06-13T09:29:04.877Z</time>
      </trkpt>
      <trkpt lat="48.41076" lon="2.43101">
        <ele>81.74</ele>
        <time>2024-06-13T09:29:09.134Z</time>
      </trkpt>
      <trkpt lat="48.41073" lon="2.43096">
        <ele>82.07</ele>
        <time>2024-06-13T09:29:13.392Z</time>
      </trkpt>
      <trkpt lat="48.41067" lon="2.43085">
        <ele>82.77</ele>
        <time>2024-06-13T09:29:17.651Z</time>
      </trkpt>
      <trkpt lat="48.41056" lon="2.43064">
        <ele>84.23</ele>
        <time>2024-06-13T09:29:21.913Z</time>
      </trkpt>
      <trkpt lat="48.41051" lon="2.43053">
        <ele>85.02</ele>
        <time>2024-06-13T09:29:26.177Z</time>
      </trkpt>
      <trkpt lat="48.41048" lon="2.43048">
        <ele>85.45</ele>
        <time>2024-06-13T09:29:30.441Z</time>
      </trkpt>
      <trkpt lat="48.41043" lon="2.43037">
        <ele>86.36</ele>
        <time>2024-06-13T09:29:34.707Z</time>
      </trkpt>
      <trkpt lat="48.41037" lon="2.43026">
        <ele>87.35</ele>
        <time>2024-06-13T09:29:38.974Z</time>
      </trkpt>
      <trkpt lat="48.41026" lon="2.43016">
        <ele>88.77</ele>
        <time>2024-06-13T09:29:43.243Z</time>
      </trkpt>
      <trkpt lat="48.41018" lon="2.43009">
        <ele>89.67</ele>
        <time>2024-06-13T09:29:47.514Z</time>
      </trkpt>
      <trkpt lat="48.4101" lon="2.43001">
        <ele>90.52</ele>
        <time>2024-06-13T09:29:51.786Z</time>
      </trkpt>
      <trkpt lat="48.41007" lon="2.42975">
        <ele>91.67</ele>
        <time>2024-06-13T09:29:56.061Z</time>
      </trkpt>
      <trkpt lat="48.41003" lon="2.42942">
        <ele>92.93</ele>
        <time>2024-06-13T09:30:00.340Z</time>
      </trkpt>
      <trkpt lat="48.41001" lon="2.42929">
        <ele>93.47</ele>
        <time>2024-06-13T09:30:04.620Z</time>
      </trkpt>
      <trkpt lat="48.41" lon="2.42922">
        <ele>93.76</ele>
        <time>2024-06-13T09:30:08.901Z</time>
      </trkpt>
      <trkpt lat="48.40999" lon="2.42909">
        <ele>94.41</ele>
        <time>2024-06-13T09:30:13.183Z</time>
      </trkpt>
      <trkpt lat="48.40996" lon="2.42882">
        <ele>95.83</ele>
        <time>2024-06-13T09:30:17.468Z</time>
      </trkpt>
      <trkpt lat="48.40995" lon="2.42876">
        <ele>96.17</ele>
        <time>2024-06-13T09:30:21.754Z</time>
      </trkpt>
      <trkpt lat="48.40993" lon="2.42862">
        <ele>96.8</ele>
        <time>2024-06-13T09:30:26.041Z</time>
      </trkpt>
      <trkpt lat="48.40989" lon="2.42828">
        <ele>98.3</ele>
        <time>2024-06-13T09:30:30.332Z</time>
      </trkpt>
      <trkpt lat="48.40985" lon="2.42827">
        <ele>98.79</ele>
        <time>2024-06-13T09:30:34.624Z</time>
      </trkpt>
      <trkpt lat="48.40981" lon="2.42825">
        <ele>99.34</ele>
        <time>2024-06-13T09:30:38.916Z</time>
      </trkpt>
      <trkpt lat="48.40977" lon="2.42824">
        <ele>99.98</ele>
        <time>2024-06-13T09:30:43.209Z</time>
      </trkpt>
      <trkpt lat="48.40972" lon="2.42822">
        <ele>100.72</ele>
        <time>2024-06-13T09:30:47.503Z</time>
      </trkpt>
      <trkpt lat="48.40968" lon="2.42821">
        <ele>101.55</ele>
        <time>2024-06-13T09:30:51.798Z</time>
      </trkpt>
      <trkpt lat="48.40964" lon="2.42819">
        <ele>102.44</ele>
        <time>2024-06-13T09:30:56.093Z</time>
      </trkpt>
      <trkpt lat="48.40955" lon="2.42816">
        <ele>104.32</ele>
        <time>2024-06-13T09:31:00.390Z</time>
      </trkpt>
      <trkpt lat="48.4095" lon="2.42814">
        <ele>105.31</ele>
        <time>2024-06-13T09:31:04.687Z</time>
      </trkpt>
      <trkpt lat="48.40946" lon="2.42813">
        <ele>106.36</ele>
        <time>2024-06-13T09:31:08.985Z</time>
      </trkpt>
      <trkpt lat="48.40942" lon="2.42811">
        <ele>107.46</ele>
        <time>2024-06-13T09:31:13.284Z</time>
      </trkpt>
      <trkpt lat="48.40935" lon="2.42809">
        <ele>109.22</ele>
        <time>2024-06-13T09:31:17.584Z</time>
      </trkpt>
      <trkpt lat="48.4093" lon="2.42794">
        <ele>112.1</ele>
        <time>2024-06-13T09:31:21.886Z</time>
      </trkpt>
      <trkpt lat="48.40928" lon="2.42788">
        <ele>113.14</ele>
        <time>2024-06-13T09:31:26.188Z</time>
      </trkpt>
      <trkpt lat="48.40926" lon="2.42782">
        <ele>114.08</ele>
        <time>2024-06-13T09:31:30.491Z</time>
      </trkpt>
      <trkpt lat="48.40924" lon="2.42776">
        <ele>114.94</ele>
        <time>2024-06-13T09:31:34.795Z</time>
      </trkpt>
      <trkpt lat="48.40922" lon="2.4277">
        <ele>115.73</ele>
        <time>2024-06-13T09:31:39.100Z</time>
      </trkpt>
      <trkpt lat="48.40918" lon="2.42758">
        <ele>117.23</ele>
        <time>2024-06-13T09:31:43.406Z</time>
      </trkpt>
      <trkpt lat="48.40916" lon="2.42752">
        <ele>117.96</ele>
        <time>2024-06-13T09:31:47.713Z</time>
      </trkpt>
      <trkpt lat="48.40914" lon="2.42746">
        <ele>118.65</ele>
        <time>2024-06-13T09:31:52.021Z</time>
      </trkpt>
      <trkpt lat="48.40911" lon="2.4274">
        <ele>119.28</ele>
        <time>2024-06-13T09:31:56.329Z</time>
      </trkpt>
      <trkpt lat="48.40909" lon="2.42734">
        <ele>119.81</ele>
        <time>2024-06-13T09:32:00.638Z</time>
      </trkpt>
      <trkpt lat="48.40907" lon="2.42728">
        <ele>120.26</ele>
        <time>2024-06-13T09:32:04.948Z</time>
      </trkpt>
      <trkpt lat="48.40905" lon="2.42722">
        <ele>120.64</ele>
        <time>2024-06-13T09:32:09.258Z</time>
      </trkpt>
      <trkpt lat="48.40903" lon="2.42716">
        <ele>120.95</ele>
        <time>2024-06-13T09:32:13.569Z</time>
      </trkpt>
      <trkpt lat="48.40902" lon="2.42712">
        <ele>121.12</ele>
        <time>2024-06-13T09:32:17.881Z</time>
      </trkpt>
      <trkpt lat="48.40901" lon="2.4271">
        <ele>121.23</ele>
        <time>2024-06-13T09:32:22.193Z</time>
      </trkpt>
      <trkpt lat="48.40898" lon="2.42705">
        <ele>121.47</ele>
        <time>2024-06-13T09:32:26.506Z</time>
      </trkpt>
      <trkpt lat="48.40889" lon="2.42691">
        <ele>122.11</ele>
        <time>2024-06-13T09:32:30.821Z</time>
      </trkpt>
      <trkpt lat="48.40882" lon="2.42681">
        <ele>122.5</ele>
        <time>2024-06-13T09:32:35.137Z</time>
      </trkpt>
      <trkpt lat="48.40879" lon="2.42676">
        <ele>122.67</ele>
        <time>2024-06-13T09:32:39.454Z</time>
      </trkpt>
      <trkpt lat="48.40876" lon="2.42671">
        <ele>122.81</ele>
        <time>2024-06-13T09:32:43.772Z</time>
      </trkpt>
      <trkpt lat="48.40873" lon="2.42666">
        <ele>122.92</ele>
        <time>2024-06-13T09:32:48.090Z</time>
      </trkpt>
      <trkpt lat="48.4087" lon="2.42661">
        <ele>123.01</ele>
        <time>2024-06-13T09:32:52.409Z</time>
      </trkpt>
      <trkpt lat="48.40867" lon="2.42656">
        <ele>123.07</ele>
        <time>2024-06-13T09:32:56.729Z</time>
      </trkpt>
      <trkpt lat="48.40855" lon="2.42636">
        <ele>123.21</ele>
        <time>2024-06-13T09:33:01.052Z</time>
      </trkpt>
      <trkpt lat="48.40842" lon="2.42617">
        <ele>123.38</ele>
        <time>2024-06-13T09:33:05.378Z</time>
      </trkpt>
      <trkpt lat="48.40836" lon="2.42607">
        <ele>123.41</ele>
        <time>2024-06-13T09:33:09.705Z</time>
      </trkpt>
      <trkpt lat="48.40824" lon="2.42587">
        <ele>123.43</ele>
        <time>2024-06-13T09:33:14.035Z</time>
      </trkpt>
      <trkpt lat="48.40809" lon="2.42562">
        <ele>123.55</ele>
        <time>2024-06-13T09:33:18.368Z</time>
      </trkpt>
      <trkpt lat="48.408" lon="2.42548">
        <ele>123.57</ele>
        <time>2024-06-13T09:33:22.704Z</time>
      </trkpt>
      <trkpt lat="48.40799" lon="2.42547">
        <ele>123.55</ele>
        <time>2024-06-13T09:33:27.040Z</time>
      </trkpt>
      <trkpt lat="48.40789" lon="2.42558">
        <ele>123.27</ele>
        <time>2024-06-13T09:33:31.378Z</time>
      </trkpt>
      <trkpt lat="48.40779" lon="2.4257">
        <ele>123</ele>
        <time>2024-06-13T09:33:35.718Z</time>
      </trkpt>
      <trkpt lat="48.40772" lon="2.42578">
        <ele>122.89</ele>
        <time>2024-06-13T09:33:40.059Z</time>
      </trkpt>
      <trkpt lat="48.40765" lon="2.42586">
        <ele>122.86</ele>
        <time>2024-06-13T09:33:44.402Z</time>
      </trkpt>
      <trkpt lat="48.40758" lon="2.42594">
        <ele>122.87</ele>
        <time>2024-06-13T09:33:48.746Z</time>
      </trkpt>
      <trkpt lat="48.40765" lon="2.42609">
        <ele>124.89</ele>
        <time>2024-06-13T09:33:53.092Z</time>
      </trkpt>
      <trkpt lat="48.40774" lon="2.42621">
        <ele>124.84</ele>
        <time>2024-06-13T09:33:57.440Z</time>
      </trkpt>
      <trkpt lat="48.40775" lon="2.42622">
        <ele>124.82</ele>
        <time>2024-06-13T09:34:01.788Z</time>
      </trkpt>
      <trkpt lat="48.40782" lon="2.42658">
        <ele>124.52</ele>
        <time>2024-06-13T09:34:06.140Z</time>
      </trkpt>
      <trkpt lat="48.4079" lon="2.42675">
        <ele>124.48</ele>
        <time>2024-06-13T09:34:10.494Z</time>
      </trkpt>
      <trkpt lat="48.408" lon="2.42697">
        <ele>124.3</ele>
        <time>2024-06-13T09:34:14.851Z</time>
      </trkpt>
      <trkpt lat="48.40801" lon="2.4272">
        <ele>123.85</ele>
        <time>2024-06-13T09:34:19.211Z</time>
      </trkpt>
      <trkpt lat="48.40801" lon="2.42722">
        <ele>123.82</ele>
        <time>2024-06-13T09:34:23.571Z</time>
      </trkpt>
      <trkpt lat="48.40806" lon="2.42755">
        <ele>123.3</ele>
        <time>2024-06-13T09:34:27.934Z</time>
      </trkpt>
      <trkpt lat="48.40818" lon="2.4278">
        <ele>123.08</ele>
        <time>2024-06-13T09:34:32.301Z</time>
      </trkpt>
      <trkpt lat="48.40819" lon="2.42781">
        <ele>123.08</ele>
        <time>2024-06-13T09:34:36.668Z</time>
      </trkpt>
      <trkpt lat="48.40826" lon="2.42809">
        <ele>123.1</ele>
        <time>2024-06-13T09:34:41.038Z</time>
      </trkpt>
      <trkpt lat="48.40826" lon="2.4281">
        <ele>123.11</ele>
        <time>2024-06-13T09:34:45.408Z</time>
      </trkpt>
      <trkpt lat="48.40824" lon="2.42824">
        <ele>123.21</ele>
        <time>2024-06-13T09:34:49.780Z</time>
      </trkpt>
      <trkpt lat="48.40814" lon="2.42858">
        <ele>123.49</ele>
        <time>2024-06-13T09:34:54.156Z</time>
      </trkpt>
      <trkpt lat="48.40814" lon="2.4286">
        <ele>123.49</ele>
        <time>2024-06-13T09:34:58.532Z</time>
      </trkpt>
      <trkpt lat="48.40807" lon="2.42876">
        <ele>123.58</ele>
        <time>2024-06-13T09:35:02.910Z</time>
      </trkpt>
      <trkpt lat="48.40801" lon="2.42888">
        <ele>123.58</ele>
        <time>2024-06-13T09:35:07.289Z</time>
      </trkpt>
      <trkpt lat="48.40791" lon="2.4291">
        <ele>122.89</ele>
        <time>2024-06-13T09:35:11.671Z</time>
      </trkpt>
      <trkpt lat="48.4079" lon="2.42912">
        <ele>122.8</ele>
        <time>2024-06-13T09:35:16.054Z</time>
      </trkpt>
      <trkpt lat="48.40787" lon="2.4293">
        <ele>122</ele>
        <time>2024-06-13T09:35:20.439Z</time>
      </trkpt>
      <trkpt lat="48.40787" lon="2.42932">
        <ele>121.87</ele>
        <time>2024-06-13T09:35:24.824Z</time>
      </trkpt>
      <trkpt lat="48.40786" lon="2.42962">
        <ele>120.22</ele>
        <time>2024-06-13T09:35:29.212Z</time>
      </trkpt>
      <trkpt lat="48.40765" lon="2.4301">
        <ele>115.3</ele>
        <time>2024-06-13T09:35:33.606Z</time>
      </trkpt>
      <trkpt lat="48.40757" lon="2.43002">
        <ele>117.68</ele>
        <time>2024-06-13T09:35:38.002Z</time>
      </trkpt>
      <trkpt lat="48.40748" lon="2.42993">
        <ele>117.41</ele>
        <time>2024-06-13T09:35:42.399Z</time>
      </trkpt>
      <trkpt lat="48.40743" lon="2.42985">
        <ele>117.24</ele>
        <time>2024-06-13T09:35:46.798Z</time>
      </trkpt>
      <trkpt lat="48.4074" lon="2.4298">
        <ele>117.11</ele>
        <time>2024-06-13T09:35:51.197Z</time>
      </trkpt>
      <trkpt lat="48.40737" lon="2.42975">
        <ele>116.95</ele>
        <time>2024-06-13T09:35:55.597Z</time>
      </trkpt>
      <trkpt lat="48.40733" lon="2.42967">
        <ele>116.65</ele>
        <time>2024-06-13T09:35:59.998Z</time>
      </trkpt>
      <trkpt lat="48.40732" lon="2.42964">
        <ele>116.56</ele>
        <time>2024-06-13T09:36:04.399Z</time>
      </trkpt>
      <trkpt lat="48.40725" lon="2.42947">
        <ele>115.93</ele>
        <time>2024-06-13T09:36:08.803Z</time>
      </trkpt>
      <trkpt lat="48.4072" lon="2.42935">
        <ele>115.55</ele>
        <time>2024-06-13T09:36:13.208Z</time>
      </trkpt>
      <trkpt lat="48.40719" lon="2.42929">
        <ele>115.39</ele>
        <time>2024-06-13T09:36:17.614Z</time>
      </trkpt>
      <trkpt lat="48.40716" lon="2.42903">
        <ele>114.84</ele>
        <time>2024-06-13T09:36:22.022Z</time>
      </trkpt>
      <trkpt lat="48.40715" lon="2.42899">
        <ele>114.74</ele>
        <time>2024-06-13T09:36:26.431Z</time>
      </trkpt>
      <trkpt lat="48.40714" lon="2.42897">
        <ele>114.68</ele>
        <time>2024-06-13T09:36:30.840Z</time>
      </trkpt>
      <trkpt lat="48.40708" lon="2.42887">
        <ele>114.3</ele>
        <time>2024-06-13T09:36:35.251Z</time>
      </trkpt>
      <trkpt lat="48.40696" lon="2.42868">
        <ele>113.41</ele>
        <time>2024-06-13T09:36:39.664Z</time>
      </trkpt>
      <trkpt lat="48.40693" lon="2.42864">
        <ele>113.22</ele>
        <time>2024-06-13T09:36:44.078Z</time>
      </trkpt>
      <trkpt lat="48.40692" lon="2.42863">
        <ele>113.22</ele>
        <time>2024-06-13T09:36:48.492Z</time>
      </trkpt>
      <trkpt lat="48.40688" lon="2.4286">
        <ele>113.06</ele>
        <time>2024-06-13T09:36:52.907Z</time>
      </trkpt>
      <trkpt lat="48.40684" lon="2.42857">
        <ele>112.93</ele>
        <time>2024-06-13T09:36:57.323Z</time>
      </trkpt>
      <trkpt lat="48.4068" lon="2.42854">
        <ele>112.84</ele>
        <time>2024-06-13T09:37:01.739Z</time>
      </trkpt>
      <trkpt lat="48.40665" lon="2.42842">
        <ele>112.56</ele>
        <time>2024-06-13T09:37:06.158Z</time>
      </trkpt>
      <trkpt lat="48.40664" lon="2.42841">
        <ele>112.56</ele>
        <time>2024-06-13T09:37:10.577Z</time>
      </trkpt>
      <trkpt lat="48.40652" lon="2.42835">
        <ele>112.56</ele>
        <time>2024-06-13T09:37:14.998Z</time>
      </trkpt>
      <trkpt lat="48.40648" lon="2.42832">
        <ele>112.53</ele>
        <time>2024-06-13T09:37:19.420Z</time>
      </trkpt>
      <trkpt lat="48.40644" lon="2.4283">
        <ele>112.48</ele>
        <time>2024-06-13T09:37:23.843Z</time>
      </trkpt>
      <trkpt lat="48.4063" lon="2.42822">
        <ele>112.25</ele>
        <time>2024-06-13T09:37:28.268Z</time>
      </trkpt>
      <trkpt lat="48.40628" lon="2.42821">
        <ele>112.22</ele>
        <time>2024-06-13T09:37:32.694Z</time>
      </trkpt>
      <trkpt lat="48.40623" lon="2.4282">
        <ele>112.19</ele>
        <time>2024-06-13T09:37:37.120Z</time>
      </trkpt>
      <trkpt lat="48.40619" lon="2.42818">
        <ele>112.2</ele>
        <time>2024-06-13T09:37:41.547Z</time>
      </trkpt>
      <trkpt lat="48.40615" lon="2.42817">
        <ele>112.25</ele>
        <time>2024-06-13T09:37:45.975Z</time>
      </trkpt>
      <trkpt lat="48.4061" lon="2.42815">
        <ele>112.36</ele>
        <time>2024-06-13T09:37:50.403Z</time>
      </trkpt>
      <trkpt lat="48.40606" lon="2.42814">
        <ele>112.53</ele>
        <time>2024-06-13T09:37:54.832Z</time>
      </trkpt>
      <trkpt lat="48.40604" lon="2.42813">
        <ele>112.64</ele>
        <time>2024-06-13T09:37:59.261Z</time>
      </trkpt>
      <trkpt lat="48.40602" lon="2.42812">
        <ele>112.78</ele>
        <time>2024-06-13T09:38:03.691Z</time>
      </trkpt>
      <trkpt lat="48.40598" lon="2.42809">
        <ele>113.11</ele>
        <time>2024-06-13T09:38:08.121Z</time>
      </trkpt>
      <trkpt lat="48.40594" lon="2.42807">
        <ele>113.52</ele>
        <time>2024-06-13T09:38:12.552Z</time>
      </trkpt>
      <trkpt lat="48.40591" lon="2.42805">
        <ele>113.84</ele>
        <time>2024-06-13T09:38:16.984Z</time>
      </trkpt>
      <trkpt lat="48.40592" lon="2.428">
        <ele>114.18</ele>
        <time>2024-06-13T09:38:21.416Z</time>
      </trkpt>
      <trkpt lat="48.40592" lon="2.42798">
        <ele>113.86</ele>
        <time>2024-06-13T09:38:25.848Z</time>
      </trkpt>
      <trkpt lat="48.40572" lon="2.42791">
        <ele>114.32</ele>
        <time>2024-06-13T09:38:30.284Z</time>
      </trkpt>
      <trkpt lat="48.4057" lon="2.4279">
        <ele>114.47</ele>
        <time>2024-06-13T09:38:34.720Z</time>
      </trkpt>
      <trkpt lat="48.40563" lon="2.42782">
        <ele>115.03</ele>
        <time>2024-06-13T09:38:39.157Z</time>
      </trkpt>
      <trkpt lat="48.40555" lon="2.42773">
        <ele>116.05</ele>
        <time>2024-06-13T09:38:43.596Z</time>
      </trkpt>
      <trkpt lat="48.40554" lon="2.42772">
        <ele>116.1</ele>
        <time>2024-06-13T09:38:48.035Z</time>
      </trkpt>
      <trkpt lat="48.40544" lon="2.42757">
        <ele>116.66</ele>
        <time>2024-06-13T09:38:52.477Z</time>
      </trkpt>
      <trkpt lat="48.40532" lon="2.42739">
        <ele>117.96</ele>
        <time>2024-06-13T09:38:56.921Z</time>
      </trkpt>
      <trkpt lat="48.4053" lon="2.42737">
        <ele>117.95</ele>
        <time>2024-06-13T09:39:01.366Z</time>
      </trkpt>
      <trkpt lat="48.40515" lon="2.42729">
        <ele>117.9</ele>
        <time>2024-06-13T09:39:05.813Z</time>
      </trkpt>
      <trkpt lat="48.40506" lon="2.42723">
        <ele>117.68</ele>
        <time>2024-06-13T09:39:10.262Z</time>
      </trkpt>
      <trkpt lat="48.40504" lon="2.42722">
        <ele>117.51</ele>
        <time>2024-06-13T09:39:14.711Z</time>
      </trkpt>
      <trkpt lat="48.4049" lon="2.42722">
        <ele>116.43</ele>
        <time>2024-06-13T09:39:19.162Z</time>
      </trkpt>
      <trkpt lat="48.40488" lon="2.42722">
        <ele>116.2</ele>
        <time>2024-06-13T09:39:23.614Z</time>
      </trkpt>
      <trkpt lat="48.40482" lon="2.42728">
        <ele>115.26</ele>
        <time>2024-06-13T09:39:28.067Z</time>
      </trkpt>
      <trkpt lat="48.4048" lon="2.4273">
        <ele>115.14</ele>
        <time>2024-06-13T09:39:32.520Z</time>
      </trkpt>
      <trkpt lat="48.40473" lon="2.42731">
        <ele>114.74</ele>
        <time>2024-06-13T09:39:36.974Z</time>
      </trkpt>
      <trkpt lat="48.40471" lon="2.42731">
        <ele>114.65</ele>
        <time>2024-06-13T09:39:41.429Z</time>
      </trkpt>
      <trkpt lat="48.40456" lon="2.4273">
        <ele>113.95</ele>
        <time>2024-06-13T09:39:45.886Z</time>
      </trkpt>
      <trkpt lat="48.40455" lon="2.4273">
        <ele>113.97</ele>
        <time>2024-06-13T09:39:50.343Z</time>
      </trkpt>
      <trkpt lat="48.40447" lon="2.42726">
        <ele>114.1</ele>
        <time>2024-06-13T09:39:54.801Z</time>
      </trkpt>
      <trkpt lat="48.40446" lon="2.42725">
        <ele>114.11</ele>
        <time>2024-06-13T09:39:59.260Z</time>
      </trkpt>
      <trkpt lat="48.40435" lon="2.42723">
        <ele>114.23</ele>
        <time>2024-06-13T09:40:03.720Z</time>
      </trkpt>
      <trkpt lat="48.40421" lon="2.42721">
        <ele>113.92</ele>
        <time>2024-06-13T09:40:08.183Z</time>
      </trkpt>
      <trkpt lat="48.40419" lon="2.42721">
        <ele>104.3</ele>
        <time>2024-06-13T09:40:12.646Z</time>
      </trkpt>
      <trkpt lat="48.40413" lon="2.42709">
        <ele>105.81</ele>
        <time>2024-06-13T09:40:17.111Z</time>
      </trkpt>
      <trkpt lat="48.40408" lon="2.42698">
        <ele>107.21</ele>
        <time>2024-06-13T09:40:21.577Z</time>
      </trkpt>
      <trkpt lat="48.40406" lon="2.42694">
        <ele>107.69</ele>
        <time>2024-06-13T09:40:26.044Z</time>
      </trkpt>
      <trkpt lat="48.40394" lon="2.4268">
        <ele>110.09</ele>
        <time>2024-06-13T09:40:30.513Z</time>
      </trkpt>
      <trkpt lat="48.40391" lon="2.42676">
        <ele>110.84</ele>
        <time>2024-06-13T09:40:34.983Z</time>
      </trkpt>
      <trkpt lat="48.40384" lon="2.42667">
        <ele>112.46</ele>
        <time>2024-06-13T09:40:39.454Z</time>
      </trkpt>
      <trkpt lat="48.4038" lon="2.42663">
        <ele>113.34</ele>
        <time>2024-06-13T09:40:43.926Z</time>
      </trkpt>
      <trkpt lat="48.40379" lon="2.4265">
        <ele>115.05</ele>
        <time>2024-06-13T09:40:48.399Z</time>
      </trkpt>
      <trkpt lat="48.40379" lon="2.42643">
        <ele>115.88</ele>
        <time>2024-06-13T09:40:52.873Z</time>
      </trkpt>
      <trkpt lat="48.40378" lon="2.42636">
        <ele>116.67</ele>
        <time>2024-06-13T09:40:57.348Z</time>
      </trkpt>
      <trkpt lat="48.40378" lon="2.4263">
        <ele>117.39</ele>
        <time>2024-06-13T09:41:01.823Z</time>
      </trkpt>
      <trkpt lat="48.40377" lon="2.42623">
        <ele>118.05</ele>
        <time>2024-06-13T09:41:06.299Z</time>
      </trkpt>
      <trkpt lat="48.40377" lon="2.42616">
        <ele>118.66</ele>
        <time>2024-06-13T09:41:10.776Z</time>
      </trkpt>
      <trkpt lat="48.4038" lon="2.42603">
        <ele>119.78</ele>
        <time>2024-06-13T09:41:15.254Z</time>
      </trkpt>
      <trkpt lat="48.40381" lon="2.42597">
        <ele>120.29</ele>
        <time>2024-06-13T09:41:19.733Z</time>
      </trkpt>
      <trkpt lat="48.40382" lon="2.4259">
        <ele>120.76</ele>
        <time>2024-06-13T09:41:24.213Z</time>
      </trkpt>
      <trkpt lat="48.40385" lon="2.42577">
        <ele>121.59</ele>
        <time>2024-06-13T09:41:28.694Z</time>
      </trkpt>
      <trkpt lat="48.40386" lon="2.42571">
        <ele>121.95</ele>
        <time>2024-06-13T09:41:33.176Z</time>
      </trkpt>
      <trkpt lat="48.40389" lon="2.42558">
        <ele>122.61</ele>
        <time>2024-06-13T09:41:37.659Z</time>
      </trkpt>
      <trkpt lat="48.40392" lon="2.42544">
        <ele>123.27</ele>
        <time>2024-06-13T09:41:42.144Z</time>
      </trkpt>
      <trkpt lat="48.40392" lon="2.42538">
        <ele>123.53</ele>
        <time>2024-06-13T09:41:46.630Z</time>
      </trkpt>
      <trkpt lat="48.40392" lon="2.42532">
        <ele>123.8</ele>
        <time>2024-06-13T09:41:51.116Z</time>
      </trkpt>
      <trkpt lat="48.40392" lon="2.42524">
        <ele>124.03</ele>
        <time>2024-06-13T09:41:55.603Z</time>
      </trkpt>
      <trkpt lat="48.40389" lon="2.42521">
        <ele>124.2</ele>
        <time>2024-06-13T09:42:00.091Z</time>
      </trkpt>
      <trkpt lat="48.40385" lon="2.42518">
        <ele>124.31</ele>
        <time>2024-06-13T09:42:04.579Z</time>
      </trkpt>
      <trkpt lat="48.40381" lon="2.42514">
        <ele>124.37</ele>
        <time>2024-06-13T09:42:09.068Z</time>
      </trkpt>
      <trkpt lat="48.40377" lon="2.42511">
        <ele>124.39</ele>
        <time>2024-06-13T09:42:13.558Z</time>
      </trkpt>
      <trkpt lat="48.40375" lon="2.42509">
        <ele>124.37</ele>
        <time>2024-06-13T09:42:18.048Z</time>
      </trkpt>
      <trkpt lat="48.40374" lon="2.42493">
        <ele>124.31</ele>
        <time>2024-06-13T09:42:22.540Z</time>
      </trkpt>
      <trkpt lat="48.40374" lon="2.42473">
        <ele>124.31</ele>
        <time>2024-06-13T09:42:27.034Z</time>
      </trkpt>
      <trkpt lat="48.40373" lon="2.42467">
        <ele>124.34</ele>
        <time>2024-06-13T09:42:31.529Z</time>
      </trkpt>
      <trkpt lat="48.40373" lon="2.42457">
        <ele>124.4</ele>
        <time>2024-06-13T09:42:36.025Z</time>
      </trkpt>
      <trkpt lat="48.40375" lon="2.42454">
        <ele>124.43</ele>
        <time>2024-06-13T09:42:40.521Z</time>
      </trkpt>
      <trkpt lat="48.40384" lon="2.4244">
        <ele>124.62</ele>
        <time>2024-06-13T09:42:45.019Z</time>
      </trkpt>
      <trkpt lat="48.4039" lon="2.42431">
        <ele>124.72</ele>
        <time>2024-06-13T09:42:49.519Z</time>
      </trkpt>
      <trkpt lat="48.40399" lon="2.42417">
        <ele>124.8</ele>
        <time>2024-06-13T09:42:54.021Z</time>
      </trkpt>
      <trkpt lat="48.40405" lon="2.42408">
        <ele>124.83</ele>
        <time>2024-06-13T09:42:58.524Z</time>
      </trkpt>
      <trkpt lat="48.40406" lon="2.42388">
        <ele>124.88</ele>
        <time>2024-06-13T09:43:03.029Z</time>
      </trkpt>
      <trkpt lat="48.40406" lon="2.42384">
        <ele>124.91</ele>
        <time>2024-06-13T09:43:07.535Z</time>
      </trkpt>
      <trkpt lat="48.40406" lon="2.42364">
        <ele>125.07</ele>
        <time>2024-06-13T09:43:12.043Z</time>
      </trkpt>
      <trkpt lat="48.40406" lon="2.42361">
        <ele>125.11</ele>
        <time>2024-06-13T09:43:16.551Z</time>
      </trkpt>
      <trkpt lat="48.40402" lon="2.42332">
        <ele>125.53</ele>
        <time>2024-06-13T09:43:21.062Z</time>
      </trkpt>
      <trkpt lat="48.40399" lon="2.42312">
        <ele>125.76</ele>
        <time>2024-06-13T09:43:25.575Z</time>
      </trkpt>
      <trkpt lat="48.40393" lon="2.42266">
        <ele>126.15</ele>
        <time>2024-06-13T09:43:30.093Z</time>
      </trkpt>
      <trkpt lat="48.40386" lon="2.42214">
        <ele>126.55</ele>
        <time>2024-06-13T09:43:34.617Z</time>
      </trkpt>
      <trkpt lat="48.40382" lon="2.42182">
        <ele>126.84</ele>
        <time>2024-06-13T09:43:39.145Z</time>
      </trkpt>
      <trkpt lat="48.40381" lon="2.42178">
        <ele>126.85</ele>
        <time>2024-06-13T09:43:43.673Z</time>
      </trkpt>
      <trkpt lat="48.40354" lon="2.4219">
        <ele>127.04</ele>
        <time>2024-06-13T09:43:48.206Z</time>
      </trkpt>
      <trkpt lat="48.40336" lon="2.42188">
        <ele>127.16</ele>
        <time>2024-06-13T09:43:52.742Z</time>
      </trkpt>
      <trkpt lat="48.40283" lon="2.4218">
        <ele>127.28</ele>
        <time>2024-06-13T09:43:57.286Z</time>
      </trkpt>
      <trkpt lat="48.4026" lon="2.42177">
        <ele>127.36</ele>
        <time>2024-06-13T09:44:01.834Z</time>
      </trkpt>
      <trkpt lat="48.40238" lon="2.42174">
        <ele>127.47</ele>
        <time>2024-06-13T09:44:06.385Z</time>
      </trkpt>
      <trkpt lat="48.40234" lon="2.42174">
        <ele>127.47</ele>
        <time>2024-06-13T09:44:10.937Z</time>
      </trkpt>
      <trkpt lat="48.40225" lon="2.42172">
        <ele>127.43</ele>
        <time>2024-06-13T09:44:15.490Z</time>
      </trkpt>
      <trkpt lat="48.40222" lon="2.42172">
        <ele>127.39</ele>
        <time>2024-06-13T09:44:20.044Z</time>
      </trkpt>
      <trkpt lat="48.40205" lon="2.42147">
        <ele>127.14</ele>
        <time>2024-06-13T09:44:24.602Z</time>
      </trkpt>
      <trkpt lat="48.40192" lon="2.42128">
        <ele>127</ele>
        <time>2024-06-13T09:44:29.163Z</time>
      </trkpt>
      <trkpt lat="48.40162" lon="2.42119">
        <ele>126.77</ele>
        <time>2024-06-13T09:44:33.728Z</time>
      </trkpt>
      <trkpt lat="48.40118" lon="2.42107">
        <ele>126.54</ele>
        <time>2024-06-13T09:44:38.301Z</time>
      </trkpt>
      <trkpt lat="48.4011" lon="2.42105">
        <ele>126.52</ele>
        <time>2024-06-13T09:44:42.875Z</time>
      </trkpt>
      <trkpt lat="48.40088" lon="2.42098">
        <ele>126.52</ele>
        <time>2024-06-13T09:44:47.453Z</time>
      </trkpt>
      <trkpt lat="48.40079" lon="2.42096">
        <ele>126.55</ele>
        <time>2024-06-13T09:44:52.032Z</time>
      </trkpt>
      <trkpt lat="48.40044" lon="2.42086">
        <ele>126.81</ele>
        <time>2024-06-13T09:44:56.617Z</time>
      </trkpt>
      <trkpt lat="48.40018" lon="2.42078">
        <ele>127.1</ele>
        <time>2024-06-13T09:45:01.206Z</time>
      </trkpt>
      <trkpt lat="48.40005" lon="2.42075">
        <ele>127.29</ele>
        <time>2024-06-13T09:45:05.797Z</time>
      </trkpt>
      <trkpt lat="48.39974" lon="2.42066">
        <ele>127.93</ele>
        <time>2024-06-13T09:45:10.393Z</time>
      </trkpt>
      <trkpt lat="48.39971" lon="2.42065">
        <ele>127.93</ele>
        <time>2024-06-13T09:45:14.990Z</time>
      </trkpt>
      <trkpt lat="48.39965" lon="2.42084">
        <ele>127.96</ele>
        <time>2024-06-13T09:45:19.589Z</time>
      </trkpt>
      <trkpt lat="48.39959" lon="2.42102">
        <ele>127.95</ele>
        <time>2024-06-13T09:45:24.190Z</time>
      </trkpt>
      <trkpt lat="48.3994" lon="2.42131">
        <ele>127.94</ele>
        <time>2024-06-13T09:45:28.795Z</time>
      </trkpt>
      <trkpt lat="48.39937" lon="2.42136">
        <ele>127.92</ele>
        <time>2024-06-13T09:45:33.401Z</time>
      </trkpt>
      <trkpt lat="48.39924" lon="2.42156">
        <ele>127.87</ele>
        <time>2024-06-13T09:45:38.010Z</time>
      </trkpt>
      <trkpt lat="48.39891" lon="2.4219">
        <ele>127.77</ele>
        <time>2024-06-13T09:45:42.625Z</time>
      </trkpt>
      <trkpt lat="48.39885" lon="2.42196">
        <ele>127.76</ele>
        <time>2024-06-13T09:45:47.242Z</time>
      </trkpt>
      <trkpt lat="48.39857" lon="2.42207">
        <ele>127.75</ele>
        <time>2024-06-13T09:45:51.863Z</time>
      </trkpt>
      <trkpt lat="48.39849" lon="2.42211">
        <ele>127.78</ele>
        <time>2024-06-13T09:45:56.486Z</time>
      </trkpt>
      <trkpt lat="48.3984" lon="2.42215">
        <ele>127.84</ele>
        <time>2024-06-13T09:46:01.110Z</time>
      </trkpt>
      <trkpt lat="48.39823" lon="2.42222">
        <ele>128.05</ele>
        <time>2024-06-13T09:46:05.737Z</time>
      </trkpt>
      <trkpt lat="48.3981" lon="2.42227">
        <ele>128.15</ele>
        <time>2024-06-13T09:46:10.366Z</time>
      </trkpt>
      <trkpt lat="48.3978" lon="2.42232">
        <ele>128.38</ele>
        <time>2024-06-13T09:46:15.000Z</time>
      </trkpt>
      <trkpt lat="48.39776" lon="2.42233">
        <ele>128.38</ele>
        <time>2024-06-13T09:46:19.634Z</time>
      </trkpt>
      <trkpt lat="48.39767" lon="2.42232">
        <ele>128.4</ele>
        <time>2024-06-13T09:46:24.270Z</time>
      </trkpt>
      <trkpt lat="48.39759" lon="2.42231">
        <ele>128.42</ele>
        <time>2024-06-13T09:46:28.907Z</time>
      </trkpt>
      <trkpt lat="48.39736" lon="2.42234">
        <ele>128.49</ele>
        <time>2024-06-13T09:46:33.548Z</time>
      </trkpt>
      <trkpt lat="48.39723" lon="2.42236">
        <ele>128.57</ele>
        <time>2024-06-13T09:46:38.191Z</time>
      </trkpt>
      <trkpt lat="48.39719" lon="2.42236">
        <ele>128.65</ele>
        <time>2024-06-13T09:46:42.835Z</time>
      </trkpt>
      <trkpt lat="48.3971" lon="2.42236">
        <ele>128.86</ele>
        <time>2024-06-13T09:46:47.480Z</time>
      </trkpt>
      <trkpt lat="48.39698" lon="2.42235">
        <ele>129.13</ele>
        <time>2024-06-13T09:46:52.127Z</time>
      </trkpt>
      <trkpt lat="48.39694" lon="2.42235">
        <ele>129.15</ele>
        <time>2024-06-13T09:46:56.775Z</time>
      </trkpt>
      <trkpt lat="48.39688" lon="2.42223">
        <ele>129.21</ele>
        <time>2024-06-13T09:47:01.424Z</time>
      </trkpt>
      <trkpt lat="48.39682" lon="2.4222">
        <ele>129.25</ele>
        <time>2024-06-13T09:47:06.074Z</time>
      </trkpt>
      <trkpt lat="48.3968" lon="2.42219">
        <ele>129.22</ele>
        <time>2024-06-13T09:47:10.725Z</time>
      </trkpt>
      <trkpt lat="48.39676" lon="2.42217">
        <ele>129.22</ele>
        <time>2024-06-13T09:47:15.376Z</time>
      </trkpt>
      <trkpt lat="48.39672" lon="2.42218">
        <ele>129.24</ele>
        <time>2024-06-13T09:47:20.028Z</time>
      </trkpt>
      <trkpt lat="48.39668" lon="2.4222">
        <ele>129.21</ele>
        <time>2024-06-13T09:47:24.681Z</time>
      </trkpt>
      <trkpt lat="48.39665" lon="2.42223">
        <ele>129.2</ele>
        <time>2024-06-13T09:47:29.334Z</time>
      </trkpt>
      <trkpt lat="48.39661" lon="2.42226">
        <ele>129.18</ele>
        <time>2024-06-13T09:47:33.988Z</time>
      </trkpt>
      <trkpt lat="48.39658" lon="2.42235">
        <ele>129.15</ele>
        <time>2024-06-13T09:47:38.643Z</time>
      </trkpt>
      <trkpt lat="48.39657" lon="2.42252">
        <ele>129.1</ele>
        <time>2024-06-13T09:47:43.300Z</time>
      </trkpt>
      <trkpt lat="48.39653" lon="2.42258">
        <ele>129.08</ele>
        <time>2024-06-13T09:47:47.958Z</time>
      </trkpt>
      <trkpt lat="48.3965" lon="2.42263">
        <ele>129.1</ele>
        <time>2024-06-13T09:47:52.616Z</time>
      </trkpt>
      <trkpt lat="48.39652" lon="2.42268">
        <ele>129.13</ele>
        <time>2024-06-13T09:47:57.275Z</time>
      </trkpt>
      <trkpt lat="48.39655" lon="2.42274">
        <ele>129.08</ele>
        <time>2024-06-13T09:48:01.935Z</time>
      </trkpt>
      <trkpt lat="48.39664" lon="2.42286">
        <ele>128.97</ele>
        <time>2024-06-13T09:48:06.597Z</time>
      </trkpt>
      <trkpt lat="48.39669" lon="2.42297">
        <ele>128.89</ele>
        <time>2024-06-13T09:48:11.260Z</time>
      </trkpt>
      <trkpt lat="48.3967" lon="2.4231">
        <ele>128.81</ele>
        <time>2024-06-13T09:48:15.925Z</time>
      </trkpt>
      <trkpt lat="48.39672" lon="2.42329">
        <ele>128.75</ele>
        <time>2024-06-13T09:48:20.592Z</time>
      </trkpt>
      <trkpt lat="48.39674" lon="2.42347">
        <ele>128.73</ele>
        <time>2024-06-13T09:48:25.261Z</time>
      </trkpt>
      <trkpt lat="48.39681" lon="2.42421">
        <ele>128.47</ele>
        <time>2024-06-13T09:48:29.937Z</time>
      </trkpt>
      <trkpt lat="48.39682" lon="2.42435">
        <ele>128.43</ele>
        <time>2024-06-13T09:48:34.615Z</time>
      </trkpt>
      <trkpt lat="48.39684" lon="2.42461">
        <ele>128.37</ele>
        <time>2024-06-13T09:48:39.296Z</time>
      </trkpt>
      <trkpt lat="48.39685" lon="2.42475">
        <ele>128.3</ele>
        <time>2024-06-13T09:48:43.978Z</time>
      </trkpt>
      <trkpt lat="48.39687" lon="2.42508">
        <ele>128.05</ele>
        <time>2024-06-13T09:48:48.664Z</time>
      </trkpt>
      <trkpt lat="48.39689" lon="2.42535">
        <ele>127.95</ele>
        <time>2024-06-13T09:48:53.353Z</time>
      </trkpt>
      <trkpt lat="48.3969" lon="2.42548">
        <ele>127.88</ele>
        <time>2024-06-13T09:48:58.043Z</time>
      </trkpt>
      <trkpt lat="48.39694" lon="2.42616">
        <ele>127.44</ele>
        <time>2024-06-13T09:49:02.740Z</time>
      </trkpt>
      <trkpt lat="48.39696" lon="2.42649">
        <ele>127.3</ele>
        <time>2024-06-13T09:49:07.441Z</time>
      </trkpt>
      <trkpt lat="48.39699" lon="2.42683">
        <ele>127.11</ele>
        <time>2024-06-13T09:49:12.146Z</time>
      </trkpt>
      <trkpt lat="48.39701" lon="2.42716">
        <ele>127.01</ele>
        <time>2024-06-13T09:49:16.854Z</time>
      </trkpt>
      <trkpt lat="48.39702" lon="2.4273">
        <ele>126.93</ele>
        <time>2024-06-13T09:49:21.564Z</time>
      </trkpt>
      <trkpt lat="48.39706" lon="2.42794">
        <ele>126.4</ele>
        <time>2024-06-13T09:49:26.280Z</time>
      </trkpt>
      <trkpt lat="48.39705" lon="2.4281">
        <ele>126.27</ele>
        <time>2024-06-13T09:49:30.998Z</time>
      </trkpt>
      <trkpt lat="48.39705" lon="2.42837">
        <ele>126.09</ele>
        <time>2024-06-13T09:49:35.719Z</time>
      </trkpt>
      <trkpt lat="48.39704" lon="2.42857">
        <ele>125.92</ele>
        <time>2024-06-13T09:49:40.442Z</time>
      </trkpt>
      <trkpt lat="48.39704" lon="2.42857">
        <ele>125.92</ele>
        <time>2024-06-13T09:49:45.165Z</time>
      </trkpt>
      <trkpt lat="48.39702" lon="2.42877">
        <ele>125.74</ele>
        <time>2024-06-13T09:49:49.890Z</time>
      </trkpt>
      <trkpt lat="48.39698" lon="2.42906">
        <ele>125.41</ele>
        <time>2024-06-13T09:49:54.619Z</time>
      </trkpt>
      <trkpt lat="48.39697" lon="2.4291">
        <ele>125.37</ele>
        <time>2024-06-13T09:49:59.348Z</time>
      </trkpt>
      <trkpt lat="48.39689" lon="2.42946">
        <ele>125.04</ele>
        <time>2024-06-13T09:50:04.081Z</time>
      </trkpt>
      <trkpt lat="48.39686" lon="2.42954">
        <ele>124.96</ele>
        <time>2024-06-13T09:50:08.815Z</time>
      </trkpt>
      <trkpt lat="48.39682" lon="2.42966">
        <ele>124.86</ele>
        <time>2024-06-13T09:50:13.550Z</time>
      </trkpt>
      <trkpt lat="48.39674" lon="2.4299">
        <ele>124.69</ele>
        <time>2024-06-13T09:50:18.288Z</time>
      </trkpt>
      <trkpt lat="48.39671" lon="2.42996">
        <ele>124.65</ele>
        <time>2024-06-13T09:50:23.027Z</time>
      </trkpt>
      <trkpt lat="48.39666" lon="2.43007">
        <ele>124.52</ele>
        <time>2024-06-13T09:50:27.768Z</time>
      </trkpt>
      <trkpt lat="48.39655" lon="2.43029">
        <ele>124.21</ele>
        <time>2024-06-13T09:50:32.511Z</time>
      </trkpt>
      <trkpt lat="48.39648" lon="2.43045">
        <ele>124</ele>
        <time>2024-06-13T09:50:37.257Z</time>
      </trkpt>
      <trkpt lat="48.39637" lon="2.43067">
        <ele>123.67</ele>
        <time>2024-06-13T09:50:42.005Z</time>
      </trkpt>
      <trkpt lat="48.39633" lon="2.43075">
        <ele>123.57</ele>
        <time>2024-06-13T09:50:46.754Z</time>
      </trkpt>
      <trkpt lat="48.39632" lon="2.43078">
        <ele>123.55</ele>
        <time>2024-06-13T09:50:51.504Z</time>
      </trkpt>
      <trkpt lat="48.39622" lon="2.43101">
        <ele>123.35</ele>
        <time>2024-06-13T09:50:56.257Z</time>
      </trkpt>
      <trkpt lat="48.39613" lon="2.43123">
        <ele>123.07</ele>
        <time>2024-06-13T09:51:01.013Z</time>
      </trkpt>
      <trkpt lat="48.39603" lon="2.43146">
        <ele>122.84</ele>
        <time>2024-06-13T09:51:05.771Z</time>
      </trkpt>
      <trkpt lat="48.39601" lon="2.43152">
        <ele>122.84</ele>
        <time>2024-06-13T09:51:10.530Z</time>
      </trkpt>
      <trkpt lat="48.39588" lon="2.43154">
        <ele>122.88</ele>
        <time>2024-06-13T09:51:15.291Z</time>
      </trkpt>
      <trkpt lat="48.39584" lon="2.43154">
        <ele>122.88</ele>
        <time>2024-06-13T09:51:20.053Z</time>
      </trkpt>
      <trkpt lat="48.39579" lon="2.43153">
        <ele>122.88</ele>
        <time>2024-06-13T09:51:24.816Z</time>
      </trkpt>
      <trkpt lat="48.39569" lon="2.43151">
        <ele>122.85</ele>
        <time>2024-06-13T09:51:29.580Z</time>
      </trkpt>
      <trkpt lat="48.39557" lon="2.43147">
        <ele>122.82</ele>
        <time>2024-06-13T09:51:34.346Z</time>
      </trkpt>
      <trkpt lat="48.39555" lon="2.43146">
        <ele>122.8</ele>
        <time>2024-06-13T09:51:39.113Z</time>
      </trkpt>
      <trkpt lat="48.39549" lon="2.43142">
        <ele>122.76</ele>
        <time>2024-06-13T09:51:43.881Z</time>
      </trkpt>
      <trkpt lat="48.3954" lon="2.43137">
        <ele>122.66</ele>
        <time>2024-06-13T09:51:48.650Z</time>
      </trkpt>
      <trkpt lat="48.39532" lon="2.43132">
        <ele>122.52</ele>
        <time>2024-06-13T09:51:53.421Z</time>
      </trkpt>
      <trkpt lat="48.39524" lon="2.43127">
        <ele>122.35</ele>
        <time>2024-06-13T09:51:58.193Z</time>
      </trkpt>
      <trkpt lat="48.39522" lon="2.43126">
        <ele>122.3</ele>
        <time>2024-06-13T09:52:02.965Z</time>
      </trkpt>
      <trkpt lat="48.39504" lon="2.43113">
        <ele>121.89</ele>
        <time>2024-06-13T09:52:07.741Z</time>
      </trkpt>
      <trkpt lat="48.39504" lon="2.43113">
        <ele>121.89</ele>
        <time>2024-06-13T09:52:12.517Z</time>
      </trkpt>
      <trkpt lat="48.3949" lon="2.43097">
        <ele>121.59</ele>
        <time>2024-06-13T09:52:17.295Z</time>
      </trkpt>
      <trkpt lat="48.39487" lon="2.43091">
        <ele>121.51</ele>
        <time>2024-06-13T09:52:22.074Z</time>
      </trkpt>
      <trkpt lat="48.39484" lon="2.43084">
        <ele>121.43</ele>
        <time>2024-06-13T09:52:26.854Z</time>
      </trkpt>
      <trkpt lat="48.39483" lon="2.4308">
        <ele>121.4</ele>
        <time>2024-06-13T09:52:31.635Z</time>
      </trkpt>
      <trkpt lat="48.39479" lon="2.43064">
        <ele>121.29</ele>
        <time>2024-06-13T09:52:36.417Z</time>
      </trkpt>
      <trkpt lat="48.39475" lon="2.43056">
        <ele>121.23</ele>
        <time>2024-06-13T09:52:41.200Z</time>
      </trkpt>
      <trkpt lat="48.39469" lon="2.43041">
        <ele>121.09</ele>
        <time>2024-06-13T09:52:45.985Z</time>
      </trkpt>
      <trkpt lat="48.39467" lon="2.4304">
        <ele>121.08</ele>
        <time>2024-06-13T09:52:50.771Z</time>
      </trkpt>
      <trkpt lat="48.39466" lon="2.4304">
        <ele>121.06</ele>
        <time>2024-06-13T09:52:55.557Z</time>
      </trkpt>
      <trkpt lat="48.39461" lon="2.43042">
        <ele>120.99</ele>
        <time>2024-06-13T09:53:00.344Z</time>
      </trkpt>
      <trkpt lat="48.39461" lon="2.43045">
        <ele>120.97</ele>
        <time>2024-06-13T09:53:05.131Z</time>
      </trkpt>
      <trkpt lat="48.3946" lon="2.43064">
        <ele>120.78</ele>
        <time>2024-06-13T09:53:09.920Z</time>
      </trkpt>
      <trkpt lat="48.3946" lon="2.43069">
        <ele>120.62</ele>
        <time>2024-06-13T09:53:14.709Z</time>
      </trkpt>
      <trkpt lat="48.39461" lon="2.4309">
        <ele>119.99</ele>
        <time>2024-06-13T09:53:19.501Z</time>
      </trkpt>
      <trkpt lat="48.39463" lon="2.43124">
        <ele>119.07</ele>
        <time>2024-06-13T09:53:24.296Z</time>
      </trkpt>
      <trkpt lat="48.39465" lon="2.43158">
        <ele>118.17</ele>
        <time>2024-06-13T09:53:29.095Z</time>
      </trkpt>
      <trkpt lat="48.39468" lon="2.43191">
        <ele>117.17</ele>
        <time>2024-06-13T09:53:33.898Z</time>
      </trkpt>
      <trkpt lat="48.39469" lon="2.43205">
        <ele>116.8</ele>
        <time>2024-06-13T09:53:38.702Z</time>
      </trkpt>
      <trkpt lat="48.39471" lon="2.43218">
        <ele>116.46</ele>
        <time>2024-06-13T09:53:43.507Z</time>
      </trkpt>
      <trkpt lat="48.39474" lon="2.43251">
        <ele>115.73</ele>
        <time>2024-06-13T09:53:48.316Z</time>
      </trkpt>
      <trkpt lat="48.39475" lon="2.43263">
        <ele>115.43</ele>
        <time>2024-06-13T09:53:53.126Z</time>
      </trkpt>
      <trkpt lat="48.39479" lon="2.43284">
        <ele>114.88</ele>
        <time>2024-06-13T09:53:57.939Z</time>
      </trkpt>
      <trkpt lat="48.39483" lon="2.43301">
        <ele>114.38</ele>
        <time>2024-06-13T09:54:02.754Z</time>
      </trkpt>
      <trkpt lat="48.39495" lon="2.4334">
        <ele>113.2</ele>
        <time>2024-06-13T09:54:07.573Z</time>
      </trkpt>
      <trkpt lat="48.39503" lon="2.43367">
        <ele>112.41</ele>
        <time>2024-06-13T09:54:12.395Z</time>
      </trkpt>
      <trkpt lat="48.39506" lon="2.43377">
        <ele>112.12</ele>
        <time>2024-06-13T09:54:17.218Z</time>
      </trkpt>
      <trkpt lat="48.39509" lon="2.4339">
        <ele>111.78</ele>
        <time>2024-06-13T09:54:22.043Z</time>
      </trkpt>
      <trkpt lat="48.3952" lon="2.43434">
        <ele>110.61</ele>
        <time>2024-06-13T09:54:26.873Z</time>
      </trkpt>
      <trkpt lat="48.39537" lon="2.43504">
        <ele>108.88</ele>
        <time>2024-06-13T09:54:31.711Z</time>
      </trkpt>
      <trkpt lat="48.39542" lon="2.43523">
        <ele>108.37</ele>
        <time>2024-06-13T09:54:36.551Z</time>
      </trkpt>
      <trkpt lat="48.3955" lon="2.43539">
        <ele>107.88</ele>
        <time>2024-06-13T09:54:41.393Z</time>
      </trkpt>
      <trkpt lat="48.39558" lon="2.43556">
        <ele>107.31</ele>
        <time>2024-06-13T09:54:46.237Z</time>
      </trkpt>
      <trkpt lat="48.39559" lon="2.43558">
        <ele>107.21</ele>
        <time>2024-06-13T09:54:51.082Z</time>
      </trkpt>
      <trkpt lat="48.39585" lon="2.43594">
        <ele>105.54</ele>
        <time>2024-06-13T09:54:55.932Z</time>
      </trkpt>
      <trkpt lat="48.39588" lon="2.43596">
        <ele>105.4</ele>
        <time>2024-06-13T09:55:00.783Z</time>
      </trkpt>
      <trkpt lat="48.396" lon="2.43605">
        <ele>104.83</ele>
        <time>2024-06-13T09:55:05.636Z</time>
      </trkpt>
      <trkpt lat="48.39612" lon="2.43614">
        <ele>104.31</ele>
        <time>2024-06-13T09:55:10.491Z</time>
      </trkpt>
      <trkpt lat="48.39613" lon="2.43615">
        <ele>104.26</ele>
        <time>2024-06-13T09:55:15.346Z</time>
      </trkpt>
      <trkpt lat="48.3963" lon="2.43633">
        <ele>103.51</ele>
        <time>2024-06-13T09:55:20.205Z</time>
      </trkpt>
      <trkpt lat="48.3964" lon="2.43644">
        <ele>103.02</ele>
        <time>2024-06-13T09:55:25.066Z</time>
      </trkpt>
      <trkpt lat="48.39656" lon="2.43661">
        <ele>102.26</ele>
        <time>2024-06-13T09:55:29.930Z</time>
      </trkpt>
      <trkpt lat="48.39657" lon="2.43663">
        <ele>102.18</ele>
        <time>2024-06-13T09:55:34.794Z</time>
      </trkpt>
      <trkpt lat="48.39671" lon="2.43686">
        <ele>101.39</ele>
        <time>2024-06-13T09:55:39.661Z</time>
      </trkpt>
      <trkpt lat="48.39672" lon="2.43688">
        <ele>101.31</ele>
        <time>2024-06-13T09:55:44.529Z</time>
      </trkpt>
      <trkpt lat="48.39678" lon="2.43713">
        <ele>100.56</ele>
        <time>2024-06-13T09:55:49.399Z</time>
      </trkpt>
      <trkpt lat="48.39679" lon="2.43717">
        <ele>100.44</ele>
        <time>2024-06-13T09:55:54.270Z</time>
      </trkpt>
      <trkpt lat="48.39681" lon="2.43735">
        <ele>99.95</ele>
        <time>2024-06-13T09:55:59.143Z</time>
      </trkpt>
      <trkpt lat="48.39683" lon="2.43764">
        <ele>99.16</ele>
        <time>2024-06-13T09:56:04.019Z</time>
      </trkpt>
      <trkpt lat="48.39684" lon="2.43784">
        <ele>98.66</ele>
        <time>2024-06-13T09:56:08.897Z</time>
      </trkpt>
      <trkpt lat="48.39686" lon="2.43825">
        <ele>97.7</ele>
        <time>2024-06-13T09:56:13.779Z</time>
      </trkpt>
      <trkpt lat="48.3969" lon="2.4385">
        <ele>97.06</ele>
        <time>2024-06-13T09:56:18.664Z</time>
      </trkpt>
      <trkpt lat="48.39693" lon="2.43864">
        <ele>96.71</ele>
        <time>2024-06-13T09:56:23.551Z</time>
      </trkpt>
      <trkpt lat="48.39696" lon="2.43874">
        <ele>96.42</ele>
        <time>2024-06-13T09:56:28.439Z</time>
      </trkpt>
      <trkpt lat="48.39703" lon="2.43894">
        <ele>95.83</ele>
        <time>2024-06-13T09:56:33.329Z</time>
      </trkpt>
      <trkpt lat="48.39706" lon="2.439">
        <ele>95.65</ele>
        <time>2024-06-13T09:56:38.220Z</time>
      </trkpt>
      <trkpt lat="48.39716" lon="2.43922">
        <ele>94.99</ele>
        <time>2024-06-13T09:56:43.114Z</time>
      </trkpt>
      <trkpt lat="48.39721" lon="2.43933">
        <ele>94.62</ele>
        <time>2024-06-13T09:56:48.009Z</time>
      </trkpt>
      <trkpt lat="48.39725" lon="2.43942">
        <ele>94.3</ele>
        <time>2024-06-13T09:56:52.906Z</time>
      </trkpt>
      <trkpt lat="48.39739" lon="2.43963">
        <ele>93.43</ele>
        <time>2024-06-13T09:56:57.806Z</time>
      </trkpt>
      <trkpt lat="48.39745" lon="2.43973">
        <ele>93.06</ele>
        <time>2024-06-13T09:57:02.707Z</time>
      </trkpt>
      <trkpt lat="48.39764" lon="2.44002">
        <ele>92.11</ele>
        <time>2024-06-13T09:57:07.612Z</time>
      </trkpt>
      <trkpt lat="48.39773" lon="2.44017">
        <ele>91.59</ele>
        <time>2024-06-13T09:57:12.520Z</time>
      </trkpt>
      <trkpt lat="48.39798" lon="2.44056">
        <ele>90.07</ele>
        <time>2024-06-13T09:57:17.433Z</time>
      </trkpt>
      <trkpt lat="48.39799" lon="2.44058">
        <ele>89.99</ele>
        <time>2024-06-13T09:57:22.347Z</time>
      </trkpt>
      <trkpt lat="48.39806" lon="2.44072">
        <ele>89.53</ele>
        <time>2024-06-13T09:57:27.263Z</time>
      </trkpt>
      <trkpt lat="48.3981" lon="2.44082">
        <ele>89.24</ele>
        <time>2024-06-13T09:57:32.180Z</time>
      </trkpt>
      <trkpt lat="48.39818" lon="2.4413">
        <ele>88.07</ele>
        <time>2024-06-13T09:57:37.102Z</time>
      </trkpt>
      <trkpt lat="48.39819" lon="2.44135">
        <ele>87.92</ele>
        <time>2024-06-13T09:57:42.025Z</time>
      </trkpt>
      <trkpt lat="48.39824" lon="2.44182">
        <ele>86.65</ele>
        <time>2024-06-13T09:57:46.953Z</time>
      </trkpt>
      <trkpt lat="48.39829" lon="2.44235">
        <ele>85.39</ele>
        <time>2024-06-13T09:57:51.886Z</time>
      </trkpt>
      <trkpt lat="48.39833" lon="2.44275">
        <ele>84.4</ele>
        <time>2024-06-13T09:57:56.824Z</time>
      </trkpt>
      <trkpt lat="48.39838" lon="2.44328">
        <ele>82.99</ele>
        <time>2024-06-13T09:58:01.767Z</time>
      </trkpt>
      <trkpt lat="48.39842" lon="2.44374">
        <ele>81.85</ele>
        <time>2024-06-13T09:58:06.715Z</time>
      </trkpt>
      <trkpt lat="48.39848" lon="2.44434">
        <ele>80.3</ele>
        <time>2024-06-13T09:58:11.670Z</time>
      </trkpt>
      <trkpt lat="48.39852" lon="2.4448">
        <ele>79.05</ele>
        <time>2024-06-13T09:58:16.630Z</time>
      </trkpt>
      <trkpt lat="48.39856" lon="2.4452">
        <ele>78.14</ele>
        <time>2024-06-13T09:58:21.594Z</time>
      </trkpt>
      <trkpt lat="48.39858" lon="2.44539">
        <ele>77.69</ele>
        <time>2024-06-13T09:58:26.560Z</time>
      </trkpt>
      <trkpt lat="48.39859" lon="2.44546">
        <ele>77.52</ele>
        <time>2024-06-13T09:58:31.527Z</time>
      </trkpt>
      <trkpt lat="48.39862" lon="2.44559">
        <ele>77.19</ele>
        <time>2024-06-13T09:58:36.495Z</time>
      </trkpt>
      <trkpt lat="48.39864" lon="2.4457">
        <ele>76.85</ele>
        <time>2024-06-13T09:58:41.465Z</time>
      </trkpt>
      <trkpt lat="48.39865" lon="2.44572">
        <ele>76.79</ele>
        <time>2024-06-13T09:58:46.435Z</time>
      </trkpt>
      <trkpt lat="48.39867" lon="2.44577">
        <ele>76.54</ele>
        <time>2024-06-13T09:58:51.406Z</time>
      </trkpt>
      <trkpt lat="48.3987" lon="2.44583">
        <ele>76.25</ele>
        <time>2024-06-13T09:58:56.377Z</time>
      </trkpt>
      <trkpt lat="48.39877" lon="2.44599">
        <ele>75.28</ele>
        <time>2024-06-13T09:59:01.350Z</time>
      </trkpt>
      <trkpt lat="48.39882" lon="2.4461">
        <ele>74.7</ele>
        <time>2024-06-13T09:59:06.325Z</time>
      </trkpt>
      <trkpt lat="48.3989" lon="2.44627">
        <ele>74.72</ele>
        <time>2024-06-13T09:59:11.302Z</time>
      </trkpt>
      <trkpt lat="48.39893" lon="2.44632">
        <ele>74.7</ele>
        <time>2024-06-13T09:59:16.280Z</time>
      </trkpt>
      <trkpt lat="48.39895" lon="2.44638">
        <ele>74.65</ele>
        <time>2024-06-13T09:59:21.258Z</time>
      </trkpt>
      <trkpt lat="48.39898" lon="2.44643">
        <ele>74.55</ele>
        <time>2024-06-13T09:59:26.237Z</time>
      </trkpt>
      <trkpt lat="48.399" lon="2.44649">
        <ele>74.42</ele>
        <time>2024-06-13T09:59:31.217Z</time>
      </trkpt>
      <trkpt lat="48.39903" lon="2.44654">
        <ele>74.26</ele>
        <time>2024-06-13T09:59:36.198Z</time>
      </trkpt>
      <trkpt lat="48.39908" lon="2.44666">
        <ele>73.91</ele>
        <time>2024-06-13T09:59:41.180Z</time>
      </trkpt>
      <trkpt lat="48.39912" lon="2.44675">
        <ele>73.58</ele>
        <time>2024-06-13T09:59:46.163Z</time>
      </trkpt>
      <trkpt lat="48.39929" lon="2.44709">
        <ele>72.4</ele>
        <time>2024-06-13T09:59:51.151Z</time>
      </trkpt>
      <trkpt lat="48.39953" lon="2.44757">
        <ele>70.81</ele>
        <time>2024-06-13T09:59:56.145Z</time>
      </trkpt>
      <trkpt lat="48.39961" lon="2.44773">
        <ele>70.31</ele>
        <time>2024-06-13T10:00:01.141Z</time>
      </trkpt>
      <trkpt lat="48.39969" lon="2.44789">
        <ele>69.88</ele>
        <time>2024-06-13T10:00:06.139Z</time>
      </trkpt>
      <trkpt lat="48.39973" lon="2.44797">
        <ele>69.7</ele>
        <time>2024-06-13T10:00:11.138Z</time>
      </trkpt>
      <trkpt lat="48.39974" lon="2.448">
        <ele>69.64</ele>
        <time>2024-06-13T10:00:16.138Z</time>
      </trkpt>
      <trkpt lat="48.39979" lon="2.44811">
        <ele>69.43</ele>
        <time>2024-06-13T10:00:21.139Z</time>
      </trkpt>
      <trkpt lat="48.39995" lon="2.44844">
        <ele>68.88</ele>
        <time>2024-06-13T10:00:26.145Z</time>
      </trkpt>
      <trkpt lat="48.40008" lon="2.44871">
        <ele>68.45</ele>
        <time>2024-06-13T10:00:31.154Z</time>
      </trkpt>
      <trkpt lat="48.40018" lon="2.44893">
        <ele>68.08</ele>
        <time>2024-06-13T10:00:36.166Z</time>
      </trkpt>
      <trkpt lat="48.40026" lon="2.4491">
        <ele>67.83</ele>
        <time>2024-06-13T10:00:41.180Z</time>
      </trkpt>
      <trkpt lat="48.40036" lon="2.44932">
        <ele>67.57</ele>
        <time>2024-06-13T10:00:46.197Z</time>
      </trkpt>
      <trkpt lat="48.40046" lon="2.44953">
        <ele>67.38</ele>
        <time>2024-06-13T10:00:51.217Z</time>
      </trkpt>
      <trkpt lat="48.40054" lon="2.4497">
        <ele>67.28</ele>
        <time>2024-06-13T10:00:56.239Z</time>
      </trkpt>
      <trkpt lat="48.40057" lon="2.44975">
        <ele>67.25</ele>
        <time>2024-06-13T10:01:01.262Z</time>
      </trkpt>
      <trkpt lat="48.40065" lon="2.44991">
        <ele>67.19</ele>
        <time>2024-06-13T10:01:06.287Z</time>
      </trkpt>
      <trkpt lat="48.4008" lon="2.45021">
        <ele>67.2</ele>
        <time>2024-06-13T10:01:11.316Z</time>
      </trkpt>
      <trkpt lat="48.40082" lon="2.4503">
        <ele>67.21</ele>
        <time>2024-06-13T10:01:16.346Z</time>
      </trkpt>
      <trkpt lat="48.40085" lon="2.45042">
        <ele>67.22</ele>
        <time>2024-06-13T10:01:21.377Z</time>
      </trkpt>
      <trkpt lat="48.40086" lon="2.45054">
        <ele>67.24</ele>
        <time>2024-06-13T10:01:26.410Z</time>
      </trkpt>
      <trkpt lat="48.40086" lon="2.45056">
        <ele>67.25</ele>
        <time>2024-06-13T10:01:31.443Z</time>
      </trkpt>
      <trkpt lat="48.40084" lon="2.45064">
        <ele>67.25</ele>
        <time>2024-06-13T10:01:36.477Z</time>
      </trkpt>
      <trkpt lat="48.40084" lon="2.45069">
        <ele>67.25</ele>
        <time>2024-06-13T10:01:41.511Z</time>
      </trkpt>
      <trkpt lat="48.40085" lon="2.45074">
        <ele>67.28</ele>
        <time>2024-06-13T10:01:46.546Z</time>
      </trkpt>
      <trkpt lat="48.40084" lon="2.45076">
        <ele>67.3</ele>
        <time>2024-06-13T10:01:51.581Z</time>
      </trkpt>
      <trkpt lat="48.40082" lon="2.4508">
        <ele>67.29</ele>
        <time>2024-06-13T10:01:56.617Z</time>
      </trkpt>
      <trkpt lat="48.40077" lon="2.451">
        <ele>67.27</ele>
        <time>2024-06-13T10:02:01.655Z</time>
      </trkpt>
      <trkpt lat="48.40078" lon="2.45107">
        <ele>67.27</ele>
        <time>2024-06-13T10:02:06.694Z</time>
      </trkpt>
      <trkpt lat="48.40078" lon="2.45113">
        <ele>67.24</ele>
        <time>2024-06-13T10:02:11.733Z</time>
      </trkpt>
      <trkpt lat="48.40082" lon="2.4513">
        <ele>67.16</ele>
        <time>2024-06-13T10:02:16.774Z</time>
      </trkpt>
      <trkpt lat="48.40088" lon="2.4514">
        <ele>67.11</ele>
        <time>2024-06-13T10:02:21.817Z</time>
      </trkpt>
      <trkpt lat="48.40092" lon="2.45144">
        <ele>67.08</ele>
        <time>2024-06-13T10:02:26.860Z</time>
      </trkpt>
      <trkpt lat="48.40095" lon="2.45147">
        <ele>67.04</ele>
        <time>2024-06-13T10:02:31.904Z</time>
      </trkpt>
      <trkpt lat="48.40101" lon="2.45172">
        <ele>66.85</ele>
        <time>2024-06-13T10:02:36.951Z</time>
      </trkpt>
      <trkpt lat="48.40103" lon="2.45185">
        <ele>66.78</ele>
        <time>2024-06-13T10:02:41.999Z</time>
      </trkpt>
      <trkpt lat="48.40109" lon="2.45209">
        <ele>66.72</ele>
        <time>2024-06-13T10:02:47.050Z</time>
      </trkpt>
      <trkpt lat="48.40114" lon="2.45234">
        <ele>66.71</ele>
        <time>2024-06-13T10:02:52.104Z</time>
      </trkpt>
      <trkpt lat="48.40115" lon="2.45236">
        <ele>66.66</ele>
        <time>2024-06-13T10:02:57.158Z</time>
      </trkpt>
      <trkpt lat="48.40118" lon="2.4525">
        <ele>66.51</ele>
        <time>2024-06-13T10:03:02.213Z</time>
      </trkpt>
      <trkpt lat="48.40118" lon="2.4526">
        <ele>66.42</ele>
        <time>2024-06-13T10:03:07.270Z</time>
      </trkpt>
      <trkpt lat="48.40119" lon="2.45293">
        <ele>66.19</ele>
        <time>2024-06-13T10:03:12.330Z</time>
      </trkpt>
      <trkpt lat="48.40119" lon="2.45298">
        <ele>66.16</ele>
        <time>2024-06-13T10:03:17.391Z</time>
      </trkpt>
      <trkpt lat="48.40118" lon="2.45329">
        <ele>66</ele>
        <time>2024-06-13T10:03:22.455Z</time>
      </trkpt>
      <trkpt lat="48.40118" lon="2.4536">
        <ele>65.91</ele>
        <time>2024-06-13T10:03:27.522Z</time>
      </trkpt>
      <trkpt lat="48.40117" lon="2.4538">
        <ele>65.88</ele>
        <time>2024-06-13T10:03:32.591Z</time>
      </trkpt>
      <trkpt lat="48.40117" lon="2.45386">
        <ele>65.86</ele>
        <time>2024-06-13T10:03:37.661Z</time>
      </trkpt>
      <trkpt lat="48.40101" lon="2.45391">
        <ele>65.76</ele>
        <time>2024-06-13T10:03:42.734Z</time>
      </trkpt>
      <trkpt lat="48.40097" lon="2.45392">
        <ele>65.98</ele>
        <time>2024-06-13T10:03:47.807Z</time>
      </trkpt>
      <trkpt lat="48.40088" lon="2.45385">
        <ele>66.05</ele>
        <time>2024-06-13T10:03:52.882Z</time>
      </trkpt>
      <trkpt lat="48.40087" lon="2.45384">
        <ele>66.05</ele>
        <time>2024-06-13T10:03:57.957Z</time>
      </trkpt>
      <trkpt lat="48.40058" lon="2.45381">
        <ele>66.37</ele>
        <time>2024-06-13T10:04:03.037Z</time>
      </trkpt>
      <trkpt lat="48.40021" lon="2.45377">
        <ele>66.72</ele>
        <time>2024-06-13T10:04:08.123Z</time>
      </trkpt>
      <trkpt lat="48.40015" lon="2.45377">
        <ele>66.77</ele>
        <time>2024-06-13T10:04:13.210Z</time>
      </trkpt>
      <trkpt lat="48.39981" lon="2.45373">
        <ele>66.92</ele>
        <time>2024-06-13T10:04:18.302Z</time>
      </trkpt>
      <trkpt lat="48.39961" lon="2.45371">
        <ele>67.04</ele>
        <time>2024-06-13T10:04:23.397Z</time>
      </trkpt>
      <trkpt lat="48.39956" lon="2.45373">
        <ele>67.08</ele>
        <time>2024-06-13T10:04:28.493Z</time>
      </trkpt>
      <trkpt lat="48.39931" lon="2.45383">
        <ele>67.33</ele>
        <time>2024-06-13T10:04:33.593Z</time>
      </trkpt>
      <trkpt lat="48.39901" lon="2.45395">
        <ele>67.42</ele>
        <time>2024-06-13T10:04:38.698Z</time>
      </trkpt>
      <trkpt lat="48.39879" lon="2.454">
        <ele>67.49</ele>
        <time>2024-06-13T10:04:43.807Z</time>
      </trkpt>
      <trkpt lat="48.39872" lon="2.45402">
        <ele>67.54</ele>
        <time>2024-06-13T10:04:48.917Z</time>
      </trkpt>
      <trkpt lat="48.39867" lon="2.45403">
        <ele>67.56</ele>
        <time>2024-06-13T10:04:54.028Z</time>
      </trkpt>
      <trkpt lat="48.3985" lon="2.45406">
        <ele>67.64</ele>
        <time>2024-06-13T10:04:59.142Z</time>
      </trkpt>
      <trkpt lat="48.39823" lon="2.4541">
        <ele>67.83</ele>
        <time>2024-06-13T10:05:04.260Z</time>
      </trkpt>
      <trkpt lat="48.39818" lon="2.45411">
        <ele>67.85</ele>
        <time>2024-06-13T10:05:09.379Z</time>
      </trkpt>
      <trkpt lat="48.39792" lon="2.45417">
        <ele>67.99</ele>
        <time>2024-06-13T10:05:14.502Z</time>
      </trkpt>
      <trkpt lat="48.39786" lon="2.45418">
        <ele>68.04</ele>
        <time>2024-06-13T10:05:19.626Z</time>
      </trkpt>
      <trkpt lat="48.39766" lon="2.45425">
        <ele>68.23</ele>
        <time>2024-06-13T10:05:24.753Z</time>
      </trkpt>
      <trkpt lat="48.39761" lon="2.45426">
        <ele>68.23</ele>
        <time>2024-06-13T10:05:29.881Z</time>
      </trkpt>
      <trkpt lat="48.39718" lon="2.45437">
        <ele>68.32</ele>
        <time>2024-06-13T10:05:35.016Z</time>
      </trkpt>
      <trkpt lat="48.39692" lon="2.45443">
        <ele>68.45</ele>
        <time>2024-06-13T10:05:40.155Z</time>
      </trkpt>
      <trkpt lat="48.39667" lon="2.45449">
        <ele>68.61</ele>
        <time>2024-06-13T10:05:45.298Z</time>
      </trkpt>
      <trkpt lat="48.39665" lon="2.45449">
        <ele>68.62</ele>
        <time>2024-06-13T10:05:50.441Z</time>
      </trkpt>
      <trkpt lat="48.39657" lon="2.45451">
        <ele>68.63</ele>
        <time>2024-06-13T10:05:55.586Z</time>
      </trkpt>
      <trkpt lat="48.39647" lon="2.45452">
        <ele>68.6</ele>
        <time>2024-06-13T10:06:00.732Z</time>
      </trkpt>
      <trkpt lat="48.39644" lon="2.45455">
        <ele>68.59</ele>
        <time>2024-06-13T10:06:05.879Z</time>
      </trkpt>
      <trkpt lat="48.39641" lon="2.45459">
        <ele>68.62</ele>
        <time>2024-06-13T10:06:11.027Z</time>
      </trkpt>
      <trkpt lat="48.39637" lon="2.45452">
        <ele>68.67</ele>
        <time>2024-06-13T10:06:16.176Z</time>
      </trkpt>
      <trkpt lat="48.39634" lon="2.45447">
        <ele>68.72</ele>
        <time>2024-06-13T10:06:21.325Z</time>
      </trkpt>
      <trkpt lat="48.39628" lon="2.45451">
        <ele>68.79</ele>
        <time>2024-06-13T10:06:26.475Z</time>
      </trkpt>
      <trkpt lat="48.39623" lon="2.4545">
        <ele>68.85</ele>
        <time>2024-06-13T10:06:31.626Z</time>
      </trkpt>
      <trkpt lat="48.39603" lon="2.45445">
        <ele>69.11</ele>
        <time>2024-06-13T10:06:36.780Z</time>
      </trkpt>
      <trkpt lat="48.39591" lon="2.4544">
        <ele>69.28</ele>
        <time>2024-06-13T10:06:41.936Z</time>
      </trkpt>
      <trkpt lat="48.3957" lon="2.45432">
        <ele>69.62</ele>
        <time>2024-06-13T10:06:47.096Z</time>
      </trkpt>
      <trkpt lat="48.39498" lon="2.45404">
        <ele>71.05</ele>
        <time>2024-06-13T10:06:52.268Z</time>
      </trkpt>
      <trkpt lat="48.39493" lon="2.45402">
        <ele>70.98</ele>
        <time>2024-06-13T10:06:57.441Z</time>
      </trkpt>
      <trkpt lat="48.39495" lon="2.45435">
        <ele>70.71</ele>
        <time>2024-06-13T10:07:02.617Z</time>
      </trkpt>
      <trkpt lat="48.39496" lon="2.45442">
        <ele>70.66</ele>
        <time>2024-06-13T10:07:07.794Z</time>
      </trkpt>
      <trkpt lat="48.39497" lon="2.45448">
        <ele>70.62</ele>
        <time>2024-06-13T10:07:12.972Z</time>
      </trkpt>
      <trkpt lat="48.39499" lon="2.45461">
        <ele>70.58</ele>
        <time>2024-06-13T10:07:18.151Z</time>
      </trkpt>
      <trkpt lat="48.39501" lon="2.45474">
        <ele>70.58</ele>
        <time>2024-06-13T10:07:23.331Z</time>
      </trkpt>
      <trkpt lat="48.39501" lon="2.45476">
        <ele>70.58</ele>
        <time>2024-06-13T10:07:28.512Z</time>
      </trkpt>
      <trkpt lat="48.39504" lon="2.45487">
        <ele>70.63</ele>
        <time>2024-06-13T10:07:33.694Z</time>
      </trkpt>
      <trkpt lat="48.39507" lon="2.455">
        <ele>70.7</ele>
        <time>2024-06-13T10:07:38.877Z</time>
      </trkpt>
      <trkpt lat="48.39516" lon="2.45538">
        <ele>70.98</ele>
        <time>2024-06-13T10:07:44.065Z</time>
      </trkpt>
      <trkpt lat="48.3952" lon="2.45557">
        <ele>71.05</ele>
        <time>2024-06-13T10:07:49.255Z</time>
      </trkpt>
      <trkpt lat="48.39523" lon="2.45569">
        <ele>71.04</ele>
        <time>2024-06-13T10:07:54.446Z</time>
      </trkpt>
      <trkpt lat="48.39525" lon="2.45576">
        <ele>71.04</ele>
        <time>2024-06-13T10:07:59.638Z</time>
      </trkpt>
      <trkpt lat="48.39539" lon="2.45612">
        <ele>70.9</ele>
        <time>2024-06-13T10:08:04.834Z</time>
      </trkpt>
      <trkpt lat="48.39552" lon="2.45638">
        <ele>70.85</ele>
        <time>2024-06-13T10:08:10.034Z</time>
      </trkpt>
      <trkpt lat="48.39557" lon="2.45649">
        <ele>70.87</ele>
        <time>2024-06-13T10:08:15.235Z</time>
      </trkpt>
      <trkpt lat="48.39565" lon="2.45666">
        <ele>71.02</ele>
        <time>2024-06-13T10:08:20.438Z</time>
      </trkpt>
      <trkpt lat="48.3957" lon="2.45677">
        <ele>71.22</ele>
        <time>2024-06-13T10:08:25.643Z</time>
      </trkpt>
      <trkpt lat="48.39575" lon="2.45688">
        <ele>71.49</ele>
        <time>2024-06-13T10:08:30.849Z</time>
      </trkpt>
      <trkpt lat="48.39578" lon="2.45694">
        <ele>71.91</ele>
        <time>2024-06-13T10:08:36.056Z</time>
      </trkpt>
      <trkpt lat="48.3957" lon="2.45698">
        <ele>72.6</ele>
        <time>2024-06-13T10:08:41.264Z</time>
      </trkpt>
      <trkpt lat="48.39562" lon="2.45703">
        <ele>73.38</ele>
        <time>2024-06-13T10:08:46.474Z</time>
      </trkpt>
      <trkpt lat="48.39554" lon="2.45707">
        <ele>74.21</ele>
        <time>2024-06-13T10:08:51.685Z</time>
      </trkpt>
      <trkpt lat="48.39533" lon="2.45719">
        <ele>76.37</ele>
        <time>2024-06-13T10:08:56.900Z</time>
      </trkpt>
      <trkpt lat="48.39516" lon="2.45728">
        <ele>77.98</ele>
        <time>2024-06-13T10:09:02.118Z</time>
      </trkpt>
      <trkpt lat="48.39508" lon="2.45733">
        <ele>78.76</ele>
        <time>2024-06-13T10:09:07.337Z</time>
      </trkpt>
      <trkpt lat="48.39503" lon="2.45735">
        <ele>79.12</ele>
        <time>2024-06-13T10:09:12.557Z</time>
      </trkpt>
      <trkpt lat="48.395" lon="2.45737">
        <ele>79.38</ele>
        <time>2024-06-13T10:09:17.777Z</time>
      </trkpt>
      <trkpt lat="48.39495" lon="2.45736">
        <ele>79.78</ele>
        <time>2024-06-13T10:09:22.998Z</time>
      </trkpt>
      <trkpt lat="48.3949" lon="2.45735">
        <ele>80.09</ele>
        <time>2024-06-13T10:09:28.220Z</time>
      </trkpt>
      <trkpt lat="48.39487" lon="2.45738">
        <ele>80.36</ele>
        <time>2024-06-13T10:09:33.443Z</time>
      </trkpt>
      <trkpt lat="48.39476" lon="2.4575">
        <ele>81.28</ele>
        <time>2024-06-13T10:09:38.668Z</time>
      </trkpt>
      <trkpt lat="48.39463" lon="2.45763">
        <ele>82.41</ele>
        <time>2024-06-13T10:09:43.895Z</time>
      </trkpt>
      <trkpt lat="48.39462" lon="2.45767">
        <ele>82.62</ele>
        <time>2024-06-13T10:09:49.123Z</time>
      </trkpt>
      <trkpt lat="48.39459" lon="2.45772">
        <ele>82.92</ele>
        <time>2024-06-13T10:09:54.351Z</time>
      </trkpt>
      <trkpt lat="48.39457" lon="2.45778">
        <ele>83.16</ele>
        <time>2024-06-13T10:09:59.580Z</time>
      </trkpt>
      <trkpt lat="48.39456" lon="2.45781">
        <ele>83.23</ele>
        <time>2024-06-13T10:10:04.810Z</time>
      </trkpt>
      <trkpt lat="48.39457" lon="2.45784">
        <ele>83.32</ele>
        <time>2024-06-13T10:10:10.040Z</time>
      </trkpt>
      <trkpt lat="48.3946" lon="2.45789">
        <ele>83.37</ele>
        <time>2024-06-13T10:10:15.271Z</time>
      </trkpt>
      <trkpt lat="48.39463" lon="2.45795">
        <ele>83.34</ele>
        <time>2024-06-13T10:10:20.502Z</time>
      </trkpt>
      <trkpt lat="48.39466" lon="2.45801">
        <ele>83.24</ele>
        <time>2024-06-13T10:10:25.734Z</time>
      </trkpt>
      <trkpt lat="48.39469" lon="2.45803">
        <ele>83.07</ele>
        <time>2024-06-13T10:10:30.967Z</time>
      </trkpt>
      <trkpt lat="48.39474" lon="2.45805">
        <ele>82.83</ele>
        <time>2024-06-13T10:10:36.201Z</time>
      </trkpt>
      <trkpt lat="48.39478" lon="2.45807">
        <ele>82.52</ele>
        <time>2024-06-13T10:10:41.435Z</time>
      </trkpt>
      <trkpt lat="48.39479" lon="2.45808">
        <ele>82.42</ele>
        <time>2024-06-13T10:10:46.669Z</time>
      </trkpt>
      <trkpt lat="48.39477" lon="2.45812">
        <ele>82.13</ele>
        <time>2024-06-13T10:10:51.904Z</time>
      </trkpt>
      <trkpt lat="48.39475" lon="2.45819">
        <ele>81.68</ele>
        <time>2024-06-13T10:10:57.140Z</time>
      </trkpt>
      <trkpt lat="48.39476" lon="2.45825">
        <ele>81.16</ele>
        <time>2024-06-13T10:11:02.376Z</time>
      </trkpt>
      <trkpt lat="48.39476" lon="2.45832">
        <ele>80.61</ele>
        <time>2024-06-13T10:11:07.613Z</time>
      </trkpt>
      <trkpt lat="48.39477" lon="2.45838">
        <ele>80.03</ele>
        <time>2024-06-13T10:11:12.851Z</time>
      </trkpt>
      <trkpt lat="48.39479" lon="2.45858">
        <ele>78.19</ele>
        <time>2024-06-13T10:11:18.091Z</time>
      </trkpt>
      <trkpt lat="48.3948" lon="2.45865">
        <ele>77.64</ele>
        <time>2024-06-13T10:11:23.332Z</time>
      </trkpt>
      <trkpt lat="48.39481" lon="2.45872">
        <ele>77.15</ele>
        <time>2024-06-13T10:11:28.573Z</time>
      </trkpt>
      <trkpt lat="48.39481" lon="2.45876">
        <ele>76.87</ele>
        <time>2024-06-13T10:11:33.815Z</time>
      </trkpt>
      <trkpt lat="48.39481" lon="2.45878">
        <ele>76.73</ele>
        <time>2024-06-13T10:11:39.057Z</time>
      </trkpt>
      <trkpt lat="48.3948" lon="2.45885">
        <ele>76.36</ele>
        <time>2024-06-13T10:11:44.300Z</time>
      </trkpt>
      <trkpt lat="48.39479" lon="2.45892">
        <ele>76.04</ele>
        <time>2024-06-13T10:11:49.544Z</time>
      </trkpt>
      <trkpt lat="48.39477" lon="2.45912">
        <ele>75.17</ele>
        <time>2024-06-13T10:11:54.790Z</time>
      </trkpt>
      <trkpt lat="48.39476" lon="2.45921">
        <ele>74.79</ele>
        <time>2024-06-13T10:12:00.037Z</time>
      </trkpt>
      <trkpt lat="48.39477" lon="2.45925">
        <ele>74.63</ele>
        <time>2024-06-13T10:12:05.284Z</time>
      </trkpt>
      <trkpt lat="48.39479" lon="2.45931">
        <ele>74.39</ele>
        <time>2024-06-13T10:12:10.532Z</time>
      </trkpt>
      <trkpt lat="48.3948" lon="2.45937">
        <ele>74.18</ele>
        <time>2024-06-13T10:12:15.781Z</time>
      </trkpt>
      <trkpt lat="48.39483" lon="2.4595">
        <ele>73.82</ele>
        <time>2024-06-13T10:12:21.031Z</time>
      </trkpt>
      <trkpt lat="48.39485" lon="2.45956">
        <ele>73.68</ele>
        <time>2024-06-13T10:12:26.282Z</time>
      </trkpt>
      <trkpt lat="48.39486" lon="2.4596">
        <ele>73.61</ele>
        <time>2024-06-13T10:12:31.533Z</time>
      </trkpt>
      <trkpt lat="48.39485" lon="2.45962">
        <ele>73.56</ele>
        <time>2024-06-13T10:12:36.785Z</time>
      </trkpt>
      <trkpt lat="48.39482" lon="2.45967">
        <ele>73.48</ele>
        <time>2024-06-13T10:12:42.037Z</time>
      </trkpt>
      <trkpt lat="48.39479" lon="2.45973">
        <ele>73.44</ele>
        <time>2024-06-13T10:12:47.290Z</time>
      </trkpt>
      <trkpt lat="48.39476" lon="2.45978">
        <ele>73.44</ele>
        <time>2024-06-13T10:12:52.544Z</time>
      </trkpt>
      <trkpt lat="48.39473" lon="2.45983">
        <ele>73.48</ele>
        <time>2024-06-13T10:12:57.798Z</time>
      </trkpt>
      <trkpt lat="48.3947" lon="2.45988">
        <ele>73.56</ele>
        <time>2024-06-13T10:13:03.053Z</time>
      </trkpt>
      <trkpt lat="48.39465" lon="2.45998">
        <ele>73.81</ele>
        <time>2024-06-13T10:13:08.310Z</time>
      </trkpt>
      <trkpt lat="48.39462" lon="2.46003">
        <ele>73.95</ele>
        <time>2024-06-13T10:13:13.567Z</time>
      </trkpt>
      <trkpt lat="48.39449" lon="2.46009">
        <ele>74.46</ele>
        <time>2024-06-13T10:13:18.826Z</time>
      </trkpt>
      <trkpt lat="48.39445" lon="2.46011">
        <ele>74.61</ele>
        <time>2024-06-13T10:13:24.086Z</time>
      </trkpt>
      <trkpt lat="48.39445" lon="2.46012">
        <ele>74.61</ele>
        <time>2024-06-13T10:13:29.346Z</time>
      </trkpt>
      <trkpt lat="48.39442" lon="2.46017">
        <ele>74.72</ele>
        <time>2024-06-13T10:13:34.607Z</time>
      </trkpt>
      <trkpt lat="48.39439" lon="2.46023">
        <ele>74.79</ele>
        <time>2024-06-13T10:13:39.869Z</time>
      </trkpt>
      <trkpt lat="48.39437" lon="2.46028">
        <ele>74.82</ele>
        <time>2024-06-13T10:13:45.131Z</time>
      </trkpt>
      <trkpt lat="48.39429" lon="2.46045">
        <ele>74.77</ele>
        <time>2024-06-13T10:13:50.395Z</time>
      </trkpt>
      <trkpt lat="48.39426" lon="2.4605">
        <ele>74.8</ele>
        <time>2024-06-13T10:13:55.660Z</time>
      </trkpt>
      <trkpt lat="48.39425" lon="2.46052">
        <ele>74.83</ele>
        <time>2024-06-13T10:14:00.925Z</time>
      </trkpt>
      <trkpt lat="48.39422" lon="2.46053">
        <ele>74.89</ele>
        <time>2024-06-13T10:14:06.191Z</time>
      </trkpt>
      <trkpt lat="48.39418" lon="2.46054">
        <ele>75.02</ele>
        <time>2024-06-13T10:14:11.458Z</time>
      </trkpt>
      <trkpt lat="48.39413" lon="2.46055">
        <ele>75.21</ele>
        <time>2024-06-13T10:14:16.725Z</time>
      </trkpt>
      <trkpt lat="48.3941" lon="2.46056">
        <ele>75.41</ele>
        <time>2024-06-13T10:14:21.993Z</time>
      </trkpt>
      <trkpt lat="48.39409" lon="2.46055">
        <ele>75.47</ele>
        <time>2024-06-13T10:14:27.261Z</time>
      </trkpt>
      <trkpt lat="48.39406" lon="2.46051">
        <ele>75.78</ele>
        <time>2024-06-13T10:14:32.530Z</time>
      </trkpt>
      <trkpt lat="48.39402" lon="2.46047">
        <ele>76.15</ele>
        <time>2024-06-13T10:14:37.800Z</time>
      </trkpt>
      <trkpt lat="48.39398" lon="2.46043">
        <ele>76.57</ele>
        <time>2024-06-13T10:14:43.070Z</time>
      </trkpt>
      <trkpt lat="48.39384" lon="2.46027">
        <ele>78.4</ele>
        <time>2024-06-13T10:14:48.343Z</time>
      </trkpt>
      <trkpt lat="48.3938" lon="2.46023">
        <ele>78.82</ele>
        <time>2024-06-13T10:14:53.617Z</time>
      </trkpt>
      <trkpt lat="48.39377" lon="2.46019">
        <ele>79.18</ele>
        <time>2024-06-13T10:14:58.892Z</time>
      </trkpt>
      <trkpt lat="48.39373" lon="2.46015">
        <ele>79.48</ele>
        <time>2024-06-13T10:15:04.167Z</time>
      </trkpt>
      <trkpt lat="48.39369" lon="2.46016">
        <ele>79.71</ele>
        <time>2024-06-13T10:15:09.443Z</time>
      </trkpt>
      <trkpt lat="48.39365" lon="2.46016">
        <ele>79.86</ele>
        <time>2024-06-13T10:15:14.720Z</time>
      </trkpt>
      <trkpt lat="48.39365" lon="2.46017">
        <ele>79.9</ele>
        <time>2024-06-13T10:15:19.997Z</time>
      </trkpt>
      <trkpt lat="48.39362" lon="2.4603">
        <ele>80.16</ele>
        <time>2024-06-13T10:15:25.275Z</time>
      </trkpt>
      <trkpt lat="48.39361" lon="2.46037">
        <ele>80.23</ele>
        <time>2024-06-13T10:15:30.554Z</time>
      </trkpt>
      <trkpt lat="48.3936" lon="2.46043">
        <ele>80.27</ele>
        <time>2024-06-13T10:15:35.834Z</time>
      </trkpt>
      <trkpt lat="48.39359" lon="2.4605">
        <ele>80.25</ele>
        <time>2024-06-13T10:15:41.114Z</time>
      </trkpt>
      <trkpt lat="48.39357" lon="2.46056">
        <ele>80.16</ele>
        <time>2024-06-13T10:15:46.395Z</time>
      </trkpt>
      <trkpt lat="48.39357" lon="2.46059">
        <ele>80.09</ele>
        <time>2024-06-13T10:15:51.676Z</time>
      </trkpt>
      <trkpt lat="48.39359" lon="2.46062">
        <ele>80</ele>
        <time>2024-06-13T10:15:56.958Z</time>
      </trkpt>
      <trkpt lat="48.39361" lon="2.46068">
        <ele>79.78</ele>
        <time>2024-06-13T10:16:02.240Z</time>
      </trkpt>
      <trkpt lat="48.39364" lon="2.46073">
        <ele>79.53</ele>
        <time>2024-06-13T10:16:07.523Z</time>
      </trkpt>
      <trkpt lat="48.39361" lon="2.46078">
        <ele>79.28</ele>
        <time>2024-06-13T10:16:12.807Z</time>
      </trkpt>
      <trkpt lat="48.39358" lon="2.46084">
        <ele>79.06</ele>
        <time>2024-06-13T10:16:18.092Z</time>
      </trkpt>
      <trkpt lat="48.39355" lon="2.46089">
        <ele>78.86</ele>
        <time>2024-06-13T10:16:23.377Z</time>
      </trkpt>
      <trkpt lat="48.39353" lon="2.46094">
        <ele>78.7</ele>
        <time>2024-06-13T10:16:28.663Z</time>
      </trkpt>
      <trkpt lat="48.39347" lon="2.46105">
        <ele>78.49</ele>
        <time>2024-06-13T10:16:33.951Z</time>
      </trkpt>
      <trkpt lat="48.39339" lon="2.4612">
        <ele>78.3</ele>
        <time>2024-06-13T10:16:39.241Z</time>
      </trkpt>
      <trkpt lat="48.39336" lon="2.46125">
        <ele>78.26</ele>
        <time>2024-06-13T10:16:44.531Z</time>
      </trkpt>
      <trkpt lat="48.39327" lon="2.4613">
        <ele>78.18</ele>
        <time>2024-06-13T10:16:49.823Z</time>
      </trkpt>
      <trkpt lat="48.39323" lon="2.46132">
        <ele>78.19</ele>
        <time>2024-06-13T10:16:55.116Z</time>
      </trkpt>
      <trkpt lat="48.39319" lon="2.46135">
        <ele>78.25</ele>
        <time>2024-06-13T10:17:00.409Z</time>
      </trkpt>
      <trkpt lat="48.39315" lon="2.46137">
        <ele>78.38</ele>
        <time>2024-06-13T10:17:05.703Z</time>
      </trkpt>
      <trkpt lat="48.3931" lon="2.4614">
        <ele>78.6</ele>
        <time>2024-06-13T10:17:10.998Z</time>
      </trkpt>
      <trkpt lat="48.39306" lon="2.46142">
        <ele>78.91</ele>
        <time>2024-06-13T10:17:16.293Z</time>
      </trkpt>
      <trkpt lat="48.39302" lon="2.46144">
        <ele>79.3</ele>
        <time>2024-06-13T10:17:21.589Z</time>
      </trkpt>
      <trkpt lat="48.39301" lon="2.46145">
        <ele>79.4</ele>
        <time>2024-06-13T10:17:26.885Z</time>
      </trkpt>
      <trkpt lat="48.39299" lon="2.46149">
        <ele>79.74</ele>
        <time>2024-06-13T10:17:32.182Z</time>
      </trkpt>
      <trkpt lat="48.39296" lon="2.46153">
        <ele>80.15</ele>
        <time>2024-06-13T10:17:37.479Z</time>
      </trkpt>
      <trkpt lat="48.39295" lon="2.46154">
        <ele>80.27</ele>
        <time>2024-06-13T10:17:42.777Z</time>
      </trkpt>
      <trkpt lat="48.39292" lon="2.46157">
        <ele>80.66</ele>
        <time>2024-06-13T10:17:48.075Z</time>
      </trkpt>
      <trkpt lat="48.39285" lon="2.46147">
        <ele>81.68</ele>
        <time>2024-06-13T10:17:53.375Z</time>
      </trkpt>
      <trkpt lat="48.39282" lon="2.46142">
        <ele>82.13</ele>
        <time>2024-06-13T10:17:58.675Z</time>
      </trkpt>
      <trkpt lat="48.39279" lon="2.46138">
        <ele>82.55</ele>
        <time>2024-06-13T10:18:03.976Z</time>
      </trkpt>
      <trkpt lat="48.39276" lon="2.46133">
        <ele>82.93</ele>
        <time>2024-06-13T10:18:09.278Z</time>
      </trkpt>
      <trkpt lat="48.39275" lon="2.46132">
        <ele>83</ele>
        <time>2024-06-13T10:18:14.580Z</time>
      </trkpt>
      <trkpt lat="48.39274" lon="2.46127">
        <ele>83.26</ele>
        <time>2024-06-13T10:18:19.883Z</time>
      </trkpt>
      <trkpt lat="48.39273" lon="2.4612">
        <ele>83.54</ele>
        <time>2024-06-13T10:18:25.186Z</time>
      </trkpt>
      <trkpt lat="48.39272" lon="2.46114">
        <ele>83.78</ele>
        <time>2024-06-13T10:18:30.490Z</time>
      </trkpt>
      <trkpt lat="48.39271" lon="2.46107">
        <ele>83.98</ele>
        <time>2024-06-13T10:18:35.795Z</time>
      </trkpt>
      <trkpt lat="48.3927" lon="2.46101">
        <ele>84.15</ele>
        <time>2024-06-13T10:18:41.101Z</time>
      </trkpt>
      <trkpt lat="48.39267" lon="2.46084">
        <ele>84.54</ele>
        <time>2024-06-13T10:18:46.408Z</time>
      </trkpt>
      <trkpt lat="48.39262" lon="2.46079">
        <ele>84.77</ele>
        <time>2024-06-13T10:18:51.716Z</time>
      </trkpt>
      <trkpt lat="48.39258" lon="2.46075">
        <ele>84.97</ele>
        <time>2024-06-13T10:18:57.025Z</time>
      </trkpt>
      <trkpt lat="48.39254" lon="2.46071">
        <ele>85.23</ele>
        <time>2024-06-13T10:19:02.335Z</time>
      </trkpt>
      <trkpt lat="48.3925" lon="2.46067">
        <ele>85.56</ele>
        <time>2024-06-13T10:19:07.646Z</time>
      </trkpt>
      <trkpt lat="48.39252" lon="2.46062">
        <ele>85.98</ele>
        <time>2024-06-13T10:19:12.957Z</time>
      </trkpt>
      <trkpt lat="48.39254" lon="2.46056">
        <ele>86.48</ele>
        <time>2024-06-13T10:19:18.269Z</time>
      </trkpt>
      <trkpt lat="48.39257" lon="2.4605">
        <ele>87.07</ele>
        <time>2024-06-13T10:19:23.582Z</time>
      </trkpt>
      <trkpt lat="48.39261" lon="2.46047">
        <ele>87.61</ele>
        <time>2024-06-13T10:19:28.895Z</time>
      </trkpt>
      <trkpt lat="48.39265" lon="2.46043">
        <ele>88.14</ele>
        <time>2024-06-13T10:19:34.209Z</time>
      </trkpt>
      <trkpt lat="48.39268" lon="2.4604">
        <ele>88.58</ele>
        <time>2024-06-13T10:19:39.524Z</time>
      </trkpt>
      <trkpt lat="48.39272" lon="2.46036">
        <ele>88.89</ele>
        <time>2024-06-13T10:19:44.840Z</time>
      </trkpt>
      <trkpt lat="48.39275" lon="2.46034">
        <ele>89</ele>
        <time>2024-06-13T10:19:50.156Z</time>
      </trkpt>
      <trkpt lat="48.39276" lon="2.46032">
        <ele>89.05</ele>
        <time>2024-06-13T10:19:55.472Z</time>
      </trkpt>
      <trkpt lat="48.39278" lon="2.46026">
        <ele>89.03</ele>
        <time>2024-06-13T10:20:00.789Z</time>
      </trkpt>
      <trkpt lat="48.3928" lon="2.46021">
        <ele>88.85</ele>
        <time>2024-06-13T10:20:06.107Z</time>
      </trkpt>
      <trkpt lat="48.39283" lon="2.46015">
        <ele>88.54</ele>
        <time>2024-06-13T10:20:11.425Z</time>
      </trkpt>
      <trkpt lat="48.39284" lon="2.46011">
        <ele>88.3</ele>
        <time>2024-06-13T10:20:16.744Z</time>
      </trkpt>
      <trkpt lat="48.39289" lon="2.46017">
        <ele>87.8</ele>
        <time>2024-06-13T10:20:22.064Z</time>
      </trkpt>
      <trkpt lat="48.39291" lon="2.4602">
        <ele>87.56</ele>
        <time>2024-06-13T10:20:27.384Z</time>
      </trkpt>
      <trkpt lat="48.3929" lon="2.46022">
        <ele>87.47</ele>
        <time>2024-06-13T10:20:32.705Z</time>
      </trkpt>
      <trkpt lat="48.39289" lon="2.46028">
        <ele>87.19</ele>
        <time>2024-06-13T10:20:38.026Z</time>
      </trkpt>
      <trkpt lat="48.39288" lon="2.4603">
        <ele>87.1</ele>
        <time>2024-06-13T10:20:43.348Z</time>
      </trkpt>
      <trkpt lat="48.39291" lon="2.46032">
        <ele>86.95</ele>
        <time>2024-06-13T10:20:48.670Z</time>
      </trkpt>
      <trkpt lat="48.39295" lon="2.46035">
        <ele>86.75</ele>
        <time>2024-06-13T10:20:53.993Z</time>
      </trkpt>
      <trkpt lat="48.39303" lon="2.46041">
        <ele>86.38</ele>
        <time>2024-06-13T10:20:59.317Z</time>
      </trkpt>
      <trkpt lat="48.39307" lon="2.46039">
        <ele>86.21</ele>
        <time>2024-06-13T10:21:04.642Z</time>
      </trkpt>
      <trkpt lat="48.39316" lon="2.46035">
        <ele>85.81</ele>
        <time>2024-06-13T10:21:09.968Z</time>
      </trkpt>
      <trkpt lat="48.39318" lon="2.46022">
        <ele>85.36</ele>
        <time>2024-06-13T10:21:15.296Z</time>
      </trkpt>
      <trkpt lat="48.39327" lon="2.46008">
        <ele>84.63</ele>
        <time>2024-06-13T10:21:20.626Z</time>
      </trkpt>
      <trkpt lat="48.39327" lon="2.46008">
        <ele>84.63</ele>
        <time>2024-06-13T10:21:25.956Z</time>
      </trkpt>
      <trkpt lat="48.39327" lon="2.46001">
        <ele>84.41</ele>
        <time>2024-06-13T10:21:31.287Z</time>
      </trkpt>
      <trkpt lat="48.39327" lon="2.45994">
        <ele>84.23</ele>
        <time>2024-06-13T10:21:36.618Z</time>
      </trkpt>
      <trkpt lat="48.39327" lon="2.45987">
        <ele>84.08</ele>
        <time>2024-06-13T10:21:41.950Z</time>
      </trkpt>
      <trkpt lat="48.39327" lon="2.45985">
        <ele>84.04</ele>
        <time>2024-06-13T10:21:47.282Z</time>
      </trkpt>
      <trkpt lat="48.39328" lon="2.45981">
        <ele>83.99</ele>
        <time>2024-06-13T10:21:52.615Z</time>
      </trkpt>
      <trkpt lat="48.39329" lon="2.45974">
        <ele>83.94</ele>
        <time>2024-06-13T10:21:57.949Z</time>
      </trkpt>
      <trkpt lat="48.3933" lon="2.45967">
        <ele>83.96</ele>
        <time>2024-06-13T10:22:03.283Z</time>
      </trkpt>
      <trkpt lat="48.3933" lon="2.45965">
        <ele>83.98</ele>
        <time>2024-06-13T10:22:08.618Z</time>
      </trkpt>
      <trkpt lat="48.39333" lon="2.45965">
        <ele>84.03</ele>
        <time>2024-06-13T10:22:13.953Z</time>
      </trkpt>
      <trkpt lat="48.39337" lon="2.45966">
        <ele>84.18</ele>
        <time>2024-06-13T10:22:19.289Z</time>
      </trkpt>
      <trkpt lat="48.39342" lon="2.45967">
        <ele>84.39</ele>
        <time>2024-06-13T10:22:24.626Z</time>
      </trkpt>
      <trkpt lat="48.39343" lon="2.45961">
        <ele>84.66</ele>
        <time>2024-06-13T10:22:29.963Z</time>
      </trkpt>
      <trkpt lat="48.39344" lon="2.45954">
        <ele>84.98</ele>
        <time>2024-06-13T10:22:35.301Z</time>
      </trkpt>
      <trkpt lat="48.39348" lon="2.45928">
        <ele>86.39</ele>
        <time>2024-06-13T10:22:40.642Z</time>
      </trkpt>
      <trkpt lat="48.39349" lon="2.45925">
        <ele>86.55</ele>
        <time>2024-06-13T10:22:45.983Z</time>
      </trkpt>
      <trkpt lat="48.39355" lon="2.4592">
        <ele>87.12</ele>
        <time>2024-06-13T10:22:51.325Z</time>
      </trkpt>
      <trkpt lat="48.39359" lon="2.45916">
        <ele>87.54</ele>
        <time>2024-06-13T10:22:56.668Z</time>
      </trkpt>
      <trkpt lat="48.39363" lon="2.45912">
        <ele>88</ele>
        <time>2024-06-13T10:23:02.012Z</time>
      </trkpt>
      <trkpt lat="48.39364" lon="2.45911">
        <ele>88.18</ele>
        <time>2024-06-13T10:23:07.356Z</time>
      </trkpt>
      <trkpt lat="48.39367" lon="2.45912">
        <ele>88.49</ele>
        <time>2024-06-13T10:23:12.700Z</time>
      </trkpt>
      <trkpt lat="48.39375" lon="2.45917">
        <ele>89.54</ele>
        <time>2024-06-13T10:23:18.046Z</time>
      </trkpt>
      <trkpt lat="48.3938" lon="2.4592">
        <ele>90.04</ele>
        <time>2024-06-13T10:23:23.393Z</time>
      </trkpt>
      <trkpt lat="48.39383" lon="2.45917">
        <ele>90.49</ele>
        <time>2024-06-13T10:23:28.740Z</time>
      </trkpt>
      <trkpt lat="48.39386" lon="2.45912">
        <ele>90.89</ele>
        <time>2024-06-13T10:23:34.088Z</time>
      </trkpt>
      <trkpt lat="48.3939" lon="2.45908">
        <ele>91.21</ele>
        <time>2024-06-13T10:23:39.437Z</time>
      </trkpt>
      <trkpt lat="48.39393" lon="2.45904">
        <ele>91.43</ele>
        <time>2024-06-13T10:23:44.786Z</time>
      </trkpt>
      <trkpt lat="48.39394" lon="2.45903">
        <ele>91.44</ele>
        <time>2024-06-13T10:23:50.136Z</time>
      </trkpt>
      <trkpt lat="48.39397" lon="2.45905">
        <ele>91.5</ele>
        <time>2024-06-13T10:23:55.486Z</time>
      </trkpt>
      <trkpt lat="48.39401" lon="2.45908">
        <ele>91.42</ele>
        <time>2024-06-13T10:24:00.837Z</time>
      </trkpt>
      <trkpt lat="48.39411" lon="2.45914">
        <ele>91</ele>
        <time>2024-06-13T10:24:06.190Z</time>
      </trkpt>
      <trkpt lat="48.39413" lon="2.45911">
        <ele>90.88</ele>
        <time>2024-06-13T10:24:11.543Z</time>
      </trkpt>
      <trkpt lat="48.39417" lon="2.45907">
        <ele>90.8</ele>
        <time>2024-06-13T10:24:16.897Z</time>
      </trkpt>
      <trkpt lat="48.3942" lon="2.45903">
        <ele>90.83</ele>
        <time>2024-06-13T10:24:22.251Z</time>
      </trkpt>
      <trkpt lat="48.39424" lon="2.45898">
        <ele>90.98</ele>
        <time>2024-06-13T10:24:27.606Z</time>
      </trkpt>
      <trkpt lat="48.39427" lon="2.45894">
        <ele>91.22</ele>
        <time>2024-06-13T10:24:32.962Z</time>
      </trkpt>
      <trkpt lat="48.3943" lon="2.45891">
        <ele>91.41</ele>
        <time>2024-06-13T10:24:38.318Z</time>
      </trkpt>
      <trkpt lat="48.3943" lon="2.45889">
        <ele>91.48</ele>
        <time>2024-06-13T10:24:43.675Z</time>
      </trkpt>
      <trkpt lat="48.39429" lon="2.45883">
        <ele>91.71</ele>
        <time>2024-06-13T10:24:49.032Z</time>
      </trkpt>
      <trkpt lat="48.39429" lon="2.45876">
        <ele>91.83</ele>
        <time>2024-06-13T10:24:54.390Z</time>
      </trkpt>
      <trkpt lat="48.39429" lon="2.45876">
        <ele>91.83</ele>
        <time>2024-06-13T10:24:59.748Z</time>
      </trkpt>
      <trkpt lat="48.39424" lon="2.45876">
        <ele>91.83</ele>
        <time>2024-06-13T10:25:05.107Z</time>
      </trkpt>
      <trkpt lat="48.3942" lon="2.45876">
        <ele>91.73</ele>
        <time>2024-06-13T10:25:10.466Z</time>
      </trkpt>
      <trkpt lat="48.3942" lon="2.45876">
        <ele>91.73</ele>
        <time>2024-06-13T10:25:15.825Z</time>
      </trkpt>
      <trkpt lat="48.39416" lon="2.45879">
        <ele>91.56</ele>
        <time>2024-06-13T10:25:21.185Z</time>
      </trkpt>
      <trkpt lat="48.39407" lon="2.45884">
        <ele>91.17</ele>
        <time>2024-06-13T10:25:26.547Z</time>
      </trkpt>
      <trkpt lat="48.39403" lon="2.45886">
        <ele>91</ele>
        <time>2024-06-13T10:25:31.909Z</time>
      </trkpt>
      <trkpt lat="48.394" lon="2.45888">
        <ele>90.9</ele>
        <time>2024-06-13T10:25:37.272Z</time>
      </trkpt>
      <trkpt lat="48.394" lon="2.45887">
        <ele>90.88</ele>
        <time>2024-06-13T10:25:42.635Z</time>
      </trkpt>
      <trkpt lat="48.39398" lon="2.45881">
        <ele>90.82</ele>
        <time>2024-06-13T10:25:47.999Z</time>
      </trkpt>
      <trkpt lat="48.39396" lon="2.45875">
        <ele>90.82</ele>
        <time>2024-06-13T10:25:53.364Z</time>
      </trkpt>
      <trkpt lat="48.39394" lon="2.45869">
        <ele>90.85</ele>
        <time>2024-06-13T10:25:58.729Z</time>
      </trkpt>
      <trkpt lat="48.39393" lon="2.45867">
        <ele>90.9</ele>
        <time>2024-06-13T10:26:04.094Z</time>
      </trkpt>
      <trkpt lat="48.39395" lon="2.45856">
        <ele>91.29</ele>
        <time>2024-06-13T10:26:09.461Z</time>
      </trkpt>
      <trkpt lat="48.39396" lon="2.4585">
        <ele>91.48</ele>
        <time>2024-06-13T10:26:14.828Z</time>
      </trkpt>
      <trkpt lat="48.39398" lon="2.45843">
        <ele>91.63</ele>
        <time>2024-06-13T10:26:20.196Z</time>
      </trkpt>
      <trkpt lat="48.39399" lon="2.45837">
        <ele>91.7</ele>
        <time>2024-06-13T10:26:25.565Z</time>
      </trkpt>
      <trkpt lat="48.394" lon="2.4583">
        <ele>91.7</ele>
        <time>2024-06-13T10:26:30.935Z</time>
      </trkpt>
      <trkpt lat="48.39402" lon="2.45825">
        <ele>91.62</ele>
        <time>2024-06-13T10:26:36.305Z</time>
      </trkpt>
      <trkpt lat="48.39404" lon="2.45819">
        <ele>91.49</ele>
        <time>2024-06-13T10:26:41.676Z</time>
      </trkpt>
      <trkpt lat="48.39409" lon="2.45808">
        <ele>91.15</ele>
        <time>2024-06-13T10:26:47.048Z</time>
      </trkpt>
      <trkpt lat="48.39413" lon="2.45798">
        <ele>90.79</ele>
        <time>2024-06-13T10:26:52.422Z</time>
      </trkpt>
      <trkpt lat="48.39413" lon="2.45796">
        <ele>90.74</ele>
        <time>2024-06-13T10:26:57.796Z</time>
      </trkpt>
      <trkpt lat="48.39412" lon="2.4579">
        <ele>90.51</ele>
        <time>2024-06-13T10:27:03.170Z</time>
      </trkpt>
      <trkpt lat="48.39412" lon="2.45783">
        <ele>90.24</ele>
        <time>2024-06-13T10:27:08.545Z</time>
      </trkpt>
      <trkpt lat="48.39411" lon="2.45776">
        <ele>89.92</ele>
        <time>2024-06-13T10:27:13.921Z</time>
      </trkpt>
      <trkpt lat="48.3941" lon="2.4577">
        <ele>89.5</ele>
        <time>2024-06-13T10:27:19.298Z</time>
      </trkpt>
      <trkpt lat="48.3941" lon="2.45765">
        <ele>89.14</ele>
        <time>2024-06-13T10:27:24.675Z</time>
      </trkpt>
      <trkpt lat="48.39409" lon="2.45766">
        <ele>89.01</ele>
        <time>2024-06-13T10:27:30.052Z</time>
      </trkpt>
      <trkpt lat="48.39406" lon="2.45772">
        <ele>88.45</ele>
        <time>2024-06-13T10:27:35.430Z</time>
      </trkpt>
      <trkpt lat="48.39402" lon="2.4578">
        <ele>87.47</ele>
        <time>2024-06-13T10:27:40.809Z</time>
      </trkpt>
      <trkpt lat="48.39397" lon="2.45774">
        <ele>86.58</ele>
        <time>2024-06-13T10:27:46.189Z</time>
      </trkpt>
      <trkpt lat="48.39395" lon="2.45772">
        <ele>89.27</ele>
        <time>2024-06-13T10:27:51.570Z</time>
      </trkpt>
      <trkpt lat="48.39393" lon="2.45776">
        <ele>89.43</ele>
        <time>2024-06-13T10:27:56.951Z</time>
      </trkpt>
      <trkpt lat="48.39392" lon="2.45779">
        <ele>89.44</ele>
        <time>2024-06-13T10:28:02.332Z</time>
      </trkpt>
      <trkpt lat="48.39386" lon="2.45772">
        <ele>89.48</ele>
        <time>2024-06-13T10:28:07.715Z</time>
      </trkpt>
      <trkpt lat="48.39384" lon="2.4577">
        <ele>89.48</ele>
        <time>2024-06-13T10:28:13.098Z</time>
      </trkpt>
      <trkpt lat="48.39375" lon="2.45765">
        <ele>89.49</ele>
        <time>2024-06-13T10:28:18.482Z</time>
      </trkpt>
      <trkpt lat="48.39373" lon="2.45764">
        <ele>89.41</ele>
        <time>2024-06-13T10:28:23.867Z</time>
      </trkpt>
      <trkpt lat="48.39362" lon="2.4575">
        <ele>88.98</ele>
        <time>2024-06-13T10:28:29.254Z</time>
      </trkpt>
      <trkpt lat="48.3936" lon="2.45748">
        <ele>82.87</ele>
        <time>2024-06-13T10:28:34.642Z</time>
      </trkpt>
      <trkpt lat="48.39363" lon="2.45742">
        <ele>82.56</ele>
        <time>2024-06-13T10:28:40.030Z</time>
      </trkpt>
      <trkpt lat="48.39366" lon="2.45737">
        <ele>82.32</ele>
        <time>2024-06-13T10:28:45.419Z</time>
      </trkpt>
      <trkpt lat="48.39372" lon="2.45727">
        <ele>81.92</ele>
        <time>2024-06-13T10:28:50.810Z</time>
      </trkpt>
      <trkpt lat="48.39381" lon="2.45712">
        <ele>81.39</ele>
        <time>2024-06-13T10:28:56.203Z</time>
      </trkpt>
      <trkpt lat="48.39384" lon="2.45706">
        <ele>81.15</ele>
        <time>2024-06-13T10:29:01.597Z</time>
      </trkpt>
      <trkpt lat="48.39395" lon="2.45698">
        <ele>80.6</ele>
        <time>2024-06-13T10:29:06.992Z</time>
      </trkpt>
      <trkpt lat="48.39399" lon="2.45695">
        <ele>80.44</ele>
        <time>2024-06-13T10:29:12.388Z</time>
      </trkpt>
      <trkpt lat="48.39399" lon="2.45695">
        <ele>80.44</ele>
        <time>2024-06-13T10:29:17.784Z</time>
      </trkpt>
      <trkpt lat="48.39403" lon="2.45693">
        <ele>80.32</ele>
        <time>2024-06-13T10:29:23.181Z</time>
      </trkpt>
      <trkpt lat="48.39412" lon="2.45689">
        <ele>80.14</ele>
        <time>2024-06-13T10:29:28.579Z</time>
      </trkpt>
      <trkpt lat="48.39424" lon="2.45684">
        <ele>79.99</ele>
        <time>2024-06-13T10:29:33.979Z</time>
      </trkpt>
      <trkpt lat="48.3943" lon="2.45681">
        <ele>79.93</ele>
        <time>2024-06-13T10:29:39.380Z</time>
      </trkpt>
      <trkpt lat="48.39441" lon="2.45685">
        <ele>79.83</ele>
        <time>2024-06-13T10:29:44.783Z</time>
      </trkpt>
      <trkpt lat="48.39444" lon="2.45686">
        <ele>79.67</ele>
        <time>2024-06-13T10:29:50.187Z</time>
      </trkpt>
      <trkpt lat="48.39445" lon="2.45677">
        <ele>79.31</ele>
        <time>2024-06-13T10:29:55.592Z</time>
      </trkpt>
      <trkpt lat="48.39445" lon="2.4567">
        <ele>79.02</ele>
        <time>2024-06-13T10:30:00.997Z</time>
      </trkpt>
      <trkpt lat="48.39447" lon="2.45636">
        <ele>77.45</ele>
        <time>2024-06-13T10:30:06.406Z</time>
      </trkpt>
      <trkpt lat="48.39447" lon="2.45632">
        <ele>77.27</ele>
        <time>2024-06-13T10:30:11.815Z</time>
      </trkpt>
      <trkpt lat="48.39448" lon="2.4563">
        <ele>77.16</ele>
        <time>2024-06-13T10:30:17.225Z</time>
      </trkpt>
      <trkpt lat="48.3945" lon="2.45624">
        <ele>76.91</ele>
        <time>2024-06-13T10:30:22.635Z</time>
      </trkpt>
      <trkpt lat="48.39453" lon="2.45619">
        <ele>76.69</ele>
        <time>2024-06-13T10:30:28.046Z</time>
      </trkpt>
      <trkpt lat="48.39456" lon="2.45613">
        <ele>76.5</ele>
        <time>2024-06-13T10:30:33.458Z</time>
      </trkpt>
      <trkpt lat="48.39458" lon="2.45608">
        <ele>76.35</ele>
        <time>2024-06-13T10:30:38.871Z</time>
      </trkpt>
      <trkpt lat="48.3946" lon="2.45603">
        <ele>76.25</ele>
        <time>2024-06-13T10:30:44.284Z</time>
      </trkpt>
      <trkpt lat="48.3946" lon="2.45602">
        <ele>76.25</ele>
        <time>2024-06-13T10:30:49.697Z</time>
      </trkpt>
      <trkpt lat="48.3946" lon="2.45595">
        <ele>76.19</ele>
        <time>2024-06-13T10:30:55.111Z</time>
      </trkpt>
      <trkpt lat="48.3946" lon="2.45588">
        <ele>76.18</ele>
        <time>2024-06-13T10:31:00.526Z</time>
      </trkpt>
      <trkpt lat="48.39461" lon="2.45581">
        <ele>76.22</ele>
        <time>2024-06-13T10:31:05.941Z</time>
      </trkpt>
      <trkpt lat="48.39461" lon="2.45575">
        <ele>76.33</ele>
        <time>2024-06-13T10:31:11.357Z</time>
      </trkpt>
      <trkpt lat="48.39461" lon="2.45568">
        <ele>76.5</ele>
        <time>2024-06-13T10:31:16.774Z</time>
      </trkpt>
      <trkpt lat="48.39461" lon="2.45561">
        <ele>76.76</ele>
        <time>2024-06-13T10:31:22.192Z</time>
      </trkpt>
      <trkpt lat="48.39461" lon="2.45554">
        <ele>77.11</ele>
        <time>2024-06-13T10:31:27.610Z</time>
      </trkpt>
      <trkpt lat="48.39462" lon="2.45548">
        <ele>77.53</ele>
        <time>2024-06-13T10:31:33.029Z</time>
      </trkpt>
      <trkpt lat="48.39462" lon="2.45542">
        <ele>77.92</ele>
        <time>2024-06-13T10:31:38.449Z</time>
      </trkpt>
      <trkpt lat="48.39462" lon="2.45538">
        <ele>78.21</ele>
        <time>2024-06-13T10:31:43.869Z</time>
      </trkpt>
      <trkpt lat="48.3946" lon="2.45536">
        <ele>78.49</ele>
        <time>2024-06-13T10:31:49.290Z</time>
      </trkpt>
      <trkpt lat="48.39456" lon="2.45533">
        <ele>78.94</ele>
        <time>2024-06-13T10:31:54.711Z</time>
      </trkpt>
      <trkpt lat="48.39448" lon="2.45527">
        <ele>79.72</ele>
        <time>2024-06-13T10:32:00.134Z</time>
      </trkpt>
      <trkpt lat="48.39437" lon="2.45539">
        <ele>80.96</ele>
        <time>2024-06-13T10:32:05.559Z</time>
      </trkpt>
      <trkpt lat="48.39433" lon="2.45543">
        <ele>81.35</ele>
        <time>2024-06-13T10:32:10.985Z</time>
      </trkpt>
      <trkpt lat="48.39432" lon="2.45545">
        <ele>81.48</ele>
        <time>2024-06-13T10:32:16.411Z</time>
      </trkpt>
      <trkpt lat="48.3943" lon="2.45547">
        <ele>81.67</ele>
        <time>2024-06-13T10:32:21.837Z</time>
      </trkpt>
      <trkpt lat="48.39425" lon="2.45549">
        <ele>81.9</ele>
        <time>2024-06-13T10:32:27.264Z</time>
      </trkpt>
      <trkpt lat="48.39421" lon="2.45552">
        <ele>82</ele>
        <time>2024-06-13T10:32:32.692Z</time>
      </trkpt>
      <trkpt lat="48.39417" lon="2.45554">
        <ele>81.96</ele>
        <time>2024-06-13T10:32:38.120Z</time>
      </trkpt>
      <trkpt lat="48.39413" lon="2.45557">
        <ele>81.78</ele>
        <time>2024-06-13T10:32:43.549Z</time>
      </trkpt>
      <trkpt lat="48.39411" lon="2.45558">
        <ele>81.63</ele>
        <time>2024-06-13T10:32:48.978Z</time>
      </trkpt>
      <trkpt lat="48.3941" lon="2.45561">
        <ele>81.48</ele>
        <time>2024-06-13T10:32:54.408Z</time>
      </trkpt>
      <trkpt lat="48.39405" lon="2.45572">
        <ele>80.72</ele>
        <time>2024-06-13T10:32:59.839Z</time>
      </trkpt>
      <trkpt lat="48.39403" lon="2.45578">
        <ele>80.38</ele>
        <time>2024-06-13T10:33:05.271Z</time>
      </trkpt>
      <trkpt lat="48.394" lon="2.45584">
        <ele>80.11</ele>
        <time>2024-06-13T10:33:10.704Z</time>
      </trkpt>
      <trkpt lat="48.39398" lon="2.4559">
        <ele>79.94</ele>
        <time>2024-06-13T10:33:16.137Z</time>
      </trkpt>
      <trkpt lat="48.39396" lon="2.45594">
        <ele>79.9</ele>
        <time>2024-06-13T10:33:21.571Z</time>
      </trkpt>
      <trkpt lat="48.39395" lon="2.45594">
        <ele>79.9</ele>
        <time>2024-06-13T10:33:27.005Z</time>
      </trkpt>
      <trkpt lat="48.39391" lon="2.45593">
        <ele>80</ele>
        <time>2024-06-13T10:33:32.440Z</time>
      </trkpt>
      <trkpt lat="48.39386" lon="2.45592">
        <ele>80.25</ele>
        <time>2024-06-13T10:33:37.876Z</time>
      </trkpt>
      <trkpt lat="48.39382" lon="2.45591">
        <ele>80.62</ele>
        <time>2024-06-13T10:33:43.312Z</time>
      </trkpt>
      <trkpt lat="48.39379" lon="2.4559">
        <ele>80.88</ele>
        <time>2024-06-13T10:33:48.749Z</time>
      </trkpt>
      <trkpt lat="48.39377" lon="2.45591">
        <ele>81.07</ele>
        <time>2024-06-13T10:33:54.186Z</time>
      </trkpt>
      <trkpt lat="48.39369" lon="2.45595">
        <ele>82.1</ele>
        <time>2024-06-13T10:33:59.624Z</time>
      </trkpt>
      <trkpt lat="48.39366" lon="2.45596">
        <ele>82.45</ele>
        <time>2024-06-13T10:34:05.063Z</time>
      </trkpt>
      <trkpt lat="48.39362" lon="2.45603">
        <ele>83.22</ele>
        <time>2024-06-13T10:34:10.503Z</time>
      </trkpt>
      <trkpt lat="48.39357" lon="2.45614">
        <ele>84.47</ele>
        <time>2024-06-13T10:34:15.944Z</time>
      </trkpt>
      <trkpt lat="48.39354" lon="2.45621">
        <ele>85.17</ele>
        <time>2024-06-13T10:34:21.386Z</time>
      </trkpt>
      <trkpt lat="48.39351" lon="2.45622">
        <ele>85.92</ele>
        <time>2024-06-13T10:34:26.829Z</time>
      </trkpt>
      <trkpt lat="48.39342" lon="2.45626">
        <ele>87.5</ele>
        <time>2024-06-13T10:34:32.273Z</time>
      </trkpt>
      <trkpt lat="48.39338" lon="2.45628">
        <ele>88.25</ele>
        <time>2024-06-13T10:34:37.718Z</time>
      </trkpt>
      <trkpt lat="48.39333" lon="2.4563">
        <ele>88.92</ele>
        <time>2024-06-13T10:34:43.164Z</time>
      </trkpt>
      <trkpt lat="48.3933" lon="2.45631">
        <ele>89.31</ele>
        <time>2024-06-13T10:34:48.610Z</time>
      </trkpt>
      <trkpt lat="48.3933" lon="2.45633">
        <ele>89.44</ele>
        <time>2024-06-13T10:34:54.056Z</time>
      </trkpt>
      <trkpt lat="48.39328" lon="2.45639">
        <ele>89.78</ele>
        <time>2024-06-13T10:34:59.503Z</time>
      </trkpt>
      <trkpt lat="48.39327" lon="2.45645">
        <ele>89.99</ele>
        <time>2024-06-13T10:35:04.951Z</time>
      </trkpt>
      <trkpt lat="48.39326" lon="2.45652">
        <ele>90.11</ele>
        <time>2024-06-13T10:35:10.400Z</time>
      </trkpt>
      <trkpt lat="48.39325" lon="2.45655">
        <ele>90.14</ele>
        <time>2024-06-13T10:35:15.849Z</time>
      </trkpt>
      <trkpt lat="48.39323" lon="2.45653">
        <ele>90.19</ele>
        <time>2024-06-13T10:35:21.298Z</time>
      </trkpt>
      <trkpt lat="48.39319" lon="2.45649">
        <ele>90.24</ele>
        <time>2024-06-13T10:35:26.748Z</time>
      </trkpt>
      <trkpt lat="48.39316" lon="2.45646">
        <ele>90.24</ele>
        <time>2024-06-13T10:35:32.199Z</time>
      </trkpt>
      <trkpt lat="48.39316" lon="2.45646">
        <ele>90.24</ele>
        <time>2024-06-13T10:35:37.650Z</time>
      </trkpt>
      <trkpt lat="48.39312" lon="2.4565">
        <ele>90.2</ele>
        <time>2024-06-13T10:35:43.101Z</time>
      </trkpt>
      <trkpt lat="48.39308" lon="2.45653">
        <ele>90.08</ele>
        <time>2024-06-13T10:35:48.553Z</time>
      </trkpt>
      <trkpt lat="48.39304" lon="2.45657">
        <ele>89.91</ele>
        <time>2024-06-13T10:35:54.006Z</time>
      </trkpt>
      <trkpt lat="48.393" lon="2.4566">
        <ele>89.69</ele>
        <time>2024-06-13T10:35:59.460Z</time>
      </trkpt>
      <trkpt lat="48.39296" lon="2.45664">
        <ele>89.42</ele>
        <time>2024-06-13T10:36:04.914Z</time>
      </trkpt>
      <trkpt lat="48.39295" lon="2.45665">
        <ele>89.3</ele>
        <time>2024-06-13T10:36:10.369Z</time>
      </trkpt>
      <trkpt lat="48.39293" lon="2.45662">
        <ele>89.09</ele>
        <time>2024-06-13T10:36:15.824Z</time>
      </trkpt>
      <trkpt lat="48.3929" lon="2.45657">
        <ele>88.71</ele>
        <time>2024-06-13T10:36:21.280Z</time>
      </trkpt>
      <trkpt lat="48.39287" lon="2.45652">
        <ele>88.28</ele>
        <time>2024-06-13T10:36:26.736Z</time>
      </trkpt>
      <trkpt lat="48.39285" lon="2.45649">
        <ele>87.99</ele>
        <time>2024-06-13T10:36:32.193Z</time>
      </trkpt>
      <trkpt lat="48.39283" lon="2.45648">
        <ele>87.81</ele>
        <time>2024-06-13T10:36:37.650Z</time>
      </trkpt>
      <trkpt lat="48.39279" lon="2.45647">
        <ele>87.31</ele>
        <time>2024-06-13T10:36:43.108Z</time>
      </trkpt>
      <trkpt lat="48.3927" lon="2.45644">
        <ele>86.25</ele>
        <time>2024-06-13T10:36:48.567Z</time>
      </trkpt>
      <trkpt lat="48.39265" lon="2.45642">
        <ele>85.59</ele>
        <time>2024-06-13T10:36:54.027Z</time>
      </trkpt>
      <trkpt lat="48.39263" lon="2.45638">
        <ele>85.16</ele>
        <time>2024-06-13T10:36:59.488Z</time>
      </trkpt>
      <trkpt lat="48.39254" lon="2.45623">
        <ele>83.41</ele>
        <time>2024-06-13T10:37:04.951Z</time>
      </trkpt>
      <trkpt lat="48.3925" lon="2.45618">
        <ele>82.92</ele>
        <time>2024-06-13T10:37:10.415Z</time>
      </trkpt>
      <trkpt lat="48.39247" lon="2.45613">
        <ele>82.53</ele>
        <time>2024-06-13T10:37:15.879Z</time>
      </trkpt>
      <trkpt lat="48.39245" lon="2.45608">
        <ele>82.23</ele>
        <time>2024-06-13T10:37:21.344Z</time>
      </trkpt>
      <trkpt lat="48.39241" lon="2.45602">
        <ele>81.99</ele>
        <time>2024-06-13T10:37:26.810Z</time>
      </trkpt>
      <trkpt lat="48.39242" lon="2.45597">
        <ele>81.81</ele>
        <time>2024-06-13T10:37:32.277Z</time>
      </trkpt>
      <trkpt lat="48.39243" lon="2.4559">
        <ele>81.67</ele>
        <time>2024-06-13T10:37:37.744Z</time>
      </trkpt>
      <trkpt lat="48.39243" lon="2.45587">
        <ele>81.63</ele>
        <time>2024-06-13T10:37:43.212Z</time>
      </trkpt>
      <trkpt lat="48.39241" lon="2.45585">
        <ele>81.59</ele>
        <time>2024-06-13T10:37:48.680Z</time>
      </trkpt>
      <trkpt lat="48.39238" lon="2.4558">
        <ele>81.55</ele>
        <time>2024-06-13T10:37:54.149Z</time>
      </trkpt>
      <trkpt lat="48.39234" lon="2.45576">
        <ele>81.54</ele>
        <time>2024-06-13T10:37:59.618Z</time>
      </trkpt>
      <trkpt lat="48.39227" lon="2.45567">
        <ele>81.56</ele>
        <time>2024-06-13T10:38:05.089Z</time>
      </trkpt>
      <trkpt lat="48.39224" lon="2.45563">
        <ele>81.55</ele>
        <time>2024-06-13T10:38:10.561Z</time>
      </trkpt>
      <trkpt lat="48.39217" lon="2.45554">
        <ele>81.49</ele>
        <time>2024-06-13T10:38:16.034Z</time>
      </trkpt>
      <trkpt lat="48.39213" lon="2.45549">
        <ele>81.49</ele>
        <time>2024-06-13T10:38:21.508Z</time>
      </trkpt>
      <trkpt lat="48.39209" lon="2.45548">
        <ele>81.52</ele>
        <time>2024-06-13T10:38:26.982Z</time>
      </trkpt>
      <trkpt lat="48.39205" lon="2.45547">
        <ele>81.61</ele>
        <time>2024-06-13T10:38:32.457Z</time>
      </trkpt>
      <trkpt lat="48.392" lon="2.45546">
        <ele>81.76</ele>
        <time>2024-06-13T10:38:37.933Z</time>
      </trkpt>
      <trkpt lat="48.39196" lon="2.45545">
        <ele>81.98</ele>
        <time>2024-06-13T10:38:43.410Z</time>
      </trkpt>
      <trkpt lat="48.39192" lon="2.45545">
        <ele>82.25</ele>
        <time>2024-06-13T10:38:48.887Z</time>
      </trkpt>
      <trkpt lat="48.39187" lon="2.45544">
        <ele>82.59</ele>
        <time>2024-06-13T10:38:54.365Z</time>
      </trkpt>
      <trkpt lat="48.39184" lon="2.45543">
        <ele>82.87</ele>
        <time>2024-06-13T10:38:59.844Z</time>
      </trkpt>
      <trkpt lat="48.39183" lon="2.45542">
        <ele>83</ele>
        <time>2024-06-13T10:39:05.323Z</time>
      </trkpt>
      <trkpt lat="48.39179" lon="2.45539">
        <ele>83.46</ele>
        <time>2024-06-13T10:39:10.802Z</time>
      </trkpt>
      <trkpt lat="48.39175" lon="2.45536">
        <ele>83.98</ele>
        <time>2024-06-13T10:39:16.282Z</time>
      </trkpt>
      <trkpt lat="48.39166" lon="2.4553">
        <ele>85.15</ele>
        <time>2024-06-13T10:39:21.764Z</time>
      </trkpt>
      <trkpt lat="48.39158" lon="2.45531">
        <ele>86.14</ele>
        <time>2024-06-13T10:39:27.247Z</time>
      </trkpt>
      <trkpt lat="48.39155" lon="2.45532">
        <ele>91.06</ele>
        <time>2024-06-13T10:39:32.731Z</time>
      </trkpt>
      <trkpt lat="48.39152" lon="2.45506">
        <ele>89.46</ele>
        <time>2024-06-13T10:39:38.217Z</time>
      </trkpt>
      <trkpt lat="48.39152" lon="2.45502">
        <ele>89.52</ele>
        <time>2024-06-13T10:39:43.704Z</time>
      </trkpt>
      <trkpt lat="48.39143" lon="2.45493">
        <ele>89.78</ele>
        <time>2024-06-13T10:39:49.192Z</time>
      </trkpt>
      <trkpt lat="48.39141" lon="2.45491">
        <ele>89.78</ele>
        <time>2024-06-13T10:39:54.681Z</time>
      </trkpt>
      <trkpt lat="48.39136" lon="2.45484">
        <ele>89.78</ele>
        <time>2024-06-13T10:40:00.171Z</time>
      </trkpt>
      <trkpt lat="48.39134" lon="2.45481">
        <ele>89.87</ele>
        <time>2024-06-13T10:40:05.661Z</time>
      </trkpt>
      <trkpt lat="48.39117" lon="2.45465">
        <ele>90.54</ele>
        <time>2024-06-13T10:40:11.155Z</time>
      </trkpt>
      <trkpt lat="48.39103" lon="2.45454">
        <ele>91.31</ele>
        <time>2024-06-13T10:40:16.651Z</time>
      </trkpt>
      <trkpt lat="48.39091" lon="2.45443">
        <ele>91.42</ele>
        <time>2024-06-13T10:40:22.149Z</time>
      </trkpt>
      <trkpt lat="48.39089" lon="2.45441">
        <ele>91.56</ele>
        <time>2024-06-13T10:40:27.648Z</time>
      </trkpt>
      <trkpt lat="48.39079" lon="2.45436">
        <ele>92.1</ele>
        <time>2024-06-13T10:40:33.148Z</time>
      </trkpt>
      <trkpt lat="48.39076" lon="2.45435">
        <ele>92.08</ele>
        <time>2024-06-13T10:40:38.649Z</time>
      </trkpt>
      <trkpt lat="48.39064" lon="2.45432">
        <ele>92.03</ele>
        <time>2024-06-13T10:40:44.152Z</time>
      </trkpt>
      <trkpt lat="48.39062" lon="2.45432">
        <ele>91.95</ele>
        <time>2024-06-13T10:40:49.655Z</time>
      </trkpt>
      <trkpt lat="48.39053" lon="2.45428">
        <ele>91.65</ele>
        <time>2024-06-13T10:40:55.160Z</time>
      </trkpt>
      <trkpt lat="48.39036" lon="2.4542">
        <ele>91.01</ele>
        <time>2024-06-13T10:41:00.667Z</time>
      </trkpt>
      <trkpt lat="48.39034" lon="2.45419">
        <ele>90.89</ele>
        <time>2024-06-13T10:41:06.175Z</time>
      </trkpt>
      <trkpt lat="48.39022" lon="2.45409">
        <ele>90.29</ele>
        <time>2024-06-13T10:41:11.685Z</time>
      </trkpt>
      <trkpt lat="48.3902" lon="2.45407">
        <ele>90.29</ele>
        <time>2024-06-13T10:41:17.195Z</time>
      </trkpt>
      <trkpt lat="48.39011" lon="2.45411">
        <ele>90.31</ele>
        <time>2024-06-13T10:41:22.707Z</time>
      </trkpt>
      <trkpt lat="48.39008" lon="2.45412">
        <ele>90.17</ele>
        <time>2024-06-13T10:41:28.219Z</time>
      </trkpt>
      <trkpt lat="48.39001" lon="2.45413">
        <ele>89.8</ele>
        <time>2024-06-13T10:41:33.733Z</time>
      </trkpt>
      <trkpt lat="48.38998" lon="2.45414">
        <ele>89.56</ele>
        <time>2024-06-13T10:41:39.247Z</time>
      </trkpt>
      <trkpt lat="48.38974" lon="2.454">
        <ele>87.3</ele>
        <time>2024-06-13T10:41:44.765Z</time>
      </trkpt>
      <trkpt lat="48.38972" lon="2.45399">
        <ele>85.46</ele>
        <time>2024-06-13T10:41:50.284Z</time>
      </trkpt>
      <trkpt lat="48.3897" lon="2.45406">
        <ele>85.9</ele>
        <time>2024-06-13T10:41:55.803Z</time>
      </trkpt>
      <trkpt lat="48.38968" lon="2.45415">
        <ele>86.47</ele>
        <time>2024-06-13T10:42:01.323Z</time>
      </trkpt>
      <trkpt lat="48.38967" lon="2.45418">
        <ele>86.68</ele>
        <time>2024-06-13T10:42:06.844Z</time>
      </trkpt>
      <trkpt lat="48.38957" lon="2.45441">
        <ele>88.16</ele>
        <time>2024-06-13T10:42:12.368Z</time>
      </trkpt>
      <trkpt lat="48.38941" lon="2.45481">
        <ele>90.7</ele>
        <time>2024-06-13T10:42:17.897Z</time>
      </trkpt>
      <trkpt lat="48.38934" lon="2.45498">
        <ele>91.86</ele>
        <time>2024-06-13T10:42:23.428Z</time>
      </trkpt>
      <trkpt lat="48.38934" lon="2.45499">
        <ele>91.86</ele>
        <time>2024-06-13T10:42:28.959Z</time>
      </trkpt>
      <trkpt lat="48.38915" lon="2.45536">
        <ele>94.63</ele>
        <time>2024-06-13T10:42:34.495Z</time>
      </trkpt>
      <trkpt lat="48.38909" lon="2.45547">
        <ele>95.48</ele>
        <time>2024-06-13T10:42:40.032Z</time>
      </trkpt>
      <trkpt lat="48.38904" lon="2.45558">
        <ele>96.4</ele>
        <time>2024-06-13T10:42:45.571Z</time>
      </trkpt>
      <trkpt lat="48.38891" lon="2.45584">
        <ele>98.7</ele>
        <time>2024-06-13T10:42:51.113Z</time>
      </trkpt>
      <trkpt lat="48.38886" lon="2.45587">
        <ele>99.28</ele>
        <time>2024-06-13T10:42:56.656Z</time>
      </trkpt>
      <trkpt lat="48.38877" lon="2.45591">
        <ele>100.28</ele>
        <time>2024-06-13T10:43:02.201Z</time>
      </trkpt>
      <trkpt lat="48.38869" lon="2.45595">
        <ele>101.4</ele>
        <time>2024-06-13T10:43:07.747Z</time>
      </trkpt>
      <trkpt lat="48.38865" lon="2.45597">
        <ele>102</ele>
        <time>2024-06-13T10:43:13.294Z</time>
      </trkpt>
      <trkpt lat="48.38856" lon="2.45601">
        <ele>103.31</ele>
        <time>2024-06-13T10:43:18.842Z</time>
      </trkpt>
      <trkpt lat="48.38848" lon="2.45606">
        <ele>104.76</ele>
        <time>2024-06-13T10:43:24.392Z</time>
      </trkpt>
      <trkpt lat="48.38839" lon="2.4561">
        <ele>106.43</ele>
        <time>2024-06-13T10:43:29.943Z</time>
      </trkpt>
      <trkpt lat="48.38835" lon="2.45612">
        <ele>107.22</ele>
        <time>2024-06-13T10:43:35.495Z</time>
      </trkpt>
      <trkpt lat="48.38823" lon="2.45618">
        <ele>109.47</ele>
        <time>2024-06-13T10:43:41.049Z</time>
      </trkpt>
      <trkpt lat="48.38823" lon="2.45618">
        <ele>109.47</ele>
        <time>2024-06-13T10:43:46.603Z</time>
      </trkpt>
      <trkpt lat="48.38814" lon="2.45619">
        <ele>110.84</ele>
        <time>2024-06-13T10:43:52.158Z</time>
      </trkpt>
      <trkpt lat="48.3881" lon="2.4562">
        <ele>111.45</ele>
        <time>2024-06-13T10:43:57.714Z</time>
      </trkpt>
      <trkpt lat="48.38806" lon="2.45621">
        <ele>112.02</ele>
        <time>2024-06-13T10:44:03.270Z</time>
      </trkpt>
      <trkpt lat="48.38802" lon="2.45622">
        <ele>112.52</ele>
        <time>2024-06-13T10:44:08.827Z</time>
      </trkpt>
      <trkpt lat="48.38799" lon="2.45622">
        <ele>112.16</ele>
        <time>2024-06-13T10:44:14.385Z</time>
      </trkpt>
      <trkpt lat="48.38802" lon="2.45613">
        <ele>111.28</ele>
        <time>2024-06-13T10:44:19.944Z</time>
      </trkpt>
      <trkpt lat="48.38803" lon="2.45609">
        <ele>110.76</ele>
        <time>2024-06-13T10:44:25.503Z</time>
      </trkpt>
      <trkpt lat="48.38802" lon="2.45607">
        <ele>110.57</ele>
        <time>2024-06-13T10:44:31.062Z</time>
      </trkpt>
      <trkpt lat="48.38793" lon="2.45584">
        <ele>107.57</ele>
        <time>2024-06-13T10:44:36.624Z</time>
      </trkpt>
      <trkpt lat="48.38792" lon="2.45581">
        <ele>107.19</ele>
        <time>2024-06-13T10:44:42.187Z</time>
      </trkpt>
      <trkpt lat="48.38791" lon="2.45571">
        <ele>106.16</ele>
        <time>2024-06-13T10:44:47.751Z</time>
      </trkpt>
      <trkpt lat="48.38791" lon="2.45564">
        <ele>105.51</ele>
        <time>2024-06-13T10:44:53.315Z</time>
      </trkpt>
      <trkpt lat="48.38791" lon="2.45558">
        <ele>104.92</ele>
        <time>2024-06-13T10:44:58.880Z</time>
      </trkpt>
      <trkpt lat="48.3879" lon="2.45551">
        <ele>104.37</ele>
        <time>2024-06-13T10:45:04.446Z</time>
      </trkpt>
      <trkpt lat="48.3879" lon="2.45544">
        <ele>103.89</ele>
        <time>2024-06-13T10:45:10.013Z</time>
      </trkpt>
      <trkpt lat="48.3879" lon="2.45537">
        <ele>103.49</ele>
        <time>2024-06-13T10:45:15.580Z</time>
      </trkpt>
      <trkpt lat="48.38789" lon="2.45531">
        <ele>103.2</ele>
        <time>2024-06-13T10:45:21.148Z</time>
      </trkpt>
      <trkpt lat="48.38789" lon="2.45524">
        <ele>103.02</ele>
        <time>2024-06-13T10:45:26.717Z</time>
      </trkpt>
      <trkpt lat="48.38789" lon="2.45517">
        <ele>102.95</ele>
        <time>2024-06-13T10:45:32.286Z</time>
      </trkpt>
      <trkpt lat="48.38788" lon="2.4551">
        <ele>103</ele>
        <time>2024-06-13T10:45:37.856Z</time>
      </trkpt>
      <trkpt lat="48.38788" lon="2.45504">
        <ele>103.15</ele>
        <time>2024-06-13T10:45:43.427Z</time>
      </trkpt>
      <trkpt lat="48.38788" lon="2.45497">
        <ele>103.4</ele>
        <time>2024-06-13T10:45:48.999Z</time>
      </trkpt>
      <trkpt lat="48.38787" lon="2.4549">
        <ele>103.74</ele>
        <time>2024-06-13T10:45:54.571Z</time>
      </trkpt>
      <trkpt lat="48.38787" lon="2.45486">
        <ele>103.98</ele>
        <time>2024-06-13T10:46:00.144Z</time>
      </trkpt>
      <trkpt lat="48.38781" lon="2.45482">
        <ele>104.54</ele>
        <time>2024-06-13T10:46:05.718Z</time>
      </trkpt>
      <trkpt lat="48.38777" lon="2.45479">
        <ele>104.91</ele>
        <time>2024-06-13T10:46:11.292Z</time>
      </trkpt>
      <trkpt lat="48.38773" lon="2.45477">
        <ele>105.19</ele>
        <time>2024-06-13T10:46:16.867Z</time>
      </trkpt>
      <trkpt lat="48.38769" lon="2.45474">
        <ele>105.34</ele>
        <time>2024-06-13T10:46:22.443Z</time>
      </trkpt>
      <trkpt lat="48.38765" lon="2.45471">
        <ele>105.35</ele>
        <time>2024-06-13T10:46:28.020Z</time>
      </trkpt>
      <trkpt lat="48.38761" lon="2.45469">
        <ele>105.21</ele>
        <time>2024-06-13T10:46:33.597Z</time>
      </trkpt>
      <trkpt lat="48.38757" lon="2.45466">
        <ele>104.92</ele>
        <time>2024-06-13T10:46:39.175Z</time>
      </trkpt>
      <trkpt lat="48.38752" lon="2.45463">
        <ele>104.5</ele>
        <time>2024-06-13T10:46:44.754Z</time>
      </trkpt>
      <trkpt lat="48.38748" lon="2.4546">
        <ele>104</ele>
        <time>2024-06-13T10:46:50.334Z</time>
      </trkpt>
      <trkpt lat="48.3874" lon="2.45455">
        <ele>102.91</ele>
        <time>2024-06-13T10:46:55.915Z</time>
      </trkpt>
      <trkpt lat="48.38736" lon="2.45452">
        <ele>102.42</ele>
        <time>2024-06-13T10:47:01.497Z</time>
      </trkpt>
      <trkpt lat="48.38732" lon="2.4545">
        <ele>102.02</ele>
        <time>2024-06-13T10:47:07.079Z</time>
      </trkpt>
      <trkpt lat="48.38728" lon="2.45447">
        <ele>101.73</ele>
        <time>2024-06-13T10:47:12.662Z</time>
      </trkpt>
      <trkpt lat="48.38725" lon="2.45445">
        <ele>101.61</ele>
        <time>2024-06-13T10:47:18.246Z</time>
      </trkpt>
      <trkpt lat="48.38725" lon="2.45443">
        <ele>101.55</ele>
        <time>2024-06-13T10:47:23.830Z</time>
      </trkpt>
      <trkpt lat="48.38726" lon="2.45436">
        <ele>101.48</ele>
        <time>2024-06-13T10:47:29.415Z</time>
      </trkpt>
      <trkpt lat="48.38726" lon="2.45428">
        <ele>101.48</ele>
        <time>2024-06-13T10:47:35.000Z</time>
      </trkpt>
      <trkpt lat="48.38723" lon="2.45431">
        <ele>101.52</ele>
        <time>2024-06-13T10:47:40.586Z</time>
      </trkpt>
      <trkpt lat="48.38719" lon="2.45435">
        <ele>101.53</ele>
        <time>2024-06-13T10:47:46.173Z</time>
      </trkpt>
      <trkpt lat="48.38715" lon="2.45438">
        <ele>101.47</ele>
        <time>2024-06-13T10:47:51.760Z</time>
      </trkpt>
      <trkpt lat="48.38711" lon="2.45442">
        <ele>101.31</ele>
        <time>2024-06-13T10:47:57.348Z</time>
      </trkpt>
      <trkpt lat="48.38708" lon="2.45445">
        <ele>101.04</ele>
        <time>2024-06-13T10:48:02.937Z</time>
      </trkpt>
      <trkpt lat="48.38708" lon="2.45445">
        <ele>101.04</ele>
        <time>2024-06-13T10:48:08.526Z</time>
      </trkpt>
      <trkpt lat="48.38704" lon="2.4544">
        <ele>100.66</ele>
        <time>2024-06-13T10:48:14.116Z</time>
      </trkpt>
      <trkpt lat="48.38701" lon="2.45436">
        <ele>100.18</ele>
        <time>2024-06-13T10:48:19.706Z</time>
      </trkpt>
      <trkpt lat="48.38694" lon="2.45428">
        <ele>99.07</ele>
        <time>2024-06-13T10:48:25.298Z</time>
      </trkpt>
      <trkpt lat="48.3869" lon="2.45424">
        <ele>98.55</ele>
        <time>2024-06-13T10:48:30.890Z</time>
      </trkpt>
      <trkpt lat="48.38686" lon="2.45419">
        <ele>98.09</ele>
        <time>2024-06-13T10:48:36.483Z</time>
      </trkpt>
      <trkpt lat="48.38682" lon="2.45417">
        <ele>97.71</ele>
        <time>2024-06-13T10:48:42.077Z</time>
      </trkpt>
      <trkpt lat="48.38678" lon="2.45414">
        <ele>97.4</ele>
        <time>2024-06-13T10:48:47.672Z</time>
      </trkpt>
      <trkpt lat="48.38674" lon="2.45411">
        <ele>97.15</ele>
        <time>2024-06-13T10:48:53.267Z</time>
      </trkpt>
      <trkpt lat="48.3867" lon="2.45408">
        <ele>96.94</ele>
        <time>2024-06-13T10:48:58.863Z</time>
      </trkpt>
      <trkpt lat="48.38658" lon="2.454">
        <ele>96.36</ele>
        <time>2024-06-13T10:49:04.461Z</time>
      </trkpt>
      <trkpt lat="48.38654" lon="2.45397">
        <ele>96.13</ele>
        <time>2024-06-13T10:49:10.060Z</time>
      </trkpt>
      <trkpt lat="48.3865" lon="2.45394">
        <ele>95.87</ele>
        <time>2024-06-13T10:49:15.660Z</time>
      </trkpt>
      <trkpt lat="48.38642" lon="2.45388">
        <ele>95.25</ele>
        <time>2024-06-13T10:49:21.261Z</time>
      </trkpt>
      <trkpt lat="48.38637" lon="2.45385">
        <ele>94.89</ele>
        <time>2024-06-13T10:49:26.863Z</time>
      </trkpt>
      <trkpt lat="48.38635" lon="2.45373">
        <ele>94.13</ele>
        <time>2024-06-13T10:49:32.466Z</time>
      </trkpt>
      <trkpt lat="48.38634" lon="2.45366">
        <ele>93.72</ele>
        <time>2024-06-13T10:49:38.070Z</time>
      </trkpt>
      <trkpt lat="48.38633" lon="2.4536">
        <ele>93.27</ele>
        <time>2024-06-13T10:49:43.675Z</time>
      </trkpt>
      <trkpt lat="48.38632" lon="2.45353">
        <ele>92.78</ele>
        <time>2024-06-13T10:49:49.280Z</time>
      </trkpt>
      <trkpt lat="48.38631" lon="2.45349">
        <ele>92.45</ele>
        <time>2024-06-13T10:49:54.886Z</time>
      </trkpt>
      <trkpt lat="48.38633" lon="2.45349">
        <ele>92.25</ele>
        <time>2024-06-13T10:50:00.492Z</time>
      </trkpt>
      <trkpt lat="48.38637" lon="2.45349">
        <ele>91.68</ele>
        <time>2024-06-13T10:50:06.099Z</time>
      </trkpt>
      <trkpt lat="48.38639" lon="2.45349">
        <ele>91.44</ele>
        <time>2024-06-13T10:50:11.706Z</time>
      </trkpt>
      <trkpt lat="48.38634" lon="2.45333">
        <ele>89.87</ele>
        <time>2024-06-13T10:50:17.315Z</time>
      </trkpt>
      <trkpt lat="48.38626" lon="2.45309">
        <ele>87.37</ele>
        <time>2024-06-13T10:50:22.927Z</time>
      </trkpt>
      <trkpt lat="48.38624" lon="2.45302">
        <ele>86.7</ele>
        <time>2024-06-13T10:50:28.540Z</time>
      </trkpt>
      <trkpt lat="48.3862" lon="2.453">
        <ele>86.15</ele>
        <time>2024-06-13T10:50:34.153Z</time>
      </trkpt>
      <trkpt lat="48.38613" lon="2.45297">
        <ele>85.19</ele>
        <time>2024-06-13T10:50:39.768Z</time>
      </trkpt>
      <trkpt lat="48.38614" lon="2.45295">
        <ele>84.99</ele>
        <time>2024-06-13T10:50:45.383Z</time>
      </trkpt>
      <trkpt lat="48.38615" lon="2.45288">
        <ele>84.47</ele>
        <time>2024-06-13T10:50:50.999Z</time>
      </trkpt>
      <trkpt lat="48.38616" lon="2.45286">
        <ele>84.27</ele>
        <time>2024-06-13T10:50:56.615Z</time>
      </trkpt>
      <trkpt lat="48.38616" lon="2.45282">
        <ele>83.99</ele>
        <time>2024-06-13T10:51:02.231Z</time>
      </trkpt>
      <trkpt lat="48.38616" lon="2.45275">
        <ele>83.56</ele>
        <time>2024-06-13T10:51:07.848Z</time>
      </trkpt>
      <trkpt lat="48.38615" lon="2.45268">
        <ele>83.18</ele>
        <time>2024-06-13T10:51:13.466Z</time>
      </trkpt>
      <trkpt lat="48.38615" lon="2.45262">
        <ele>82.84</ele>
        <time>2024-06-13T10:51:19.084Z</time>
      </trkpt>
      <trkpt lat="48.38615" lon="2.45255">
        <ele>82.53</ele>
        <time>2024-06-13T10:51:24.703Z</time>
      </trkpt>
      <trkpt lat="48.38614" lon="2.45235">
        <ele>81.69</ele>
        <time>2024-06-13T10:51:30.324Z</time>
      </trkpt>
      <trkpt lat="48.38613" lon="2.45215">
        <ele>80.99</ele>
        <time>2024-06-13T10:51:35.947Z</time>
      </trkpt>
      <trkpt lat="48.38613" lon="2.45208">
        <ele>80.77</ele>
        <time>2024-06-13T10:51:41.571Z</time>
      </trkpt>
      <trkpt lat="48.38615" lon="2.45202">
        <ele>80.55</ele>
        <time>2024-06-13T10:51:47.196Z</time>
      </trkpt>
      <trkpt lat="48.38616" lon="2.45195">
        <ele>80.35</ele>
        <time>2024-06-13T10:51:52.822Z</time>
      </trkpt>
      <trkpt lat="48.3862" lon="2.45183">
        <ele>80.04</ele>
        <time>2024-06-13T10:51:58.449Z</time>
      </trkpt>
      <trkpt lat="48.38623" lon="2.4517">
        <ele>79.84</ele>
        <time>2024-06-13T10:52:04.078Z</time>
      </trkpt>
      <trkpt lat="48.38626" lon="2.45158">
        <ele>79.74</ele>
        <time>2024-06-13T10:52:09.708Z</time>
      </trkpt>
      <trkpt lat="48.38629" lon="2.45147">
        <ele>79.72</ele>
        <time>2024-06-13T10:52:15.339Z</time>
      </trkpt>
      <trkpt lat="48.38629" lon="2.45145">
        <ele>79.72</ele>
        <time>2024-06-13T10:52:20.970Z</time>
      </trkpt>
      <trkpt lat="48.38631" lon="2.45132">
        <ele>79.78</ele>
        <time>2024-06-13T10:52:26.603Z</time>
      </trkpt>
      <trkpt lat="48.38632" lon="2.4512">
        <ele>79.87</ele>
        <time>2024-06-13T10:52:32.237Z</time>
      </trkpt>
      <trkpt lat="48.38628" lon="2.45104">
        <ele>80</ele>
        <time>2024-06-13T10:52:37.873Z</time>
      </trkpt>
      <trkpt lat="48.38618" lon="2.45085">
        <ele>80.19</ele>
        <time>2024-06-13T10:52:43.512Z</time>
      </trkpt>
      <trkpt lat="48.38603" lon="2.45059">
        <ele>80.51</ele>
        <time>2024-06-13T10:52:49.154Z</time>
      </trkpt>
      <trkpt lat="48.38587" lon="2.45027">
        <ele>80.77</ele>
        <time>2024-06-13T10:52:54.800Z</time>
      </trkpt>
      <trkpt lat="48.38558" lon="2.44975">
        <ele>81.31</ele>
        <time>2024-06-13T10:53:00.454Z</time>
      </trkpt>
      <trkpt lat="48.38553" lon="2.44964">
        <ele>81.44</ele>
        <time>2024-06-13T10:53:06.109Z</time>
      </trkpt>
      <trkpt lat="48.38552" lon="2.44963">
        <ele>81.45</ele>
        <time>2024-06-13T10:53:11.764Z</time>
      </trkpt>
      <trkpt lat="48.38528" lon="2.44934">
        <ele>81.97</ele>
        <time>2024-06-13T10:53:17.424Z</time>
      </trkpt>
      <trkpt lat="48.38521" lon="2.44927">
        <ele>82.16</ele>
        <time>2024-06-13T10:53:23.086Z</time>
      </trkpt>
      <trkpt lat="48.38514" lon="2.44919">
        <ele>82.39</ele>
        <time>2024-06-13T10:53:28.749Z</time>
      </trkpt>
      <trkpt lat="48.38496" lon="2.44899">
        <ele>83.07</ele>
        <time>2024-06-13T10:53:34.416Z</time>
      </trkpt>
      <trkpt lat="48.38478" lon="2.44879">
        <ele>83.67</ele>
        <time>2024-06-13T10:53:40.086Z</time>
      </trkpt>
      <trkpt lat="48.38452" lon="2.44852">
        <ele>84.44</ele>
        <time>2024-06-13T10:53:45.761Z</time>
      </trkpt>
      <trkpt lat="48.38438" lon="2.44836">
        <ele>84.81</ele>
        <time>2024-06-13T10:53:51.439Z</time>
      </trkpt>
      <trkpt lat="48.3842" lon="2.44816">
        <ele>85.22</ele>
        <time>2024-06-13T10:53:57.121Z</time>
      </trkpt>
      <trkpt lat="48.38413" lon="2.44808">
        <ele>85.4</ele>
        <time>2024-06-13T10:54:02.804Z</time>
      </trkpt>
      <trkpt lat="48.38403" lon="2.44798">
        <ele>85.68</ele>
        <time>2024-06-13T10:54:08.489Z</time>
      </trkpt>
      <trkpt lat="48.38398" lon="2.44792">
        <ele>85.84</ele>
        <time>2024-06-13T10:54:14.175Z</time>
      </trkpt>
      <trkpt lat="48.38391" lon="2.44784">
        <ele>86.04</ele>
        <time>2024-06-13T10:54:19.862Z</time>
      </trkpt>
      <trkpt lat="48.38384" lon="2.44776">
        <ele>86.2</ele>
        <time>2024-06-13T10:54:25.551Z</time>
      </trkpt>
      <trkpt lat="48.38362" lon="2.44752">
        <ele>86.57</ele>
        <time>2024-06-13T10:54:31.244Z</time>
      </trkpt>
      <trkpt lat="48.38341" lon="2.44728">
        <ele>86.89</ele>
        <time>2024-06-13T10:54:36.941Z</time>
      </trkpt>
      <trkpt lat="48.38312" lon="2.44695">
        <ele>87.23</ele>
        <time>2024-06-13T10:54:42.644Z</time>
      </trkpt>
      <trkpt lat="48.38305" lon="2.44688">
        <ele>87.27</ele>
        <time>2024-06-13T10:54:48.349Z</time>
      </trkpt>
      <trkpt lat="48.38286" lon="2.4467">
        <ele>87.3</ele>
        <time>2024-06-13T10:54:54.057Z</time>
      </trkpt>
      <trkpt lat="48.38267" lon="2.44652">
        <ele>87.36</ele>
        <time>2024-06-13T10:54:59.769Z</time>
      </trkpt>
      <trkpt lat="48.38259" lon="2.44645">
        <ele>87.4</ele>
        <time>2024-06-13T10:55:05.482Z</time>
      </trkpt>
      <trkpt lat="48.38252" lon="2.44638">
        <ele>87.47</ele>
        <time>2024-06-13T10:55:11.197Z</time>
      </trkpt>
      <trkpt lat="48.3824" lon="2.44627">
        <ele>87.61</ele>
        <time>2024-06-13T10:55:16.914Z</time>
      </trkpt>
      <trkpt lat="48.38239" lon="2.44626">
        <ele>87.63</ele>
        <time>2024-06-13T10:55:22.631Z</time>
      </trkpt>
      <trkpt lat="48.38236" lon="2.44616">
        <ele>87.74</ele>
        <time>2024-06-13T10:55:28.349Z</time>
      </trkpt>
      <trkpt lat="48.38231" lon="2.44604">
        <ele>87.9</ele>
        <time>2024-06-13T10:55:34.069Z</time>
      </trkpt>
      <trkpt lat="48.38225" lon="2.44587">
        <ele>88.18</ele>
        <time>2024-06-13T10:55:39.791Z</time>
      </trkpt>
      <trkpt lat="48.38221" lon="2.44575">
        <ele>88.33</ele>
        <time>2024-06-13T10:55:45.514Z</time>
      </trkpt>
      <trkpt lat="48.38216" lon="2.44561">
        <ele>88.43</ele>
        <time>2024-06-13T10:55:51.239Z</time>
      </trkpt>
      <trkpt lat="48.38201" lon="2.44538">
        <ele>88.66</ele>
        <time>2024-06-13T10:55:56.967Z</time>
      </trkpt>
      <trkpt lat="48.3819" lon="2.44521">
        <ele>88.87</ele>
        <time>2024-06-13T10:56:02.698Z</time>
      </trkpt>
      <trkpt lat="48.38181" lon="2.44502">
        <ele>89.07</ele>
        <time>2024-06-13T10:56:08.431Z</time>
      </trkpt>
      <trkpt lat="48.3817" lon="2.44478">
        <ele>89.2</ele>
        <time>2024-06-13T10:56:14.167Z</time>
      </trkpt>
      <trkpt lat="48.38164" lon="2.44463">
        <ele>89.29</ele>
        <time>2024-06-13T10:56:19.905Z</time>
      </trkpt>
      <trkpt lat="48.38151" lon="2.44428">
        <ele>89.56</ele>
        <time>2024-06-13T10:56:25.648Z</time>
      </trkpt>
      <trkpt lat="48.38143" lon="2.44408">
        <ele>89.6</ele>
        <time>2024-06-13T10:56:31.393Z</time>
      </trkpt>
      <trkpt lat="48.38139" lon="2.44392">
        <ele>89.63</ele>
        <time>2024-06-13T10:56:37.140Z</time>
      </trkpt>
      <trkpt lat="48.38134" lon="2.44373">
        <ele>89.73</ele>
        <time>2024-06-13T10:56:42.889Z</time>
      </trkpt>
      <trkpt lat="48.38129" lon="2.44355">
        <ele>89.87</ele>
        <time>2024-06-13T10:56:48.640Z</time>
      </trkpt>
      <trkpt lat="48.38127" lon="2.44349">
        <ele>90.19</ele>
        <time>2024-06-13T10:56:54.392Z</time>
      </trkpt>
      <trkpt lat="48.38127" lon="2.44349">
        <ele>90.19</ele>
        <time>2024-06-13T10:57:00.144Z</time>
      </trkpt>
      <trkpt lat="48.38123" lon="2.44354">
        <ele>90.55</ele>
        <time>2024-06-13T10:57:05.897Z</time>
      </trkpt>
      <trkpt lat="48.3812" lon="2.44358">
        <ele>90.97</ele>
        <time>2024-06-13T10:57:11.650Z</time>
      </trkpt>
      <trkpt lat="48.38115" lon="2.44364">
        <ele>91.6</ele>
        <time>2024-06-13T10:57:17.404Z</time>
      </trkpt>
      <trkpt lat="48.38113" lon="2.44367">
        <ele>91.88</ele>
        <time>2024-06-13T10:57:23.159Z</time>
      </trkpt>
      <trkpt lat="48.38111" lon="2.44373">
        <ele>92.3</ele>
        <time>2024-06-13T10:57:28.914Z</time>
      </trkpt>
      <trkpt lat="48.38107" lon="2.44381">
        <ele>92.85</ele>
        <time>2024-06-13T10:57:34.671Z</time>
      </trkpt>
      <trkpt lat="48.38101" lon="2.44384">
        <ele>93.42</ele>
        <time>2024-06-13T10:57:40.429Z</time>
      </trkpt>
      <trkpt lat="48.38096" lon="2.44386">
        <ele>93.86</ele>
        <time>2024-06-13T10:57:46.187Z</time>
      </trkpt>
      <trkpt lat="48.38092" lon="2.44388">
        <ele>94.38</ele>
        <time>2024-06-13T10:57:51.946Z</time>
      </trkpt>
      <trkpt lat="48.38088" lon="2.4439">
        <ele>94.99</ele>
        <time>2024-06-13T10:57:57.706Z</time>
      </trkpt>
      <trkpt lat="48.38084" lon="2.44392">
        <ele>95.7</ele>
        <time>2024-06-13T10:58:03.466Z</time>
      </trkpt>
      <trkpt lat="48.38074" lon="2.44397">
        <ele>97.45</ele>
        <time>2024-06-13T10:58:09.228Z</time>
      </trkpt>
      <trkpt lat="48.38072" lon="2.44402">
        <ele>98.05</ele>
        <time>2024-06-13T10:58:14.991Z</time>
      </trkpt>
      <trkpt lat="48.3807" lon="2.44408">
        <ele>98.74</ele>
        <time>2024-06-13T10:58:20.754Z</time>
      </trkpt>
      <trkpt lat="48.38066" lon="2.4442">
        <ele>100.01</ele>
        <time>2024-06-13T10:58:26.519Z</time>
      </trkpt>
      <trkpt lat="48.38064" lon="2.44426">
        <ele>100.72</ele>
        <time>2024-06-13T10:58:32.284Z</time>
      </trkpt>
      <trkpt lat="48.38062" lon="2.44432">
        <ele>101.55</ele>
        <time>2024-06-13T10:58:38.050Z</time>
      </trkpt>
      <trkpt lat="48.3806" lon="2.44438">
        <ele>102.49</ele>
        <time>2024-06-13T10:58:43.817Z</time>
      </trkpt>
      <trkpt lat="48.38054" lon="2.44456">
        <ele>105.56</ele>
        <time>2024-06-13T10:58:49.586Z</time>
      </trkpt>
      <trkpt lat="48.38053" lon="2.44459">
        <ele>106.11</ele>
        <time>2024-06-13T10:58:55.355Z</time>
      </trkpt>
      <trkpt lat="48.38053" lon="2.44462">
        <ele>106.52</ele>
        <time>2024-06-13T10:59:01.125Z</time>
      </trkpt>
      <trkpt lat="48.38054" lon="2.44469">
        <ele>107.42</ele>
        <time>2024-06-13T10:59:06.896Z</time>
      </trkpt>
      <trkpt lat="48.38054" lon="2.44472">
        <ele>107.85</ele>
        <time>2024-06-13T10:59:12.667Z</time>
      </trkpt>
      <trkpt lat="48.38052" lon="2.44474">
        <ele>108.27</ele>
        <time>2024-06-13T10:59:18.438Z</time>
      </trkpt>
      <trkpt lat="48.38044" lon="2.4448">
        <ele>109.87</ele>
        <time>2024-06-13T10:59:24.211Z</time>
      </trkpt>
      <trkpt lat="48.3804" lon="2.44484">
        <ele>110.63</ele>
        <time>2024-06-13T10:59:29.984Z</time>
      </trkpt>
      <trkpt lat="48.38039" lon="2.44485">
        <ele>110.9</ele>
        <time>2024-06-13T10:59:35.758Z</time>
      </trkpt>
      <trkpt lat="48.38033" lon="2.445">
        <ele>112.78</ele>
        <time>2024-06-13T10:59:41.534Z</time>
      </trkpt>
      <trkpt lat="48.38031" lon="2.44506">
        <ele>113.55</ele>
        <time>2024-06-13T10:59:47.310Z</time>
      </trkpt>
      <trkpt lat="48.3803" lon="2.4451">
        <ele>114.04</ele>
        <time>2024-06-13T10:59:53.087Z</time>
      </trkpt>
      <trkpt lat="48.38026" lon="2.44518">
        <ele>115.16</ele>
        <time>2024-06-13T10:59:58.865Z</time>
      </trkpt>
      <trkpt lat="48.38024" lon="2.44523">
        <ele>115.85</ele>
        <time>2024-06-13T11:00:04.643Z</time>
      </trkpt>
      <trkpt lat="48.38021" lon="2.44528">
        <ele>116.39</ele>
        <time>2024-06-13T11:00:10.422Z</time>
      </trkpt>
      <trkpt lat="48.38018" lon="2.44534">
        <ele>116.77</ele>
        <time>2024-06-13T11:00:16.202Z</time>
      </trkpt>
      <trkpt lat="48.38016" lon="2.44539">
        <ele>117.01</ele>
        <time>2024-06-13T11:00:21.983Z</time>
      </trkpt>
      <trkpt lat="48.38013" lon="2.44545">
        <ele>117.15</ele>
        <time>2024-06-13T11:00:27.764Z</time>
      </trkpt>
      <trkpt lat="48.3801" lon="2.4455">
        <ele>117.21</ele>
        <time>2024-06-13T11:00:33.546Z</time>
      </trkpt>
      <trkpt lat="48.38008" lon="2.44556">
        <ele>117.22</ele>
        <time>2024-06-13T11:00:39.329Z</time>
      </trkpt>
      <trkpt lat="48.38005" lon="2.44561">
        <ele>117.19</ele>
        <time>2024-06-13T11:00:45.112Z</time>
      </trkpt>
      <trkpt lat="48.37997" lon="2.44577">
        <ele>117.02</ele>
        <time>2024-06-13T11:00:50.898Z</time>
      </trkpt>
      <trkpt lat="48.37995" lon="2.44583">
        <ele>116.98</ele>
        <time>2024-06-13T11:00:56.684Z</time>
      </trkpt>
      <trkpt lat="48.37992" lon="2.44588">
        <ele>116.96</ele>
        <time>2024-06-13T11:01:02.471Z</time>
      </trkpt>
      <trkpt lat="48.37989" lon="2.44608">
        <ele>116.91</ele>
        <time>2024-06-13T11:01:08.260Z</time>
      </trkpt>
      <trkpt lat="48.37988" lon="2.44614">
        <ele>116.86</ele>
        <time>2024-06-13T11:01:14.050Z</time>
      </trkpt>
      <trkpt lat="48.37986" lon="2.44621">
        <ele>116.74</ele>
        <time>2024-06-13T11:01:19.841Z</time>
      </trkpt>
      <trkpt lat="48.37985" lon="2.44627">
        <ele>116.55</ele>
        <time>2024-06-13T11:01:25.632Z</time>
      </trkpt>
      <trkpt lat="48.37984" lon="2.44634">
        <ele>116.28</ele>
        <time>2024-06-13T11:01:31.424Z</time>
      </trkpt>
      <trkpt lat="48.37983" lon="2.4464">
        <ele>115.96</ele>
        <time>2024-06-13T11:01:37.217Z</time>
      </trkpt>
      <trkpt lat="48.37982" lon="2.44647">
        <ele>115.59</ele>
        <time>2024-06-13T11:01:43.011Z</time>
      </trkpt>
      <trkpt lat="48.37984" lon="2.44653">
        <ele>115.24</ele>
        <time>2024-06-13T11:01:48.805Z</time>
      </trkpt>
      <trkpt lat="48.37985" lon="2.44659">
        <ele>114.93</ele>
        <time>2024-06-13T11:01:54.600Z</time>
      </trkpt>
      <trkpt lat="48.37987" lon="2.44666">
        <ele>114.7</ele>
        <time>2024-06-13T11:02:00.396Z</time>
      </trkpt>
      <trkpt lat="48.37988" lon="2.44672">
        <ele>114.56</ele>
        <time>2024-06-13T11:02:06.192Z</time>
      </trkpt>
      <trkpt lat="48.3799" lon="2.44678">
        <ele>114.51</ele>
        <time>2024-06-13T11:02:11.989Z</time>
      </trkpt>
      <trkpt lat="48.37992" lon="2.44685">
        <ele>114.54</ele>
        <time>2024-06-13T11:02:17.787Z</time>
      </trkpt>
      <trkpt lat="48.37993" lon="2.44691">
        <ele>114.62</ele>
        <time>2024-06-13T11:02:23.586Z</time>
      </trkpt>
      <trkpt lat="48.37994" lon="2.44693">
        <ele>114.65</ele>
        <time>2024-06-13T11:02:29.385Z</time>
      </trkpt>
      <trkpt lat="48.38" lon="2.447">
        <ele>114.83</ele>
        <time>2024-06-13T11:02:35.185Z</time>
      </trkpt>
      <trkpt lat="48.38003" lon="2.44704">
        <ele>114.9</ele>
        <time>2024-06-13T11:02:40.986Z</time>
      </trkpt>
      <trkpt lat="48.38006" lon="2.44709">
        <ele>114.94</ele>
        <time>2024-06-13T11:02:46.787Z</time>
      </trkpt>
      <trkpt lat="48.3801" lon="2.44713">
        <ele>114.95</ele>
        <time>2024-06-13T11:02:52.589Z</time>
      </trkpt>
      <trkpt lat="48.3802" lon="2.44726">
        <ele>114.86</ele>
        <time>2024-06-13T11:02:58.393Z</time>
      </trkpt>
      <trkpt lat="48.3802" lon="2.44726">
        <ele>114.86</ele>
        <time>2024-06-13T11:03:04.197Z</time>
      </trkpt>
      <trkpt lat="48.38023" lon="2.44732">
        <ele>114.86</ele>
        <time>2024-06-13T11:03:10.002Z</time>
      </trkpt>
      <trkpt lat="48.38025" lon="2.44737">
        <ele>114.91</ele>
        <time>2024-06-13T11:03:15.808Z</time>
      </trkpt>
      <trkpt lat="48.38028" lon="2.44742">
        <ele>115.02</ele>
        <time>2024-06-13T11:03:21.614Z</time>
      </trkpt>
      <trkpt lat="48.38031" lon="2.44748">
        <ele>115.19</ele>
        <time>2024-06-13T11:03:27.421Z</time>
      </trkpt>
      <trkpt lat="48.38036" lon="2.44759">
        <ele>115.62</ele>
        <time>2024-06-13T11:03:33.230Z</time>
      </trkpt>
      <trkpt lat="48.38038" lon="2.44764">
        <ele>115.81</ele>
        <time>2024-06-13T11:03:39.039Z</time>
      </trkpt>
      <trkpt lat="48.38041" lon="2.4477">
        <ele>115.91</ele>
        <time>2024-06-13T11:03:44.849Z</time>
      </trkpt>
      <trkpt lat="48.38044" lon="2.44775">
        <ele>115.91</ele>
        <time>2024-06-13T11:03:50.660Z</time>
      </trkpt>
      <trkpt lat="48.38046" lon="2.44781">
        <ele>115.8</ele>
        <time>2024-06-13T11:03:56.471Z</time>
      </trkpt>
      <trkpt lat="48.38049" lon="2.44786">
        <ele>115.6</ele>
        <time>2024-06-13T11:04:02.283Z</time>
      </trkpt>
      <trkpt lat="48.38057" lon="2.44802">
        <ele>114.91</ele>
        <time>2024-06-13T11:04:08.097Z</time>
      </trkpt>
      <trkpt lat="48.3806" lon="2.44808">
        <ele>114.71</ele>
        <time>2024-06-13T11:04:13.912Z</time>
      </trkpt>
      <trkpt lat="48.38073" lon="2.44835">
        <ele>113.8</ele>
        <time>2024-06-13T11:04:19.731Z</time>
      </trkpt>
      <trkpt lat="48.38075" lon="2.4484">
        <ele>113.66</ele>
        <time>2024-06-13T11:04:25.550Z</time>
      </trkpt>
      <trkpt lat="48.38078" lon="2.44846">
        <ele>113.58</ele>
        <time>2024-06-13T11:04:31.370Z</time>
      </trkpt>
      <trkpt lat="48.3808" lon="2.44852">
        <ele>113.61</ele>
        <time>2024-06-13T11:04:37.191Z</time>
      </trkpt>
      <trkpt lat="48.38081" lon="2.44859">
        <ele>113.75</ele>
        <time>2024-06-13T11:04:43.012Z</time>
      </trkpt>
      <trkpt lat="48.38083" lon="2.44865">
        <ele>114.02</ele>
        <time>2024-06-13T11:04:48.834Z</time>
      </trkpt>
      <trkpt lat="48.38084" lon="2.44871">
        <ele>114.42</ele>
        <time>2024-06-13T11:04:54.657Z</time>
      </trkpt>
      <trkpt lat="48.38085" lon="2.44874">
        <ele>114.64</ele>
        <time>2024-06-13T11:05:00.480Z</time>
      </trkpt>
      <trkpt lat="48.38085" lon="2.44878">
        <ele>114.93</ele>
        <time>2024-06-13T11:05:06.304Z</time>
      </trkpt>
      <trkpt lat="48.38086" lon="2.44897">
        <ele>116.75</ele>
        <time>2024-06-13T11:05:12.130Z</time>
      </trkpt>
      <trkpt lat="48.38087" lon="2.44897">
        <ele>116.75</ele>
        <time>2024-06-13T11:05:17.956Z</time>
      </trkpt>
      <trkpt lat="48.38091" lon="2.44899">
        <ele>117.28</ele>
        <time>2024-06-13T11:05:23.782Z</time>
      </trkpt>
      <trkpt lat="48.38095" lon="2.449">
        <ele>117.71</ele>
        <time>2024-06-13T11:05:29.609Z</time>
      </trkpt>
      <trkpt lat="48.381" lon="2.44902">
        <ele>118.02</ele>
        <time>2024-06-13T11:05:35.437Z</time>
      </trkpt>
      <trkpt lat="48.38104" lon="2.44904">
        <ele>118.22</ele>
        <time>2024-06-13T11:05:41.266Z</time>
      </trkpt>
      <trkpt lat="48.38105" lon="2.44904">
        <ele>118.24</ele>
        <time>2024-06-13T11:05:47.095Z</time>
      </trkpt>
      <trkpt lat="48.38108" lon="2.44907">
        <ele>118.33</ele>
        <time>2024-06-13T11:05:52.924Z</time>
      </trkpt>
      <trkpt lat="48.38115" lon="2.44915">
        <ele>118.44</ele>
        <time>2024-06-13T11:05:58.755Z</time>
      </trkpt>
      <trkpt lat="48.38119" lon="2.44918">
        <ele>118.52</ele>
        <time>2024-06-13T11:06:04.587Z</time>
      </trkpt>
      <trkpt lat="48.38122" lon="2.44922">
        <ele>118.65</ele>
        <time>2024-06-13T11:06:10.419Z</time>
      </trkpt>
      <trkpt lat="48.38126" lon="2.44926">
        <ele>118.85</ele>
        <time>2024-06-13T11:06:16.252Z</time>
      </trkpt>
      <trkpt lat="48.38128" lon="2.44928">
        <ele>118.98</ele>
        <time>2024-06-13T11:06:22.085Z</time>
      </trkpt>
      <trkpt lat="48.3813" lon="2.44928">
        <ele>119.11</ele>
        <time>2024-06-13T11:06:27.919Z</time>
      </trkpt>
      <trkpt lat="48.38139" lon="2.44931">
        <ele>119.68</ele>
        <time>2024-06-13T11:06:33.754Z</time>
      </trkpt>
      <trkpt lat="48.38141" lon="2.44931">
        <ele>119.8</ele>
        <time>2024-06-13T11:06:39.589Z</time>
      </trkpt>
      <trkpt lat="48.38143" lon="2.44934">
        <ele>119.95</ele>
        <time>2024-06-13T11:06:45.425Z</time>
      </trkpt>
      <trkpt lat="48.38146" lon="2.44939">
        <ele>120.19</ele>
        <time>2024-06-13T11:06:51.262Z</time>
      </trkpt>
      <trkpt lat="48.38149" lon="2.44943">
        <ele>120.41</ele>
        <time>2024-06-13T11:06:57.099Z</time>
      </trkpt>
      <trkpt lat="48.38152" lon="2.44948">
        <ele>120.59</ele>
        <time>2024-06-13T11:07:02.937Z</time>
      </trkpt>
      <trkpt lat="48.38155" lon="2.44953">
        <ele>120.74</ele>
        <time>2024-06-13T11:07:08.776Z</time>
      </trkpt>
      <trkpt lat="48.38155" lon="2.44953">
        <ele>120.74</ele>
        <time>2024-06-13T11:07:14.615Z</time>
      </trkpt>
      <trkpt lat="48.38155" lon="2.4496">
        <ele>120.85</ele>
        <time>2024-06-13T11:07:20.454Z</time>
      </trkpt>
      <trkpt lat="48.38155" lon="2.44967">
        <ele>120.92</ele>
        <time>2024-06-13T11:07:26.294Z</time>
      </trkpt>
      <trkpt lat="48.38155" lon="2.44973">
        <ele>120.96</ele>
        <time>2024-06-13T11:07:32.135Z</time>
      </trkpt>
      <trkpt lat="48.38155" lon="2.4498">
        <ele>120.97</ele>
        <time>2024-06-13T11:07:37.977Z</time>
      </trkpt>
      <trkpt lat="48.38155" lon="2.45002">
        <ele>120.92</ele>
        <time>2024-06-13T11:07:43.821Z</time>
      </trkpt>
      <trkpt lat="48.38154" lon="2.45007">
        <ele>120.91</ele>
        <time>2024-06-13T11:07:49.665Z</time>
      </trkpt>
      <trkpt lat="48.3815" lon="2.45019">
        <ele>120.95</ele>
        <time>2024-06-13T11:07:55.511Z</time>
      </trkpt>
      <trkpt lat="48.38147" lon="2.45029">
        <ele>121.06</ele>
        <time>2024-06-13T11:08:01.358Z</time>
      </trkpt>
      <trkpt lat="48.38141" lon="2.45042">
        <ele>121.22</ele>
        <time>2024-06-13T11:08:07.207Z</time>
      </trkpt>
      <trkpt lat="48.38137" lon="2.45049">
        <ele>121.27</ele>
        <time>2024-06-13T11:08:13.057Z</time>
      </trkpt>
      <trkpt lat="48.38138" lon="2.45053">
        <ele>121.3</ele>
        <time>2024-06-13T11:08:18.907Z</time>
      </trkpt>
      <trkpt lat="48.3814" lon="2.45066">
        <ele>121.34</ele>
        <time>2024-06-13T11:08:24.759Z</time>
      </trkpt>
      <trkpt lat="48.38148" lon="2.45112">
        <ele>121.34</ele>
        <time>2024-06-13T11:08:30.616Z</time>
      </trkpt>
      <trkpt lat="48.3815" lon="2.45118">
        <ele>121.35</ele>
        <time>2024-06-13T11:08:36.473Z</time>
      </trkpt>
      <trkpt lat="48.38153" lon="2.4513">
        <ele>121.37</ele>
        <time>2024-06-13T11:08:42.332Z</time>
      </trkpt>
      <trkpt lat="48.38159" lon="2.45149">
        <ele>121.43</ele>
        <time>2024-06-13T11:08:48.193Z</time>
      </trkpt>
      <trkpt lat="48.38164" lon="2.45167">
        <ele>121.57</ele>
        <time>2024-06-13T11:08:54.056Z</time>
      </trkpt>
      <trkpt lat="48.38166" lon="2.45173">
        <ele>121.61</ele>
        <time>2024-06-13T11:08:59.920Z</time>
      </trkpt>
      <trkpt lat="48.38158" lon="2.45166">
        <ele>121.72</ele>
        <time>2024-06-13T11:09:05.785Z</time>
      </trkpt>
      <trkpt lat="48.38142" lon="2.45154">
        <ele>121.86</ele>
        <time>2024-06-13T11:09:11.653Z</time>
      </trkpt>
      <trkpt lat="48.3812" lon="2.45147">
        <ele>122.04</ele>
        <time>2024-06-13T11:09:17.525Z</time>
      </trkpt>
      <trkpt lat="48.38102" lon="2.45142">
        <ele>122.22</ele>
        <time>2024-06-13T11:09:23.400Z</time>
      </trkpt>
      <trkpt lat="48.38067" lon="2.45146">
        <ele>122.59</ele>
        <time>2024-06-13T11:09:29.280Z</time>
      </trkpt>
      <trkpt lat="48.38049" lon="2.45148">
        <ele>122.87</ele>
        <time>2024-06-13T11:09:35.163Z</time>
      </trkpt>
      <trkpt lat="48.38022" lon="2.45151">
        <ele>123.42</ele>
        <time>2024-06-13T11:09:41.050Z</time>
      </trkpt>
      <trkpt lat="48.38" lon="2.45154">
        <ele>123.72</ele>
        <time>2024-06-13T11:09:46.941Z</time>
      </trkpt>
      <trkpt lat="48.38" lon="2.45154">
        <ele>123.72</ele>
        <time>2024-06-13T11:09:52.832Z</time>
      </trkpt>
      <trkpt lat="48.37991" lon="2.45151">
        <ele>123.81</ele>
        <time>2024-06-13T11:09:58.724Z</time>
      </trkpt>
      <trkpt lat="48.37983" lon="2.45148">
        <ele>123.86</ele>
        <time>2024-06-13T11:10:04.618Z</time>
      </trkpt>
      <trkpt lat="48.37965" lon="2.45141">
        <ele>123.91</ele>
        <time>2024-06-13T11:10:10.515Z</time>
      </trkpt>
      <trkpt lat="48.37957" lon="2.45138">
        <ele>123.95</ele>
        <time>2024-06-13T11:10:16.413Z</time>
      </trkpt>
      <trkpt lat="48.37957" lon="2.45138">
        <ele>123.95</ele>
        <time>2024-06-13T11:10:22.311Z</time>
      </trkpt>
      <trkpt lat="48.37948" lon="2.45133">
        <ele>124.03</ele>
        <time>2024-06-13T11:10:28.211Z</time>
      </trkpt>
      <trkpt lat="48.3794" lon="2.45129">
        <ele>124.13</ele>
        <time>2024-06-13T11:10:34.112Z</time>
      </trkpt>
      <trkpt lat="48.37931" lon="2.45125">
        <ele>124.26</ele>
        <time>2024-06-13T11:10:40.014Z</time>
      </trkpt>
      <trkpt lat="48.37906" lon="2.45112">
        <ele>124.8</ele>
        <time>2024-06-13T11:10:45.921Z</time>
      </trkpt>
      <trkpt lat="48.37872" lon="2.45095">
        <ele>125.41</ele>
        <time>2024-06-13T11:10:51.834Z</time>
      </trkpt>
      <trkpt lat="48.37834" lon="2.45075">
        <ele>126.03</ele>
        <time>2024-06-13T11:10:57.753Z</time>
      </trkpt>
      <trkpt lat="48.37827" lon="2.45072">
        <ele>126.14</ele>
        <time>2024-06-13T11:11:03.673Z</time>
      </trkpt>
      <trkpt lat="48.37805" lon="2.45055">
        <ele>126.54</ele>
        <time>2024-06-13T11:11:09.597Z</time>
      </trkpt>
      <trkpt lat="48.37797" lon="2.45049">
        <ele>126.65</ele>
        <time>2024-06-13T11:11:15.522Z</time>
      </trkpt>
      <trkpt lat="48.37794" lon="2.45046">
        <ele>126.68</ele>
        <time>2024-06-13T11:11:21.448Z</time>
      </trkpt>
      <trkpt lat="48.37786" lon="2.45039">
        <ele>126.71</ele>
        <time>2024-06-13T11:11:27.376Z</time>
      </trkpt>
      <trkpt lat="48.37778" lon="2.45033">
        <ele>126.7</ele>
        <time>2024-06-13T11:11:33.305Z</time>
      </trkpt>
      <trkpt lat="48.37766" lon="2.45024">
        <ele>126.67</ele>
        <time>2024-06-13T11:11:39.236Z</time>
      </trkpt>
      <trkpt lat="48.37746" lon="2.45008">
        <ele>126.56</ele>
        <time>2024-06-13T11:11:45.171Z</time>
      </trkpt>
      <trkpt lat="48.3772" lon="2.44982">
        <ele>126.53</ele>
        <time>2024-06-13T11:11:51.111Z</time>
      </trkpt>
      <trkpt lat="48.37713" lon="2.44975">
        <ele>126.5</ele>
        <time>2024-06-13T11:11:57.052Z</time>
      </trkpt>
      <trkpt lat="48.37672" lon="2.44934">
        <ele>126.23</ele>
        <time>2024-06-13T11:12:03.001Z</time>
      </trkpt>
      <trkpt lat="48.3766" lon="2.44922">
        <ele>126.2</ele>
        <time>2024-06-13T11:12:08.952Z</time>
      </trkpt>
      <trkpt lat="48.37645" lon="2.44907">
        <ele>126.18</ele>
        <time>2024-06-13T11:12:14.906Z</time>
      </trkpt>
      <trkpt lat="48.37642" lon="2.44904">
        <ele>126.18</ele>
        <time>2024-06-13T11:12:20.861Z</time>
      </trkpt>
      <trkpt lat="48.3763" lon="2.44893">
        <ele>126.14</ele>
        <time>2024-06-13T11:12:26.818Z</time>
      </trkpt>
      <trkpt lat="48.37623" lon="2.44886">
        <ele>126.08</ele>
        <time>2024-06-13T11:12:32.776Z</time>
      </trkpt>
      <trkpt lat="48.37615" lon="2.44879">
        <ele>126</ele>
        <time>2024-06-13T11:12:38.736Z</time>
      </trkpt>
      <trkpt lat="48.37592" lon="2.44858">
        <ele>125.61</ele>
        <time>2024-06-13T11:12:44.700Z</time>
      </trkpt>
      <trkpt lat="48.37577" lon="2.44844">
        <ele>125.39</ele>
        <time>2024-06-13T11:12:50.667Z</time>
      </trkpt>
      <trkpt lat="48.37573" lon="2.44841">
        <ele>125.36</ele>
        <time>2024-06-13T11:12:56.635Z</time>
      </trkpt>
      <trkpt lat="48.37574" lon="2.44834">
        <ele>125.33</ele>
        <time>2024-06-13T11:13:02.603Z</time>
      </trkpt>
      <trkpt lat="48.37579" lon="2.44795">
        <ele>125.06</ele>
        <time>2024-06-13T11:13:08.576Z</time>
      </trkpt>
      <trkpt lat="48.37586" lon="2.44742">
        <ele>124.83</ele>
        <time>2024-06-13T11:13:14.554Z</time>
      </trkpt>
      <trkpt lat="48.3759" lon="2.44716">
        <ele>124.65</ele>
        <time>2024-06-13T11:13:20.535Z</time>
      </trkpt>
      <trkpt lat="48.37592" lon="2.44696">
        <ele>124.46</ele>
        <time>2024-06-13T11:13:26.518Z</time>
      </trkpt>
      <trkpt lat="48.376" lon="2.44637">
        <ele>123.75</ele>
        <time>2024-06-13T11:13:32.508Z</time>
      </trkpt>
      <trkpt lat="48.37603" lon="2.44617">
        <ele>123.56</ele>
        <time>2024-06-13T11:13:38.500Z</time>
      </trkpt>
      <trkpt lat="48.37605" lon="2.44598">
        <ele>123.45</ele>
        <time>2024-06-13T11:13:44.494Z</time>
      </trkpt>
      <trkpt lat="48.37612" lon="2.44545">
        <ele>123.24</ele>
        <time>2024-06-13T11:13:50.494Z</time>
      </trkpt>
      <trkpt lat="48.37616" lon="2.44519">
        <ele>123.06</ele>
        <time>2024-06-13T11:13:56.497Z</time>
      </trkpt>
      <trkpt lat="48.37617" lon="2.44509">
        <ele>122.96</ele>
        <time>2024-06-13T11:14:02.501Z</time>
      </trkpt>
      <trkpt lat="48.37618" lon="2.44505">
        <ele>122.93</ele>
        <time>2024-06-13T11:14:08.505Z</time>
      </trkpt>
      <trkpt lat="48.37624" lon="2.4446">
        <ele>122.37</ele>
        <time>2024-06-13T11:14:14.514Z</time>
      </trkpt>
      <trkpt lat="48.37632" lon="2.44407">
        <ele>121.85</ele>
        <time>2024-06-13T11:14:20.529Z</time>
      </trkpt>
      <trkpt lat="48.37635" lon="2.44388">
        <ele>121.63</ele>
        <time>2024-06-13T11:14:26.546Z</time>
      </trkpt>
      <trkpt lat="48.3764" lon="2.44355">
        <ele>121.22</ele>
        <time>2024-06-13T11:14:32.567Z</time>
      </trkpt>
      <trkpt lat="48.37643" lon="2.44335">
        <ele>120.94</ele>
        <time>2024-06-13T11:14:38.590Z</time>
      </trkpt>
      <trkpt lat="48.37646" lon="2.44316">
        <ele>120.62</ele>
        <time>2024-06-13T11:14:44.615Z</time>
      </trkpt>
      <trkpt lat="48.37648" lon="2.44303">
        <ele>120.38</ele>
        <time>2024-06-13T11:14:50.641Z</time>
      </trkpt>
      <trkpt lat="48.37651" lon="2.44283">
        <ele>119.92</ele>
        <time>2024-06-13T11:14:56.670Z</time>
      </trkpt>
      <trkpt lat="48.37653" lon="2.4427">
        <ele>119.55</ele>
        <time>2024-06-13T11:15:02.700Z</time>
      </trkpt>
      <trkpt lat="48.37657" lon="2.44244">
        <ele>118.77</ele>
        <time>2024-06-13T11:15:08.733Z</time>
      </trkpt>
      <trkpt lat="48.37659" lon="2.44231">
        <ele>118.41</ele>
        <time>2024-06-13T11:15:14.767Z</time>
      </trkpt>
      <trkpt lat="48.37661" lon="2.44218">
        <ele>118.09</ele>
        <time>2024-06-13T11:15:20.803Z</time>
      </trkpt>
      <trkpt lat="48.37663" lon="2.44205">
        <ele>117.8</ele>
        <time>2024-06-13T11:15:26.840Z</time>
      </trkpt>
      <trkpt lat="48.37664" lon="2.44198">
        <ele>117.6</ele>
        <time>2024-06-13T11:15:32.878Z</time>
      </trkpt>
      <trkpt lat="48.37671" lon="2.44181">
        <ele>117.03</ele>
        <time>2024-06-13T11:15:38.918Z</time>
      </trkpt>
      <trkpt lat="48.37682" lon="2.44152">
        <ele>116.23</ele>
        <time>2024-06-13T11:15:44.962Z</time>
      </trkpt>
      <trkpt lat="48.37687" lon="2.4414">
        <ele>115.88</ele>
        <time>2024-06-13T11:15:51.007Z</time>
      </trkpt>
      <trkpt lat="48.37689" lon="2.44134">
        <ele>115.68</ele>
        <time>2024-06-13T11:15:57.053Z</time>
      </trkpt>
      <trkpt lat="48.37692" lon="2.44128">
        <ele>115.45</ele>
        <time>2024-06-13T11:16:03.099Z</time>
      </trkpt>
      <trkpt lat="48.37694" lon="2.44123">
        <ele>115.17</ele>
        <time>2024-06-13T11:16:09.146Z</time>
      </trkpt>
      <trkpt lat="48.37696" lon="2.44117">
        <ele>114.86</ele>
        <time>2024-06-13T11:16:15.194Z</time>
      </trkpt>
      <trkpt lat="48.37703" lon="2.44099">
        <ele>113.85</ele>
        <time>2024-06-13T11:16:21.244Z</time>
      </trkpt>
      <trkpt lat="48.37705" lon="2.44094">
        <ele>113.55</ele>
        <time>2024-06-13T11:16:27.295Z</time>
      </trkpt>
      <trkpt lat="48.37708" lon="2.44088">
        <ele>113.29</ele>
        <time>2024-06-13T11:16:33.346Z</time>
      </trkpt>
      <trkpt lat="48.3771" lon="2.44082">
        <ele>113.06</ele>
        <time>2024-06-13T11:16:39.398Z</time>
      </trkpt>
      <trkpt lat="48.37713" lon="2.44074">
        <ele>112.82</ele>
        <time>2024-06-13T11:16:45.451Z</time>
      </trkpt>
      <trkpt lat="48.37715" lon="2.44071">
        <ele>112.72</ele>
        <time>2024-06-13T11:16:51.505Z</time>
      </trkpt>
      <trkpt lat="48.37718" lon="2.44066">
        <ele>112.58</ele>
        <time>2024-06-13T11:16:57.559Z</time>
      </trkpt>
      <trkpt lat="48.37725" lon="2.44057">
        <ele>112.4</ele>
        <time>2024-06-13T11:17:03.615Z</time>
      </trkpt>
      <trkpt lat="48.37728" lon="2.44052">
        <ele>112.35</ele>
        <time>2024-06-13T11:17:09.672Z</time>
      </trkpt>
      <trkpt lat="48.37731" lon="2.44047">
        <ele>112.33</ele>
        <time>2024-06-13T11:17:15.729Z</time>
      </trkpt>
      <trkpt lat="48.37734" lon="2.44042">
        <ele>112.35</ele>
        <time>2024-06-13T11:17:21.787Z</time>
      </trkpt>
      <trkpt lat="48.37737" lon="2.44038">
        <ele>112.39</ele>
        <time>2024-06-13T11:17:27.846Z</time>
      </trkpt>
      <trkpt lat="48.3774" lon="2.44033">
        <ele>112.46</ele>
        <time>2024-06-13T11:17:33.905Z</time>
      </trkpt>
      <trkpt lat="48.37744" lon="2.44028">
        <ele>112.57</ele>
        <time>2024-06-13T11:17:39.965Z</time>
      </trkpt>
      <trkpt lat="48.37747" lon="2.44023">
        <ele>112.71</ele>
        <time>2024-06-13T11:17:46.026Z</time>
      </trkpt>
      <trkpt lat="48.3775" lon="2.44019">
        <ele>112.89</ele>
        <time>2024-06-13T11:17:52.088Z</time>
      </trkpt>
      <trkpt lat="48.37753" lon="2.44014">
        <ele>113.11</ele>
        <time>2024-06-13T11:17:58.150Z</time>
      </trkpt>
      <trkpt lat="48.37766" lon="2.43995">
        <ele>114.11</ele>
        <time>2024-06-13T11:18:04.215Z</time>
      </trkpt>
      <trkpt lat="48.37767" lon="2.43993">
        <ele>114.19</ele>
        <time>2024-06-13T11:18:10.280Z</time>
      </trkpt>
      <trkpt lat="48.3777" lon="2.43992">
        <ele>114.33</ele>
        <time>2024-06-13T11:18:16.346Z</time>
      </trkpt>
      <trkpt lat="48.37774" lon="2.43991">
        <ele>114.51</ele>
        <time>2024-06-13T11:18:22.413Z</time>
      </trkpt>
      <trkpt lat="48.37779" lon="2.43991">
        <ele>114.64</ele>
        <time>2024-06-13T11:18:28.480Z</time>
      </trkpt>
      <trkpt lat="48.37783" lon="2.4399">
        <ele>114.73</ele>
        <time>2024-06-13T11:18:34.548Z</time>
      </trkpt>
      <trkpt lat="48.37788" lon="2.43989">
        <ele>114.79</ele>
        <time>2024-06-13T11:18:40.617Z</time>
      </trkpt>
      <trkpt lat="48.378" lon="2.43986">
        <ele>114.88</ele>
        <time>2024-06-13T11:18:46.688Z</time>
      </trkpt>
      <trkpt lat="48.37801" lon="2.43985">
        <ele>114.88</ele>
        <time>2024-06-13T11:18:52.759Z</time>
      </trkpt>
      <trkpt lat="48.37811" lon="2.43972">
        <ele>114.91</ele>
        <time>2024-06-13T11:18:58.832Z</time>
      </trkpt>
      <trkpt lat="48.37832" lon="2.43946">
        <ele>114.86</ele>
        <time>2024-06-13T11:19:04.909Z</time>
      </trkpt>
      <trkpt lat="48.37839" lon="2.43938">
        <ele>114.91</ele>
        <time>2024-06-13T11:19:10.988Z</time>
      </trkpt>
      <trkpt lat="48.37842" lon="2.43934">
        <ele>114.96</ele>
        <time>2024-06-13T11:19:17.068Z</time>
      </trkpt>
      <trkpt lat="48.37849" lon="2.43925">
        <ele>115.13</ele>
        <time>2024-06-13T11:19:23.149Z</time>
      </trkpt>
      <trkpt lat="48.37856" lon="2.43916">
        <ele>115.35</ele>
        <time>2024-06-13T11:19:29.231Z</time>
      </trkpt>
      <trkpt lat="48.37866" lon="2.43903">
        <ele>115.74</ele>
        <time>2024-06-13T11:19:35.316Z</time>
      </trkpt>
      <trkpt lat="48.37873" lon="2.43895">
        <ele>116.05</ele>
        <time>2024-06-13T11:19:41.402Z</time>
      </trkpt>
      <trkpt lat="48.37874" lon="2.43894">
        <ele>116.08</ele>
        <time>2024-06-13T11:19:47.488Z</time>
      </trkpt>
      <trkpt lat="48.37882" lon="2.43871">
        <ele>116.76</ele>
        <time>2024-06-13T11:19:53.577Z</time>
      </trkpt>
      <trkpt lat="48.37886" lon="2.4386">
        <ele>117.07</ele>
        <time>2024-06-13T11:19:59.667Z</time>
      </trkpt>
      <trkpt lat="48.37889" lon="2.43854">
        <ele>117.21</ele>
        <time>2024-06-13T11:20:05.758Z</time>
      </trkpt>
      <trkpt lat="48.37893" lon="2.43842">
        <ele>117.41</ele>
        <time>2024-06-13T11:20:11.850Z</time>
      </trkpt>
      <trkpt lat="48.37895" lon="2.43836">
        <ele>117.47</ele>
        <time>2024-06-13T11:20:17.943Z</time>
      </trkpt>
      <trkpt lat="48.37897" lon="2.4383">
        <ele>117.5</ele>
        <time>2024-06-13T11:20:24.037Z</time>
      </trkpt>
      <trkpt lat="48.37899" lon="2.43824">
        <ele>117.49</ele>
        <time>2024-06-13T11:20:30.132Z</time>
      </trkpt>
      <trkpt lat="48.37901" lon="2.43818">
        <ele>117.44</ele>
        <time>2024-06-13T11:20:36.227Z</time>
      </trkpt>
      <trkpt lat="48.37904" lon="2.43812">
        <ele>117.34</ele>
        <time>2024-06-13T11:20:42.323Z</time>
      </trkpt>
      <trkpt lat="48.37906" lon="2.43806">
        <ele>117.21</ele>
        <time>2024-06-13T11:20:48.420Z</time>
      </trkpt>
      <trkpt lat="48.37908" lon="2.438">
        <ele>117.04</ele>
        <time>2024-06-13T11:20:54.518Z</time>
      </trkpt>
      <trkpt lat="48.37912" lon="2.43788">
        <ele>116.6</ele>
        <time>2024-06-13T11:21:00.617Z</time>
      </trkpt>
      <trkpt lat="48.37914" lon="2.43783">
        <ele>116.34</ele>
        <time>2024-06-13T11:21:06.717Z</time>
      </trkpt>
      <trkpt lat="48.37919" lon="2.43771">
        <ele>115.76</ele>
        <time>2024-06-13T11:21:12.818Z</time>
      </trkpt>
      <trkpt lat="48.37923" lon="2.43759">
        <ele>115.1</ele>
        <time>2024-06-13T11:21:18.921Z</time>
      </trkpt>
      <trkpt lat="48.37927" lon="2.43747">
        <ele>114.4</ele>
        <time>2024-06-13T11:21:25.025Z</time>
      </trkpt>
      <trkpt lat="48.37929" lon="2.43742">
        <ele>114.26</ele>
        <time>2024-06-13T11:21:31.130Z</time>
      </trkpt>
      <trkpt lat="48.37937" lon="2.43734">
        <ele>113.91</ele>
        <time>2024-06-13T11:21:37.236Z</time>
      </trkpt>
      <trkpt lat="48.37945" lon="2.43727">
        <ele>113.66</ele>
        <time>2024-06-13T11:21:43.344Z</time>
      </trkpt>
      <trkpt lat="48.37953" lon="2.4372">
        <ele>113.48</ele>
        <time>2024-06-13T11:21:49.453Z</time>
      </trkpt>
      <trkpt lat="48.37964" lon="2.4371">
        <ele>113.28</ele>
        <time>2024-06-13T11:21:55.564Z</time>
      </trkpt>
      <trkpt lat="48.37976" lon="2.43699">
        <ele>113.16</ele>
        <time>2024-06-13T11:22:01.677Z</time>
      </trkpt>
      <trkpt lat="48.37989" lon="2.43664">
        <ele>113.04</ele>
        <time>2024-06-13T11:22:07.795Z</time>
      </trkpt>
      <trkpt lat="48.38006" lon="2.43619">
        <ele>112.78</ele>
        <time>2024-06-13T11:22:13.918Z</time>
      </trkpt>
      <trkpt lat="48.38007" lon="2.43617">
        <ele>112.77</ele>
        <time>2024-06-13T11:22:20.041Z</time>
      </trkpt>
      <trkpt lat="48.38012" lon="2.43606">
        <ele>112.75</ele>
        <time>2024-06-13T11:22:26.166Z</time>
      </trkpt>
      <trkpt lat="48.38018" lon="2.43596">
        <ele>112.78</ele>
        <time>2024-06-13T11:22:32.292Z</time>
      </trkpt>
      <trkpt lat="48.38037" lon="2.43558">
        <ele>113.08</ele>
        <time>2024-06-13T11:22:38.423Z</time>
      </trkpt>
      <trkpt lat="48.38039" lon="2.43553">
        <ele>113.12</ele>
        <time>2024-06-13T11:22:44.555Z</time>
      </trkpt>
      <trkpt lat="48.38042" lon="2.43547">
        <ele>113.19</ele>
        <time>2024-06-13T11:22:50.688Z</time>
      </trkpt>
      <trkpt lat="48.38054" lon="2.43526">
        <ele>113.45</ele>
        <time>2024-06-13T11:22:56.824Z</time>
      </trkpt>
      <trkpt lat="48.38059" lon="2.43515">
        <ele>113.62</ele>
        <time>2024-06-13T11:23:02.961Z</time>
      </trkpt>
      <trkpt lat="48.3807" lon="2.43494">
        <ele>114.05</ele>
        <time>2024-06-13T11:23:09.101Z</time>
      </trkpt>
      <trkpt lat="48.38076" lon="2.43484">
        <ele>114.29</ele>
        <time>2024-06-13T11:23:15.242Z</time>
      </trkpt>
      <trkpt lat="48.38082" lon="2.43473">
        <ele>114.56</ele>
        <time>2024-06-13T11:23:21.385Z</time>
      </trkpt>
      <trkpt lat="48.38098" lon="2.43443">
        <ele>115.42</ele>
        <time>2024-06-13T11:23:27.532Z</time>
      </trkpt>
      <trkpt lat="48.38099" lon="2.43442">
        <ele>115.46</ele>
        <time>2024-06-13T11:23:33.679Z</time>
      </trkpt>
      <trkpt lat="48.38104" lon="2.43431">
        <ele>115.71</ele>
        <time>2024-06-13T11:23:39.828Z</time>
      </trkpt>
      <trkpt lat="48.3811" lon="2.4342">
        <ele>115.89</ele>
        <time>2024-06-13T11:23:45.978Z</time>
      </trkpt>
      <trkpt lat="48.38118" lon="2.43404">
        <ele>116.06</ele>
        <time>2024-06-13T11:23:52.130Z</time>
      </trkpt>
      <trkpt lat="48.38123" lon="2.43393">
        <ele>116.14</ele>
        <time>2024-06-13T11:23:58.284Z</time>
      </trkpt>
      <trkpt lat="48.38129" lon="2.43382">
        <ele>116.18</ele>
        <time>2024-06-13T11:24:04.439Z</time>
      </trkpt>
      <trkpt lat="48.38142" lon="2.43355">
        <ele>116.23</ele>
        <time>2024-06-13T11:24:10.598Z</time>
      </trkpt>
      <trkpt lat="48.38148" lon="2.43345">
        <ele>116.32</ele>
        <time>2024-06-13T11:24:16.758Z</time>
      </trkpt>
      <trkpt lat="48.3815" lon="2.43339">
        <ele>116.39</ele>
        <time>2024-06-13T11:24:22.919Z</time>
      </trkpt>
      <trkpt lat="48.38153" lon="2.43334">
        <ele>116.49</ele>
        <time>2024-06-13T11:24:29.081Z</time>
      </trkpt>
      <trkpt lat="48.38153" lon="2.43334">
        <ele>116.49</ele>
        <time>2024-06-13T11:24:35.243Z</time>
      </trkpt>
      <trkpt lat="48.38161" lon="2.43328">
        <ele>116.74</ele>
        <time>2024-06-13T11:24:41.406Z</time>
      </trkpt>
      <trkpt lat="48.38185" lon="2.43309">
        <ele>117.63</ele>
        <time>2024-06-13T11:24:47.573Z</time>
      </trkpt>
      <trkpt lat="48.38189" lon="2.43306">
        <ele>117.6</ele>
        <time>2024-06-13T11:24:53.741Z</time>
      </trkpt>
      <trkpt lat="48.38187" lon="2.43304">
        <ele>117.59</ele>
        <time>2024-06-13T11:24:59.910Z</time>
      </trkpt>
      <trkpt lat="48.3817" lon="2.43283">
        <ele>117.39</ele>
        <time>2024-06-13T11:25:06.082Z</time>
      </trkpt>
      <trkpt lat="48.38153" lon="2.43263">
        <ele>117.28</ele>
        <time>2024-06-13T11:25:12.257Z</time>
      </trkpt>
      <trkpt lat="48.3815" lon="2.43259">
        <ele>117.28</ele>
        <time>2024-06-13T11:25:18.433Z</time>
      </trkpt>
      <trkpt lat="48.38157" lon="2.43242">
        <ele>117.28</ele>
        <time>2024-06-13T11:25:24.611Z</time>
      </trkpt>
      <trkpt lat="48.38162" lon="2.4323">
        <ele>117.34</ele>
        <time>2024-06-13T11:25:30.791Z</time>
      </trkpt>
      <trkpt lat="48.38167" lon="2.43219">
        <ele>117.44</ele>
        <time>2024-06-13T11:25:36.972Z</time>
      </trkpt>
      <trkpt lat="48.38171" lon="2.43207">
        <ele>117.61</ele>
        <time>2024-06-13T11:25:43.155Z</time>
      </trkpt>
      <trkpt lat="48.38183" lon="2.43179">
        <ele>118.2</ele>
        <time>2024-06-13T11:25:49.341Z</time>
      </trkpt>
      <trkpt lat="48.3819" lon="2.43161">
        <ele>118.52</ele>
        <time>2024-06-13T11:25:55.529Z</time>
      </trkpt>
      <trkpt lat="48.38197" lon="2.43144">
        <ele>118.79</ele>
        <time>2024-06-13T11:26:01.720Z</time>
      </trkpt>
      <trkpt lat="48.38202" lon="2.43133">
        <ele>118.94</ele>
        <time>2024-06-13T11:26:07.912Z</time>
      </trkpt>
      <trkpt lat="48.38214" lon="2.43104">
        <ele>119.26</ele>
        <time>2024-06-13T11:26:14.108Z</time>
      </trkpt>
      <trkpt lat="48.3824" lon="2.43041">
        <ele>119.75</ele>
        <time>2024-06-13T11:26:20.311Z</time>
      </trkpt>
      <trkpt lat="48.38247" lon="2.43024">
        <ele>119.9</ele>
        <time>2024-06-13T11:26:26.517Z</time>
      </trkpt>
      <trkpt lat="48.38252" lon="2.43013">
        <ele>120.02</ele>
        <time>2024-06-13T11:26:32.724Z</time>
      </trkpt>
      <trkpt lat="48.38261" lon="2.4299">
        <ele>120.29</ele>
        <time>2024-06-13T11:26:38.934Z</time>
      </trkpt>
      <trkpt lat="48.38265" lon="2.42978">
        <ele>120.44</ele>
        <time>2024-06-13T11:26:45.145Z</time>
      </trkpt>
      <trkpt lat="48.38278" lon="2.42942">
        <ele>120.82</ele>
        <time>2024-06-13T11:26:51.361Z</time>
      </trkpt>
      <trkpt lat="48.38282" lon="2.4293">
        <ele>120.97</ele>
        <time>2024-06-13T11:26:57.578Z</time>
      </trkpt>
      <trkpt lat="48.38287" lon="2.42918">
        <ele>121.16</ele>
        <time>2024-06-13T11:27:03.797Z</time>
      </trkpt>
      <trkpt lat="48.383" lon="2.42883">
        <ele>121.84</ele>
        <time>2024-06-13T11:27:10.020Z</time>
      </trkpt>
      <trkpt lat="48.38302" lon="2.42876">
        <ele>121.98</ele>
        <time>2024-06-13T11:27:16.244Z</time>
      </trkpt>
      <trkpt lat="48.38304" lon="2.42871">
        <ele>122.1</ele>
        <time>2024-06-13T11:27:22.468Z</time>
      </trkpt>
      <trkpt lat="48.38309" lon="2.4286">
        <ele>122.42</ele>
        <time>2024-06-13T11:27:28.694Z</time>
      </trkpt>
      <trkpt lat="48.38321" lon="2.42831">
        <ele>123.4</ele>
        <time>2024-06-13T11:27:34.923Z</time>
      </trkpt>
      <trkpt lat="48.38324" lon="2.42826">
        <ele>123.58</ele>
        <time>2024-06-13T11:27:41.153Z</time>
      </trkpt>
      <trkpt lat="48.38329" lon="2.42814">
        <ele>123.89</ele>
        <time>2024-06-13T11:27:47.385Z</time>
      </trkpt>
      <trkpt lat="48.38334" lon="2.42803">
        <ele>124.17</ele>
        <time>2024-06-13T11:27:53.618Z</time>
      </trkpt>
      <trkpt lat="48.38336" lon="2.42798">
        <ele>124.29</ele>
        <time>2024-06-13T11:27:59.852Z</time>
      </trkpt>
      <trkpt lat="48.38339" lon="2.42792">
        <ele>124.4</ele>
        <time>2024-06-13T11:28:06.086Z</time>
      </trkpt>
      <trkpt lat="48.38343" lon="2.42781">
        <ele>124.56</ele>
        <time>2024-06-13T11:28:12.322Z</time>
      </trkpt>
      <trkpt lat="48.38365" lon="2.42731">
        <ele>124.95</ele>
        <time>2024-06-13T11:28:18.564Z</time>
      </trkpt>
      <trkpt lat="48.38374" lon="2.42714">
        <ele>125.1</ele>
        <time>2024-06-13T11:28:24.809Z</time>
      </trkpt>
      <trkpt lat="48.38376" lon="2.42711">
        <ele>125.12</ele>
        <time>2024-06-13T11:28:31.054Z</time>
      </trkpt>
      <trkpt lat="48.38382" lon="2.42706">
        <ele>125.17</ele>
        <time>2024-06-13T11:28:37.300Z</time>
      </trkpt>
      <trkpt lat="48.38387" lon="2.42702">
        <ele>125.19</ele>
        <time>2024-06-13T11:28:43.547Z</time>
      </trkpt>
      <trkpt lat="48.38398" lon="2.42697">
        <ele>125.24</ele>
        <time>2024-06-13T11:28:49.796Z</time>
      </trkpt>
      <trkpt lat="48.38407" lon="2.42693">
        <ele>125.31</ele>
        <time>2024-06-13T11:28:56.046Z</time>
      </trkpt>
      <trkpt lat="48.38426" lon="2.42685">
        <ele>125.53</ele>
        <time>2024-06-13T11:29:02.299Z</time>
      </trkpt>
      <trkpt lat="48.38437" lon="2.42681">
        <ele>125.67</ele>
        <time>2024-06-13T11:29:08.554Z</time>
      </trkpt>
      <trkpt lat="48.38489" lon="2.4266">
        <ele>126.41</ele>
        <time>2024-06-13T11:29:14.818Z</time>
      </trkpt>
      <trkpt lat="48.38511" lon="2.42652">
        <ele>126.63</ele>
        <time>2024-06-13T11:29:21.086Z</time>
      </trkpt>
      <trkpt lat="48.38541" lon="2.4264">
        <ele>127</ele>
        <time>2024-06-13T11:29:27.359Z</time>
      </trkpt>
      <trkpt lat="48.38555" lon="2.42635">
        <ele>127.14</ele>
        <time>2024-06-13T11:29:33.634Z</time>
      </trkpt>
      <trkpt lat="48.38563" lon="2.42631">
        <ele>127.2</ele>
        <time>2024-06-13T11:29:39.910Z</time>
      </trkpt>
      <trkpt lat="48.38568" lon="2.4263">
        <ele>127.21</ele>
        <time>2024-06-13T11:29:46.187Z</time>
      </trkpt>
      <trkpt lat="48.38602" lon="2.42616">
        <ele>127.22</ele>
        <time>2024-06-13T11:29:52.470Z</time>
      </trkpt>
      <trkpt lat="48.3862" lon="2.42609">
        <ele>127.28</ele>
        <time>2024-06-13T11:29:58.756Z</time>
      </trkpt>
      <trkpt lat="48.38624" lon="2.42606">
        <ele>127.3</ele>
        <time>2024-06-13T11:30:05.042Z</time>
      </trkpt>
      <trkpt lat="48.38635" lon="2.42595">
        <ele>127.37</ele>
        <time>2024-06-13T11:30:11.330Z</time>
      </trkpt>
      <trkpt lat="48.38659" lon="2.42575">
        <ele>127.6</ele>
        <time>2024-06-13T11:30:17.623Z</time>
      </trkpt>
      <trkpt lat="48.38682" lon="2.42554">
        <ele>127.89</ele>
        <time>2024-06-13T11:30:23.920Z</time>
      </trkpt>
      <trkpt lat="48.38687" lon="2.4255">
        <ele>127.97</ele>
        <time>2024-06-13T11:30:30.218Z</time>
      </trkpt>
      <trkpt lat="48.38698" lon="2.42544">
        <ele>128.14</ele>
        <time>2024-06-13T11:30:36.518Z</time>
      </trkpt>
      <trkpt lat="48.38715" lon="2.42534">
        <ele>128.44</ele>
        <time>2024-06-13T11:30:42.821Z</time>
      </trkpt>
      <trkpt lat="48.38723" lon="2.42529">
        <ele>128.54</ele>
        <time>2024-06-13T11:30:49.125Z</time>
      </trkpt>
      <trkpt lat="48.38736" lon="2.42522">
        <ele>128.64</ele>
        <time>2024-06-13T11:30:55.431Z</time>
      </trkpt>
      <trkpt lat="48.3874" lon="2.4252">
        <ele>128.63</ele>
        <time>2024-06-13T11:31:01.738Z</time>
      </trkpt>
      <trkpt lat="48.38732" lon="2.42489">
        <ele>128.6</ele>
        <time>2024-06-13T11:31:08.049Z</time>
      </trkpt>
      <trkpt lat="48.38732" lon="2.42488">
        <ele>128.6</ele>
        <time>2024-06-13T11:31:14.360Z</time>
      </trkpt>
      <trkpt lat="48.38722" lon="2.42436">
        <ele>128.7</ele>
        <time>2024-06-13T11:31:20.676Z</time>
      </trkpt>
      <trkpt lat="48.38717" lon="2.4241">
        <ele>128.73</ele>
        <time>2024-06-13T11:31:26.995Z</time>
      </trkpt>
      <trkpt lat="48.38715" lon="2.42397">
        <ele>128.78</ele>
        <time>2024-06-13T11:31:33.316Z</time>
      </trkpt>
      <trkpt lat="48.38709" lon="2.42365">
        <ele>129</ele>
        <time>2024-06-13T11:31:39.640Z</time>
      </trkpt>
      <trkpt lat="48.38706" lon="2.42352">
        <ele>129.06</ele>
        <time>2024-06-13T11:31:45.966Z</time>
      </trkpt>
      <trkpt lat="48.38703" lon="2.42332">
        <ele>129.12</ele>
        <time>2024-06-13T11:31:52.294Z</time>
      </trkpt>
      <trkpt lat="48.38694" lon="2.42287">
        <ele>129.21</ele>
        <time>2024-06-13T11:31:58.627Z</time>
      </trkpt>
      <trkpt lat="48.38681" lon="2.42215">
        <ele>129.24</ele>
        <time>2024-06-13T11:32:04.968Z</time>
      </trkpt>
      <trkpt lat="48.38679" lon="2.42202">
        <ele>129.22</ele>
        <time>2024-06-13T11:32:11.310Z</time>
      </trkpt>
      <trkpt lat="48.38676" lon="2.42189">
        <ele>129.16</ele>
        <time>2024-06-13T11:32:17.654Z</time>
      </trkpt>
      <trkpt lat="48.38669" lon="2.4215">
        <ele>128.91</ele>
        <time>2024-06-13T11:32:24.002Z</time>
      </trkpt>
      <trkpt lat="48.38665" lon="2.42131">
        <ele>128.73</ele>
        <time>2024-06-13T11:32:30.352Z</time>
      </trkpt>
      <trkpt lat="48.38664" lon="2.42124">
        <ele>128.69</ele>
        <time>2024-06-13T11:32:36.703Z</time>
      </trkpt>
      <trkpt lat="48.3866" lon="2.42107">
        <ele>128.62</ele>
        <time>2024-06-13T11:32:43.056Z</time>
      </trkpt>
      <trkpt lat="48.38657" lon="2.42096">
        <ele>128.54</ele>
        <time>2024-06-13T11:32:49.410Z</time>
      </trkpt>
      <trkpt lat="48.38654" lon="2.42084">
        <ele>128.43</ele>
        <time>2024-06-13T11:32:55.766Z</time>
      </trkpt>
      <trkpt lat="48.38653" lon="2.42078">
        <ele>128.4</ele>
        <time>2024-06-13T11:33:02.122Z</time>
      </trkpt>
      <trkpt lat="48.38639" lon="2.42029">
        <ele>128.16</ele>
        <time>2024-06-13T11:33:08.484Z</time>
      </trkpt>
      <trkpt lat="48.38632" lon="2.42004">
        <ele>128.09</ele>
        <time>2024-06-13T11:33:14.849Z</time>
      </trkpt>
      <trkpt lat="48.38627" lon="2.41986">
        <ele>128.06</ele>
        <time>2024-06-13T11:33:21.216Z</time>
      </trkpt>
      <trkpt lat="48.38621" lon="2.41965">
        <ele>128.06</ele>
        <time>2024-06-13T11:33:27.585Z</time>
      </trkpt>
      <trkpt lat="48.38615" lon="2.41933">
        <ele>128.06</ele>
        <time>2024-06-13T11:33:33.958Z</time>
      </trkpt>
      <trkpt lat="48.38614" lon="2.41922">
        <ele>128.07</ele>
        <time>2024-06-13T11:33:40.332Z</time>
      </trkpt>
      <trkpt lat="48.38613" lon="2.41902">
        <ele>128.11</ele>
        <time>2024-06-13T11:33:46.708Z</time>
      </trkpt>
      <trkpt lat="48.38612" lon="2.41882">
        <ele>128.21</ele>
        <time>2024-06-13T11:33:53.086Z</time>
      </trkpt>
      <trkpt lat="48.38611" lon="2.41869">
        <ele>128.34</ele>
        <time>2024-06-13T11:33:59.466Z</time>
      </trkpt>
      <trkpt lat="48.3861" lon="2.41859">
        <ele>128.46</ele>
        <time>2024-06-13T11:34:05.847Z</time>
      </trkpt>
      <trkpt lat="48.3861" lon="2.41855">
        <ele>128.52</ele>
        <time>2024-06-13T11:34:12.228Z</time>
      </trkpt>
      <trkpt lat="48.3861" lon="2.41842">
        <ele>128.73</ele>
        <time>2024-06-13T11:34:18.611Z</time>
      </trkpt>
      <trkpt lat="48.38609" lon="2.41828">
        <ele>128.97</ele>
        <time>2024-06-13T11:34:24.995Z</time>
      </trkpt>
      <trkpt lat="48.38609" lon="2.41808">
        <ele>129.36</ele>
        <time>2024-06-13T11:34:31.381Z</time>
      </trkpt>
      <trkpt lat="48.38609" lon="2.41801">
        <ele>129.47</ele>
        <time>2024-06-13T11:34:37.768Z</time>
      </trkpt>
      <trkpt lat="48.38608" lon="2.41788">
        <ele>129.66</ele>
        <time>2024-06-13T11:34:44.156Z</time>
      </trkpt>
      <trkpt lat="48.38608" lon="2.41781">
        <ele>129.68</ele>
        <time>2024-06-13T11:34:50.545Z</time>
      </trkpt>
      <trkpt lat="48.38607" lon="2.41768">
        <ele>129.73</ele>
        <time>2024-06-13T11:34:56.936Z</time>
      </trkpt>
      <trkpt lat="48.38605" lon="2.41749">
        <ele>129.88</ele>
        <time>2024-06-13T11:35:03.329Z</time>
      </trkpt>
      <trkpt lat="48.38604" lon="2.41742">
        <ele>129.91</ele>
        <time>2024-06-13T11:35:09.722Z</time>
      </trkpt>
      <trkpt lat="48.38606" lon="2.41722">
        <ele>130</ele>
        <time>2024-06-13T11:35:16.118Z</time>
      </trkpt>
      <trkpt lat="48.38608" lon="2.41709">
        <ele>130.11</ele>
        <time>2024-06-13T11:35:22.515Z</time>
      </trkpt>
      <trkpt lat="48.3861" lon="2.4169">
        <ele>130.31</ele>
        <time>2024-06-13T11:35:28.914Z</time>
      </trkpt>
      <trkpt lat="48.38612" lon="2.41683">
        <ele>130.4</ele>
        <time>2024-06-13T11:35:35.314Z</time>
      </trkpt>
      <trkpt lat="48.38617" lon="2.41664">
        <ele>130.54</ele>
        <time>2024-06-13T11:35:41.716Z</time>
      </trkpt>
      <trkpt lat="48.38624" lon="2.41647">
        <ele>130.69</ele>
        <time>2024-06-13T11:35:48.120Z</time>
      </trkpt>
      <trkpt lat="48.38629" lon="2.41634">
        <ele>130.75</ele>
        <time>2024-06-13T11:35:54.526Z</time>
      </trkpt>
      <trkpt lat="48.38644" lon="2.41611">
        <ele>130.84</ele>
        <time>2024-06-13T11:36:00.935Z</time>
      </trkpt>
      <trkpt lat="48.38651" lon="2.41601">
        <ele>130.79</ele>
        <time>2024-06-13T11:36:07.346Z</time>
      </trkpt>
      <trkpt lat="48.38663" lon="2.41582">
        <ele>130.6</ele>
        <time>2024-06-13T11:36:13.759Z</time>
      </trkpt>
      <trkpt lat="48.38681" lon="2.41562">
        <ele>130.36</ele>
        <time>2024-06-13T11:36:20.176Z</time>
      </trkpt>
      <trkpt lat="48.38706" lon="2.41533">
        <ele>130.07</ele>
        <time>2024-06-13T11:36:26.598Z</time>
      </trkpt>
      <trkpt lat="48.38714" lon="2.41525">
        <ele>130</ele>
        <time>2024-06-13T11:36:33.022Z</time>
      </trkpt>
      <trkpt lat="48.38721" lon="2.41517">
        <ele>129.96</ele>
        <time>2024-06-13T11:36:39.447Z</time>
      </trkpt>
      <trkpt lat="48.38731" lon="2.41506">
        <ele>129.94</ele>
        <time>2024-06-13T11:36:45.874Z</time>
      </trkpt>
      <trkpt lat="48.38745" lon="2.41487">
        <ele>129.93</ele>
        <time>2024-06-13T11:36:52.304Z</time>
      </trkpt>
      <trkpt lat="48.38761" lon="2.41464">
        <ele>130.03</ele>
        <time>2024-06-13T11:36:58.738Z</time>
      </trkpt>
      <trkpt lat="48.38775" lon="2.41445">
        <ele>130.06</ele>
        <time>2024-06-13T11:37:05.175Z</time>
      </trkpt>
      <trkpt lat="48.38781" lon="2.41436">
        <ele>130.04</ele>
        <time>2024-06-13T11:37:11.613Z</time>
      </trkpt>
      <trkpt lat="48.38792" lon="2.41422">
        <ele>129.97</ele>
        <time>2024-06-13T11:37:18.053Z</time>
      </trkpt>
      <trkpt lat="48.38795" lon="2.41417">
        <ele>128.57</ele>
        <time>2024-06-13T11:37:24.494Z</time>
      </trkpt>
      <trkpt lat="48.38788" lon="2.41409">
        <ele>128.45</ele>
        <time>2024-06-13T11:37:30.936Z</time>
      </trkpt>
      <trkpt lat="48.38785" lon="2.41404">
        <ele>128.48</ele>
        <time>2024-06-13T11:37:37.379Z</time>
      </trkpt>
      <trkpt lat="48.38784" lon="2.41396">
        <ele>128.53</ele>
        <time>2024-06-13T11:37:43.823Z</time>
      </trkpt>
      <trkpt lat="48.38784" lon="2.41389">
        <ele>128.53</ele>
        <time>2024-06-13T11:37:50.268Z</time>
      </trkpt>
      <trkpt lat="48.38777" lon="2.41341">
        <ele>128.6</ele>
        <time>2024-06-13T11:37:56.718Z</time>
      </trkpt>
      <trkpt lat="48.38768" lon="2.41284">
        <ele>128.42</ele>
        <time>2024-06-13T11:38:03.174Z</time>
      </trkpt>
      <trkpt lat="48.38765" lon="2.41269">
        <ele>128.3</ele>
        <time>2024-06-13T11:38:09.632Z</time>
      </trkpt>
      <trkpt lat="48.38761" lon="2.41242">
        <ele>127.75</ele>
        <time>2024-06-13T11:38:16.093Z</time>
      </trkpt>
      <trkpt lat="48.38752" lon="2.41184">
        <ele>126.46</ele>
        <time>2024-06-13T11:38:22.560Z</time>
      </trkpt>
      <trkpt lat="48.38751" lon="2.41177">
        <ele>126.4</ele>
        <time>2024-06-13T11:38:29.028Z</time>
      </trkpt>
      <trkpt lat="48.38747" lon="2.41152">
        <ele>126.21</ele>
        <time>2024-06-13T11:38:35.499Z</time>
      </trkpt>
      <trkpt lat="48.38742" lon="2.41122">
        <ele>126.12</ele>
        <time>2024-06-13T11:38:41.973Z</time>
      </trkpt>
      <trkpt lat="48.38732" lon="2.41059">
        <ele>126</ele>
        <time>2024-06-13T11:38:48.454Z</time>
      </trkpt>
      <trkpt lat="48.38724" lon="2.41013">
        <ele>125.81</ele>
        <time>2024-06-13T11:38:54.940Z</time>
      </trkpt>
      <trkpt lat="48.38718" lon="2.40971">
        <ele>125.28</ele>
        <time>2024-06-13T11:39:01.431Z</time>
      </trkpt>
      <trkpt lat="48.38715" lon="2.40954">
        <ele>125.14</ele>
        <time>2024-06-13T11:39:07.923Z</time>
      </trkpt>
      <trkpt lat="48.38708" lon="2.40909">
        <ele>125.33</ele>
        <time>2024-06-13T11:39:14.420Z</time>
      </trkpt>
      <trkpt lat="48.38702" lon="2.40875">
        <ele>125.95</ele>
        <time>2024-06-13T11:39:20.921Z</time>
      </trkpt>
      <trkpt lat="48.38701" lon="2.40868">
        <ele>126.18</ele>
        <time>2024-06-13T11:39:27.423Z</time>
      </trkpt>
      <trkpt lat="48.387" lon="2.40858">
        <ele>126.53</ele>
        <time>2024-06-13T11:39:33.926Z</time>
      </trkpt>
      <trkpt lat="48.38692" lon="2.40805">
        <ele>127.94</ele>
        <time>2024-06-13T11:39:40.435Z</time>
      </trkpt>
      <trkpt lat="48.38691" lon="2.40798">
        <ele>126.18</ele>
        <time>2024-06-13T11:39:46.945Z</time>
      </trkpt>
      <trkpt lat="48.38701" lon="2.40797">
        <ele>126.32</ele>
        <time>2024-06-13T11:39:53.456Z</time>
      </trkpt>
      <trkpt lat="48.38719" lon="2.40795">
        <ele>126.62</ele>
        <time>2024-06-13T11:39:59.970Z</time>
      </trkpt>
      <trkpt lat="48.38724" lon="2.40794">
        <ele>126.67</ele>
        <time>2024-06-13T11:40:06.485Z</time>
      </trkpt>
      <trkpt lat="48.38746" lon="2.40792">
        <ele>126.68</ele>
        <time>2024-06-13T11:40:13.003Z</time>
      </trkpt>
      <trkpt lat="48.3876" lon="2.4079">
        <ele>126.63</ele>
        <time>2024-06-13T11:40:19.524Z</time>
      </trkpt>
      <trkpt lat="48.38769" lon="2.40789">
        <ele>126.54</ele>
        <time>2024-06-13T11:40:26.046Z</time>
      </trkpt>
      <trkpt lat="48.38791" lon="2.40786">
        <ele>126.25</ele>
        <time>2024-06-13T11:40:32.572Z</time>
      </trkpt>
      <trkpt lat="48.38813" lon="2.40784">
        <ele>126.12</ele>
        <time>2024-06-13T11:40:39.101Z</time>
      </trkpt>
      <trkpt lat="48.3884" lon="2.40781">
        <ele>125.9</ele>
        <time>2024-06-13T11:40:45.634Z</time>
      </trkpt>
      <trkpt lat="48.38854" lon="2.40779">
        <ele>125.84</ele>
        <time>2024-06-13T11:40:52.170Z</time>
      </trkpt>
      <trkpt lat="48.38858" lon="2.40778">
        <ele>125.83</ele>
        <time>2024-06-13T11:40:58.706Z</time>
      </trkpt>
      <trkpt lat="48.38867" lon="2.40777">
        <ele>125.86</ele>
        <time>2024-06-13T11:41:05.244Z</time>
      </trkpt>
      <trkpt lat="48.38885" lon="2.40775">
        <ele>125.98</ele>
        <time>2024-06-13T11:41:11.785Z</time>
      </trkpt>
      <trkpt lat="48.38903" lon="2.40773">
        <ele>125.94</ele>
        <time>2024-06-13T11:41:18.329Z</time>
      </trkpt>
      <trkpt lat="48.38912" lon="2.40772">
        <ele>125.95</ele>
        <time>2024-06-13T11:41:24.874Z</time>
      </trkpt>
      <trkpt lat="48.3893" lon="2.4077">
        <ele>126.1</ele>
        <time>2024-06-13T11:41:31.422Z</time>
      </trkpt>
      <trkpt lat="48.38939" lon="2.40769">
        <ele>126.1</ele>
        <time>2024-06-13T11:41:37.971Z</time>
      </trkpt>
      <trkpt lat="48.38943" lon="2.40768">
        <ele>126.05</ele>
        <time>2024-06-13T11:41:44.521Z</time>
      </trkpt>
      <trkpt lat="48.38952" lon="2.40765">
        <ele>125.9</ele>
        <time>2024-06-13T11:41:51.072Z</time>
      </trkpt>
      <trkpt lat="48.38956" lon="2.40763">
        <ele>125.79</ele>
        <time>2024-06-13T11:41:57.624Z</time>
      </trkpt>
      <trkpt lat="48.38961" lon="2.40762">
        <ele>125.65</ele>
        <time>2024-06-13T11:42:04.177Z</time>
      </trkpt>
      <trkpt lat="48.38965" lon="2.4076">
        <ele>125.48</ele>
        <time>2024-06-13T11:42:10.731Z</time>
      </trkpt>
      <trkpt lat="48.38978" lon="2.40756">
        <ele>124.86</ele>
        <time>2024-06-13T11:42:17.287Z</time>
      </trkpt>
      <trkpt lat="48.38982" lon="2.40755">
        <ele>124.68</ele>
        <time>2024-06-13T11:42:23.843Z</time>
      </trkpt>
      <trkpt lat="48.38987" lon="2.40753">
        <ele>124.53</ele>
        <time>2024-06-13T11:42:30.400Z</time>
      </trkpt>
      <trkpt lat="48.38996" lon="2.4075">
        <ele>124.27</ele>
        <time>2024-06-13T11:42:36.959Z</time>
      </trkpt>
      <trkpt lat="48.39" lon="2.40749">
        <ele>124.15</ele>
        <time>2024-06-13T11:42:43.518Z</time>
      </trkpt>
      <trkpt lat="48.39009" lon="2.40746">
        <ele>123.95</ele>
        <time>2024-06-13T11:42:50.079Z</time>
      </trkpt>
      <trkpt lat="48.39026" lon="2.4074">
        <ele>123.62</ele>
        <time>2024-06-13T11:42:56.643Z</time>
      </trkpt>
      <trkpt lat="48.39031" lon="2.40738">
        <ele>123.51</ele>
        <time>2024-06-13T11:43:03.207Z</time>
      </trkpt>
      <trkpt lat="48.39035" lon="2.40737">
        <ele>123.37</ele>
        <time>2024-06-13T11:43:09.772Z</time>
      </trkpt>
      <trkpt lat="48.39039" lon="2.40736">
        <ele>123.2</ele>
        <time>2024-06-13T11:43:16.338Z</time>
      </trkpt>
      <trkpt lat="48.39044" lon="2.40734">
        <ele>122.99</ele>
        <time>2024-06-13T11:43:22.905Z</time>
      </trkpt>
      <trkpt lat="48.39053" lon="2.40731">
        <ele>122.52</ele>
        <time>2024-06-13T11:43:29.473Z</time>
      </trkpt>
      <trkpt lat="48.39057" lon="2.4073">
        <ele>122.31</ele>
        <time>2024-06-13T11:43:36.042Z</time>
      </trkpt>
      <trkpt lat="48.39061" lon="2.40728">
        <ele>122.13</ele>
        <time>2024-06-13T11:43:42.611Z</time>
      </trkpt>
      <trkpt lat="48.39065" lon="2.40727">
        <ele>122.01</ele>
        <time>2024-06-13T11:43:49.181Z</time>
      </trkpt>
      <trkpt lat="48.39074" lon="2.4073">
        <ele>121.71</ele>
        <time>2024-06-13T11:43:55.753Z</time>
      </trkpt>
      <trkpt lat="48.39079" lon="2.40732">
        <ele>121.54</ele>
        <time>2024-06-13T11:44:02.325Z</time>
      </trkpt>
      <trkpt lat="48.39083" lon="2.40734">
        <ele>121.32</ele>
        <time>2024-06-13T11:44:08.898Z</time>
      </trkpt>
      <trkpt lat="48.39092" lon="2.40737">
        <ele>120.84</ele>
        <time>2024-06-13T11:44:15.472Z</time>
      </trkpt>
      <trkpt lat="48.39105" lon="2.40741">
        <ele>120.21</ele>
        <time>2024-06-13T11:44:22.049Z</time>
      </trkpt>
      <trkpt lat="48.39109" lon="2.40743">
        <ele>120</ele>
        <time>2024-06-13T11:44:28.626Z</time>
      </trkpt>
      <trkpt lat="48.39117" lon="2.40727">
        <ele>119.34</ele>
        <time>2024-06-13T11:44:35.205Z</time>
      </trkpt>
      <trkpt lat="48.39123" lon="2.40717">
        <ele>118.97</ele>
        <time>2024-06-13T11:44:41.786Z</time>
      </trkpt>
      <trkpt lat="48.39125" lon="2.40711">
        <ele>118.82</ele>
        <time>2024-06-13T11:44:48.368Z</time>
      </trkpt>
      <trkpt lat="48.39134" lon="2.40695">
        <ele>118.41</ele>
        <time>2024-06-13T11:44:54.952Z</time>
      </trkpt>
      <trkpt lat="48.39136" lon="2.4069">
        <ele>118.31</ele>
        <time>2024-06-13T11:45:01.536Z</time>
      </trkpt>
      <trkpt lat="48.39146" lon="2.40668">
        <ele>117.86</ele>
        <time>2024-06-13T11:45:08.123Z</time>
      </trkpt>
      <trkpt lat="48.39155" lon="2.40647">
        <ele>117.46</ele>
        <time>2024-06-13T11:45:14.713Z</time>
      </trkpt>
      <trkpt lat="48.39156" lon="2.40646">
        <ele>117.46</ele>
        <time>2024-06-13T11:45:21.303Z</time>
      </trkpt>
      <trkpt lat="48.39164" lon="2.40631">
        <ele>117.2</ele>
        <time>2024-06-13T11:45:27.895Z</time>
      </trkpt>
      <trkpt lat="48.39173" lon="2.40615">
        <ele>117.01</ele>
        <time>2024-06-13T11:45:34.489Z</time>
      </trkpt>
      <trkpt lat="48.39178" lon="2.40605">
        <ele>116.93</ele>
        <time>2024-06-13T11:45:41.085Z</time>
      </trkpt>
      <trkpt lat="48.39189" lon="2.40586">
        <ele>116.83</ele>
        <time>2024-06-13T11:45:47.683Z</time>
      </trkpt>
      <trkpt lat="48.39192" lon="2.40579">
        <ele>116.81</ele>
        <time>2024-06-13T11:45:54.282Z</time>
      </trkpt>
      <trkpt lat="48.39198" lon="2.40562">
        <ele>116.77</ele>
        <time>2024-06-13T11:46:00.883Z</time>
      </trkpt>
      <trkpt lat="48.39203" lon="2.4055">
        <ele>116.77</ele>
        <time>2024-06-13T11:46:07.486Z</time>
      </trkpt>
      <trkpt lat="48.39207" lon="2.40539">
        <ele>116.8</ele>
        <time>2024-06-13T11:46:14.090Z</time>
      </trkpt>
      <trkpt lat="48.39212" lon="2.40527">
        <ele>116.9</ele>
        <time>2024-06-13T11:46:20.696Z</time>
      </trkpt>
      <trkpt lat="48.39216" lon="2.40516">
        <ele>117.05</ele>
        <time>2024-06-13T11:46:27.303Z</time>
      </trkpt>
      <trkpt lat="48.39225" lon="2.40493">
        <ele>116.83</ele>
        <time>2024-06-13T11:46:33.913Z</time>
      </trkpt>
      <trkpt lat="48.39227" lon="2.40487">
        <ele>116.43</ele>
        <time>2024-06-13T11:46:40.524Z</time>
      </trkpt>
      <trkpt lat="48.39231" lon="2.40435">
        <ele>113.52</ele>
        <time>2024-06-13T11:46:47.140Z</time>
      </trkpt>
      <trkpt lat="48.39232" lon="2.40422">
        <ele>112.83</ele>
        <time>2024-06-13T11:46:53.758Z</time>
      </trkpt>
      <trkpt lat="48.39232" lon="2.40415">
        <ele>112.51</ele>
        <time>2024-06-13T11:47:00.376Z</time>
      </trkpt>
      <trkpt lat="48.39233" lon="2.40402">
        <ele>111.95</ele>
        <time>2024-06-13T11:47:06.996Z</time>
      </trkpt>
      <trkpt lat="48.39234" lon="2.40394">
        <ele>111.64</ele>
        <time>2024-06-13T11:47:13.617Z</time>
      </trkpt>
      <trkpt lat="48.39234" lon="2.40382">
        <ele>111.2</ele>
        <time>2024-06-13T11:47:20.239Z</time>
      </trkpt>
      <trkpt lat="48.39234" lon="2.40362">
        <ele>110.52</ele>
        <time>2024-06-13T11:47:26.863Z</time>
      </trkpt>
      <trkpt lat="48.39234" lon="2.40342">
        <ele>109.92</ele>
        <time>2024-06-13T11:47:33.489Z</time>
      </trkpt>
      <trkpt lat="48.39234" lon="2.40335">
        <ele>110.54</ele>
        <time>2024-06-13T11:47:40.116Z</time>
      </trkpt>
      <trkpt lat="48.39231" lon="2.40331">
        <ele>111.1</ele>
        <time>2024-06-13T11:47:46.743Z</time>
      </trkpt>
      <trkpt lat="48.39227" lon="2.40327">
        <ele>111.56</ele>
        <time>2024-06-13T11:47:53.371Z</time>
      </trkpt>
      <trkpt lat="48.39224" lon="2.40323">
        <ele>111.92</ele>
        <time>2024-06-13T11:48:00.000Z</time>
      </trkpt>
      <trkpt lat="48.3922" lon="2.40319">
        <ele>112.18</ele>
        <time>2024-06-13T11:48:06.630Z</time>
      </trkpt>
      <trkpt lat="48.39217" lon="2.40315">
        <ele>112.37</ele>
        <time>2024-06-13T11:48:13.260Z</time>
      </trkpt>
      <trkpt lat="48.39213" lon="2.40311">
        <ele>112.52</ele>
        <time>2024-06-13T11:48:19.891Z</time>
      </trkpt>
      <trkpt lat="48.39208" lon="2.40305">
        <ele>112.7</ele>
        <time>2024-06-13T11:48:26.523Z</time>
      </trkpt>
      <trkpt lat="48.39206" lon="2.40296">
        <ele>112.88</ele>
        <time>2024-06-13T11:48:33.156Z</time>
      </trkpt>
      <trkpt lat="48.39203" lon="2.40283">
        <ele>113.04</ele>
        <time>2024-06-13T11:48:39.791Z</time>
      </trkpt>
      <trkpt lat="48.39202" lon="2.40277">
        <ele>113.08</ele>
        <time>2024-06-13T11:48:46.426Z</time>
      </trkpt>
      <trkpt lat="48.392" lon="2.40271">
        <ele>113.09</ele>
        <time>2024-06-13T11:48:53.062Z</time>
      </trkpt>
      <trkpt lat="48.39199" lon="2.40264">
        <ele>113.05</ele>
        <time>2024-06-13T11:48:59.699Z</time>
      </trkpt>
      <trkpt lat="48.39197" lon="2.40258">
        <ele>112.97</ele>
        <time>2024-06-13T11:49:06.336Z</time>
      </trkpt>
      <trkpt lat="48.39196" lon="2.40252">
        <ele>112.84</ele>
        <time>2024-06-13T11:49:12.974Z</time>
      </trkpt>
      <trkpt lat="48.39192" lon="2.40233">
        <ele>112.36</ele>
        <time>2024-06-13T11:49:19.614Z</time>
      </trkpt>
      <trkpt lat="48.3919" lon="2.40227">
        <ele>112.22</ele>
        <time>2024-06-13T11:49:26.255Z</time>
      </trkpt>
      <trkpt lat="48.39189" lon="2.4022">
        <ele>112.12</ele>
        <time>2024-06-13T11:49:32.897Z</time>
      </trkpt>
      <trkpt lat="48.39188" lon="2.40214">
        <ele>112.09</ele>
        <time>2024-06-13T11:49:39.539Z</time>
      </trkpt>
      <trkpt lat="48.39186" lon="2.40207">
        <ele>112.12</ele>
        <time>2024-06-13T11:49:46.182Z</time>
      </trkpt>
      <trkpt lat="48.3918" lon="2.4019">
        <ele>112.39</ele>
        <time>2024-06-13T11:49:52.827Z</time>
      </trkpt>
      <trkpt lat="48.39178" lon="2.40184">
        <ele>112.46</ele>
        <time>2024-06-13T11:49:59.473Z</time>
      </trkpt>
      <trkpt lat="48.39176" lon="2.40178">
        <ele>112.51</ele>
        <time>2024-06-13T11:50:06.120Z</time>
      </trkpt>
      <trkpt lat="48.39174" lon="2.40172">
        <ele>112.52</ele>
        <time>2024-06-13T11:50:12.767Z</time>
      </trkpt>
      <trkpt lat="48.39171" lon="2.40167">
        <ele>112.48</ele>
        <time>2024-06-13T11:50:19.415Z</time>
      </trkpt>
      <trkpt lat="48.39169" lon="2.40161">
        <ele>112.37</ele>
        <time>2024-06-13T11:50:26.064Z</time>
      </trkpt>
      <trkpt lat="48.39167" lon="2.40155">
        <ele>112.15</ele>
        <time>2024-06-13T11:50:32.713Z</time>
      </trkpt>
      <trkpt lat="48.39165" lon="2.40149">
        <ele>111.76</ele>
        <time>2024-06-13T11:50:39.363Z</time>
      </trkpt>
      <trkpt lat="48.39163" lon="2.40143">
        <ele>111.14</ele>
        <time>2024-06-13T11:50:46.014Z</time>
      </trkpt>
      <trkpt lat="48.39162" lon="2.40137">
        <ele>110.26</ele>
        <time>2024-06-13T11:50:52.666Z</time>
      </trkpt>
      <trkpt lat="48.39162" lon="2.4013">
        <ele>109.15</ele>
        <time>2024-06-13T11:50:59.318Z</time>
      </trkpt>
      <trkpt lat="48.3916" lon="2.40117">
        <ele>106.6</ele>
        <time>2024-06-13T11:51:05.972Z</time>
      </trkpt>
      <trkpt lat="48.3916" lon="2.40111">
        <ele>105.42</ele>
        <time>2024-06-13T11:51:12.626Z</time>
      </trkpt>
      <trkpt lat="48.39159" lon="2.40104">
        <ele>104.43</ele>
        <time>2024-06-13T11:51:19.281Z</time>
      </trkpt>
      <trkpt lat="48.39159" lon="2.401">
        <ele>103.95</ele>
        <time>2024-06-13T11:51:25.937Z</time>
      </trkpt>
      <trkpt lat="48.39158" lon="2.40096">
        <ele>108.01</ele>
        <time>2024-06-13T11:51:32.593Z</time>
      </trkpt>
      <trkpt lat="48.39158" lon="2.40092">
        <ele>107.74</ele>
        <time>2024-06-13T11:51:39.249Z</time>
      </trkpt>
      <trkpt lat="48.39155" lon="2.40093">
        <ele>107.43</ele>
        <time>2024-06-13T11:51:45.906Z</time>
      </trkpt>
      <trkpt lat="48.39155" lon="2.40087">
        <ele>107.06</ele>
        <time>2024-06-13T11:51:52.563Z</time>
      </trkpt>
      <trkpt lat="48.39154" lon="2.40059">
        <ele>105.89</ele>
        <time>2024-06-13T11:51:59.223Z</time>
      </trkpt>
      <trkpt lat="48.39154" lon="2.40045">
        <ele>105.69</ele>
        <time>2024-06-13T11:52:05.885Z</time>
      </trkpt>
      <trkpt lat="48.39154" lon="2.40036">
        <ele>104.93</ele>
        <time>2024-06-13T11:52:12.548Z</time>
      </trkpt>
      <trkpt lat="48.39154" lon="2.40007">
        <ele>102.44</ele>
        <time>2024-06-13T11:52:19.214Z</time>
      </trkpt>
      <trkpt lat="48.39154" lon="2.39993">
        <ele>101.75</ele>
        <time>2024-06-13T11:52:25.882Z</time>
      </trkpt>
      <trkpt lat="48.39154" lon="2.39984">
        <ele>102</ele>
        <time>2024-06-13T11:52:32.550Z</time>
      </trkpt>
      <trkpt lat="48.39151" lon="2.39974">
        <ele>102.32</ele>
        <time>2024-06-13T11:52:39.220Z</time>
      </trkpt>
      <trkpt lat="48.39149" lon="2.39966">
        <ele>102.27</ele>
        <time>2024-06-13T11:52:45.891Z</time>
      </trkpt>
      <trkpt lat="48.39149" lon="2.39959">
        <ele>102.23</ele>
        <time>2024-06-13T11:52:52.562Z</time>
      </trkpt>
      <trkpt lat="48.39149" lon="2.3995">
        <ele>102.62</ele>
        <time>2024-06-13T11:52:59.234Z</time>
      </trkpt>
      <trkpt lat="48.39148" lon="2.39943">
        <ele>102.92</ele>
        <time>2024-06-13T11:53:05.907Z</time>
      </trkpt>
      <trkpt lat="48.39146" lon="2.39935">
        <ele>103.73</ele>
        <time>2024-06-13T11:53:12.581Z</time>
      </trkpt>
      <trkpt lat="48.39142" lon="2.39923">
        <ele>105.01</ele>
        <time>2024-06-13T11:53:19.256Z</time>
      </trkpt>
      <trkpt lat="48.39139" lon="2.39915">
        <ele>105.07</ele>
        <time>2024-06-13T11:53:25.932Z</time>
      </trkpt>
      <trkpt lat="48.39137" lon="2.39896">
        <ele>105.21</ele>
        <time>2024-06-13T11:53:32.610Z</time>
      </trkpt>
      <trkpt lat="48.39138" lon="2.39887">
        <ele>105.28</ele>
        <time>2024-06-13T11:53:39.289Z</time>
      </trkpt>
      <trkpt lat="48.39139" lon="2.39878">
        <ele>105.87</ele>
        <time>2024-06-13T11:53:45.969Z</time>
      </trkpt>
      <trkpt lat="48.39132" lon="2.39859">
        <ele>107.29</ele>
        <time>2024-06-13T11:53:52.652Z</time>
      </trkpt>
      <trkpt lat="48.39129" lon="2.39852">
        <ele>107.67</ele>
        <time>2024-06-13T11:53:59.336Z</time>
      </trkpt>
      <trkpt lat="48.39128" lon="2.39845">
        <ele>108.01</ele>
        <time>2024-06-13T11:54:06.020Z</time>
      </trkpt>
      <trkpt lat="48.39125" lon="2.39827">
        <ele>108.55</ele>
        <time>2024-06-13T11:54:12.706Z</time>
      </trkpt>
      <trkpt lat="48.39123" lon="2.39818">
        <ele>108.07</ele>
        <time>2024-06-13T11:54:19.393Z</time>
      </trkpt>
      <trkpt lat="48.39127" lon="2.398">
        <ele>107.1</ele>
        <time>2024-06-13T11:54:26.082Z</time>
      </trkpt>
      <trkpt lat="48.39129" lon="2.39786">
        <ele>105.36</ele>
        <time>2024-06-13T11:54:32.773Z</time>
      </trkpt>
      <trkpt lat="48.39132" lon="2.3977">
        <ele>104.07</ele>
        <time>2024-06-13T11:54:39.466Z</time>
      </trkpt>
      <trkpt lat="48.39135" lon="2.39756">
        <ele>103.82</ele>
        <time>2024-06-13T11:54:46.160Z</time>
      </trkpt>
      <trkpt lat="48.39138" lon="2.3974">
        <ele>102.1</ele>
        <time>2024-06-13T11:54:52.856Z</time>
      </trkpt>
      <trkpt lat="48.3914" lon="2.39731">
        <ele>101.97</ele>
        <time>2024-06-13T11:54:59.553Z</time>
      </trkpt>
      <trkpt lat="48.39139" lon="2.39713">
        <ele>101.72</ele>
        <time>2024-06-13T11:55:06.252Z</time>
      </trkpt>
      <trkpt lat="48.39138" lon="2.39698">
        <ele>100.74</ele>
        <time>2024-06-13T11:55:12.953Z</time>
      </trkpt>
      <trkpt lat="48.39137" lon="2.39688">
        <ele>101.5</ele>
        <time>2024-06-13T11:55:19.655Z</time>
      </trkpt>
      <trkpt lat="48.3913" lon="2.39679">
        <ele>102.55</ele>
        <time>2024-06-13T11:55:26.358Z</time>
      </trkpt>
      <trkpt lat="48.39126" lon="2.39673">
        <ele>102.04</ele>
        <time>2024-06-13T11:55:33.062Z</time>
      </trkpt>
      <trkpt lat="48.39126" lon="2.39665">
        <ele>101.62</ele>
        <time>2024-06-13T11:55:39.767Z</time>
      </trkpt>
      <trkpt lat="48.39127" lon="2.39656">
        <ele>100.85</ele>
        <time>2024-06-13T11:55:46.473Z</time>
      </trkpt>
      <trkpt lat="48.39126" lon="2.3964">
        <ele>99.57</ele>
        <time>2024-06-13T11:55:53.180Z</time>
      </trkpt>
      <trkpt lat="48.39125" lon="2.39621">
        <ele>98.06</ele>
        <time>2024-06-13T11:55:59.889Z</time>
      </trkpt>
      <trkpt lat="48.39125" lon="2.39612">
        <ele>97.43</ele>
        <time>2024-06-13T11:56:06.599Z</time>
      </trkpt>
      <trkpt lat="48.39121" lon="2.39601">
        <ele>96.62</ele>
        <time>2024-06-13T11:56:13.311Z</time>
      </trkpt>
      <trkpt lat="48.39118" lon="2.39593">
        <ele>96.58</ele>
        <time>2024-06-13T11:56:20.024Z</time>
      </trkpt>
      <trkpt lat="48.39108" lon="2.39587">
        <ele>96.51</ele>
        <time>2024-06-13T11:56:26.739Z</time>
      </trkpt>
      <trkpt lat="48.39102" lon="2.39583">
        <ele>95.53</ele>
        <time>2024-06-13T11:56:33.455Z</time>
      </trkpt>
      <trkpt lat="48.39099" lon="2.39576">
        <ele>94.67</ele>
        <time>2024-06-13T11:56:40.171Z</time>
      </trkpt>
      <trkpt lat="48.39096" lon="2.39568">
        <ele>93.79</ele>
        <time>2024-06-13T11:56:46.888Z</time>
      </trkpt>
      <trkpt lat="48.39092" lon="2.39563">
        <ele>93.12</ele>
        <time>2024-06-13T11:56:53.606Z</time>
      </trkpt>
      <trkpt lat="48.39088" lon="2.39557">
        <ele>93.22</ele>
        <time>2024-06-13T11:57:00.325Z</time>
      </trkpt>
      <trkpt lat="48.39083" lon="2.39554">
        <ele>93.32</ele>
        <time>2024-06-13T11:57:07.045Z</time>
      </trkpt>
      <trkpt lat="48.39069" lon="2.39547">
        <ele>92.74</ele>
        <time>2024-06-13T11:57:13.767Z</time>
      </trkpt>
      <trkpt lat="48.39063" lon="2.39544">
        <ele>92.71</ele>
        <time>2024-06-13T11:57:20.490Z</time>
      </trkpt>
      <trkpt lat="48.39059" lon="2.39541">
        <ele>92.69</ele>
        <time>2024-06-13T11:57:27.214Z</time>
      </trkpt>
      <trkpt lat="48.39053" lon="2.39536">
        <ele>91.48</ele>
        <time>2024-06-13T11:57:33.939Z</time>
      </trkpt>
      <trkpt lat="48.3905" lon="2.39531">
        <ele>90.66</ele>
        <time>2024-06-13T11:57:40.665Z</time>
      </trkpt>
      <trkpt lat="48.39043" lon="2.39517">
        <ele>88.41</ele>
        <time>2024-06-13T11:57:47.393Z</time>
      </trkpt>
      <trkpt lat="48.39039" lon="2.39509">
        <ele>87.33</ele>
        <time>2024-06-13T11:57:54.122Z</time>
      </trkpt>
      <trkpt lat="48.3904" lon="2.39507">
        <ele>86.77</ele>
        <time>2024-06-13T11:58:00.851Z</time>
      </trkpt>
      <trkpt lat="48.39043" lon="2.39502">
        <ele>85.59</ele>
        <time>2024-06-13T11:58:07.581Z</time>
      </trkpt>
      <trkpt lat="48.39046" lon="2.39497">
        <ele>84.56</ele>
        <time>2024-06-13T11:58:14.312Z</time>
      </trkpt>
      <trkpt lat="48.39049" lon="2.39493">
        <ele>83.72</ele>
        <time>2024-06-13T11:58:21.043Z</time>
      </trkpt>
      <trkpt lat="48.39053" lon="2.39487">
        <ele>83.07</ele>
        <time>2024-06-13T11:58:27.775Z</time>
      </trkpt>
      <trkpt lat="48.39056" lon="2.39485">
        <ele>82.6</ele>
        <time>2024-06-13T11:58:34.508Z</time>
      </trkpt>
      <trkpt lat="48.39064" lon="2.39479">
        <ele>81.89</ele>
        <time>2024-06-13T11:58:41.242Z</time>
      </trkpt>
      <trkpt lat="48.39069" lon="2.39477">
        <ele>81.46</ele>
        <time>2024-06-13T11:58:47.977Z</time>
      </trkpt>
      <trkpt lat="48.39073" lon="2.39474">
        <ele>80.87</ele>
        <time>2024-06-13T11:58:54.713Z</time>
      </trkpt>
      <trkpt lat="48.39077" lon="2.39472">
        <ele>80.08</ele>
        <time>2024-06-13T11:59:01.449Z</time>
      </trkpt>
      <trkpt lat="48.39079" lon="2.3947">
        <ele>79.5</ele>
        <time>2024-06-13T11:59:08.186Z</time>
      </trkpt>
      <trkpt lat="48.3909" lon="2.39468">
        <ele>77.08</ele>
        <time>2024-06-13T11:59:14.924Z</time>
      </trkpt>
      <trkpt lat="48.39094" lon="2.39467">
        <ele>76.26</ele>
        <time>2024-06-13T11:59:21.663Z</time>
      </trkpt>
      <trkpt lat="48.39098" lon="2.39466">
        <ele>75.67</ele>
        <time>2024-06-13T11:59:28.403Z</time>
      </trkpt>
      <trkpt lat="48.39103" lon="2.39466">
        <ele>75.28</ele>
        <time>2024-06-13T11:59:35.144Z</time>
      </trkpt>
      <trkpt lat="48.39107" lon="2.39465">
        <ele>75.07</ele>
        <time>2024-06-13T11:59:41.885Z</time>
      </trkpt>
      <trkpt lat="48.39111" lon="2.39464">
        <ele>75</ele>
        <time>2024-06-13T11:59:48.627Z</time>
      </trkpt>
      <trkpt lat="48.39116" lon="2.39463">
        <ele>75.03</ele>
        <time>2024-06-13T11:59:55.370Z</time>
      </trkpt>
      <trkpt lat="48.39117" lon="2.39463">
        <ele>75.06</ele>
        <time>2024-06-13T12:00:02.113Z</time>
      </trkpt>
      <trkpt lat="48.3912" lon="2.39465">
        <ele>75.16</ele>
        <time>2024-06-13T12:00:08.856Z</time>
      </trkpt>
      <trkpt lat="48.39124" lon="2.39468">
        <ele>75.35</ele>
        <time>2024-06-13T12:00:15.600Z</time>
      </trkpt>
      <trkpt lat="48.39128" lon="2.39471">
        <ele>75.6</ele>
        <time>2024-06-13T12:00:22.345Z</time>
      </trkpt>
      <trkpt lat="48.39132" lon="2.39473">
        <ele>75.88</ele>
        <time>2024-06-13T12:00:29.090Z</time>
      </trkpt>
      <trkpt lat="48.39136" lon="2.39476">
        <ele>76.18</ele>
        <time>2024-06-13T12:00:35.836Z</time>
      </trkpt>
      <trkpt lat="48.3914" lon="2.39479">
        <ele>76.51</ele>
        <time>2024-06-13T12:00:42.583Z</time>
      </trkpt>
      <trkpt lat="48.39144" lon="2.39481">
        <ele>76.94</ele>
        <time>2024-06-13T12:00:49.331Z</time>
      </trkpt>
      <trkpt lat="48.39148" lon="2.39484">
        <ele>77.49</ele>
        <time>2024-06-13T12:00:56.079Z</time>
      </trkpt>
      <trkpt lat="48.39151" lon="2.39486">
        <ele>77.98</ele>
        <time>2024-06-13T12:01:02.828Z</time>
      </trkpt>
      <trkpt lat="48.39152" lon="2.39487">
        <ele>78.19</ele>
        <time>2024-06-13T12:01:09.577Z</time>
      </trkpt>
      <trkpt lat="48.39156" lon="2.39491">
        <ele>78.97</ele>
        <time>2024-06-13T12:01:16.327Z</time>
      </trkpt>
      <trkpt lat="48.39162" lon="2.39497">
        <ele>77.2</ele>
        <time>2024-06-13T12:01:23.078Z</time>
      </trkpt>
      <trkpt lat="48.39164" lon="2.39491">
        <ele>76.1</ele>
        <time>2024-06-13T12:01:29.830Z</time>
      </trkpt>
      <trkpt lat="48.39168" lon="2.39481">
        <ele>75.14</ele>
        <time>2024-06-13T12:01:36.583Z</time>
      </trkpt>
      <trkpt lat="48.39168" lon="2.39479">
        <ele>74.97</ele>
        <time>2024-06-13T12:01:43.336Z</time>
      </trkpt>
      <trkpt lat="48.39168" lon="2.39466">
        <ele>73.9</ele>
        <time>2024-06-13T12:01:50.091Z</time>
      </trkpt>
      <trkpt lat="48.39168" lon="2.39461">
        <ele>73.56</ele>
        <time>2024-06-13T12:01:56.846Z</time>
      </trkpt>
      <trkpt lat="48.39166" lon="2.39452">
        <ele>72.89</ele>
        <time>2024-06-13T12:02:03.602Z</time>
      </trkpt>
      <trkpt lat="48.39165" lon="2.39446">
        <ele>72.42</ele>
        <time>2024-06-13T12:02:10.359Z</time>
      </trkpt>
      <trkpt lat="48.39164" lon="2.39439">
        <ele>71.98</ele>
        <time>2024-06-13T12:02:17.116Z</time>
      </trkpt>
      <trkpt lat="48.39163" lon="2.39433">
        <ele>71.59</ele>
        <time>2024-06-13T12:02:23.874Z</time>
      </trkpt>
      <trkpt lat="48.39162" lon="2.39426">
        <ele>71.25</ele>
        <time>2024-06-13T12:02:30.633Z</time>
      </trkpt>
      <trkpt lat="48.39161" lon="2.3942">
        <ele>70.96</ele>
        <time>2024-06-13T12:02:37.393Z</time>
      </trkpt>
      <trkpt lat="48.39156" lon="2.39393">
        <ele>70.01</ele>
        <time>2024-06-13T12:02:44.155Z</time>
      </trkpt>
      <trkpt lat="48.39153" lon="2.39381">
        <ele>69.44</ele>
        <time>2024-06-13T12:02:50.919Z</time>
      </trkpt>
      <trkpt lat="48.39152" lon="2.39374">
        <ele>69.11</ele>
        <time>2024-06-13T12:02:57.684Z</time>
      </trkpt>
      <trkpt lat="48.39151" lon="2.39367">
        <ele>68.75</ele>
        <time>2024-06-13T12:03:04.449Z</time>
      </trkpt>
      <trkpt lat="48.39149" lon="2.39361">
        <ele>68.35</ele>
        <time>2024-06-13T12:03:11.215Z</time>
      </trkpt>
      <trkpt lat="48.39147" lon="2.39355">
        <ele>67.91</ele>
        <time>2024-06-13T12:03:17.982Z</time>
      </trkpt>
      <trkpt lat="48.39141" lon="2.39338">
        <ele>66.48</ele>
        <time>2024-06-13T12:03:24.751Z</time>
      </trkpt>
      <trkpt lat="48.39139" lon="2.39332">
        <ele>66.04</ele>
        <time>2024-06-13T12:03:31.521Z</time>
      </trkpt>
      <trkpt lat="48.39136" lon="2.39326">
        <ele>65.66</ele>
        <time>2024-06-13T12:03:38.291Z</time>
      </trkpt>
      <trkpt lat="48.39134" lon="2.3932">
        <ele>65.36</ele>
        <time>2024-06-13T12:03:45.062Z</time>
      </trkpt>
      <trkpt lat="48.39132" lon="2.39313">
        <ele>65.14</ele>
        <time>2024-06-13T12:03:51.834Z</time>
      </trkpt>
      <trkpt lat="48.39132" lon="2.39307">
        <ele>65.01</ele>
        <time>2024-06-13T12:03:58.607Z</time>
      </trkpt>
      <trkpt lat="48.39132" lon="2.39301">
        <ele>64.95</ele>
        <time>2024-06-13T12:04:05.380Z</time>
      </trkpt>
      <trkpt lat="48.39132" lon="2.39294">
        <ele>64.94</ele>
        <time>2024-06-13T12:04:12.154Z</time>
      </trkpt>
      <trkpt lat="48.39133" lon="2.39287">
        <ele>64.97</ele>
        <time>2024-06-13T12:04:18.929Z</time>
      </trkpt>
      <trkpt lat="48.39133" lon="2.3928">
        <ele>65.04</ele>
        <time>2024-06-13T12:04:25.704Z</time>
      </trkpt>
      <trkpt lat="48.39133" lon="2.39269">
        <ele>64.99</ele>
        <time>2024-06-13T12:04:32.481Z</time>
      </trkpt>
      <trkpt lat="48.39143" lon="2.39269">
        <ele>64.93</ele>
        <time>2024-06-13T12:04:39.259Z</time>
      </trkpt>
      <trkpt lat="48.39155" lon="2.39269">
        <ele>64.89</ele>
        <time>2024-06-13T12:04:46.039Z</time>
      </trkpt>
      <trkpt lat="48.39168" lon="2.39275">
        <ele>64.85</ele>
        <time>2024-06-13T12:04:52.821Z</time>
      </trkpt>
      <trkpt lat="48.39176" lon="2.39286">
        <ele>64.82</ele>
        <time>2024-06-13T12:04:59.605Z</time>
      </trkpt>
      <trkpt lat="48.39177" lon="2.39289">
        <ele>64.82</ele>
        <time>2024-06-13T12:05:06.389Z</time>
      </trkpt>
      <trkpt lat="48.39186" lon="2.39312">
        <ele>64.81</ele>
        <time>2024-06-13T12:05:13.176Z</time>
      </trkpt>
      <trkpt lat="48.3919" lon="2.39324">
        <ele>64.75</ele>
        <time>2024-06-13T12:05:19.965Z</time>
      </trkpt>
      <trkpt lat="48.39197" lon="2.39341">
        <ele>64.7</ele>
        <time>2024-06-13T12:05:26.756Z</time>
      </trkpt>
      <trkpt lat="48.39208" lon="2.3937">
        <ele>64.7</ele>
        <time>2024-06-13T12:05:33.550Z</time>
      </trkpt>
      <trkpt lat="48.39227" lon="2.39422">
        <ele>64.84</ele>
        <time>2024-06-13T12:05:40.351Z</time>
      </trkpt>
      <trkpt lat="48.39231" lon="2.39432">
        <ele>64.88</ele>
        <time>2024-06-13T12:05:47.153Z</time>
      </trkpt>
      <trkpt lat="48.39251" lon="2.39478">
        <ele>65.1</ele>
        <time>2024-06-13T12:05:53.961Z</time>
      </trkpt>
      <trkpt lat="48.39255" lon="2.39488">
        <ele>65.03</ele>
        <time>2024-06-13T12:06:00.770Z</time>
      </trkpt>
      <trkpt lat="48.39265" lon="2.39503">
        <ele>64.91</ele>
        <time>2024-06-13T12:06:07.581Z</time>
      </trkpt>
      <trkpt lat="48.39279" lon="2.39521">
        <ele>64.77</ele>
        <time>2024-06-13T12:06:14.395Z</time>
      </trkpt>
      <trkpt lat="48.39281" lon="2.39523">
        <ele>64.75</ele>
        <time>2024-06-13T12:06:21.210Z</time>
      </trkpt>
      <trkpt lat="48.39289" lon="2.39526">
        <ele>64.69</ele>
        <time>2024-06-13T12:06:28.026Z</time>
      </trkpt>
      <trkpt lat="48.39296" lon="2.39523">
        <ele>64.64</ele>
        <time>2024-06-13T12:06:34.843Z</time>
      </trkpt>
      <trkpt lat="48.39303" lon="2.3952">
        <ele>64.57</ele>
        <time>2024-06-13T12:06:41.661Z</time>
      </trkpt>
      <trkpt lat="48.3929" lon="2.39472">
        <ele>64.26</ele>
        <time>2024-06-13T12:06:48.485Z</time>
      </trkpt>
      <trkpt lat="48.39277" lon="2.39429">
        <ele>63.94</ele>
        <time>2024-06-13T12:06:55.314Z</time>
      </trkpt>
      <trkpt lat="48.39272" lon="2.39411">
        <ele>63.82</ele>
        <time>2024-06-13T12:07:02.145Z</time>
      </trkpt>
      <trkpt lat="48.3926" lon="2.39368">
        <ele>63.68</ele>
        <time>2024-06-13T12:07:08.981Z</time>
      </trkpt>
      <trkpt lat="48.39259" lon="2.39361">
        <ele>63.66</ele>
        <time>2024-06-13T12:07:15.818Z</time>
      </trkpt>
      <trkpt lat="48.39254" lon="2.39339">
        <ele>63.56</ele>
        <time>2024-06-13T12:07:22.657Z</time>
      </trkpt>
      <trkpt lat="48.39253" lon="2.39329">
        <ele>63.53</ele>
        <time>2024-06-13T12:07:29.497Z</time>
      </trkpt>
      <trkpt lat="48.39249" lon="2.39295">
        <ele>63.42</ele>
        <time>2024-06-13T12:07:36.341Z</time>
      </trkpt>
      <trkpt lat="48.39246" lon="2.39272">
        <ele>63.35</ele>
        <time>2024-06-13T12:07:43.187Z</time>
      </trkpt>
      <trkpt lat="48.39245" lon="2.39261">
        <ele>63.33</ele>
        <time>2024-06-13T12:07:50.035Z</time>
      </trkpt>
      <trkpt lat="48.39245" lon="2.3925">
        <ele>63.32</ele>
        <time>2024-06-13T12:07:56.884Z</time>
      </trkpt>
      <trkpt lat="48.39244" lon="2.39239">
        <ele>63.28</ele>
        <time>2024-06-13T12:08:03.734Z</time>
      </trkpt>
      <trkpt lat="48.39244" lon="2.39234">
        <ele>63.32</ele>
        <time>2024-06-13T12:08:10.584Z</time>
      </trkpt>
      <trkpt lat="48.39244" lon="2.3923">
        <ele>63.35</ele>
        <time>2024-06-13T12:08:17.435Z</time>
      </trkpt>
      <trkpt lat="48.39244" lon="2.39228">
        <ele>63.34</ele>
        <time>2024-06-13T12:08:24.286Z</time>
      </trkpt>
      <trkpt lat="48.39248" lon="2.39223">
        <ele>63.32</ele>
        <time>2024-06-13T12:08:31.138Z</time>
      </trkpt>
      <trkpt lat="48.3925" lon="2.39183">
        <ele>63.22</ele>
        <time>2024-06-13T12:08:37.994Z</time>
      </trkpt>
      <trkpt lat="48.3925" lon="2.39146">
        <ele>63.13</ele>
        <time>2024-06-13T12:08:44.854Z</time>
      </trkpt>
      <trkpt lat="48.39252" lon="2.39133">
        <ele>63.1</ele>
        <time>2024-06-13T12:08:51.716Z</time>
      </trkpt>
      <trkpt lat="48.39259" lon="2.39098">
        <ele>63.12</ele>
        <time>2024-06-13T12:08:58.581Z</time>
      </trkpt>
      <trkpt lat="48.39262" lon="2.39098">
        <ele>63.13</ele>
        <time>2024-06-13T12:09:05.447Z</time>
      </trkpt>
      <trkpt lat="48.39266" lon="2.39098">
        <ele>63.1</ele>
        <time>2024-06-13T12:09:12.314Z</time>
      </trkpt>
      <trkpt lat="48.39267" lon="2.39094">
        <ele>63.08</ele>
        <time>2024-06-13T12:09:19.181Z</time>
      </trkpt>
      <trkpt lat="48.39268" lon="2.39083">
        <ele>63.03</ele>
        <time>2024-06-13T12:09:26.049Z</time>
      </trkpt>
      <trkpt lat="48.39265" lon="2.3907">
        <ele>62.97</ele>
        <time>2024-06-13T12:09:32.919Z</time>
      </trkpt>
      <trkpt lat="48.39267" lon="2.39058">
        <ele>62.92</ele>
        <time>2024-06-13T12:09:39.790Z</time>
      </trkpt>
      <trkpt lat="48.39272" lon="2.39033">
        <ele>62.85</ele>
        <time>2024-06-13T12:09:46.664Z</time>
      </trkpt>
      <trkpt lat="48.39281" lon="2.38987">
        <ele>62.69</ele>
        <time>2024-06-13T12:09:53.543Z</time>
      </trkpt>
      <trkpt lat="48.39292" lon="2.38935">
        <ele>62.53</ele>
        <time>2024-06-13T12:10:00.428Z</time>
      </trkpt>
      <trkpt lat="48.39298" lon="2.38903">
        <ele>62.45</ele>
        <time>2024-06-13T12:10:07.316Z</time>
      </trkpt>
      <trkpt lat="48.39302" lon="2.38884">
        <ele>62.46</ele>
        <time>2024-06-13T12:10:14.206Z</time>
      </trkpt>
      <trkpt lat="48.39308" lon="2.38851">
        <ele>62.53</ele>
        <time>2024-06-13T12:10:21.100Z</time>
      </trkpt>
      <trkpt lat="48.39313" lon="2.38826">
        <ele>62.62</ele>
        <time>2024-06-13T12:10:27.997Z</time>
      </trkpt>
      <trkpt lat="48.39316" lon="2.38813">
        <ele>62.64</ele>
        <time>2024-06-13T12:10:34.895Z</time>
      </trkpt>
      <trkpt lat="48.39331" lon="2.38735">
        <ele>62.52</ele>
        <time>2024-06-13T12:10:41.802Z</time>
      </trkpt>
      <trkpt lat="48.39338" lon="2.38701">
        <ele>62.54</ele>
        <time>2024-06-13T12:10:48.713Z</time>
      </trkpt>
      <trkpt lat="48.39352" lon="2.38653">
        <ele>62.59</ele>
        <time>2024-06-13T12:10:55.629Z</time>
      </trkpt>
      <trkpt lat="48.39356" lon="2.38641">
        <ele>62.57</ele>
        <time>2024-06-13T12:11:02.547Z</time>
      </trkpt>
      <trkpt lat="48.39366" lon="2.38607">
        <ele>62.46</ele>
        <time>2024-06-13T12:11:09.469Z</time>
      </trkpt>
      <trkpt lat="48.39367" lon="2.38604">
        <ele>62.45</ele>
        <time>2024-06-13T12:11:16.391Z</time>
      </trkpt>
      <trkpt lat="48.39381" lon="2.38562">
        <ele>62.38</ele>
        <time>2024-06-13T12:11:23.318Z</time>
      </trkpt>
      <trkpt lat="48.39388" lon="2.38542">
        <ele>62.36</ele>
        <time>2024-06-13T12:11:30.247Z</time>
      </trkpt>
      <trkpt lat="48.3939" lon="2.38538">
        <ele>62.36</ele>
        <time>2024-06-13T12:11:37.177Z</time>
      </trkpt>
      <trkpt lat="48.39394" lon="2.3853">
        <ele>62.38</ele>
        <time>2024-06-13T12:11:44.108Z</time>
      </trkpt>
      <trkpt lat="48.39396" lon="2.38521">
        <ele>62.4</ele>
        <time>2024-06-13T12:11:51.040Z</time>
      </trkpt>
      <trkpt lat="48.39398" lon="2.38515">
        <ele>62.42</ele>
        <time>2024-06-13T12:11:57.973Z</time>
      </trkpt>
      <trkpt lat="48.39412" lon="2.38482">
        <ele>62.64</ele>
        <time>2024-06-13T12:12:04.910Z</time>
      </trkpt>
      <trkpt lat="48.39416" lon="2.38473">
        <ele>62.67</ele>
        <time>2024-06-13T12:12:11.848Z</time>
      </trkpt>
      <trkpt lat="48.39419" lon="2.38464">
        <ele>62.71</ele>
        <time>2024-06-13T12:12:18.787Z</time>
      </trkpt>
      <trkpt lat="48.39422" lon="2.38455">
        <ele>62.69</ele>
        <time>2024-06-13T12:12:25.727Z</time>
      </trkpt>
      <trkpt lat="48.39426" lon="2.38433">
        <ele>62.65</ele>
        <time>2024-06-13T12:12:32.670Z</time>
      </trkpt>
      <trkpt lat="48.39427" lon="2.3843">
        <ele>62.65</ele>
        <time>2024-06-13T12:12:39.613Z</time>
      </trkpt>
      <trkpt lat="48.39428" lon="2.38419">
        <ele>62.65</ele>
        <time>2024-06-13T12:12:46.557Z</time>
      </trkpt>
      <trkpt lat="48.39432" lon="2.38379">
        <ele>62.77</ele>
        <time>2024-06-13T12:12:53.506Z</time>
      </trkpt>
      <trkpt lat="48.39434" lon="2.38352">
        <ele>62.8</ele>
        <time>2024-06-13T12:13:00.457Z</time>
      </trkpt>
      <trkpt lat="48.39435" lon="2.38342">
        <ele>62.74</ele>
        <time>2024-06-13T12:13:07.410Z</time>
      </trkpt>
      <trkpt lat="48.39435" lon="2.38334">
        <ele>62.71</ele>
        <time>2024-06-13T12:13:14.363Z</time>
      </trkpt>
      <trkpt lat="48.39435" lon="2.38316">
        <ele>62.51</ele>
        <time>2024-06-13T12:13:21.318Z</time>
      </trkpt>
      <trkpt lat="48.39435" lon="2.3831">
        <ele>62.2</ele>
        <time>2024-06-13T12:13:28.274Z</time>
      </trkpt>
      <trkpt lat="48.39435" lon="2.38306">
        <ele>62.18</ele>
        <time>2024-06-13T12:13:35.230Z</time>
      </trkpt>
      <trkpt lat="48.3943" lon="2.38305">
        <ele>62.16</ele>
        <time>2024-06-13T12:13:42.187Z</time>
      </trkpt>
      <trkpt lat="48.39429" lon="2.38255">
        <ele>62.03</ele>
        <time>2024-06-13T12:13:49.149Z</time>
      </trkpt>
      <trkpt lat="48.39429" lon="2.38244">
        <ele>62.03</ele>
        <time>2024-06-13T12:13:56.113Z</time>
      </trkpt>
      <trkpt lat="48.39428" lon="2.3823">
        <ele>62.04</ele>
        <time>2024-06-13T12:14:03.078Z</time>
      </trkpt>
      <trkpt lat="48.39424" lon="2.38179">
        <ele>62.16</ele>
        <time>2024-06-13T12:14:10.049Z</time>
      </trkpt>
      <trkpt lat="48.39422" lon="2.38146">
        <ele>62.29</ele>
        <time>2024-06-13T12:14:17.023Z</time>
      </trkpt>
      <trkpt lat="48.3942" lon="2.38119">
        <ele>62.5</ele>
        <time>2024-06-13T12:14:24.000Z</time>
      </trkpt>
      <trkpt lat="48.39419" lon="2.38108">
        <ele>62.56</ele>
        <time>2024-06-13T12:14:30.978Z</time>
      </trkpt>
      <trkpt lat="48.39417" lon="2.38108">
        <ele>62.58</ele>
        <time>2024-06-13T12:14:37.957Z</time>
      </trkpt>
      <trkpt lat="48.39412" lon="2.38108">
        <ele>62.61</ele>
        <time>2024-06-13T12:14:44.936Z</time>
      </trkpt>
      <trkpt lat="48.39411" lon="2.38103">
        <ele>62.64</ele>
        <time>2024-06-13T12:14:51.916Z</time>
      </trkpt>
      <trkpt lat="48.39407" lon="2.38074">
        <ele>62.67</ele>
        <time>2024-06-13T12:14:58.899Z</time>
      </trkpt>
      <trkpt lat="48.39388" lon="2.38068">
        <ele>62.7</ele>
        <time>2024-06-13T12:15:05.885Z</time>
      </trkpt>
      <trkpt lat="48.3938" lon="2.38066">
        <ele>62.72</ele>
        <time>2024-06-13T12:15:12.873Z</time>
      </trkpt>
      <trkpt lat="48.3936" lon="2.38049">
        <ele>62.81</ele>
        <time>2024-06-13T12:15:19.864Z</time>
      </trkpt>
      <trkpt lat="48.39358" lon="2.38047">
        <ele>62.82</ele>
        <time>2024-06-13T12:15:26.856Z</time>
      </trkpt>
      <trkpt lat="48.39351" lon="2.38037">
        <ele>62.9</ele>
        <time>2024-06-13T12:15:33.849Z</time>
      </trkpt>
      <trkpt lat="48.3935" lon="2.38036">
        <ele>62.91</ele>
        <time>2024-06-13T12:15:40.842Z</time>
      </trkpt>
      <trkpt lat="48.39338" lon="2.38027">
        <ele>63.12</ele>
        <time>2024-06-13T12:15:47.837Z</time>
      </trkpt>
      <trkpt lat="48.39331" lon="2.38021">
        <ele>63.33</ele>
        <time>2024-06-13T12:15:54.834Z</time>
      </trkpt>
      <trkpt lat="48.39327" lon="2.38018">
        <ele>63.46</ele>
        <time>2024-06-13T12:16:01.832Z</time>
      </trkpt>
      <trkpt lat="48.39323" lon="2.38015">
        <ele>63.62</ele>
        <time>2024-06-13T12:16:08.830Z</time>
      </trkpt>
      <trkpt lat="48.39316" lon="2.38009">
        <ele>63.99</ele>
        <time>2024-06-13T12:16:15.829Z</time>
      </trkpt>
      <trkpt lat="48.39315" lon="2.38009">
        <ele>63.99</ele>
        <time>2024-06-13T12:16:22.829Z</time>
      </trkpt>
      <trkpt lat="48.39309" lon="2.38009">
        <ele>63.97</ele>
        <time>2024-06-13T12:16:29.830Z</time>
      </trkpt>
      <trkpt lat="48.3931" lon="2.37992">
        <ele>63.94</ele>
        <time>2024-06-13T12:16:36.832Z</time>
      </trkpt>
      <trkpt lat="48.39311" lon="2.37979">
        <ele>63.95</ele>
        <time>2024-06-13T12:16:43.836Z</time>
      </trkpt>
      <trkpt lat="48.39312" lon="2.3796">
        <ele>64.03</ele>
        <time>2024-06-13T12:16:50.842Z</time>
      </trkpt>
      <trkpt lat="48.39313" lon="2.37941">
        <ele>64.16</ele>
        <time>2024-06-13T12:16:57.850Z</time>
      </trkpt>
      <trkpt lat="48.39314" lon="2.37934">
        <ele>64.21</ele>
        <time>2024-06-13T12:17:04.859Z</time>
      </trkpt>
      <trkpt lat="48.39316" lon="2.37921">
        <ele>64.34</ele>
        <time>2024-06-13T12:17:11.869Z</time>
      </trkpt>
      <trkpt lat="48.39319" lon="2.37902">
        <ele>64.61</ele>
        <time>2024-06-13T12:17:18.881Z</time>
      </trkpt>
      <trkpt lat="48.39322" lon="2.37883">
        <ele>64.93</ele>
        <time>2024-06-13T12:17:25.895Z</time>
      </trkpt>
      <trkpt lat="48.39326" lon="2.37861">
        <ele>65.34</ele>
        <time>2024-06-13T12:17:32.912Z</time>
      </trkpt>
      <trkpt lat="48.39327" lon="2.37852">
        <ele>65.52</ele>
        <time>2024-06-13T12:17:39.930Z</time>
      </trkpt>
      <trkpt lat="48.39327" lon="2.37843">
        <ele>65.5</ele>
        <time>2024-06-13T12:17:46.949Z</time>
      </trkpt>
      <trkpt lat="48.3932" lon="2.37848">
        <ele>65.49</ele>
        <time>2024-06-13T12:17:53.969Z</time>
      </trkpt>
      <trkpt lat="48.39318" lon="2.37849">
        <ele>65.47</ele>
        <time>2024-06-13T12:18:00.989Z</time>
      </trkpt>
      <trkpt lat="48.39307" lon="2.37853">
        <ele>65.37</ele>
        <time>2024-06-13T12:18:08.011Z</time>
      </trkpt>
      <trkpt lat="48.39294" lon="2.37853">
        <ele>65.27</ele>
        <time>2024-06-13T12:18:15.035Z</time>
      </trkpt>
      <trkpt lat="48.39263" lon="2.37852">
        <ele>65.07</ele>
        <time>2024-06-13T12:18:22.064Z</time>
      </trkpt>
      <trkpt lat="48.3925" lon="2.37851">
        <ele>65.05</ele>
        <time>2024-06-13T12:18:29.095Z</time>
      </trkpt>
      <trkpt lat="48.39228" lon="2.37851">
        <ele>65.1</ele>
        <time>2024-06-13T12:18:36.130Z</time>
      </trkpt>
      <trkpt lat="48.3921" lon="2.3785">
        <ele>64.94</ele>
        <time>2024-06-13T12:18:43.168Z</time>
      </trkpt>
      <trkpt lat="48.39201" lon="2.3785">
        <ele>64.9</ele>
        <time>2024-06-13T12:18:50.207Z</time>
      </trkpt>
      <trkpt lat="48.39192" lon="2.37849">
        <ele>64.93</ele>
        <time>2024-06-13T12:18:57.247Z</time>
      </trkpt>
      <trkpt lat="48.39187" lon="2.37849">
        <ele>64.98</ele>
        <time>2024-06-13T12:19:04.288Z</time>
      </trkpt>
      <trkpt lat="48.39178" lon="2.37849">
        <ele>65.12</ele>
        <time>2024-06-13T12:19:11.331Z</time>
      </trkpt>
      <trkpt lat="48.39169" lon="2.37849">
        <ele>65.3</ele>
        <time>2024-06-13T12:19:18.375Z</time>
      </trkpt>
      <trkpt lat="48.3916" lon="2.37848">
        <ele>65.51</ele>
        <time>2024-06-13T12:19:25.420Z</time>
      </trkpt>
      <trkpt lat="48.39147" lon="2.37848">
        <ele>65.87</ele>
        <time>2024-06-13T12:19:32.468Z</time>
      </trkpt>
      <trkpt lat="48.39142" lon="2.37848">
        <ele>66.02</ele>
        <time>2024-06-13T12:19:39.516Z</time>
      </trkpt>
      <trkpt lat="48.39138" lon="2.37848">
        <ele>66.2</ele>
        <time>2024-06-13T12:19:46.565Z</time>
      </trkpt>
      <trkpt lat="48.39129" lon="2.37847">
        <ele>66.6</ele>
        <time>2024-06-13T12:19:53.615Z</time>
      </trkpt>
      <trkpt lat="48.3912" lon="2.37847">
        <ele>67.04</ele>
        <time>2024-06-13T12:20:00.667Z</time>
      </trkpt>
      <trkpt lat="48.39114" lon="2.37847">
        <ele>67.12</ele>
        <time>2024-06-13T12:20:07.720Z</time>
      </trkpt>
      <trkpt lat="48.3911" lon="2.37856">
        <ele>67.24</ele>
        <time>2024-06-13T12:20:14.774Z</time>
      </trkpt>
      <trkpt lat="48.39104" lon="2.37867">
        <ele>67.3</ele>
        <time>2024-06-13T12:20:21.830Z</time>
      </trkpt>
      <trkpt lat="48.39101" lon="2.37873">
        <ele>67.29</ele>
        <time>2024-06-13T12:20:28.886Z</time>
      </trkpt>
      <trkpt lat="48.39098" lon="2.37877">
        <ele>67.29</ele>
        <time>2024-06-13T12:20:35.943Z</time>
      </trkpt>
      <trkpt lat="48.39092" lon="2.37884">
        <ele>67.22</ele>
        <time>2024-06-13T12:20:43.001Z</time>
      </trkpt>
      <trkpt lat="48.39091" lon="2.37885">
        <ele>67.21</ele>
        <time>2024-06-13T12:20:50.059Z</time>
      </trkpt>
      <trkpt lat="48.39083" lon="2.37891">
        <ele>67.06</ele>
        <time>2024-06-13T12:20:57.119Z</time>
      </trkpt>
      <trkpt lat="48.39055" lon="2.37913">
        <ele>66.45</ele>
        <time>2024-06-13T12:21:04.184Z</time>
      </trkpt>
      <trkpt lat="48.39043" lon="2.37922">
        <ele>66.14</ele>
        <time>2024-06-13T12:21:11.251Z</time>
      </trkpt>
      <trkpt lat="48.39023" lon="2.37938">
        <ele>65.67</ele>
        <time>2024-06-13T12:21:18.322Z</time>
      </trkpt>
      <trkpt lat="48.39" lon="2.37956">
        <ele>64.98</ele>
        <time>2024-06-13T12:21:25.397Z</time>
      </trkpt>
      <trkpt lat="48.38999" lon="2.37956">
        <ele>64.98</ele>
        <time>2024-06-13T12:21:32.472Z</time>
      </trkpt>
      <trkpt lat="48.38991" lon="2.3796">
        <ele>64.78</ele>
        <time>2024-06-13T12:21:39.548Z</time>
      </trkpt>
      <trkpt lat="48.38988" lon="2.37961">
        <ele>64.72</ele>
        <time>2024-06-13T12:21:46.625Z</time>
      </trkpt>
      <trkpt lat="48.38977" lon="2.37963">
        <ele>64.54</ele>
        <time>2024-06-13T12:21:53.704Z</time>
      </trkpt>
      <trkpt lat="48.38975" lon="2.37964">
        <ele>64.5</ele>
        <time>2024-06-13T12:22:00.783Z</time>
      </trkpt>
      <trkpt lat="48.38969" lon="2.37964">
        <ele>64.4</ele>
        <time>2024-06-13T12:22:07.863Z</time>
      </trkpt>
      <trkpt lat="48.38962" lon="2.37964">
        <ele>64.33</ele>
        <time>2024-06-13T12:22:14.944Z</time>
      </trkpt>
      <trkpt lat="48.3896" lon="2.37963">
        <ele>64.31</ele>
        <time>2024-06-13T12:22:22.025Z</time>
      </trkpt>
      <trkpt lat="48.38933" lon="2.37955">
        <ele>64.14</ele>
        <time>2024-06-13T12:22:29.111Z</time>
      </trkpt>
      <trkpt lat="48.38932" lon="2.37955">
        <ele>64.13</ele>
        <time>2024-06-13T12:22:36.197Z</time>
      </trkpt>
      <trkpt lat="48.38925" lon="2.3795">
        <ele>64.1</ele>
        <time>2024-06-13T12:22:43.284Z</time>
      </trkpt>
      <trkpt lat="48.38921" lon="2.37947">
        <ele>64.1</ele>
        <time>2024-06-13T12:22:50.372Z</time>
      </trkpt>
      <trkpt lat="48.38908" lon="2.37934">
        <ele>64.1</ele>
        <time>2024-06-13T12:22:57.462Z</time>
      </trkpt>
      <trkpt lat="48.38906" lon="2.37932">
        <ele>64.11</ele>
        <time>2024-06-13T12:23:04.553Z</time>
      </trkpt>
      <trkpt lat="48.38878" lon="2.37898">
        <ele>64.24</ele>
        <time>2024-06-13T12:23:11.649Z</time>
      </trkpt>
      <trkpt lat="48.38868" lon="2.37885">
        <ele>64.3</ele>
        <time>2024-06-13T12:23:18.748Z</time>
      </trkpt>
      <trkpt lat="48.3886" lon="2.37875">
        <ele>64.39</ele>
        <time>2024-06-13T12:23:25.848Z</time>
      </trkpt>
      <trkpt lat="48.38857" lon="2.37873">
        <ele>64.42</ele>
        <time>2024-06-13T12:23:32.949Z</time>
      </trkpt>
      <trkpt lat="48.3885" lon="2.37867">
        <ele>64.45</ele>
        <time>2024-06-13T12:23:40.051Z</time>
      </trkpt>
      <trkpt lat="48.38849" lon="2.37867">
        <ele>64.45</ele>
        <time>2024-06-13T12:23:47.153Z</time>
      </trkpt>
      <trkpt lat="48.38827" lon="2.37859">
        <ele>64.4</ele>
        <time>2024-06-13T12:23:54.259Z</time>
      </trkpt>
      <trkpt lat="48.38818" lon="2.37856">
        <ele>64.35</ele>
        <time>2024-06-13T12:24:01.366Z</time>
      </trkpt>
      <trkpt lat="48.38801" lon="2.37854">
        <ele>64.28</ele>
        <time>2024-06-13T12:24:08.476Z</time>
      </trkpt>
      <trkpt lat="48.3879" lon="2.37852">
        <ele>64.24</ele>
        <time>2024-06-13T12:24:15.588Z</time>
      </trkpt>
      <trkpt lat="48.38774" lon="2.37853">
        <ele>64.19</ele>
        <time>2024-06-13T12:24:22.702Z</time>
      </trkpt>
      <trkpt lat="48.38756" lon="2.37856">
        <ele>64.13</ele>
        <time>2024-06-13T12:24:29.819Z</time>
      </trkpt>
      <trkpt lat="48.38747" lon="2.37858">
        <ele>64.11</ele>
        <time>2024-06-13T12:24:36.938Z</time>
      </trkpt>
      <trkpt lat="48.38734" lon="2.3786">
        <ele>64.14</ele>
        <time>2024-06-13T12:24:44.059Z</time>
      </trkpt>
      <trkpt lat="48.38716" lon="2.37864">
        <ele>64.3</ele>
        <time>2024-06-13T12:24:51.183Z</time>
      </trkpt>
      <trkpt lat="48.38694" lon="2.37868">
        <ele>64.45</ele>
        <time>2024-06-13T12:24:58.310Z</time>
      </trkpt>
      <trkpt lat="48.38676" lon="2.37871">
        <ele>64.59</ele>
        <time>2024-06-13T12:25:05.440Z</time>
      </trkpt>
      <trkpt lat="48.38654" lon="2.37875">
        <ele>64.73</ele>
        <time>2024-06-13T12:25:12.574Z</time>
      </trkpt>
      <trkpt lat="48.38636" lon="2.37878">
        <ele>64.87</ele>
        <time>2024-06-13T12:25:19.711Z</time>
      </trkpt>
      <trkpt lat="48.38611" lon="2.37883">
        <ele>65.24</ele>
        <time>2024-06-13T12:25:26.852Z</time>
      </trkpt>
      <trkpt lat="48.38609" lon="2.37883">
        <ele>65.27</ele>
        <time>2024-06-13T12:25:33.993Z</time>
      </trkpt>
      <trkpt lat="48.38582" lon="2.3788">
        <ele>65.73</ele>
        <time>2024-06-13T12:25:41.138Z</time>
      </trkpt>
      <trkpt lat="48.38569" lon="2.37879">
        <ele>65.91</ele>
        <time>2024-06-13T12:25:48.286Z</time>
      </trkpt>
      <trkpt lat="48.38553" lon="2.37877">
        <ele>65.93</ele>
        <time>2024-06-13T12:25:55.436Z</time>
      </trkpt>
      <trkpt lat="48.38541" lon="2.37876">
        <ele>65.9</ele>
        <time>2024-06-13T12:26:02.588Z</time>
      </trkpt>
      <trkpt lat="48.38535" lon="2.37875">
        <ele>65.84</ele>
        <time>2024-06-13T12:26:09.741Z</time>
      </trkpt>
      <trkpt lat="48.38528" lon="2.37876">
        <ele>65.78</ele>
        <time>2024-06-13T12:26:16.895Z</time>
      </trkpt>
      <trkpt lat="48.38502" lon="2.37878">
        <ele>65.37</ele>
        <time>2024-06-13T12:26:24.053Z</time>
      </trkpt>
      <trkpt lat="48.38493" lon="2.37879">
        <ele>65.27</ele>
        <time>2024-06-13T12:26:31.213Z</time>
      </trkpt>
      <trkpt lat="48.38486" lon="2.3788">
        <ele>65.23</ele>
        <time>2024-06-13T12:26:38.374Z</time>
      </trkpt>
      <trkpt lat="48.38484" lon="2.3788">
        <ele>65.23</ele>
        <time>2024-06-13T12:26:45.535Z</time>
      </trkpt>
      <trkpt lat="48.38454" lon="2.37879">
        <ele>65.22</ele>
        <time>2024-06-13T12:26:52.701Z</time>
      </trkpt>
      <trkpt lat="48.38448" lon="2.37879">
        <ele>65.22</ele>
        <time>2024-06-13T12:26:59.868Z</time>
      </trkpt>
    </trkseg>
  </trk>
</gpx>